
Distance (Route):
Temperature : 6.5°C
Humidity : 71.4%
Pressure : 768.5hPa| Receiver | Frames | First received | Last received |
|---|---|---|---|
| OM5KV | 1364 | 2026-09-03 23:23:51 | 2026-09-04 01:02:08 |
| PETON7-10 | 278 | 2026-09-03 23:36:38 | 2026-09-04 00:55:52 |
| GYPAP8-17 | 66 | 2026-09-03 23:31:36 | 2026-09-04 00:59:13 |
| OE5DRO-10 | 49 | 2026-09-04 00:07:26 | 2026-09-04 00:45:17 |
| ATIDSZ-14 | 33 | 2026-09-03 23:30:44 | 2026-09-03 23:47:53 |
| OE3OSB-13 | 30 | 2026-09-03 23:38:02 | 2026-09-04 00:07:33 |
| LZ4TU-5 | 30 | 2026-09-04 00:05:03 | 2026-09-04 00:48:54 |
| OE5DXL-15 | 5 | 2026-09-04 00:41:14 | 2026-09-04 00:46:52 |
| OE3JTB-15 | 1 | 2026-09-03 23:54:39 | 2026-09-03 23:54:39 |
| 9A1FER-10 | 1 | 2026-09-04 00:06:31 | 2026-09-04 00:06:31 |
| Receiver | Date | Latitude | Longitude | Direction | Speed | Altitude | Climb | Temperature | Humidity | Pressure | Voltage | Killtimer | Uptime | BKT | XDATA |
|---|---|---|---|---|---|---|---|---|---|---|---|---|---|---|---|
| OM5KV | 2026-09-04 01:02:08 | 46.71838 | 19.66003 | 131° | 35km/h | 2444m | -17.6m/s | 6.5°C | 71.4% | 768.5hPa | 2.6V | 08:15:00 | 00:00:00 | 00:00:00 | |
| OM5KV | 2026-09-04 01:02:06 | 46.71848 | 19.65985 | 123° | 33km/h | 2479m | -17.5m/s | 6.2°C | 71.8% | 765.2hPa | 2.6V | 08:15:00 | 00:00:00 | 00:00:00 | |
| OM5KV | 2026-09-04 01:01:57 | 46.71891 | 19.65900 | 127° | 29km/h | 2639m | -18.6m/s | 4.7°C | 77.7% | 750.4hPa | 2.6V | 08:15:00 | 00:00:00 | 00:00:00 | |
| OM5KV | 2026-09-04 01:01:56 | 46.71896 | 19.65891 | 127° | 33km/h | 2656m | -17.5m/s | 4.6°C | 78.4% | 748.7hPa | 2.6V | 08:15:00 | 00:00:00 | 00:00:00 | |
| OM5KV | 2026-09-04 01:01:50 | 46.71929 | 19.65834 | 138° | 37km/h | 2763m | -17.5m/s | 3.8°C | 75.5% | 739.1hPa | 2.6V | 08:15:00 | 00:00:00 | 00:00:00 | |
| OM5KV | 2026-09-04 01:01:49 | 46.71935 | 19.65825 | 135° | 33km/h | 2781m | -18.7m/s | 3.7°C | 75.4% | 737.4hPa | 2.6V | 08:15:00 | 00:00:00 | 00:00:00 | |
| OM5KV | 2026-09-04 01:01:44 | 46.71966 | 19.65779 | 132° | 33km/h | 2872m | -18.1m/s | 3.4°C | 60.7% | 729.3hPa | 2.6V | 08:16:00 | 00:00:00 | 00:00:00 | |
| OM5KV | 2026-09-04 01:01:43 | 46.71972 | 19.65770 | 130° | 37km/h | 2889m | -18.0m/s | 3.5°C | 51.5% | 727.7hPa | 2.6V | 08:16:00 | 00:00:00 | 00:00:00 | |
| OM5KV | 2026-09-04 01:01:39 | 46.71994 | 19.65727 | 126° | 40km/h | 2961m | -18.5m/s | 4.3°C | 28.3% | 721.5hPa | 2.6V | 08:16:00 | 00:00:00 | 00:00:00 | |
| OM5KV | 2026-09-04 01:01:38 | 46.72000 | 19.65716 | 126° | 37km/h | 2979m | -19.0m/s | 4.2°C | 27.7% | 719.9hPa | 2.6V | 08:16:00 | 00:00:00 | 00:00:00 | |
| OM5KV | 2026-09-04 01:01:34 | 46.72020 | 19.65669 | 127° | 37km/h | 3053m | -18.0m/s | 3.8°C | 26.7% | 713.3hPa | 2.6V | 08:16:00 | 00:00:00 | 00:00:00 | |
| OM5KV | 2026-09-04 01:01:32 | 46.72030 | 19.65647 | 128° | 35km/h | 3090m | -17.8m/s | 3.6°C | 25.7% | 710.1hPa | 2.6V | 08:16:00 | 00:00:00 | 00:00:00 | |
| OM5KV | 2026-09-04 01:01:29 | 46.72047 | 19.65615 | 129° | 35km/h | 3144m | -18.4m/s | 3.3°C | 23.6% | 705.4hPa | 2.6V | 08:16:00 | 00:00:00 | 00:00:00 | |
| OM5KV | 2026-09-04 01:01:25 | 46.72077 | 19.65562 | 134° | 37km/h | 3231m | -18.0m/s | 2.5°C | 23.7% | 697.8hPa | 2.6V | 08:16:00 | 00:00:00 | 00:00:00 | |
| OM5KV | 2026-09-04 01:01:12 | 46.72184 | 19.65444 | 147° | 46km/h | 3453m | -19.0m/s | 0.6°C | 75.4% | 679.5hPa | 2.6V | 08:16:00 | 00:00:00 | 00:00:00 | |
| OM5KV | 2026-09-04 01:01:11 | 46.72193 | 19.65434 | 143° | 46km/h | 3473m | -18.6m/s | 0.4°C | 79.8% | 678.0hPa | 2.6V | 08:16:00 | 00:00:00 | 00:00:00 | |
| OM5KV | 2026-09-04 01:01:09 | 46.72212 | 19.65412 | 142° | 49km/h | 3508m | -18.4m/s | 0.0°C | 83.2% | 674.8hPa | 2.6V | 08:16:00 | 00:00:00 | 00:00:00 | |
| OM5KV | 2026-09-04 01:01:02 | 46.72276 | 19.65339 | 141° | 46km/h | 3637m | -18.2m/s | -0.8°C | 85.1% | 664.0hPa | 2.6V | 08:16:00 | 00:00:00 | 00:00:00 | |
| OM5KV | 2026-09-04 01:01:01 | 46.72285 | 19.65329 | 143° | 46km/h | 3655m | -18.5m/s | -1.0°C | 85.0% | 662.4hPa | 2.6V | 08:16:00 | 00:00:00 | 00:00:00 | |
| OM5KV | 2026-09-04 01:00:56 | 46.72330 | 19.65282 | 142° | 40km/h | 3748m | -19.4m/s | -1.7°C | 91.1% | 654.7hPa | 2.6V | 08:17:00 | 00:00:00 | 00:00:00 | |
| OM5KV | 2026-09-04 01:00:55 | 46.72338 | 19.65273 | 142° | 42km/h | 3767m | -19.2m/s | -1.8°C | 86.7% | 653.1hPa | 2.6V | 08:17:00 | 00:00:00 | 00:00:00 | |
| OM5KV | 2026-09-04 01:00:52 | 46.72364 | 19.65242 | 145° | 46km/h | 3822m | -19.3m/s | -2.2°C | 82.0% | 648.5hPa | 2.6V | 08:17:00 | 00:00:00 | 00:00:00 | |
| OM5KV | 2026-09-04 01:00:50 | 46.72382 | 19.65223 | 141° | 42km/h | 3860m | -19.9m/s | -2.5°C | 79.1% | 645.4hPa | 2.6V | 08:17:00 | 00:00:00 | 00:00:00 | |
| OM5KV | 2026-09-04 01:00:46 | 46.72415 | 19.65179 | 142° | 46km/h | 3936m | -19.3m/s | -3.1°C | 78.9% | 639.2hPa | 2.6V | 08:17:00 | 00:00:00 | 00:00:00 | |
| OM5KV | 2026-09-04 01:00:43 | 46.72440 | 19.65148 | 138° | 44km/h | 3993m | -19.4m/s | -3.6°C | 82.2% | 634.8hPa | 2.6V | 08:17:00 | 00:00:00 | 00:00:00 | |
| OM5KV | 2026-09-04 01:00:42 | 46.72448 | 19.65137 | 138° | 46km/h | 4013m | -19.3m/s | -3.8°C | 83.9% | 633.2hPa | 2.6V | 08:17:00 | 00:00:00 | 00:00:00 | |
| OM5KV | 2026-09-04 01:00:36 | 46.72517 | 19.65058 | 145° | 53km/h | 4143m | -19.2m/s | -4.6°C | 81.9% | 622.7hPa | 2.6V | 08:17:00 | 00:00:00 | 00:00:00 | |
| OM5KV | 2026-09-04 01:00:33 | 46.72539 | 19.65035 | 146° | 51km/h | 4180m | -19.9m/s | -4.9°C | 82.1% | 619.7hPa | 2.6V | 08:17:00 | 00:00:00 | 00:00:00 | |
| OM5KV | 2026-09-04 01:00:30 | 46.72571 | 19.64999 | 143° | 57km/h | 4240m | -19.9m/s | -5.4°C | 81.0% | 615.1hPa | 2.6V | 08:17:00 | 00:00:00 | 00:00:00 | |
| OM5KV | 2026-09-04 01:00:29 | 46.72582 | 19.64986 | 144° | 58km/h | 4259m | -19.9m/s | -5.6°C | 80.7% | 613.6hPa | 2.6V | 08:17:00 | 00:00:00 | 00:00:00 | |
| OM5KV | 2026-09-04 01:00:24 | 46.72638 | 19.64928 | 146° | 55km/h | 4357m | -20.7m/s | -6.6°C | 86.7% | 605.7hPa | 2.6V | 08:17:00 | 00:00:00 | 00:00:00 | |
| OM5KV | 2026-09-04 01:00:23 | 46.72649 | 19.64917 | 148° | 55km/h | 4379m | -20.9m/s | -6.8°C | 86.4% | 604.1hPa | 2.6V | 08:17:00 | 00:00:00 | 00:00:00 | |
| OM5KV | 2026-09-04 01:00:22 | 46.72661 | 19.64905 | 149° | 55km/h | 4400m | -20.9m/s | -7.0°C | 88.9% | 602.5hPa | 2.6V | 08:17:00 | 00:00:00 | 00:00:00 | |
| OM5KV | 2026-09-04 01:00:17 | 46.72729 | 19.64843 | 148° | 53km/h | 4523m | -20.8m/s | -7.8°C | 81.2% | 593.1hPa | 2.6V | 08:17:00 | 00:00:00 | 00:00:00 | |
| OM5KV | 2026-09-04 01:00:11 | 46.72787 | 19.64790 | 148° | 55km/h | 4623m | -20.7m/s | -6.4°C | 28.5% | 585.5hPa | 2.6V | 08:17:00 | 00:00:00 | 00:00:00 | |
| OM5KV | 2026-09-04 01:00:10 | 46.72799 | 19.64780 | 148° | 57km/h | 4643m | -20.6m/s | -6.6°C | 29.2% | 584.0hPa | 2.6V | 08:17:00 | 00:00:00 | 00:00:00 | |
| OM5KV | 2026-09-04 01:00:05 | 46.72860 | 19.64725 | 150° | 58km/h | 4745m | -19.5m/s | -7.6°C | 36.7% | 576.5hPa | 2.6V | 08:18:00 | 00:00:00 | 00:00:00 | |
| OM5KV | 2026-09-04 01:00:04 | 46.72872 | 19.64714 | 151° | 58km/h | 4765m | -19.4m/s | -7.7°C | 38.0% | 575.0hPa | 2.6V | 08:18:00 | 00:00:00 | 00:00:00 | |
| OM5KV | 2026-09-04 00:59:59 | 46.72948 | 19.64645 | 148° | 62km/h | 4882m | -19.9m/s | -8.5°C | 45.5% | 566.2hPa | 2.6V | 08:18:00 | 00:00:00 | 00:00:00 | |
| OM5KV | 2026-09-04 00:59:53 | 46.73014 | 19.64577 | 143° | 62km/h | 4979m | -20.9m/s | -8.7°C | 51.9% | 559.0hPa | 2.6V | 08:18:00 | 00:00:00 | 00:00:00 | |
| OM5KV | 2026-09-04 00:59:48 | 46.73077 | 19.64505 | 144° | 62km/h | 5080m | -21.0m/s | -9.0°C | 54.9% | 551.8hPa | 2.6V | 08:18:00 | 00:00:00 | 00:00:00 | |
| OM5KV | 2026-09-04 00:59:43 | 46.73142 | 19.64436 | 147° | 64km/h | 5183m | -21.0m/s | -9.3°C | 29.2% | 544.7hPa | 2.6V | 08:18:00 | 00:00:00 | 00:00:00 | |
| OM5KV | 2026-09-04 00:59:42 | 46.73155 | 19.64422 | 146° | 64km/h | 5204m | -20.8m/s | -9.3°C | 31.1% | 543.3hPa | 2.6V | 08:18:00 | 00:00:00 | 00:00:00 | |
| OM5KV | 2026-09-04 00:59:37 | 46.73220 | 19.64358 | 147° | 64km/h | 5307m | -19.8m/s | -10.0°C | 37.9% | 536.3hPa | 2.6V | 08:18:00 | 00:00:00 | 00:00:00 | |
| OM5KV | 2026-09-04 00:59:36 | 46.73233 | 19.64345 | 147° | 64km/h | 5326m | -19.7m/s | -10.2°C | 38.9% | 535.0hPa | 2.6V | 08:18:00 | 00:00:00 | 00:00:00 | |
| OM5KV | 2026-09-04 00:59:31 | 46.73299 | 19.64284 | 151° | 60km/h | 5425m | -20.3m/s | -11.2°C | 42.2% | 528.2hPa | 2.6V | 08:18:00 | 00:00:00 | 00:00:00 | |
| OM5KV | 2026-09-04 00:59:30 | 46.73312 | 19.64273 | 152° | 62km/h | 5444m | -19.9m/s | -11.3°C | 42.5% | 526.8hPa | 2.6V | 08:18:00 | 00:00:00 | 00:00:00 | |
| OM5KV | 2026-09-04 00:59:17 | 46.73510 | 19.64106 | 149° | 66km/h | 5712m | -19.9m/s | -14.0°C | 49.8% | 508.0hPa | 2.6V | 08:18:00 | 00:00:00 | 00:00:00 | |
| GYPAP8-17 | 2026-09-04 00:59:13 | 46.73565 | 19.64049 | 144° | 66km/h | 5790m | -20.0m/s | -14.7°C | 49.7% | 502.7hPa | 2.6V | 00:00:00 | 00:00:00 | 00:00:00 | |
| OM5KV | 2026-09-04 00:59:00 | 46.73736 | 19.63881 | 150° | 64km/h | 6028m | -20.1m/s | -16.0°C | 11.7% | 487.4hPa | 2.6V | 08:18:00 | 00:00:00 | 00:00:00 | |
| OM5KV | 2026-09-04 00:58:49 | 46.73915 | 19.63752 | 155° | 69km/h | 6273m | -19.3m/s | -16.6°C | 2.7% | 471.8hPa | 2.6V | 08:18:00 | 00:00:00 | 00:00:00 | |
| OM5KV | 2026-09-04 00:58:47 | 46.73931 | 19.63741 | 158° | 69km/h | 6293m | -19.1m/s | -16.7°C | 2.7% | 470.6hPa | 2.6V | 08:18:00 | 00:00:00 | 00:00:00 | |
| OM5KV | 2026-09-04 00:58:42 | 46.74010 | 19.63686 | 155° | 68km/h | 6389m | -18.9m/s | -16.9°C | 4.4% | 464.7hPa | 2.6V | 08:18:00 | 00:00:00 | 00:00:00 | |
| OM5KV | 2026-09-04 00:58:41 | 46.74026 | 19.63674 | 154° | 73km/h | 6408m | -19.0m/s | -17.1°C | 4.6% | 463.4hPa | 2.6V | 08:18:00 | 00:00:00 | 00:00:00 | |
| OM5KV | 2026-09-04 00:58:35 | 46.74126 | 19.63600 | 155° | 77km/h | 6522m | -18.9m/s | -17.8°C | 8.8% | 456.4hPa | 2.6V | 08:18:00 | 00:00:00 | 00:00:00 | |
| OM5KV | 2026-09-04 00:58:31 | 46.74200 | 19.63547 | 155° | 84km/h | 6600m | -19.5m/s | -18.2°C | 20.8% | 451.9hPa | 2.6V | 08:18:00 | 00:00:00 | 00:00:00 | |
| OM5KV | 2026-09-04 00:58:25 | 46.74323 | 19.63473 | 162° | 93km/h | 6722m | -19.7m/s | -18.8°C | 26.3% | 444.5hPa | 2.6V | 08:18:00 | 00:00:00 | 00:00:00 | |
| OM5KV | 2026-09-04 00:58:20 | 46.74460 | 19.63403 | 163° | 100km/h | 6838m | -19.3m/s | -19.2°C | 37.0% | 437.4hPa | 2.6V | 08:19:00 | 00:00:00 | 00:00:00 | |
| GYPAP8-17 | 2026-09-04 00:58:19 | 46.74460 | 19.63403 | 163° | 100km/h | 6838m | -19.3m/s | -19.2°C | 37.0% | 437.4hPa | 2.6V | 00:00:00 | 00:00:00 | 00:00:00 | |
| OM5KV | 2026-09-04 00:58:14 | 46.74583 | 19.63346 | 162° | 106km/h | 6933m | -19.6m/s | -19.6°C | 48.6% | 431.7hPa | 2.6V | 08:19:00 | 00:00:00 | 00:00:00 | |
| OM5KV | 2026-09-04 00:58:08 | 46.74739 | 19.63268 | 162° | 111km/h | 7049m | -19.3m/s | -20.7°C | 57.4% | 425.1hPa | 2.6V | 08:19:00 | 00:00:00 | 00:00:00 | |
| OM5KV | 2026-09-04 00:58:06 | 46.74822 | 19.63227 | 163° | 119km/h | 7106m | -19.2m/s | -20.9°C | 63.5% | 421.5hPa | 2.6V | 08:19:00 | 00:00:00 | 00:00:00 | |
| OM5KV | 2026-09-04 00:58:03 | 46.74879 | 19.63199 | 162° | 120km/h | 7144m | -19.2m/s | -21.2°C | 67.1% | 419.4hPa | 2.6V | 08:19:00 | 00:00:00 | 00:00:00 | |
| GYPAP8-17 | 2026-09-04 00:57:59 | 46.74997 | 19.63141 | 162° | 124km/h | 7223m | -19.7m/s | -21.6°C | 71.8% | 415.3hPa | 2.6V | 00:00:00 | 00:00:00 | 00:00:00 | |
| OM5KV | 2026-09-04 00:57:58 | 46.75026 | 19.63127 | 163° | 128km/h | 7243m | -19.8m/s | -21.7°C | 71.5% | 414.0hPa | 2.6V | 08:19:00 | 00:00:00 | 00:00:00 | |
| OM5KV | 2026-09-04 00:57:57 | 46.75056 | 19.63112 | 162° | 124km/h | 7263m | -20.0m/s | -21.8°C | 68.8% | 413.0hPa | 2.6V | 08:19:00 | 00:00:00 | 00:00:00 | |
| OM5KV | 2026-09-04 00:57:47 | 46.75364 | 19.62963 | 162° | 131km/h | 7455m | -19.9m/s | -23.3°C | 66.5% | 402.2hPa | 2.6V | 08:19:00 | 00:00:00 | 00:00:00 | |
| OM5KV | 2026-09-04 00:57:41 | 46.75548 | 19.62871 | 162° | 128km/h | 7576m | -19.3m/s | -24.2°C | 64.7% | 395.7hPa | 2.6V | 08:19:00 | 00:00:00 | 00:00:00 | |
| OM5KV | 2026-09-04 00:57:32 | 46.75821 | 19.62739 | 164° | 124km/h | 7749m | -19.4m/s | -25.2°C | 57.7% | 386.4hPa | 2.6V | 08:20:00 | 00:00:00 | 00:00:00 | |
| OM5KV | 2026-09-04 00:57:26 | 46.75999 | 19.62656 | 164° | 122km/h | 7860m | -19.0m/s | -25.9°C | 54.5% | 380.4hPa | 2.6V | 08:20:00 | 00:00:00 | 00:00:00 | |
| OM5KV | 2026-09-04 00:57:20 | 46.76180 | 19.62574 | 163° | 124km/h | 7977m | -19.8m/s | -26.9°C | 55.8% | 374.5hPa | 2.6V | 08:20:00 | 00:00:00 | 00:00:00 | |
| OM5KV | 2026-09-04 00:57:19 | 46.76210 | 19.62560 | 165° | 128km/h | 7997m | -19.9m/s | -27.0°C | 56.0% | 373.3hPa | 2.6V | 08:20:00 | 00:00:00 | 00:00:00 | |
| OM5KV | 2026-09-04 00:57:17 | 46.76271 | 19.62534 | 164° | 128km/h | 8037m | -19.3m/s | -27.3°C | 56.5% | 371.4hPa | 2.6V | 08:20:00 | 00:00:00 | 00:00:00 | |
| OM5KV | 2026-09-04 00:57:14 | 46.76362 | 19.62495 | 164° | 128km/h | 8096m | -19.3m/s | -27.9°C | 56.8% | 368.4hPa | 2.6V | 08:20:00 | 00:00:00 | 00:00:00 | |
| OM5KV | 2026-09-04 00:57:09 | 46.76518 | 19.62432 | 164° | 130km/h | 8194m | -19.9m/s | -28.6°C | 56.0% | 363.4hPa | 2.6V | 08:20:00 | 00:00:00 | 00:00:00 | |
| GYPAP8-17 | 2026-09-04 00:57:08 | 46.76550 | 19.62419 | 166° | 128km/h | 8213m | -19.9m/s | -28.8°C | 56.0% | 362.4hPa | 2.6V | 00:00:00 | 00:00:00 | 00:00:00 | |
| OM5KV | 2026-09-04 00:57:04 | 46.76710 | 19.62361 | 168° | 133km/h | 8313m | -20.2m/s | -29.4°C | 55.1% | 357.6hPa | 2.6V | 08:20:00 | 00:00:00 | 00:00:00 | |
| OM5KV | 2026-09-04 00:57:00 | 46.76808 | 19.62327 | 168° | 133km/h | 8373m | -20.2m/s | -29.9°C | 57.8% | 354.6hPa | 2.6V | 08:20:00 | 00:00:00 | 00:00:00 | |
| OM5KV | 2026-09-04 00:56:57 | 46.76907 | 19.62294 | 168° | 131km/h | 8433m | -19.9m/s | -30.4°C | 60.1% | 351.6hPa | 2.6V | 08:20:00 | 00:00:00 | 00:00:00 | |
| OM5KV | 2026-09-04 00:56:55 | 46.76973 | 19.62271 | 168° | 135km/h | 8472m | -19.8m/s | -30.7°C | 60.9% | 349.8hPa | 2.6V | 08:20:00 | 00:00:00 | 00:00:00 | |
| OM5KV | 2026-09-04 00:56:54 | 46.77006 | 19.62260 | 168° | 133km/h | 8492m | -20.0m/s | -30.9°C | 60.9% | 348.7hPa | 2.6V | 08:20:00 | 00:00:00 | 00:00:00 | |
| OM5KV | 2026-09-04 00:56:49 | 46.77172 | 19.62203 | 168° | 135km/h | 8591m | -20.2m/s | -31.7°C | 61.9% | 343.9hPa | 2.6V | 08:20:00 | 00:00:00 | 00:00:00 | |
| OM5KV | 2026-09-04 00:56:46 | 46.77274 | 19.62169 | 169° | 137km/h | 8650m | -20.0m/s | -32.1°C | 62.8% | 341.1hPa | 2.6V | 08:20:00 | 00:00:00 | 00:00:00 | |
| OM5KV | 2026-09-04 00:56:43 | 46.77378 | 19.62136 | 169° | 139km/h | 8709m | -20.3m/s | -32.6°C | 63.4% | 338.3hPa | 2.6V | 08:20:00 | 00:00:00 | 00:00:00 | |
| OM5KV | 2026-09-04 00:56:40 | 46.77482 | 19.62103 | 169° | 139km/h | 8769m | -20.5m/s | -33.2°C | 63.6% | 335.3hPa | 2.6V | 08:21:00 | 00:00:00 | 00:00:00 | |
| OM5KV | 2026-09-04 00:56:37 | 46.77587 | 19.62071 | 169° | 141km/h | 8829m | -20.2m/s | -33.6°C | 63.2% | 332.5hPa | 2.6V | 08:21:00 | 00:00:00 | 00:00:00 | |
| OM5KV | 2026-09-04 00:56:29 | 46.77873 | 19.61979 | 169° | 146km/h | 8986m | -20.8m/s | -35.1°C | 62.9% | 324.9hPa | 2.6V | 08:21:00 | 00:00:00 | 00:00:00 | |
| OM5KV | 2026-09-04 00:56:26 | 46.77982 | 19.61943 | 168° | 146km/h | 9045m | -21.1m/s | -35.6°C | 60.6% | 322.0hPa | 2.6V | 08:21:00 | 00:00:00 | 00:00:00 | |
| OM5KV | 2026-09-04 00:56:21 | 46.78165 | 19.61884 | 169° | 151km/h | 9147m | -20.2m/s | -36.4°C | 61.2% | 317.5hPa | 2.6V | 08:21:00 | 00:00:00 | 00:00:00 | |
| OM5KV | 2026-09-04 00:56:20 | 46.78203 | 19.61872 | 170° | 150km/h | 9167m | -21.9m/s | -36.6°C | 61.1% | 316.4hPa | 2.6V | 08:21:00 | 00:00:00 | 00:00:00 | |
| OM5KV | 2026-09-04 00:56:15 | 46.78427 | 19.61806 | 170° | 150km/h | 9289m | -21.0m/s | -37.7°C | 58.6% | 310.8hPa | 2.6V | 08:21:00 | 00:00:00 | 00:00:00 | |
| GYPAP8-17 | 2026-09-04 00:56:13 | 46.78466 | 19.61795 | 169° | 150km/h | 9309m | -21.2m/s | -37.9°C | 58.2% | 309.9hPa | 2.6V | 00:00:00 | 00:00:00 | 00:00:00 | |
| OM5KV | 2026-09-04 00:56:02 | 46.78886 | 19.61684 | 173° | 153km/h | 9537m | -21.2m/s | -39.8°C | 54.2% | 300.0hPa | 2.6V | 08:21:00 | 00:00:00 | 00:00:00 | |
| OM5KV | 2026-09-04 00:55:58 | 46.79077 | 19.61644 | 173° | 153km/h | 9644m | -21.2m/s | -40.6°C | 52.6% | 295.4hPa | 2.6V | 08:21:00 | 00:00:00 | 00:00:00 | |
| OM5KV | 2026-09-04 00:55:56 | 46.79116 | 19.61637 | 175° | 153km/h | 9665m | -21.4m/s | -40.8°C | 52.5% | 294.6hPa | 2.6V | 08:21:00 | 00:00:00 | 00:00:00 | |
| PETON7-10 | 2026-09-04 00:55:52 | 46.79309 | 19.61604 | 174° | 161km/h | 9772m | -21.2m/s | -41.7°C | 58.5% | 289.9hPa | 2.6V | 00:00:00 | 02:01:32 | 00:00:00 | |
| OM5KV | 2026-09-04 00:55:50 | 46.79348 | 19.61599 | 175° | 153km/h | 9793m | -21.6m/s | -41.9°C | 52.9% | 289.1hPa | 2.6V | 08:22:00 | 00:00:00 | 00:00:00 | |
| OM5KV | 2026-09-04 00:55:45 | 46.79544 | 19.61572 | 177° | 159km/h | 9901m | -21.4m/s | -42.9°C | 52.1% | 284.5hPa | 2.6V | 08:22:00 | 00:00:00 | 00:00:00 | |
| OM5KV | 2026-09-04 00:55:44 | 46.79584 | 19.61567 | 176° | 157km/h | 9921m | -21.9m/s | -43.0°C | 51.5% | 283.6hPa | 2.6V | 08:22:00 | 00:00:00 | 00:00:00 | |
| OM5KV | 2026-09-04 00:55:39 | 46.79828 | 19.61548 | 178° | 162km/h | 10052m | -21.5m/s | -44.0°C | 49.2% | 278.2hPa | 2.6V | 08:22:00 | 00:00:00 | 00:00:00 | |
| OM5KV | 2026-09-04 00:55:38 | 46.79828 | 19.61548 | 178° | 162km/h | 10052m | -21.5m/s | -44.0°C | 49.2% | 278.2hPa | 2.6V | 08:22:00 | 00:00:00 | 00:00:00 | |
| OM5KV | 2026-09-04 00:55:33 | 46.80034 | 19.61539 | 180° | 166km/h | 10159m | -21.4m/s | -45.0°C | 47.9% | 273.7hPa | 2.6V | 08:22:00 | 00:00:00 | 00:00:00 | |
| OM5KV | 2026-09-04 00:55:28 | 46.80289 | 19.61536 | 181° | 173km/h | 10287m | -21.8m/s | -45.8°C | 45.9% | 268.4hPa | 2.6V | 08:22:00 | 00:00:00 | 00:00:00 | |
| OM5KV | 2026-09-04 00:55:21 | 46.80550 | 19.61539 | 182° | 173km/h | 10421m | -22.5m/s | -46.8°C | 44.9% | 263.2hPa | 2.6V | 08:22:00 | 00:00:00 | 00:00:00 | |
| PETON7-10 | 2026-09-04 00:55:18 | 46.80724 | 19.61539 | 180° | 179km/h | 10513m | -22.3m/s | -47.6°C | 51.8% | 259.7hPa | 2.6V | 00:00:00 | 00:00:00 | 00:00:00 | |
| OM5KV | 2026-09-04 00:55:16 | 46.80813 | 19.61541 | 182° | 173km/h | 10556m | -23.2m/s | -48.0°C | 44.6% | 258.0hPa | 2.6V | 08:22:00 | 00:00:00 | 00:00:00 | |
| OM5KV | 2026-09-04 00:55:10 | 46.81040 | 19.61547 | 183° | 179km/h | 10666m | -22.9m/s | -48.9°C | 42.8% | 253.6hPa | 2.6V | 08:22:00 | 00:00:00 | 00:00:00 | |
| GYPAP8-17 | 2026-09-04 00:55:08 | 46.81132 | 19.61550 | 183° | 183km/h | 10711m | -22.7m/s | -49.3°C | 41.9% | 252.0hPa | 2.6V | 00:00:00 | 00:00:00 | 00:00:00 | |
| OM5KV | 2026-09-04 00:55:05 | 46.81315 | 19.61557 | 182° | 179km/h | 10802m | -22.5m/s | -50.1°C | 40.6% | 248.5hPa | 2.6V | 08:22:00 | 00:00:00 | 00:00:00 | |
| PETON7-10 | 2026-09-04 00:55:03 | 46.81407 | 19.61561 | 183° | 179km/h | 10848m | -22.6m/s | -50.5°C | 47.3% | 246.7hPa | 2.6V | 00:00:00 | 02:00:43 | 00:00:00 | |
| OM5KV | 2026-09-04 00:55:02 | 46.81407 | 19.61561 | 183° | 181km/h | 10848m | -22.7m/s | -50.5°C | 40.4% | 246.8hPa | 2.6V | 08:22:00 | 00:00:00 | 00:00:00 | |
| OM5KV | 2026-09-04 00:54:59 | 46.81544 | 19.61567 | 183° | 179km/h | 10915m | -22.8m/s | -51.1°C | 40.1% | 244.3hPa | 2.6V | 08:23:00 | 00:00:00 | 00:00:00 | |
| OM5KV | 2026-09-04 00:54:56 | 46.81680 | 19.61574 | 183° | 179km/h | 10981m | -23.0m/s | -51.8°C | 40.0% | 241.7hPa | 2.6V | 08:23:00 | 00:00:00 | 00:00:00 | |
| OM5KV | 2026-09-04 00:54:53 | 46.81816 | 19.61580 | 183° | 177km/h | 11050m | -22.7m/s | -52.4°C | 39.9% | 239.2hPa | 2.6V | 08:23:00 | 00:00:00 | 00:00:00 | |
| OM5KV | 2026-09-04 00:54:50 | 46.81952 | 19.61588 | 183° | 177km/h | 11115m | -23.1m/s | -53.0°C | 39.6% | 236.6hPa | 2.6V | 08:23:00 | 00:00:00 | 00:00:00 | |
| OM5KV | 2026-09-04 00:54:48 | 46.82086 | 19.61595 | 183° | 177km/h | 11184m | -23.4m/s | -53.7°C | 39.4% | 234.2hPa | 2.6V | 08:23:00 | 00:00:00 | 00:00:00 | |
| OM5KV | 2026-09-04 00:54:45 | 46.82175 | 19.61600 | 183° | 175km/h | 11229m | -23.4m/s | -54.1°C | 39.2% | 232.7hPa | 2.6V | 08:23:00 | 00:00:00 | 00:00:00 | |
| OM5KV | 2026-09-04 00:54:41 | 46.82353 | 19.61611 | 184° | 177km/h | 11323m | -23.6m/s | -54.9°C | 38.2% | 229.1hPa | 2.6V | 08:23:00 | 00:00:00 | 00:00:00 | |
| OM5KV | 2026-09-04 00:54:40 | 46.82398 | 19.61614 | 183° | 175km/h | 11346m | -23.5m/s | -55.1°C | 38.0% | 228.4hPa | 2.6V | 08:23:00 | 00:00:00 | 00:00:00 | |
| OM5KV | 2026-09-04 00:54:35 | 46.82619 | 19.61628 | 184° | 172km/h | 11461m | -23.9m/s | -56.0°C | 37.5% | 224.3hPa | 2.6V | 08:23:00 | 00:00:00 | 00:00:00 | |
| PETON7-10 | 2026-09-04 00:54:33 | 46.82750 | 19.61640 | 184° | 159km/h | 11533m | -23.9m/s | -56.6°C | 46.3% | 221.9hPa | 2.6V | 00:00:00 | 00:00:00 | 00:00:00 | |
| OM5KV | 2026-09-04 00:54:30 | 46.82881 | 19.61657 | 185° | 172km/h | 11600m | -24.3m/s | -57.1°C | 37.7% | 219.5hPa | 2.6V | 08:23:00 | 00:00:00 | 00:00:00 | |
| OM5KV | 2026-09-04 00:54:23 | 46.83127 | 19.61686 | 185° | 157km/h | 11748m | -23.8m/s | -58.0°C | 34.0% | 214.5hPa | 2.6V | 08:23:00 | 00:00:00 | 00:00:00 | |
| OM5KV | 2026-09-04 00:54:22 | 46.83167 | 19.61689 | 183° | 150km/h | 11770m | -23.4m/s | -58.1°C | 33.6% | 213.7hPa | 2.6V | 08:23:00 | 00:00:00 | 00:00:00 | |
| OM5KV | 2026-09-04 00:54:21 | 46.83205 | 19.61692 | 183° | 151km/h | 11791m | -23.9m/s | -58.1°C | 32.9% | 213.2hPa | 2.6V | 08:23:00 | 00:00:00 | 00:00:00 | |
| PETON7-10 | 2026-09-04 00:54:18 | 46.83353 | 19.61692 | 179° | 135km/h | 11888m | -23.5m/s | -58.2°C | 36.2% | 209.7hPa | 2.6V | 00:00:00 | 01:59:58 | 00:00:00 | |
| OM5KV | 2026-09-04 00:54:15 | 46.83425 | 19.61688 | 178° | 139km/h | 11932m | -24.2m/s | -58.3°C | 25.9% | 208.4hPa | 2.6V | 08:23:00 | 00:00:00 | 00:00:00 | |
| OM5KV | 2026-09-04 00:54:13 | 46.83527 | 19.61677 | 176° | 135km/h | 12006m | -24.2m/s | -58.5°C | 22.9% | 206.1hPa | 2.6V | 08:23:00 | 00:00:00 | 00:00:00 | |
| OM5KV | 2026-09-04 00:54:10 | 46.83627 | 19.61658 | 172° | 131km/h | 12079m | -23.6m/s | -58.7°C | 20.7% | 203.6hPa | 2.6V | 08:24:00 | 00:00:00 | 00:00:00 | |
| OM5KV | 2026-09-04 00:54:09 | 46.83660 | 19.61650 | 170° | 131km/h | 12102m | -23.2m/s | -58.8°C | 19.8% | 202.7hPa | 2.6V | 08:24:00 | 00:00:00 | 00:00:00 | |
| OM5KV | 2026-09-04 00:54:06 | 46.83726 | 19.61629 | 169° | 133km/h | 12148m | -23.7m/s | -58.7°C | 18.0% | 201.5hPa | 2.6V | 08:24:00 | 00:00:00 | 00:00:00 | |
| GYPAP8-17 | 2026-09-04 00:54:05 | 46.83759 | 19.61618 | 167° | 133km/h | 12171m | -24.2m/s | -58.7°C | 17.2% | 200.6hPa | 2.6V | 08:24:00 | 00:00:00 | 00:00:00 | |
| PETON7-10 | 2026-09-04 00:54:03 | 46.83860 | 19.61583 | 166° | 133km/h | 12240m | -24.2m/s | -59.3°C | 22.0% | 198.2hPa | 2.6V | 00:00:00 | 00:00:00 | 00:00:00 | |
| OM5KV | 2026-09-04 00:54:02 | 46.83860 | 19.61583 | 167° | 135km/h | 12240m | -24.2m/s | -59.4°C | 15.8% | 198.3hPa | 2.6V | 08:24:00 | 00:00:00 | 00:00:00 | |
| OM5KV | 2026-09-04 00:54:01 | 46.83893 | 19.61571 | 167° | 139km/h | 12264m | -24.4m/s | -59.6°C | 15.2% | 197.4hPa | 2.6V | 08:24:00 | 00:00:00 | 00:00:00 | |
| OM5KV | 2026-09-04 00:53:57 | 46.84028 | 19.61523 | 168° | 135km/h | 12362m | -24.5m/s | -60.0°C | 12.2% | 194.6hPa | 2.6V | 08:24:00 | 00:00:00 | 00:00:00 | |
| OM5KV | 2026-09-04 00:53:56 | 46.84095 | 19.61501 | 168° | 135km/h | 12411m | -25.6m/s | -60.0°C | 10.7% | 193.0hPa | 2.6V | 08:24:00 | 00:00:00 | 00:00:00 | |
| OM5KV | 2026-09-04 00:53:52 | 46.84223 | 19.61453 | 166° | 128km/h | 12516m | -25.6m/s | -59.0°C | 7.4% | 189.9hPa | 2.6V | 08:24:00 | 00:00:00 | 00:00:00 | |
| OM5KV | 2026-09-04 00:53:50 | 46.84254 | 19.61442 | 166° | 126km/h | 12542m | -26.2m/s | -58.8°C | 6.8% | 189.1hPa | 2.6V | 08:24:00 | 00:00:00 | 00:00:00 | |
| PETON7-10 | 2026-09-04 00:53:48 | 46.84346 | 19.61403 | 163° | 120km/h | 12618m | -25.3m/s | -58.8°C | 10.1% | 186.9hPa | 2.6V | 00:00:00 | 00:00:00 | 00:00:00 | |
| OM5KV | 2026-09-04 00:53:47 | 46.84377 | 19.61390 | 164° | 126km/h | 12641m | -25.6m/s | -58.8°C | 5.4% | 186.1hPa | 2.6V | 08:24:00 | 00:00:00 | 00:00:00 | |
| OM5KV | 2026-09-04 00:53:44 | 46.84437 | 19.61364 | 163° | 122km/h | 12692m | -25.2m/s | -58.6°C | 4.7% | 184.7hPa | 2.6V | 08:24:00 | 00:00:00 | 00:00:00 | |
| OM5KV | 2026-09-04 00:53:28 | 46.84906 | 19.61164 | 160° | 99km/h | 13132m | -26.6m/s | -57.0°C | 2.5% | 172.2hPa | 2.6V | 08:24:00 | 00:00:00 | 00:00:00 | |
| OM5KV | 2026-09-04 00:53:25 | 46.84952 | 19.61138 | 156° | 93km/h | 13184m | -28.1m/s | -57.1°C | 2.5% | 170.8hPa | 2.6V | 08:24:00 | 00:00:00 | 00:00:00 | |
| OM5KV | 2026-09-04 00:53:21 | 46.85035 | 19.61079 | 155° | 89km/h | 13295m | -27.3m/s | -55.9°C | 2.3% | 167.9hPa | 2.6V | 08:24:00 | 00:00:00 | 00:00:00 | |
| OM5KV | 2026-09-04 00:53:20 | 46.85078 | 19.61051 | 157° | 93km/h | 13347m | -27.1m/s | -55.9°C | 2.2% | 166.7hPa | 2.6V | 08:24:00 | 00:00:00 | 00:00:00 | |
| PETON7-10 | 2026-09-04 00:53:18 | 46.85119 | 19.61023 | 154° | 91km/h | 13401m | -26.9m/s | -56.1°C | 5.5% | 165.2hPa | 2.6V | 08:24:00 | 00:00:00 | 00:00:00 | |
| OM5KV | 2026-09-04 00:53:16 | 46.85140 | 19.61008 | 156° | 91km/h | 13428m | -27.0m/s | -56.0°C | 2.2% | 164.6hPa | 2.6V | 08:24:00 | 00:00:00 | 00:00:00 | |
| OM5KV | 2026-09-04 00:53:15 | 46.85201 | 19.60962 | 153° | 91km/h | 13507m | -27.1m/s | -56.2°C | 2.2% | 162.6hPa | 2.6V | 00:00:00 | 00:00:00 | 00:00:00 | |
| GYPAP8-17 | 2026-09-04 00:53:13 | 46.85221 | 19.60946 | 152° | 88km/h | 13534m | -27.7m/s | -56.2°C | 2.2% | 161.8hPa | 2.6V | 08:24:00 | 00:00:00 | 00:00:00 | |
| OM5KV | 2026-09-04 00:53:10 | 46.85260 | 19.60913 | 151° | 88km/h | 13589m | -27.5m/s | -55.8°C | 2.1% | 160.5hPa | 2.6V | 08:24:00 | 00:00:00 | 00:00:00 | |
| OM5KV | 2026-09-04 00:53:04 | 46.85375 | 19.60803 | 147° | 93km/h | 13750m | -27.9m/s | -54.8°C | 1.9% | 156.3hPa | 2.6V | 08:24:00 | 00:00:00 | 00:00:00 | |
| PETON7-10 | 2026-09-04 00:53:03 | 46.85415 | 19.60766 | 147° | 86km/h | 13803m | -27.8m/s | -54.7°C | 4.8% | 155.0hPa | 2.6V | 00:00:00 | 00:00:00 | 00:00:00 | |
| OM5KV | 2026-09-04 00:52:58 | 46.85490 | 19.60694 | 146° | 91km/h | 13919m | -29.6m/s | -54.5°C | 1.8% | 152.5hPa | 2.6V | 08:24:00 | 00:00:00 | 00:00:00 | |
| OM5KV | 2026-09-04 00:52:52 | 46.85602 | 19.60587 | 149° | 84km/h | 14088m | -27.9m/s | -54.5°C | 1.9% | 148.5hPa | 2.6V | 08:24:00 | 00:00:00 | 00:00:00 | |
| OM5KV | 2026-09-04 00:52:51 | 46.85619 | 19.60572 | 151° | 78km/h | 14114m | -29.0m/s | -54.6°C | 1.9% | 147.6hPa | 2.6V | 08:24:00 | 00:00:00 | 00:00:00 | |
| PETON7-10 | 2026-09-04 00:52:48 | 46.85684 | 19.60510 | 144° | 75km/h | 14226m | -28.3m/s | -55.3°C | 5.2% | 145.0hPa | 2.6V | 00:00:00 | 01:58:28 | 00:00:00 | |
| OM5KV | 2026-09-04 00:52:47 | 46.85684 | 19.60510 | 145° | 71km/h | 14226m | -28.3m/s | -55.3°C | 2.0% | 145.1hPa | 2.6V | 08:24:00 | 00:00:00 | 00:00:00 | |
| OM5KV | 2026-09-04 00:52:42 | 46.85771 | 19.60410 | 143° | 73km/h | 14400m | -28.9m/s | -55.4°C | 2.0% | 141.4hPa | 2.6V | 08:24:00 | 00:00:00 | 00:00:00 | |
| OM5KV | 2026-09-04 00:52:40 | 46.85786 | 19.60392 | 139° | 75km/h | 14429m | -28.4m/s | -55.4°C | 2.0% | 140.5hPa | 2.6V | 08:24:00 | 00:00:00 | 00:00:00 | |
| PETON7-10 | 2026-09-04 00:52:33 | 46.85896 | 19.60241 | 133° | 55km/h | 14662m | -30.1m/s | -53.4°C | 4.5% | 135.6hPa | 2.6V | 00:00:00 | 00:00:00 | 00:00:00 | |
| OM5KV | 2026-09-04 00:52:32 | 46.85908 | 19.60222 | 135° | 66km/h | 14692m | -30.5m/s | -53.5°C | 1.7% | 135.0hPa | 2.5V | 00:00:00 | 00:00:00 | 00:00:00 | |
| OM5KV | 2026-09-04 00:52:31 | 46.85908 | 19.60222 | 135° | 66km/h | 14692m | -30.5m/s | -53.5°C | 1.7% | 135.0hPa | 2.5V | 08:24:00 | 00:00:00 | 00:00:00 | |
| OM5KV | 2026-09-04 00:52:21 | 46.86018 | 19.60064 | 135° | 40km/h | 15023m | -31.3m/s | -52.0°C | 1.5% | 128.2hPa | 2.5V | 08:25:00 | 00:00:00 | 00:00:00 | |
| OM5KV | 2026-09-04 00:52:20 | 46.86025 | 19.60053 | 133° | 40km/h | 15053m | -30.3m/s | -52.1°C | 1.5% | 127.7hPa | 2.5V | 08:25:00 | 00:00:00 | 00:00:00 | |
| GYPAP8-17 | 2026-09-04 00:52:19 | 46.86025 | 19.60053 | 133° | 40km/h | 15053m | -30.3m/s | -52.1°C | 1.5% | 127.7hPa | 2.5V | 00:00:00 | 00:00:00 | 00:00:00 | |
| PETON7-10 | 2026-09-04 00:52:18 | 46.86039 | 19.60033 | 136° | 37km/h | 15114m | -31.3m/s | -52.5°C | 4.0% | 126.6hPa | 2.5V | 00:00:00 | 00:00:00 | 00:00:00 | |
| OM5KV | 2026-09-04 00:52:15 | 46.86056 | 19.60006 | 134° | 35km/h | 15212m | -32.3m/s | -53.0°C | 1.5% | 124.7hPa | 2.5V | 08:25:00 | 00:00:00 | 00:00:00 | |
| OM5KV | 2026-09-04 00:52:14 | 46.86063 | 19.59997 | 142° | 35km/h | 15243m | -32.2m/s | -53.1°C | 1.5% | 124.1hPa | 2.5V | 08:25:00 | 00:00:00 | 00:00:00 | |
| OM5KV | 2026-09-04 00:52:08 | 46.86109 | 19.59951 | 150° | 38km/h | 15432m | -32.1m/s | -53.0°C | 1.5% | 120.5hPa | 2.5V | 08:25:00 | 00:00:00 | 00:00:00 | |
| OM5KV | 2026-09-04 00:52:03 | 46.86144 | 19.59910 | 138° | 37km/h | 15596m | -32.8m/s | -53.8°C | 1.5% | 117.5hPa | 2.5V | 08:25:00 | 00:00:00 | 00:00:00 | |
| OM5KV | 2026-09-04 00:51:57 | 46.86183 | 19.59851 | 126° | 40km/h | 15794m | -33.1m/s | -54.8°C | 1.5% | 114.1hPa | 2.5V | 08:25:00 | 00:00:00 | 00:00:00 | |
| OM5KV | 2026-09-04 00:51:51 | 46.86223 | 19.59776 | 131° | 47km/h | 15999m | -33.5m/s | -55.2°C | 1.5% | 110.5hPa | 2.5V | 08:25:00 | 00:00:00 | 00:00:00 | |
| PETON7-10 | 2026-09-04 00:51:48 | 46.86250 | 19.59740 | 137° | 44km/h | 16097m | -34.1m/s | -55.2°C | 4.5% | 108.6hPa | 2.5V | 00:00:00 | 00:00:00 | 00:00:00 | |
| OM5KV | 2026-09-04 00:51:45 | 46.86274 | 19.59707 | 133° | 44km/h | 16199m | -34.0m/s | -55.5°C | 1.5% | 107.0hPa | 2.5V | 08:25:00 | 00:00:00 | 00:00:00 | |
| OM5KV | 2026-09-04 00:51:44 | 46.86274 | 19.59707 | 133° | 44km/h | 16199m | -34.0m/s | -55.5°C | 1.5% | 107.0hPa | 2.5V | 08:25:00 | 00:00:00 | 00:00:00 | |
| OM5KV | 2026-09-04 00:51:41 | 46.86300 | 19.59658 | 126° | 44km/h | 16335m | -34.2m/s | -56.6°C | 1.6% | 104.7hPa | 2.5V | 08:25:00 | 00:00:00 | 00:00:00 | |
| OM5KV | 2026-09-04 00:51:37 | 46.86320 | 19.59618 | 126° | 47km/h | 16437m | -34.5m/s | -56.8°C | 1.6% | 103.0hPa | 2.5V | 08:25:00 | 00:00:00 | 00:00:00 | |
| OM5KV | 2026-09-04 00:51:35 | 46.86342 | 19.59577 | 129° | 44km/h | 16540m | -35.1m/s | -56.1°C | 1.5% | 101.5hPa | 2.5V | 08:26:00 | 00:00:00 | 00:00:00 | |
| PETON7-10 | 2026-09-04 00:51:33 | 46.86356 | 19.59550 | 128° | 42km/h | 16610m | -35.9m/s | -55.6°C | 4.5% | 100.3hPa | 2.5V | 00:00:00 | 00:00:00 | 00:00:00 | |
| OM5KV | 2026-09-04 00:51:25 | 46.86410 | 19.59447 | 128° | 42km/h | 16893m | -36.3m/s | -55.9°C | 1.5% | 95.9hPa | 2.5V | 08:26:00 | 00:00:00 | 00:00:00 | |
| OM5KV | 2026-09-04 00:51:23 | 46.86416 | 19.59435 | 132° | 42km/h | 16929m | -35.6m/s | -56.0°C | 1.5% | 95.4hPa | 2.5V | 08:26:00 | 00:00:00 | 00:00:00 | |
| PETON7-10 | 2026-09-04 00:51:18 | 46.86460 | 19.59374 | 143° | 44km/h | 17153m | -38.3m/s | -57.1°C | 5.3% | 92.2hPa | 2.5V | 00:00:00 | 01:56:58 | 00:00:00 | |
| OM5KV | 2026-09-04 00:51:15 | 46.86477 | 19.59356 | 143° | 44km/h | 17226m | -35.2m/s | -57.3°C | 1.7% | 91.1hPa | 2.5V | 00:00:00 | 00:00:00 | 00:00:00 | |
| GYPAP8-17 | 2026-09-04 00:51:14 | 46.86494 | 19.59335 | 136° | 44km/h | 17295m | -35.2m/s | -57.1°C | 1.6% | 90.1hPa | 2.5V | 00:00:00 | 00:00:00 | 00:00:00 | |
| OM5KV | 2026-09-04 00:51:11 | 46.86510 | 19.59311 | 131° | 47km/h | 17364m | -36.5m/s | -57.3°C | 1.7% | 89.2hPa | 2.5V | 08:26:00 | 00:00:00 | 00:00:00 | |
| OM5KV | 2026-09-04 00:51:09 | 46.86534 | 19.59271 | 131° | 47km/h | 17473m | -37.2m/s | -55.9°C | 1.5% | 87.6hPa | 2.5V | 08:26:00 | 00:00:00 | 00:00:00 | |
| OM5KV | 2026-09-04 00:51:04 | 46.86575 | 19.59213 | 140° | 38km/h | 17662m | -38.3m/s | -55.0°C | 1.3% | 85.1hPa | 2.5V | 00:00:00 | 00:00:00 | 00:00:00 | |
| OM5KV | 2026-09-04 00:51:03 | 46.86582 | 19.59205 | 139° | 35km/h | 17699m | -39.9m/s | -54.7°C | 1.3% | 84.7hPa | 2.5V | 08:26:00 | 00:00:00 | 00:00:00 | |
| OM5KV | 2026-09-04 00:50:55 | 46.86619 | 19.59151 | 135° | 27km/h | 17969m | -39.6m/s | -53.8°C | 1.2% | 81.2hPa | 2.5V | 08:26:00 | 00:00:00 | 00:00:00 | |
| OM5KV | 2026-09-04 00:50:52 | 46.86632 | 19.59128 | 111° | 24km/h | 18084m | -38.1m/s | -53.1°C | 1.2% | 79.5hPa | 2.5V | 00:00:00 | 00:00:00 | 00:00:00 | |
| OM5KV | 2026-09-04 00:50:51 | 46.86636 | 19.59112 | 103° | 24km/h | 18161m | -39.5m/s | -53.3°C | 1.2% | 78.7hPa | 2.5V | 08:26:00 | 00:00:00 | 00:00:00 | |
| PETON7-10 | 2026-09-04 00:50:48 | 46.86642 | 19.59090 | 102° | 20km/h | 18277m | -39.6m/s | -53.2°C | 3.9% | 77.2hPa | 2.5V | 00:00:00 | 00:00:00 | 00:00:00 | |
| OM5KV | 2026-09-04 00:50:45 | 46.86645 | 19.59075 | 118° | 20km/h | 18357m | -40.2m/s | -53.8°C | 1.2% | 76.4hPa | 2.5V | 08:27:00 | 00:00:00 | 00:00:00 | |
| OM5KV | 2026-09-04 00:50:44 | 46.86647 | 19.59069 | 112° | 16km/h | 18397m | -39.8m/s | -54.1°C | 1.2% | 76.0hPa | 2.5V | 08:27:00 | 00:00:00 | 00:00:00 | |
| OM5KV | 2026-09-04 00:50:39 | 46.86658 | 19.59040 | 126° | 18km/h | 18597m | -40.0m/s | -55.6°C | 1.4% | 73.6hPa | 2.5V | 08:27:00 | 00:00:00 | 00:00:00 | |
| PETON7-10 | 2026-09-04 00:50:33 | 46.86677 | 19.58986 | 116° | 29km/h | 18882m | -41.2m/s | -55.9°C | 5.0% | 70.3hPa | 2.5V | 00:00:00 | 01:56:13 | 00:00:00 | |
| OM5KV | 2026-09-04 00:50:28 | 46.86692 | 19.58949 | 125° | 27km/h | 19051m | -42.5m/s | -54.7°C | 1.3% | 68.5hPa | 2.5V | 08:27:00 | 00:00:00 | 00:00:00 | |
| OM5KV | 2026-09-04 00:50:23 | 46.86710 | 19.58891 | 113° | 33km/h | 19309m | -43.4m/s | -53.6°C | 1.2% | 65.9hPa | 2.5V | 08:27:00 | 00:00:00 | 00:00:00 | |
| OM5KV | 2026-09-04 00:50:21 | 46.86712 | 19.58880 | 116° | 33km/h | 19353m | -43.8m/s | -53.6°C | 1.2% | 65.6hPa | 2.5V | 08:27:00 | 00:00:00 | 00:00:00 | |
| PETON7-10 | 2026-09-04 00:50:18 | 46.86726 | 19.58845 | 129° | 20km/h | 19530m | -43.9m/s | -54.0°C | 4.2% | 63.6hPa | 2.5V | 00:00:00 | 00:00:00 | 00:00:00 | |
| OM5KV | 2026-09-04 00:50:17 | 46.86726 | 19.58845 | 129° | 24km/h | 19530m | -44.0m/s | -54.1°C | 1.2% | 63.7hPa | 2.5V | 08:27:00 | 00:00:00 | 00:00:00 | |
| GYPAP8-17 | 2026-09-04 00:50:16 | 46.86729 | 19.58839 | 131° | 22km/h | 19574m | -44.5m/s | -54.2°C | 1.2% | 63.2hPa | 2.5V | 00:00:00 | 00:00:00 | 00:00:00 | |
| OM5KV | 2026-09-04 00:50:05 | 46.86763 | 19.58775 | 124° | 18km/h | 20063m | -45.8m/s | -54.0°C | 1.2% | 58.6hPa | 2.5V | 08:27:00 | 00:00:00 | 00:00:00 | |
| OM5KV | 2026-09-04 00:50:04 | 46.86766 | 19.58769 | 123° | 16km/h | 20109m | -46.6m/s | -54.0°C | 1.2% | 58.2hPa | 2.5V | 08:27:00 | 00:00:00 | 00:00:00 | |
| PETON7-10 | 2026-09-04 00:50:03 | 46.86771 | 19.58760 | 128° | 7km/h | 20201m | -45.3m/s | -53.9°C | 4.2% | 57.3hPa | 2.5V | 00:00:00 | 00:00:00 | 00:00:00 | |
| OM5KV | 2026-09-04 00:50:01 | 46.86773 | 19.58756 | 126° | 13km/h | 20246m | -45.0m/s | -53.8°C | 1.2% | 57.0hPa | 2.5V | 08:27:00 | 00:00:00 | 00:00:00 | |
| OM5KV | 2026-09-04 00:49:56 | 46.86781 | 19.58746 | 138° | 4km/h | 20522m | -47.1m/s | -53.7°C | 1.1% | 54.6hPa | 2.5V | 08:27:00 | 00:00:00 | 00:00:00 | |
| OM5KV | 2026-09-04 00:49:54 | 46.86782 | 19.58744 | 64° | 4km/h | 20615m | -48.4m/s | -54.2°C | 1.2% | 53.7hPa | 2.5V | 08:28:00 | 00:00:00 | 00:00:00 | |
| OM5KV | 2026-09-04 00:49:51 | 46.86782 | 19.58738 | 92° | 7km/h | 20763m | -48.3m/s | -55.0°C | 1.3% | 52.6hPa | 2.5V | 08:28:00 | 00:00:00 | 00:00:00 | |
| OM5KV | 2026-09-04 00:49:49 | 46.86782 | 19.58729 | 94° | 13km/h | 20861m | -49.9m/s | -54.5°C | 1.2% | 51.8hPa | 2.5V | 08:28:00 | 00:00:00 | 00:00:00 | |
| PETON7-10 | 2026-09-04 00:49:48 | 46.86782 | 19.58725 | 96° | 16km/h | 20912m | -51.2m/s | -54.6°C | 4.4% | 51.4hPa | 2.5V | 00:00:00 | 01:55:28 | 00:00:00 | |
| OM5KV | 2026-09-04 00:49:47 | 46.86782 | 19.58725 | 97° | 15km/h | 20912m | -51.3m/s | -54.7°C | 1.2% | 51.4hPa | 2.5V | 08:28:00 | 00:00:00 | 00:00:00 | |
| OM5KV | 2026-09-04 00:49:44 | 46.86786 | 19.58707 | 114° | 18km/h | 21062m | -50.3m/s | -54.6°C | 1.2% | 50.3hPa | 2.5V | 08:28:00 | 00:00:00 | 00:00:00 | |
| OM5KV | 2026-09-04 00:49:42 | 46.86790 | 19.58694 | 113° | 16km/h | 21162m | -49.4m/s | -54.8°C | 1.3% | 49.4hPa | 2.5V | 08:28:00 | 00:00:00 | 00:00:00 | |
| OM5KV | 2026-09-04 00:49:36 | 46.86801 | 19.58663 | 132° | 16km/h | 21464m | -50.6m/s | -53.8°C | 1.1% | 47.2hPa | 2.5V | 08:28:00 | 00:00:00 | 00:00:00 | |
| PETON7-10 | 2026-09-04 00:49:33 | 46.86810 | 19.58649 | 122° | 11km/h | 21665m | -51.0m/s | -53.9°C | 4.4% | 45.6hPa | 2.5V | 00:00:00 | 00:00:00 | 00:00:00 | |
| GYPAP8-17 | 2026-09-04 00:49:30 | 46.86818 | 19.58642 | 152° | 9km/h | 21817m | -51.9m/s | -53.4°C | 1.1% | 44.7hPa | 2.6V | 00:00:00 | 00:00:00 | 00:00:00 | |
| OM5KV | 2026-09-04 00:49:29 | 46.86818 | 19.58642 | 152° | 9km/h | 21817m | -51.9m/s | -53.4°C | 1.1% | 44.7hPa | 2.6V | 08:28:00 | 00:00:00 | 00:00:00 | |
| OM5KV | 2026-09-04 00:49:28 | 46.86819 | 19.58640 | 157° | 9km/h | 21870m | -53.4m/s | -53.5°C | 1.2% | 44.4hPa | 2.6V | 08:28:00 | 00:00:00 | 00:00:00 | |
| OM5KV | 2026-09-04 00:49:23 | 46.86832 | 19.58634 | 170° | 11km/h | 22132m | -52.3m/s | -53.6°C | 1.2% | 42.5hPa | 2.6V | 08:28:00 | 00:00:00 | 00:00:00 | |
| PETON7-10 | 2026-09-04 00:49:18 | 46.86852 | 19.58639 | 206° | 11km/h | 22450m | -54.0m/s | -52.5°C | 4.0% | 40.5hPa | 2.6V | 00:00:00 | 00:00:00 | 00:00:00 | |
| OM5KV | 2026-09-04 00:49:17 | 46.86852 | 19.58639 | 206° | 15km/h | 22450m | -54.0m/s | -52.6°C | 1.1% | 40.5hPa | 2.6V | 08:28:00 | 00:00:00 | 00:00:00 | |
| OM5KV | 2026-09-04 00:49:16 | 46.86855 | 19.58642 | 214° | 16km/h | 22504m | -54.4m/s | -52.6°C | 1.1% | 40.2hPa | 2.6V | 08:28:00 | 00:00:00 | 00:00:00 | |
| OM5KV | 2026-09-04 00:49:12 | 46.86866 | 19.58658 | 256° | 11km/h | 22777m | -57.4m/s | -52.5°C | 1.1% | 38.5hPa | 2.6V | 08:28:00 | 00:00:00 | 00:00:00 | |
| PETON7-10 | 2026-09-04 00:49:03 | 46.86865 | 19.58686 | 313° | 4km/h | 23286m | -59.2m/s | -52.3°C | 4.1% | 35.6hPa | 2.6V | 00:00:00 | 01:54:43 | 00:00:00 | |
| OM5KV | 2026-09-04 00:49:00 | 46.86863 | 19.58690 | 303° | 5km/h | 23461m | -59.4m/s | -52.6°C | 1.1% | 34.7hPa | 2.6V | 08:29:00 | 00:00:00 | 00:00:00 | |
| OM5KV | 2026-09-04 00:48:59 | 46.86863 | 19.58690 | 303° | 5km/h | 23461m | -59.4m/s | -52.6°C | 1.1% | 34.7hPa | 2.6V | 08:29:00 | 00:00:00 | 00:00:00 | |
| LZ4TU-5 | 2026-09-04 00:48:54 | 46.86862 | 19.58698 | 340° | 4km/h | 23760m | -61.0m/s | -51.6°C | 1.0% | 33.1hPa | 2.6V | 00:00:00 | 00:00:00 | 00:00:00 | |
| OM5KV | 2026-09-04 00:48:53 | 46.86862 | 19.58699 | 198° | 2km/h | 23822m | -60.9m/s | -51.8°C | 1.1% | 32.8hPa | 2.6V | 08:29:00 | 00:00:00 | 00:00:00 | |
| LZ4TU-5 | 2026-09-04 00:48:50 | 46.86864 | 19.58701 | 135° | 4km/h | 24065m | -61.4m/s | -51.8°C | 1.1% | 31.6hPa | 2.6V | 00:00:00 | 00:00:00 | 00:00:00 | |
| OM5KV | 2026-09-04 00:48:49 | 46.86864 | 19.58700 | 129° | 4km/h | 24126m | -61.6m/s | -51.5°C | 1.1% | 31.4hPa | 2.6V | 08:29:00 | 00:00:00 | 00:00:00 | |
| PETON7-10 | 2026-09-04 00:48:48 | 46.86866 | 19.58699 | 115° | 9km/h | 24187m | -61.4m/s | -51.4°C | 4.2% | 30.9hPa | 2.6V | 08:28:00 | 00:00:00 | 00:00:00 | |
| OM5KV | 2026-09-04 00:48:43 | 46.86877 | 19.58685 | 160° | 13km/h | 24504m | -66.5m/s | -49.9°C | 1.0% | 29.7hPa | 2.6V | 08:29:00 | 00:00:00 | 00:00:00 | |
| OM5KV | 2026-09-04 00:48:41 | 46.86884 | 19.58683 | 175° | 13km/h | 24640m | -69.0m/s | -50.1°C | 1.0% | 29.1hPa | 2.6V | 08:29:00 | 00:00:00 | 00:00:00 | |
| OM5KV | 2026-09-04 00:48:35 | 46.86895 | 19.58689 | 212° | 7km/h | 24972m | -64.9m/s | -50.2°C | 1.0% | 27.6hPa | 2.6V | 08:29:00 | 00:00:00 | 00:00:00 | |
| GYPAP8-17 | 2026-09-04 00:48:34 | 46.86896 | 19.58690 | 228° | 4km/h | 25037m | -65.1m/s | -50.0°C | 1.0% | 27.1hPa | 2.6V | 00:00:00 | 00:00:00 | 00:00:00 | |
| PETON7-10 | 2026-09-04 00:48:33 | 46.86897 | 19.58691 | 177° | 4km/h | 25169m | -64.3m/s | -49.7°C | 4.0% | 26.6hPa | 2.6V | 00:00:00 | 00:00:00 | 00:00:00 | |
| OM5KV | 2026-09-04 00:48:25 | 46.86897 | 19.58685 | 0° | 0km/h | 25692m | -66.3m/s | -47.9°C | 0.9% | 24.5hPa | 2.6V | 08:29:00 | 00:00:00 | 00:00:00 | |
| PETON7-10 | 2026-09-04 00:48:18 | 46.86889 | 19.58686 | 4° | 5km/h | 26169m | -69.8m/s | -46.8°C | 3.4% | 22.9hPa | 2.6V | 00:00:00 | 01:53:58 | 00:00:00 | |
| OM5KV | 2026-09-04 00:48:14 | 46.86883 | 19.58683 | 13° | 5km/h | 26448m | -70.6m/s | -46.7°C | 0.9% | 21.9hPa | 2.6V | 08:29:00 | 00:00:00 | 00:00:00 | |
| PETON7-10 | 2026-09-04 00:48:03 | 46.86875 | 19.58666 | 60° | 11km/h | 27268m | -78.8m/s | -44.3°C | 3.0% | 19.5hPa | 2.6V | 00:00:00 | 00:00:00 | 00:00:00 | |
| OM5KV | 2026-09-04 00:48:01 | 46.86873 | 19.58662 | 62° | 13km/h | 27347m | -79.3m/s | -44.4°C | 0.7% | 19.3hPa | 2.5V | 08:29:00 | 00:00:00 | 00:00:00 | |
| OM5KV | 2026-09-04 00:47:53 | 46.86868 | 19.58625 | 94° | 11km/h | 28008m | -85.3m/s | -43.0°C | 0.7% | 17.5hPa | 2.5V | 08:29:00 | 00:00:00 | 00:00:00 | |
| OM5KV | 2026-09-04 00:47:52 | 46.86870 | 19.58618 | 110° | 9km/h | 28178m | -84.9m/s | -42.6°C | 0.7% | 17.1hPa | 2.5V | 08:29:00 | 00:00:00 | 00:00:00 | |
| PETON7-10 | 2026-09-04 00:47:48 | 46.86870 | 19.58606 | 93° | 11km/h | 28525m | -87.8m/s | -42.1°C | 2.7% | 16.2hPa | 2.5V | 00:00:00 | 00:00:00 | 00:00:00 | |
| OM5KV | 2026-09-04 00:47:47 | 46.86870 | 19.58602 | 93° | 11km/h | 28613m | -88.7m/s | -42.1°C | 0.7% | 16.0hPa | 2.5V | 08:29:00 | 00:00:00 | 00:00:00 | |
| OM5KV | 2026-09-04 00:47:45 | 46.86871 | 19.58599 | 91° | 9km/h | 28701m | -88.6m/s | -42.1°C | 0.7% | 15.8hPa | 2.5V | 08:29:00 | 00:00:00 | 00:00:00 | |
| OM5KV | 2026-09-04 00:47:41 | 46.86870 | 19.58579 | 88° | 11km/h | 29152m | -92.2m/s | -41.0°C | 0.6% | 14.8hPa | 2.5V | 08:29:00 | 00:00:00 | 00:00:00 | |
| GYPAP8-17 | 2026-09-04 00:47:40 | 46.86870 | 19.58575 | 93° | 11km/h | 29244m | -93.4m/s | -40.4°C | 0.6% | 14.6hPa | 2.5V | 00:00:00 | 00:00:00 | 00:00:00 | |
| OM5KV | 2026-09-04 00:47:35 | 46.86871 | 19.58556 | 80° | 11km/h | 29720m | -97.7m/s | -40.2°C | 0.6% | 13.7hPa | 2.5V | 08:29:00 | 00:00:00 | 00:00:00 | |
| PETON7-10 | 2026-09-04 00:47:33 | 46.86869 | 19.58548 | 65° | 13km/h | 29916m | -98.6m/s | -40.6°C | 2.5% | 13.3hPa | 2.5V | 00:00:00 | 01:53:13 | 00:00:00 | |
| OM5KV | 2026-09-04 00:47:29 | 46.86866 | 19.58534 | 66° | 15km/h | 30215m | -101.1m/s | -41.1°C | 0.6% | 12.7hPa | 2.5V | 08:29:00 | 00:00:00 | 00:00:00 | |
| OM5KV | 2026-09-04 00:47:23 | 46.86860 | 19.58499 | 54° | 9km/h | 30933m | -104.4m/s | -35.9°C | 0.4% | 11.4hPa | 2.5V | 08:29:00 | 00:00:00 | 00:00:00 | |
| PETON7-10 | 2026-09-04 00:47:18 | 46.86856 | 19.58479 | 71° | 11km/h | 31447m | -100.7m/s | -37.2°C | 2.0% | 10.5hPa | 2.5V | 00:00:00 | 00:00:00 | 00:00:00 | |
| OM5KV | 2026-09-04 00:47:17 | 46.86856 | 19.58479 | 71° | 11km/h | 31447m | -100.7m/s | -37.2°C | 0.5% | 10.6hPa | 2.6V | 00:00:00 | 00:00:00 | 00:00:00 | |
| OM5KV | 2026-09-04 00:47:14 | 46.86855 | 19.58468 | 103° | 9km/h | 31743m | -97.1m/s | -38.0°C | 0.5% | 10.0hPa | 2.6V | 00:00:00 | 00:00:00 | 00:00:00 | |
| OM5KV | 2026-09-04 00:47:11 | 46.86855 | 19.58458 | 49° | 5km/h | 32115m | -89.1m/s | -37.2°C | 0.4% | 9.5hPa | 2.6V | 00:00:00 | 00:00:00 | 00:00:00 | |
| OM5KV | 2026-09-04 00:47:05 | 46.86844 | 19.58447 | 23° | 15km/h | 32534m | -77.8m/s | -38.0°C | 0.5% | 8.8hPa | 2.6V | 00:00:00 | 00:00:00 | 00:00:00 | |
| OM5KV | 2026-09-04 00:47:04 | 46.86840 | 19.58445 | 29° | 16km/h | 32612m | -77.1m/s | -37.9°C | 0.4% | 8.7hPa | 2.6V | 00:00:00 | 00:00:00 | 00:00:00 | |
| PETON7-10 | 2026-09-04 00:47:03 | 46.86830 | 19.58437 | 33° | 27km/h | 32761m | -70.6m/s | -38.0°C | 1.9% | 8.3hPa | 2.6V | 00:00:00 | 00:00:00 | 00:00:00 | |
| OM5KV | 2026-09-04 00:46:57 | 46.86798 | 19.58392 | 49° | 38km/h | 33097m | -54.0m/s | -39.1°C | 0.5% | 8.0hPa | 2.6V | 00:00:00 | 00:00:00 | 00:00:00 | |
| OM5KV | 2026-09-04 00:46:54 | 46.86783 | 19.58364 | 59° | 24km/h | 33232m | -36.1m/s | -39.5°C | 0.5% | 7.7hPa | 2.6V | 00:00:00 | 00:00:00 | 00:00:00 | |
| OE5DXL-15 | 2026-09-04 00:46:52 | 46.86777 | 19.58345 | 71° | 16km/h | 33307m | -12.8m/s | -39.5°C | 2.2% | 7.6hPa | 2.6V | 00:00:00 | 00:00:00 | 00:00:00 | |
| OM5KV | 2026-09-04 00:46:51 | 46.86777 | 19.58345 | 72° | 18km/h | 33307m | -12.8m/s | -39.5°C | 0.5% | 7.6hPa | 2.6V | 00:00:00 | 00:00:00 | 00:00:00 | |
| PETON7-10 | 2026-09-04 00:46:48 | 46.86770 | 19.58318 | 60° | 18km/h | 33298m | 7.1m/s | -39.5°C | 2.2% | 7.6hPa | 2.6V | 00:00:00 | 01:52:28 | 00:00:00 | |
| OM5KV | 2026-09-04 00:46:47 | 46.86770 | 19.58318 | 60° | 22km/h | 33298m | 7.1m/s | -39.6°C | 0.5% | 7.6hPa | 2.6V | 00:00:00 | 00:00:00 | 00:00:00 | |
| OM5KV | 2026-09-04 00:46:44 | 46.86765 | 19.58307 | 0° | 0km/h | 33278m | 10.2m/s | -39.7°C | 0.5% | 7.7hPa | 2.6V | 00:00:00 | 00:00:00 | 00:00:00 | |
| GYPAP8-17 | 2026-09-04 00:46:43 | 46.86764 | 19.58315 | 294° | 18km/h | 33263m | 5.1m/s | -39.8°C | 0.5% | 7.7hPa | 2.6V | 00:00:00 | 00:00:00 | 00:00:00 | |
| OM5KV | 2026-09-04 00:46:42 | 46.86764 | 19.58315 | 294° | 18km/h | 33263m | 5.1m/s | -39.8°C | 0.5% | 7.7hPa | 2.6V | 00:00:00 | 00:00:00 | 00:00:00 | |
| PETON7-10 | 2026-09-04 00:46:33 | 46.86725 | 19.58300 | 70° | 15km/h | 33192m | 9.1m/s | -39.9°C | 2.3% | 7.7hPa | 2.6V | 00:00:00 | 00:00:00 | 08:30:00 | |
| OM5KV | 2026-09-04 00:46:30 | 46.86721 | 19.58295 | 13° | 11km/h | 33175m | 6.4m/s | -39.9°C | 0.5% | 7.8hPa | 2.6V | 00:00:00 | 00:00:00 | 00:00:00 | |
| OM5KV | 2026-09-04 00:46:26 | 46.86713 | 19.58295 | 26° | 9km/h | 33145m | 5.9m/s | -39.9°C | 0.5% | 7.8hPa | 2.6V | 00:00:00 | 00:00:00 | 00:00:00 | |
| OE5DXL-15 | 2026-09-04 00:46:22 | 46.86694 | 19.58268 | 61° | 11km/h | 33108m | 7.6m/s | -39.9°C | 2.2% | 7.8hPa | 2.6V | 00:00:00 | 00:00:00 | 08:30:00 | |
| PETON7-10 | 2026-09-04 00:46:18 | 46.86690 | 19.58249 | 49° | 13km/h | 33081m | 7.5m/s | -39.9°C | 2.3% | 7.8hPa | 2.5V | 00:00:00 | 00:00:00 | 00:00:00 | |
| OM5KV | 2026-09-04 00:46:15 | 46.86686 | 19.58247 | 9° | 13km/h | 33064m | 7.1m/s | -39.9°C | 0.5% | 7.9hPa | 2.5V | 00:00:00 | 00:00:00 | 00:00:00 | |
| OM5KV | 2026-09-04 00:46:13 | 46.86680 | 19.58244 | 29° | 11km/h | 33050m | 7.9m/s | -39.9°C | 0.5% | 7.9hPa | 2.5V | 00:00:00 | 00:00:00 | 00:00:00 | |
| OM5KV | 2026-09-04 00:46:10 | 46.86676 | 19.58235 | 55° | 13km/h | 33028m | 6.3m/s | -40.0°C | 0.5% | 7.9hPa | 2.5V | 00:00:00 | 00:00:00 | 00:00:00 | |
| OM5KV | 2026-09-04 00:46:07 | 46.86665 | 19.58227 | 14° | 22km/h | 33004m | 7.4m/s | -40.2°C | 0.5% | 8.0hPa | 2.5V | 00:00:00 | 00:00:00 | 00:00:00 | |
| PETON7-10 | 2026-09-04 00:46:03 | 46.86651 | 19.58227 | 264° | 11km/h | 32967m | 6.2m/s | -40.3°C | 2.4% | 8.0hPa | 2.5V | 00:00:00 | 01:51:43 | 00:00:00 | |
| OM5KV | 2026-09-04 00:46:02 | 46.86651 | 19.58227 | 264° | 4km/h | 32967m | 6.3m/s | -40.3°C | 0.5% | 8.0hPa | 2.5V | 00:00:00 | 00:00:00 | 00:00:00 | |
| OM5KV | 2026-09-04 00:46:01 | 46.86651 | 19.58228 | 271° | 5km/h | 32960m | 7.4m/s | -40.3°C | 0.6% | 8.0hPa | 2.5V | 00:00:00 | 00:00:00 | 00:00:00 | |
| OM5KV | 2026-09-04 00:45:56 | 46.86640 | 19.58240 | 347° | 15km/h | 32921m | 9.1m/s | -40.3°C | 0.5% | 8.1hPa | 2.5V | 00:00:00 | 00:00:00 | 00:00:00 | |
| OM5KV | 2026-09-04 00:45:52 | 46.86630 | 19.58234 | 4° | 9km/h | 32883m | 7.7m/s | -40.2°C | 0.6% | 8.1hPa | 2.5V | 00:00:00 | 00:00:00 | 00:00:00 | |
| OE5DXL-15 | 2026-09-04 00:45:51 | 46.86628 | 19.58235 | 339° | 9km/h | 32875m | 7.3m/s | -40.1°C | 2.4% | 8.1hPa | 2.5V | 00:00:00 | 00:00:00 | 00:00:00 | |
| PETON7-10 | 2026-09-04 00:45:48 | 46.86622 | 19.58243 | 271° | 7km/h | 32853m | 8.0m/s | -40.0°C | 2.3% | 8.1hPa | 2.5V | 00:00:00 | 00:00:00 | 00:00:00 | |
| OM5KV | 2026-09-04 00:45:46 | 46.86623 | 19.58245 | 227° | 9km/h | 32845m | 8.1m/s | -40.0°C | 0.6% | 8.2hPa | 2.6V | 00:00:00 | 00:00:00 | 00:00:00 | |
| OM5KV | 2026-09-04 00:45:40 | 46.86623 | 19.58253 | 25° | 9km/h | 32802m | 5.6m/s | -39.7°C | 0.5% | 8.2hPa | 2.6V | 00:00:00 | 00:00:00 | 00:00:00 | |
| OM5KV | 2026-09-04 00:45:36 | 46.86621 | 19.58241 | 69° | 4km/h | 32766m | 8.4m/s | -39.7°C | 0.6% | 8.3hPa | 2.6V | 00:00:00 | 00:00:00 | 00:00:00 | |
| OM5KV | 2026-09-04 00:45:33 | 46.86619 | 19.58247 | 270° | 16km/h | 32743m | 7.2m/s | -39.6°C | 0.5% | 8.3hPa | 2.6V | 00:00:00 | 00:00:00 | 00:00:00 | |
| OM5KV | 2026-09-04 00:45:30 | 46.86622 | 19.58262 | 245° | 26km/h | 32726m | 7.3m/s | -39.7°C | 0.5% | 8.3hPa | 2.6V | 00:00:00 | 00:00:00 | 00:00:00 | |
| OM5KV | 2026-09-04 00:45:26 | 46.86629 | 19.58290 | 324° | 5km/h | 32691m | 6.7m/s | -39.8°C | 0.5% | 8.4hPa | 2.6V | 00:00:00 | 00:00:00 | 00:00:00 | |
| OM5KV | 2026-09-04 00:45:25 | 46.86627 | 19.58291 | 332° | 4km/h | 32683m | 8.5m/s | -39.8°C | 0.6% | 8.4hPa | 2.6V | 00:00:00 | 00:00:00 | 00:00:00 | |
| OM5KV | 2026-09-04 00:45:21 | 46.86626 | 19.58294 | 0° | 0km/h | 32653m | 8.3m/s | -39.8°C | 0.5% | 8.4hPa | 2.6V | 00:00:00 | 00:00:00 | 00:00:00 | |
| PETON7-10 | 2026-09-04 00:45:18 | 46.86629 | 19.58293 | 188° | 15km/h | 32632m | 6.3m/s | -39.7°C | 2.2% | 8.4hPa | 2.6V | 00:00:00 | 01:50:58 | 00:00:00 | |
| OE5DRO-10 | 2026-09-04 00:45:17 | 46.86645 | 19.58301 | 207° | 15km/h | 32608m | 6.7m/s | -39.8°C | 2.3% | 8.4hPa | 2.6V | 00:00:00 | 00:00:00 | 00:00:00 | |
| OM5KV | 2026-09-04 00:45:15 | 46.86645 | 19.58302 | 208° | 31km/h | 32608m | 6.8m/s | -39.8°C | 0.6% | 8.5hPa | 2.6V | 00:00:00 | 00:00:00 | 00:00:00 | |
| OM5KV | 2026-09-04 00:45:14 | 46.86652 | 19.58307 | 213° | 29km/h | 32601m | 5.7m/s | -39.9°C | 0.5% | 8.5hPa | 2.6V | 00:00:00 | 00:00:00 | 00:00:00 | |
| OM5KV | 2026-09-04 00:45:09 | 46.86660 | 19.58322 | 345° | 2km/h | 32565m | 7.7m/s | -39.9°C | 0.5% | 8.5hPa | 2.6V | 00:00:00 | 00:00:00 | 00:00:00 | |
| OM5KV | 2026-09-04 00:45:08 | 46.86660 | 19.58322 | 345° | 2km/h | 32565m | 7.7m/s | -39.9°C | 0.5% | 8.5hPa | 2.6V | 00:00:00 | 00:00:00 | 00:00:00 | |
| OM5KV | 2026-09-04 00:45:07 | 46.86661 | 19.58322 | 143° | 4km/h | 32557m | 7.8m/s | -40.0°C | 0.5% | 8.5hPa | 2.6V | 00:00:00 | 00:00:00 | 00:00:00 | |
| OM5KV | 2026-09-04 00:44:58 | 46.86695 | 19.58319 | 214° | 24km/h | 32486m | 4.8m/s | -40.1°C | 0.6% | 8.6hPa | 2.6V | 00:00:00 | 00:00:00 | 00:00:00 | |
| OM5KV | 2026-09-04 00:44:54 | 46.86701 | 19.58326 | 37° | 5km/h | 32465m | 8.8m/s | -40.2°C | 0.6% | 8.7hPa | 2.6V | 00:00:00 | 00:00:00 | 00:00:00 | |
| OM5KV | 2026-09-04 00:44:52 | 46.86694 | 19.58309 | 75° | 24km/h | 32444m | 6.0m/s | -40.3°C | 0.6% | 8.7hPa | 2.6V | 00:00:00 | 00:00:00 | 00:00:00 | |
| OE5DXL-15 | 2026-09-04 00:44:50 | 46.86695 | 19.58293 | 125° | 13km/h | 32432m | 6.7m/s | -40.2°C | 2.3% | 8.6hPa | 2.6V | 00:00:00 | 00:00:00 | 00:00:00 | |
| OM5KV | 2026-09-04 00:44:48 | 46.86704 | 19.58286 | 176° | 20km/h | 32417m | 8.2m/s | -40.3°C | 0.6% | 8.7hPa | 2.6V | 00:00:00 | 00:00:00 | 00:00:00 | |
| OM5KV | 2026-09-04 00:44:45 | 46.86716 | 19.58292 | 221° | 13km/h | 32395m | 6.6m/s | -40.3°C | 0.6% | 8.7hPa | 2.6V | 00:00:00 | 00:00:00 | 00:00:00 | |
| OM5KV | 2026-09-04 00:44:43 | 46.86718 | 19.58294 | 204° | 7km/h | 32388m | 7.1m/s | -40.2°C | 0.6% | 8.8hPa | 2.6V | 00:00:00 | 00:00:00 | 00:00:00 | |
| OM5KV | 2026-09-04 00:44:38 | 46.86716 | 19.58274 | 58° | 16km/h | 32345m | 6.1m/s | -40.2°C | 0.6% | 8.8hPa | 2.6V | 00:00:00 | 00:00:00 | 00:00:00 | |
| OM5KV | 2026-09-04 00:44:36 | 46.86713 | 19.58262 | 93° | 16km/h | 32333m | 7.4m/s | -40.2°C | 0.6% | 8.8hPa | 2.6V | 00:00:00 | 00:00:00 | 00:00:00 | |
| PETON7-10 | 2026-09-04 00:44:33 | 46.86720 | 19.58242 | 131° | 11km/h | 32312m | 5.3m/s | -40.2°C | 2.3% | 8.8hPa | 2.6V | 00:00:00 | 01:50:13 | 00:00:00 | |
| OM5KV | 2026-09-04 00:44:30 | 46.86729 | 19.58230 | 175° | 7km/h | 32290m | 7.0m/s | -40.2°C | 0.6% | 8.9hPa | 2.6V | 00:00:00 | 00:00:00 | 00:00:00 | |
| OM5KV | 2026-09-04 00:44:28 | 46.86731 | 19.58231 | 221° | 7km/h | 32284m | 5.7m/s | -40.1°C | 0.6% | 8.9hPa | 2.6V | 00:00:00 | 00:00:00 | 00:00:00 | |
| OE5DRO-10 | 2026-09-04 00:44:27 | 46.86733 | 19.58235 | 221° | 13km/h | 32272m | 6.5m/s | -40.1°C | 2.4% | 8.8hPa | 2.6V | 00:00:00 | 00:00:00 | 00:00:00 | |
| OM5KV | 2026-09-04 00:44:21 | 46.86730 | 19.58213 | 83° | 16km/h | 32235m | 7.0m/s | -39.9°C | 0.6% | 9.0hPa | 2.6V | 00:00:00 | 00:00:00 | 00:00:00 | |
| PETON7-10 | 2026-09-04 00:44:18 | 46.86731 | 19.58206 | 170° | 13km/h | 32207m | 6.9m/s | -39.8°C | 2.3% | 8.9hPa | 2.6V | 00:00:00 | 00:00:00 | 08:30:00 | |
| OM5KV | 2026-09-04 00:44:17 | 46.86733 | 19.58205 | 160° | 7km/h | 32200m | 7.8m/s | -39.9°C | 0.6% | 9.0hPa | 2.6V | 00:00:00 | 00:00:00 | 00:00:00 | |
| OM5KV | 2026-09-04 00:44:15 | 46.86738 | 19.58203 | 179° | 18km/h | 32186m | 6.1m/s | -39.9°C | 0.6% | 9.0hPa | 2.6V | 00:00:00 | 00:00:00 | 00:00:00 | |
| OM5KV | 2026-09-04 00:44:11 | 46.86750 | 19.58205 | 175° | 7km/h | 32165m | 5.6m/s | -39.9°C | 0.6% | 9.0hPa | 2.6V | 00:00:00 | 00:00:00 | 00:00:00 | |
| OM5KV | 2026-09-04 00:44:10 | 46.86751 | 19.58203 | 100° | 7km/h | 32159m | 6.3m/s | -39.8°C | 0.5% | 9.1hPa | 2.6V | 00:00:00 | 00:00:00 | 00:00:00 | |
| OE5DRO-10 | 2026-09-04 00:44:08 | 46.86751 | 19.58186 | 97° | 15km/h | 32137m | 5.8m/s | -39.8°C | 2.3% | 9.0hPa | 2.6V | 00:00:00 | 00:00:00 | 08:30:00 | |
| GYPAP8-17 | 2026-09-04 00:44:07 | 46.86752 | 19.58180 | 103° | 16km/h | 32130m | 6.6m/s | -39.8°C | 0.5% | 9.1hPa | 2.6V | 00:00:00 | 00:00:00 | 00:00:00 | |
| OM5KV | 2026-09-04 00:44:04 | 46.86753 | 19.58172 | 124° | 7km/h | 32116m | 6.2m/s | -39.8°C | 0.6% | 9.1hPa | 2.6V | 00:00:00 | 00:00:00 | 00:00:00 | |
| PETON7-10 | 2026-09-04 00:44:03 | 46.86756 | 19.58169 | 154° | 16km/h | 32103m | 7.6m/s | -39.8°C | 2.3% | 9.1hPa | 2.6V | 00:00:00 | 00:00:00 | 00:00:00 | |
| OM5KV | 2026-09-04 00:43:58 | 46.86773 | 19.58166 | 185° | 18km/h | 32073m | 7.4m/s | -39.9°C | 0.5% | 9.2hPa | 2.6V | 00:00:00 | 00:00:00 | 00:00:00 | |
| OM5KV | 2026-09-04 00:43:56 | 46.86780 | 19.58165 | 160° | 11km/h | 32059m | 6.7m/s | -39.9°C | 0.5% | 9.2hPa | 2.6V | 00:00:00 | 00:00:00 | 00:00:00 | |
| OM5KV | 2026-09-04 00:43:54 | 46.86786 | 19.58151 | 109° | 20km/h | 32038m | 6.9m/s | -40.0°C | 0.6% | 9.2hPa | 2.6V | 00:00:00 | 00:00:00 | 00:00:00 | |
| OM5KV | 2026-09-04 00:43:52 | 46.86789 | 19.58137 | 109° | 18km/h | 32023m | 7.9m/s | -40.2°C | 0.6% | 9.2hPa | 2.6V | 00:00:00 | 00:00:00 | 00:00:00 | |
| PETON7-10 | 2026-09-04 00:43:48 | 46.86797 | 19.58119 | 146° | 22km/h | 31996m | 9.4m/s | -40.2°C | 2.3% | 9.2hPa | 2.6V | 00:00:00 | 01:49:28 | 00:00:00 | |
| OE5DRO-10 | 2026-09-04 00:43:47 | 46.86801 | 19.58117 | 164° | 22km/h | 31989m | 4.6m/s | -40.2°C | 2.3% | 9.2hPa | 2.6V | 00:00:00 | 00:00:00 | 00:00:00 | |
| OM5KV | 2026-09-04 00:43:41 | 46.86826 | 19.58119 | 179° | 16km/h | 31955m | 3.7m/s | -40.3°C | 0.6% | 9.3hPa | 2.6V | 00:00:00 | 00:00:00 | 00:00:00 | |
| OM5KV | 2026-09-04 00:43:37 | 46.86842 | 19.58097 | 122° | 33km/h | 31930m | 5.8m/s | -40.4°C | 0.6% | 9.4hPa | 2.6V | 00:00:00 | 00:00:00 | 00:00:00 | |
| OM5KV | 2026-09-04 00:43:34 | 46.86856 | 19.58066 | 139° | 15km/h | 31902m | 4.1m/s | -40.5°C | 0.6% | 9.4hPa | 2.6V | 00:00:00 | 00:00:00 | 00:00:00 | |
| PETON7-10 | 2026-09-04 00:43:33 | 46.86859 | 19.58063 | 150° | 24km/h | 31897m | 5.4m/s | -40.5°C | 2.3% | 9.4hPa | 2.6V | 00:00:00 | 00:00:00 | 00:00:00 | |
| OE5DRO-10 | 2026-09-04 00:43:28 | 46.86889 | 19.58040 | 139° | 26km/h | 31852m | 9.8m/s | -40.9°C | 2.4% | 9.4hPa | 2.6V | 00:00:00 | 00:00:00 | 00:00:00 | |
| OM5KV | 2026-09-04 00:43:26 | 46.86889 | 19.58040 | 140° | 20km/h | 31852m | 9.8m/s | -40.9°C | 0.6% | 9.5hPa | 2.6V | 00:00:00 | 00:00:00 | 00:00:00 | |
| OM5KV | 2026-09-04 00:43:23 | 46.86896 | 19.58019 | 110° | 27km/h | 31833m | 7.6m/s | -41.2°C | 0.6% | 9.5hPa | 2.6V | 00:00:00 | 00:00:00 | 00:00:00 | |
| OM5KV | 2026-09-04 00:43:22 | 46.86899 | 19.58010 | 117° | 31km/h | 31824m | 9.9m/s | -41.3°C | 0.6% | 9.5hPa | 2.6V | 00:00:00 | 00:00:00 | 00:00:00 | |
| PETON7-10 | 2026-09-04 00:43:18 | 46.86917 | 19.57969 | 121° | 26km/h | 31789m | 5.2m/s | -41.4°C | 2.5% | 9.5hPa | 2.6V | 00:00:00 | 00:00:00 | 00:00:00 | |
| OM5KV | 2026-09-04 00:43:17 | 46.86919 | 19.57964 | 119° | 16km/h | 31783m | 5.7m/s | -41.4°C | 0.6% | 9.6hPa | 2.6V | 00:00:00 | 00:00:00 | 00:00:00 | |
| OM5KV | 2026-09-04 00:43:16 | 46.86921 | 19.57958 | 118° | 22km/h | 31776m | 8.3m/s | -41.5°C | 0.6% | 9.6hPa | 2.6V | 00:00:00 | 00:00:00 | 00:00:00 | |
| OM5KV | 2026-09-04 00:43:12 | 46.86927 | 19.57926 | 95° | 35km/h | 31757m | 5.1m/s | -41.5°C | 0.6% | 9.6hPa | 2.6V | 00:00:00 | 00:00:00 | 00:00:00 | |
| OM5KV | 2026-09-04 00:43:10 | 46.86925 | 19.57892 | 77° | 26km/h | 31735m | 4.2m/s | -41.6°C | 0.6% | 9.6hPa | 2.6V | 00:00:00 | 00:00:00 | 00:00:00 | |
| OE5DRO-10 | 2026-09-04 00:43:09 | 46.86924 | 19.57866 | 106° | 22km/h | 31715m | 9.0m/s | -41.5°C | 2.5% | 9.6hPa | 2.6V | 00:00:00 | 00:00:00 | 00:00:00 | |
| OM5KV | 2026-09-04 00:43:05 | 46.86928 | 19.57850 | 109° | 20km/h | 31702m | 5.8m/s | -41.5°C | 0.6% | 9.7hPa | 2.6V | 00:00:00 | 00:00:00 | 00:00:00 | |
| PETON7-10 | 2026-09-04 00:43:03 | 46.86929 | 19.57838 | 68° | 24km/h | 31686m | 7.7m/s | -41.3°C | 2.5% | 9.7hPa | 2.6V | 00:00:00 | 01:48:43 | 00:00:00 | |
| OM5KV | 2026-09-04 00:43:01 | 46.86926 | 19.57831 | 55° | 22km/h | 31680m | 5.7m/s | -41.4°C | 0.6% | 9.7hPa | 2.6V | 00:00:00 | 00:00:00 | 00:00:00 | |
| OM5KV | 2026-09-04 00:42:56 | 46.86909 | 19.57780 | 62° | 22km/h | 31636m | 8.0m/s | -41.4°C | 0.6% | 9.8hPa | 2.6V | 00:00:00 | 00:00:00 | 00:00:00 | |
| OM5KV | 2026-09-04 00:42:53 | 46.86905 | 19.57767 | 65° | 18km/h | 31623m | 6.3m/s | -41.5°C | 0.6% | 9.8hPa | 2.6V | 00:00:00 | 00:00:00 | 00:00:00 | |
| OM5KV | 2026-09-04 00:42:50 | 46.86899 | 19.57744 | 76° | 26km/h | 31602m | 6.3m/s | -41.4°C | 0.6% | 9.9hPa | 2.6V | 00:00:00 | 00:00:00 | 00:00:00 | |
| PETON7-10 | 2026-09-04 00:42:48 | 46.86893 | 19.57724 | 49° | 16km/h | 31580m | 7.2m/s | -41.2°C | 2.5% | 9.8hPa | 2.6V | 00:00:00 | 00:00:00 | 00:00:00 | |
| OM5KV | 2026-09-04 00:42:44 | 46.86887 | 19.57710 | 74° | 18km/h | 31561m | 8.4m/s | -41.2°C | 0.6% | 9.9hPa | 2.6V | 00:00:00 | 00:00:00 | 00:00:00 | |
| OM5KV | 2026-09-04 00:42:43 | 46.86886 | 19.57703 | 78° | 22km/h | 31553m | 7.6m/s | -41.2°C | 0.6% | 9.9hPa | 2.6V | 00:00:00 | 00:00:00 | 00:00:00 | |
| PETON7-10 | 2026-09-04 00:42:33 | 46.86856 | 19.57653 | 5° | 18km/h | 31479m | 7.7m/s | -40.6°C | 2.4% | 10.0hPa | 2.6V | 00:00:00 | 00:00:00 | 00:00:00 | |
| OM5KV | 2026-09-04 00:42:31 | 46.86849 | 19.57648 | 35° | 24km/h | 31466m | 6.3m/s | -40.6°C | 0.6% | 10.1hPa | 2.6V | 00:00:00 | 00:00:00 | 00:00:00 | |
| OM5KV | 2026-09-04 00:42:30 | 46.86849 | 19.57648 | 35° | 24km/h | 31466m | 6.3m/s | -40.6°C | 0.6% | 10.1hPa | 2.6V | 00:00:00 | 00:00:00 | 00:00:00 | |
| OM5KV | 2026-09-04 00:42:27 | 46.86835 | 19.57625 | 58° | 27km/h | 31443m | 5.8m/s | -40.5°C | 0.6% | 10.1hPa | 2.6V | 00:00:00 | 00:00:00 | 00:00:00 | |
| OM5KV | 2026-09-04 00:42:25 | 46.86822 | 19.57609 | 19° | 20km/h | 31422m | 7.2m/s | -40.4°C | 0.6% | 10.1hPa | 2.6V | 00:00:00 | 00:00:00 | 00:00:00 | |
| OM5KV | 2026-09-04 00:42:20 | 46.86808 | 19.57609 | 347° | 7km/h | 31393m | 6.9m/s | -40.4°C | 0.6% | 10.2hPa | 2.6V | 00:00:00 | 00:00:00 | 00:00:00 | |
| OM5KV | 2026-09-04 00:42:18 | 46.86800 | 19.57608 | 17° | 18km/h | 31372m | 6.8m/s | -40.4°C | 0.6% | 10.2hPa | 2.6V | 00:00:00 | 00:00:00 | 00:00:00 | |
| OM5KV | 2026-09-04 00:42:14 | 46.86782 | 19.57593 | 40° | 35km/h | 31350m | 8.9m/s | -40.4°C | 0.6% | 10.2hPa | 2.6V | 00:00:00 | 00:00:00 | 00:00:00 | |
| OM5KV | 2026-09-04 00:42:12 | 46.86770 | 19.57577 | 44° | 29km/h | 31337m | 5.0m/s | -40.4°C | 0.6% | 10.2hPa | 2.6V | 00:00:00 | 00:00:00 | 00:00:00 | |
| OM5KV | 2026-09-04 00:42:11 | 46.86765 | 19.57571 | 35° | 24km/h | 31331m | 6.9m/s | -40.3°C | 0.6% | 10.2hPa | 2.6V | 00:00:00 | 00:00:00 | 00:00:00 | |
| GYPAP8-17 | 2026-09-04 00:42:09 | 46.86756 | 19.57568 | 331° | 18km/h | 31315m | 6.9m/s | -40.3°C | 0.6% | 10.3hPa | 2.6V | 00:00:00 | 00:00:00 | 00:00:00 | |
| OM5KV | 2026-09-04 00:42:08 | 46.86749 | 19.57580 | 294° | 22km/h | 31301m | 7.7m/s | -40.2°C | 0.6% | 10.3hPa | 2.6V | 00:00:00 | 00:00:00 | 00:00:00 | |
| OM5KV | 2026-09-04 00:42:04 | 46.86747 | 19.57597 | 274° | 9km/h | 31278m | 5.2m/s | -40.2°C | 0.6% | 10.3hPa | 2.6V | 00:00:00 | 00:00:00 | 00:00:00 | |
| PETON7-10 | 2026-09-04 00:42:03 | 46.86745 | 19.57600 | 11° | 13km/h | 31265m | 7.7m/s | -40.0°C | 2.4% | 10.3hPa | 2.6V | 00:00:00 | 00:00:00 | 08:30:00 | |
| OM5KV | 2026-09-04 00:42:02 | 46.86743 | 19.57598 | 34° | 16km/h | 31258m | 6.5m/s | -40.0°C | 0.6% | 10.4hPa | 2.6V | 00:00:00 | 00:00:00 | 00:00:00 | |
| OM5KV | 2026-09-04 00:41:56 | 46.86727 | 19.57573 | 19° | 9km/h | 31222m | 6.9m/s | -39.9°C | 0.6% | 10.4hPa | 2.6V | 00:00:00 | 00:00:00 | 00:00:00 | |
| PETON7-10 | 2026-09-04 00:41:48 | 46.86717 | 19.57597 | 84° | 16km/h | 31155m | 5.2m/s | -39.9°C | 2.3% | 10.5hPa | 2.6V | 00:00:00 | 00:00:00 | 00:00:00 | |
| OM5KV | 2026-09-04 00:41:47 | 46.86716 | 19.57591 | 84° | 18km/h | 31149m | 7.6m/s | -39.9°C | 0.6% | 10.5hPa | 2.6V | 00:00:00 | 00:00:00 | 00:00:00 | |
| OM5KV | 2026-09-04 00:41:45 | 46.86716 | 19.57584 | 84° | 22km/h | 31140m | 9.0m/s | -39.9°C | 0.6% | 10.5hPa | 2.6V | 00:00:00 | 00:00:00 | 00:00:00 | |
| OM5KV | 2026-09-04 00:41:39 | 46.86706 | 19.57558 | 318° | 16km/h | 31097m | 6.8m/s | -39.7°C | 0.6% | 10.6hPa | 2.6V | 00:00:00 | 00:00:00 | 00:00:00 | |
| OM5KV | 2026-09-04 00:41:34 | 46.86697 | 19.57565 | 65° | 15km/h | 31061m | 7.3m/s | -39.6°C | 0.6% | 10.7hPa | 2.6V | 00:00:00 | 00:00:00 | 00:00:00 | |
| PETON7-10 | 2026-09-04 00:41:33 | 46.86692 | 19.57553 | 50° | 20km/h | 31042m | 9.1m/s | -39.6°C | 2.3% | 10.7hPa | 2.6V | 00:00:00 | 01:47:13 | 00:00:00 | |
| OE5DRO-10 | 2026-09-04 00:41:26 | 46.86648 | 19.57514 | 351° | 15km/h | 30980m | 6.7m/s | -39.5°C | 2.2% | 10.8hPa | 2.6V | 00:00:00 | 00:00:00 | 00:00:00 | |
| OM5KV | 2026-09-04 00:41:21 | 46.86640 | 19.57514 | 31° | 9km/h | 30964m | 7.4m/s | -39.6°C | 0.6% | 10.8hPa | 2.6V | 00:00:00 | 00:00:00 | 00:00:00 | |
| PETON7-10 | 2026-09-04 00:41:18 | 46.86635 | 19.57494 | 63° | 16km/h | 30934m | 6.6m/s | -39.6°C | 2.2% | 10.8hPa | 2.6V | 00:00:00 | 00:00:00 | 00:00:00 | |
| OM5KV | 2026-09-04 00:41:15 | 46.86627 | 19.57473 | 60° | 18km/h | 30910m | 9.1m/s | -39.6°C | 0.5% | 10.9hPa | 2.6V | 00:00:00 | 00:00:00 | 00:00:00 | |
| OE5DXL-15 | 2026-09-04 00:41:14 | 46.86616 | 19.57463 | 9° | 16km/h | 30889m | 8.3m/s | 0°C | 0% | 0hPa | 2.6V | 00:00:00 | 00:00:00 | 00:00:00 | |
| OM5KV | 2026-09-04 00:41:09 | 46.86603 | 19.57464 | 357° | 15km/h | 30867m | 8.2m/s | -39.8°C | 0.5% | 11.0hPa | 2.6V | 00:00:00 | 00:00:00 | 00:00:00 | |
| OE5DRO-10 | 2026-09-04 00:41:06 | 46.86597 | 19.57443 | 74° | 27km/h | 30830m | 5.1m/s | -40.5°C | 2.3% | 11.0hPa | 2.6V | 00:00:00 | 00:00:00 | 00:00:00 | |
| PETON7-10 | 2026-09-04 00:41:03 | 46.86595 | 19.57436 | 71° | 26km/h | 30824m | 5.3m/s | -40.6°C | 2.4% | 11.0hPa | 2.6V | 00:00:00 | 00:00:00 | 00:00:00 | |
| GYPAP8-17 | 2026-09-04 00:41:01 | 46.86593 | 19.57428 | 70° | 22km/h | 30818m | 7.1m/s | -40.7°C | 0.6% | 11.1hPa | 2.6V | 00:00:00 | 00:00:00 | 00:00:00 | |
| OM5KV | 2026-09-04 00:40:58 | 46.86585 | 19.57407 | 34° | 15km/h | 30788m | 6.9m/s | -40.9°C | 0.6% | 11.1hPa | 2.6V | 00:00:00 | 00:00:00 | 00:00:00 | |
| PETON7-10 | 2026-09-04 00:40:48 | 46.86566 | 19.57316 | 73° | 33km/h | 30716m | 8.0m/s | -41.0°C | 2.4% | 11.2hPa | 2.6V | 00:00:00 | 01:46:28 | 00:00:00 | |
| OM5KV | 2026-09-04 00:40:46 | 46.86559 | 19.57298 | 47° | 24km/h | 30703m | 8.0m/s | -41.1°C | 0.6% | 11.3hPa | 2.6V | 00:00:00 | 00:00:00 | 00:00:00 | |
| OM5KV | 2026-09-04 00:40:39 | 46.86534 | 19.57274 | 51° | 29km/h | 30656m | 3.3m/s | -41.3°C | 0.6% | 11.3hPa | 2.6V | 00:00:00 | 00:00:00 | 00:00:00 | |
| OM5KV | 2026-09-04 00:40:36 | 46.86526 | 19.57234 | 88° | 47km/h | 30638m | 11.9m/s | -41.4°C | 0.6% | 11.4hPa | 2.6V | 00:00:00 | 00:00:00 | 00:00:00 | |
| OM5KV | 2026-09-04 00:40:35 | 46.86526 | 19.57215 | 97° | 55km/h | 30628m | 8.2m/s | -41.5°C | 0.5% | 11.4hPa | 2.6V | 00:00:00 | 00:00:00 | 00:00:00 | |
| PETON7-10 | 2026-09-04 00:40:33 | 46.86530 | 19.57162 | 87° | 29km/h | 30610m | 9.6m/s | -41.8°C | 2.3% | 11.4hPa | 2.6V | 00:00:00 | 00:00:00 | 00:00:00 | |
| OM5KV | 2026-09-04 00:40:32 | 46.86527 | 19.57150 | 60° | 27km/h | 30602m | 7.2m/s | -42.0°C | 0.6% | 11.4hPa | 2.6V | 00:00:00 | 00:00:00 | 00:00:00 | |
| OM5KV | 2026-09-04 00:40:30 | 46.86523 | 19.57144 | 30° | 24km/h | 30596m | 5.4m/s | -42.0°C | 0.6% | 11.5hPa | 2.6V | 00:00:00 | 00:00:00 | 00:00:00 | |
| OM5KV | 2026-09-04 00:40:28 | 46.86508 | 19.57137 | 15° | 16km/h | 30572m | 6.5m/s | -42.3°C | 0.6% | 11.5hPa | 2.6V | 00:00:00 | 00:00:00 | 00:00:00 | |
| PETON7-10 | 2026-09-04 00:40:18 | 46.86486 | 19.57038 | 88° | 22km/h | 30502m | 7.7m/s | -43.3°C | 2.6% | 11.6hPa | 2.6V | 00:00:00 | 00:00:00 | 00:00:00 | |
| OM5KV | 2026-09-04 00:40:16 | 46.86485 | 19.57028 | 69° | 24km/h | 30494m | 7.6m/s | -43.5°C | 0.6% | 11.6hPa | 2.6V | 00:00:00 | 00:00:00 | 00:00:00 | |
| GYPAP8-17 | 2026-09-04 00:40:14 | 46.86475 | 19.57016 | 12° | 15km/h | 30469m | 8.7m/s | -43.7°C | 0.7% | 11.7hPa | 2.6V | 00:00:00 | 00:00:00 | 00:00:00 | |
| OM5KV | 2026-09-04 00:40:11 | 46.86462 | 19.57013 | 14° | 24km/h | 30448m | 8.0m/s | -43.8°C | 0.7% | 11.7hPa | 2.6V | 00:00:00 | 00:00:00 | 00:00:00 | |
| LZ4TU-5 | 2026-09-04 00:40:08 | 46.86446 | 19.57001 | 56° | 22km/h | 30428m | 5.6m/s | -44.1°C | 0.6% | 11.7hPa | 2.6V | 00:00:00 | 00:00:00 | 00:00:00 | |
| LZ4TU-5 | 2026-09-04 00:40:03 | 46.86452 | 19.56961 | 115° | 20km/h | 30393m | 6.3m/s | -44.4°C | 0.7% | 11.8hPa | 2.6V | 00:00:00 | 00:00:00 | 00:00:00 | |
| OM5KV | 2026-09-04 00:39:56 | 46.86433 | 19.56914 | 36° | 31km/h | 30348m | 6.6m/s | -44.8°C | 0.7% | 11.9hPa | 2.6V | 00:00:00 | 00:00:00 | 00:00:00 | |
| OM5KV | 2026-09-04 00:39:51 | 46.86409 | 19.56887 | 45° | 16km/h | 30305m | 7.5m/s | -44.9°C | 0.7% | 12.0hPa | 2.6V | 00:00:00 | 00:00:00 | 00:00:00 | |
| OE5DRO-10 | 2026-09-04 00:39:50 | 46.86403 | 19.56881 | 26° | 11km/h | 30282m | 8.1m/s | -44.8°C | 2.9% | 11.9hPa | 2.6V | 00:00:00 | 00:00:00 | 00:00:00 | |
| PETON7-10 | 2026-09-04 00:39:48 | 46.86403 | 19.56881 | 26° | 13km/h | 30282m | 8.1m/s | -44.8°C | 2.9% | 11.9hPa | 2.6V | 00:00:00 | 00:00:00 | 08:30:00 | |
| OM5KV | 2026-09-04 00:39:34 | 46.86363 | 19.56868 | 272° | 4km/h | 30188m | 7.4m/s | -45.0°C | 0.7% | 12.2hPa | 2.5V | 00:00:00 | 00:00:00 | 00:00:00 | |
| PETON7-10 | 2026-09-04 00:39:33 | 46.86363 | 19.56868 | 88° | 9km/h | 30172m | 6.8m/s | -44.9°C | 2.9% | 12.2hPa | 2.5V | 00:00:00 | 00:00:00 | 00:00:00 | |
| OM5KV | 2026-09-04 00:39:30 | 46.86357 | 19.56861 | 17° | 15km/h | 30151m | 5.9m/s | -44.8°C | 0.7% | 12.2hPa | 2.5V | 00:00:00 | 00:00:00 | 00:00:00 | |
| OE5DRO-10 | 2026-09-04 00:39:29 | 46.86348 | 19.56858 | 47° | 11km/h | 30129m | 7.8m/s | -44.6°C | 2.9% | 12.2hPa | 2.5V | 00:00:00 | 00:00:00 | 08:30:00 | |
| OM5KV | 2026-09-04 00:39:24 | 46.86350 | 19.56852 | 156° | 7km/h | 30108m | 9.3m/s | -44.6°C | 0.7% | 12.3hPa | 2.6V | 00:00:00 | 00:00:00 | 00:00:00 | |
| OM5KV | 2026-09-04 00:39:22 | 46.86352 | 19.56852 | 175° | 5km/h | 30099m | 8.0m/s | -44.6°C | 0.7% | 12.3hPa | 2.6V | 00:00:00 | 00:00:00 | 00:00:00 | |
| OM5KV | 2026-09-04 00:39:19 | 46.86355 | 19.56847 | 109° | 9km/h | 30079m | 9.0m/s | -44.6°C | 0.7% | 12.4hPa | 2.6V | 00:00:00 | 00:00:00 | 00:00:00 | |
| PETON7-10 | 2026-09-04 00:39:18 | 46.86355 | 19.56839 | 75° | 11km/h | 30065m | 6.6m/s | -44.5°C | 2.8% | 12.4hPa | 2.6V | 00:00:00 | 01:44:58 | 00:00:00 | |
| OM5KV | 2026-09-04 00:39:17 | 46.86353 | 19.56834 | 63° | 13km/h | 30057m | 7.7m/s | -44.5°C | 0.7% | 12.4hPa | 2.6V | 00:00:00 | 00:00:00 | 00:00:00 | |
| OM5KV | 2026-09-04 00:39:15 | 46.86349 | 19.56828 | 35° | 11km/h | 30044m | 5.4m/s | -44.6°C | 0.7% | 12.4hPa | 2.6V | 00:00:00 | 00:00:00 | 00:00:00 | |
| OM5KV | 2026-09-04 00:39:12 | 46.86346 | 19.56820 | 101° | 11km/h | 30021m | 8.3m/s | -44.5°C | 0.7% | 12.5hPa | 2.6V | 00:00:00 | 00:00:00 | 00:00:00 | |
| OM5KV | 2026-09-04 00:39:09 | 46.86351 | 19.56808 | 141° | 13km/h | 30000m | 10.2m/s | -44.3°C | 0.7% | 12.5hPa | 2.6V | 00:00:00 | 00:00:00 | 00:00:00 | |
| OM5KV | 2026-09-04 00:39:05 | 46.86357 | 19.56802 | 136° | 9km/h | 29980m | 6.4m/s | -44.2°C | 0.7% | 12.6hPa | 2.6V | 00:00:00 | 00:00:00 | 00:00:00 | |
| OM5KV | 2026-09-04 00:39:04 | 46.86358 | 19.56799 | 110° | 11km/h | 29972m | 8.9m/s | -44.2°C | 0.7% | 12.6hPa | 2.6V | 00:00:00 | 00:00:00 | 00:00:00 | |
| PETON7-10 | 2026-09-04 00:39:03 | 46.86358 | 19.56790 | 70° | 13km/h | 29957m | 6.4m/s | -44.1°C | 2.8% | 12.6hPa | 2.6V | 00:00:00 | 00:00:00 | 00:00:00 | |
| OM5KV | 2026-09-04 00:39:02 | 46.86356 | 19.56785 | 62° | 15km/h | 29950m | 7.6m/s | -44.2°C | 0.7% | 12.6hPa | 2.6V | 00:00:00 | 00:00:00 | 00:00:00 | |
| OM5KV | 2026-09-04 00:38:53 | 46.86357 | 19.56750 | 106° | 7km/h | 29891m | 8.8m/s | -44.1°C | 0.7% | 12.7hPa | 2.6V | 00:00:00 | 00:00:00 | 00:00:00 | |
| OE5DRO-10 | 2026-09-04 00:38:51 | 46.86340 | 19.56750 | 37° | 15km/h | 29848m | 6.2m/s | -43.8°C | 2.7% | 12.8hPa | 2.6V | 00:00:00 | 00:00:00 | 00:00:00 | |
| PETON7-10 | 2026-09-04 00:38:48 | 46.86340 | 19.56750 | 37° | 15km/h | 29848m | 6.2m/s | -43.8°C | 2.7% | 12.8hPa | 2.6V | 00:00:00 | 00:00:00 | 00:00:00 | |
| OM5KV | 2026-09-04 00:38:45 | 46.86333 | 19.56725 | 55° | 9km/h | 29834m | 6.5m/s | -43.9°C | 0.7% | 12.8hPa | 2.6V | 00:00:00 | 00:00:00 | 00:00:00 | |
| OM5KV | 2026-09-04 00:38:35 | 46.86353 | 19.56692 | 57° | 15km/h | 29762m | 6.8m/s | -43.8°C | 0.6% | 13.0hPa | 2.6V | 00:00:00 | 00:00:00 | 00:00:00 | |
| OM5KV | 2026-09-04 00:38:34 | 46.86350 | 19.56688 | 58° | 16km/h | 29755m | 6.4m/s | -43.8°C | 0.7% | 13.0hPa | 2.6V | 00:00:00 | 00:00:00 | 00:00:00 | |
| PETON7-10 | 2026-09-04 00:38:33 | 46.86347 | 19.56679 | 83° | 15km/h | 29741m | 8.0m/s | -43.8°C | 2.7% | 13.0hPa | 2.6V | 00:00:00 | 01:44:13 | 00:00:00 | |
| OM5KV | 2026-09-04 00:38:30 | 46.86354 | 19.56671 | 156° | 20km/h | 29720m | 8.7m/s | -43.9°C | 0.7% | 13.0hPa | 2.6V | 00:00:00 | 00:00:00 | 00:00:00 | |
| LZ4TU-5 | 2026-09-04 00:38:20 | 46.86371 | 19.56632 | 80° | 13km/h | 29650m | 3.4m/s | -44.4°C | 0.7% | 13.2hPa | 2.6V | 00:00:00 | 00:00:00 | 00:00:00 | |
| OM5KV | 2026-09-04 00:38:19 | 46.86371 | 19.56628 | 109° | 11km/h | 29645m | 5.0m/s | -44.4°C | 0.7% | 13.2hPa | 2.6V | 00:00:00 | 00:00:00 | 00:00:00 | |
| PETON7-10 | 2026-09-04 00:38:18 | 46.86373 | 19.56625 | 141° | 18km/h | 29638m | 8.7m/s | -44.4°C | 2.8% | 13.2hPa | 2.6V | 00:00:00 | 00:00:00 | 00:00:00 | |
| GYPAP8-17 | 2026-09-04 00:38:16 | 46.86376 | 19.56623 | 175° | 16km/h | 29631m | 6.8m/s | -44.5°C | 0.7% | 13.2hPa | 2.6V | 00:00:00 | 00:00:00 | 00:00:00 | |
| LZ4TU-5 | 2026-09-04 00:38:15 | 46.86387 | 19.56622 | 175° | 26km/h | 29618m | 7.4m/s | -44.4°C | 0.7% | 13.3hPa | 2.6V | 00:00:00 | 00:00:00 | 00:00:00 | |
| OM5KV | 2026-09-04 00:38:11 | 46.86403 | 19.56613 | 141° | 18km/h | 29597m | 5.1m/s | -44.4°C | 0.7% | 13.3hPa | 2.6V | 00:00:00 | 00:00:00 | 00:00:00 | |
| OM5KV | 2026-09-04 00:38:08 | 46.86410 | 19.56601 | 112° | 13km/h | 29577m | 5.9m/s | -44.4°C | 0.7% | 13.3hPa | 2.6V | 00:00:00 | 00:00:00 | 00:00:00 | |
| OM5KV | 2026-09-04 00:38:06 | 46.86414 | 19.56582 | 112° | 20km/h | 29555m | 4.7m/s | -44.5°C | 0.7% | 13.4hPa | 2.6V | 00:00:00 | 00:00:00 | 00:00:00 | |
| OM5KV | 2026-09-04 00:38:04 | 46.86416 | 19.56575 | 120° | 16km/h | 29550m | 5.4m/s | -44.5°C | 0.7% | 13.4hPa | 2.6V | 00:00:00 | 00:00:00 | 00:00:00 | |
| PETON7-10 | 2026-09-04 00:38:03 | 46.86421 | 19.56570 | 173° | 18km/h | 29536m | 7.1m/s | -44.5°C | 2.9% | 13.4hPa | 2.6V | 00:00:00 | 00:00:00 | 00:00:00 | |
| OM5KV | 2026-09-04 00:38:02 | 46.86420 | 19.56570 | 173° | 11km/h | 29536m | 7.2m/s | -44.5°C | 0.7% | 13.4hPa | 2.6V | 00:00:00 | 00:00:00 | 00:00:00 | |
| OM5KV | 2026-09-04 00:37:58 | 46.86434 | 19.56561 | 120° | 20km/h | 29511m | 6.5m/s | -44.5°C | 0.7% | 13.5hPa | 2.6V | 00:00:00 | 00:00:00 | 00:00:00 | |
| OM5KV | 2026-09-04 00:37:57 | 46.86435 | 19.56553 | 102° | 22km/h | 29505m | 5.7m/s | -44.5°C | 0.7% | 13.5hPa | 2.6V | 00:00:00 | 00:00:00 | 00:00:00 | |
| OM5KV | 2026-09-04 00:37:54 | 46.86435 | 19.56531 | 86° | 18km/h | 29485m | 4.4m/s | -44.5°C | 0.7% | 13.5hPa | 2.6V | 00:00:00 | 00:00:00 | 00:00:00 | |
| OE5DRO-10 | 2026-09-04 00:37:51 | 46.86447 | 19.56500 | 147° | 15km/h | 29453m | 7.1m/s | -44.3°C | 2.8% | 13.5hPa | 2.6V | 00:00:00 | 00:00:00 | 00:00:00 | |
| PETON7-10 | 2026-09-04 00:37:48 | 46.86451 | 19.56497 | 180° | 15km/h | 29439m | 5.3m/s | -44.3°C | 2.8% | 13.6hPa | 2.6V | 00:00:00 | 01:43:28 | 00:00:00 | |
| OM5KV | 2026-09-04 00:37:46 | 46.86450 | 19.56495 | 63° | 5km/h | 29428m | 7.4m/s | -44.2°C | 0.7% | 13.7hPa | 2.6V | 00:00:00 | 00:00:00 | 00:00:00 | |
| OM5KV | 2026-09-04 00:37:43 | 46.86445 | 19.56481 | 61° | 22km/h | 29407m | 6.4m/s | -44.2°C | 0.7% | 13.7hPa | 2.6V | 00:00:00 | 00:00:00 | 00:00:00 | |
| OM5KV | 2026-09-04 00:37:39 | 46.86436 | 19.56462 | 60° | 18km/h | 29386m | 5.8m/s | -44.2°C | 0.7% | 13.8hPa | 2.6V | 00:00:00 | 00:00:00 | 00:00:00 | |
| OM5KV | 2026-09-04 00:37:36 | 46.86435 | 19.56443 | 100° | 18km/h | 29366m | 5.1m/s | -44.2°C | 0.7% | 13.8hPa | 2.6V | 00:00:00 | 00:00:00 | 00:00:00 | |
| OE5DRO-10 | 2026-09-04 00:37:33 | 46.86429 | 19.56421 | 42° | 16km/h | 29334m | 6.7m/s | -44.2°C | 2.7% | 13.8hPa | 2.6V | 00:00:00 | 00:00:00 | 00:00:00 | |
| OM5KV | 2026-09-04 00:37:26 | 46.86418 | 19.56404 | 14° | 13km/h | 29300m | 7.6m/s | -44.7°C | 0.7% | 13.9hPa | 2.6V | 00:00:00 | 00:00:00 | 00:00:00 | |
| OM5KV | 2026-09-04 00:37:23 | 46.86409 | 19.56398 | 58° | 15km/h | 29280m | 7.7m/s | -45.0°C | 0.7% | 14.0hPa | 2.6V | 00:00:00 | 00:00:00 | 00:00:00 | |
| OM5KV | 2026-09-04 00:37:21 | 46.86405 | 19.56380 | 69° | 18km/h | 29262m | 7.0m/s | -45.1°C | 0.7% | 14.0hPa | 2.6V | 00:00:00 | 00:00:00 | 00:00:00 | |
| PETON7-10 | 2026-09-04 00:37:18 | 46.86396 | 19.56366 | 42° | 16km/h | 29242m | 5.8m/s | -45.0°C | 2.9% | 14.0hPa | 2.6V | 00:00:00 | 00:00:00 | 00:00:00 | |
| OM5KV | 2026-09-04 00:37:15 | 46.86391 | 19.56355 | 62° | 18km/h | 29228m | 7.8m/s | -45.0°C | 0.7% | 14.1hPa | 2.6V | 00:00:00 | 00:00:00 | 00:00:00 | |
| OE5DRO-10 | 2026-09-04 00:37:13 | 46.86380 | 19.56330 | 51° | 22km/h | 29200m | 5.7m/s | -44.9°C | 2.9% | 14.1hPa | 2.6V | 00:00:00 | 00:00:00 | 00:00:00 | |
| PETON7-10 | 2026-09-04 00:37:03 | 46.86364 | 19.56287 | 68° | 26km/h | 29140m | 7.2m/s | -44.9°C | 2.9% | 14.2hPa | 2.6V | 00:00:00 | 01:42:43 | 00:00:00 | |
| OM5KV | 2026-09-04 00:37:00 | 46.86360 | 19.56264 | 83° | 35km/h | 29126m | 6.5m/s | -44.9°C | 0.7% | 14.3hPa | 2.6V | 00:00:00 | 00:00:00 | 00:00:00 | |
| GYPAP8-17 | 2026-09-04 00:36:55 | 46.86345 | 19.56200 | 70° | 22km/h | 29088m | 6.6m/s | -44.9°C | 0.7% | 14.4hPa | 2.6V | 00:00:00 | 00:00:00 | 00:00:00 | |
| OM5KV | 2026-09-04 00:36:54 | 46.86343 | 19.56194 | 62° | 16km/h | 29081m | 7.4m/s | -44.9°C | 0.7% | 14.4hPa | 2.6V | 00:00:00 | 00:00:00 | 00:00:00 | |
| OM5KV | 2026-09-04 00:36:53 | 46.86341 | 19.56190 | 38° | 15km/h | 29073m | 7.3m/s | -44.9°C | 0.7% | 14.4hPa | 2.6V | 00:00:00 | 00:00:00 | 00:00:00 | |
| PETON7-10 | 2026-09-04 00:36:48 | 46.86325 | 19.56162 | 74° | 22km/h | 29037m | 8.0m/s | -44.9°C | 2.9% | 14.4hPa | 2.6V | 00:00:00 | 00:00:00 | 00:00:00 | |
| OM5KV | 2026-09-04 00:36:42 | 46.86316 | 19.56114 | 73° | 26km/h | 29004m | 6.4m/s | -45.0°C | 0.7% | 14.5hPa | 2.6V | 00:00:00 | 00:00:00 | 00:00:00 | |
| OM5KV | 2026-09-04 00:36:39 | 46.86307 | 19.56100 | 346° | 15km/h | 28976m | 7.9m/s | -44.9°C | 0.7% | 14.6hPa | 2.6V | 00:00:00 | 00:00:00 | 00:00:00 | |
| OM5KV | 2026-09-04 00:36:37 | 46.86303 | 19.56102 | 349° | 20km/h | 28968m | 9.1m/s | -44.9°C | 0.7% | 14.6hPa | 2.6V | 00:00:00 | 00:00:00 | 00:00:00 | |
| OE5DRO-10 | 2026-09-04 00:36:35 | 46.86286 | 19.56102 | 9° | 13km/h | 28949m | 7.5m/s | -44.9°C | 2.8% | 14.6hPa | 2.6V | 00:00:00 | 00:00:00 | 08:30:00 | |
| OM5KV | 2026-09-04 00:36:34 | 46.86281 | 19.56101 | 13° | 16km/h | 28941m | 8.7m/s | -45.0°C | 0.7% | 14.7hPa | 2.5V | 00:00:00 | 00:00:00 | 00:00:00 | |
| PETON7-10 | 2026-09-04 00:36:33 | 46.86278 | 19.56099 | 29° | 13km/h | 28934m | 5.2m/s | -44.9°C | 2.9% | 14.7hPa | 2.5V | 00:00:00 | 00:00:00 | 00:00:00 | |
| OM5KV | 2026-09-04 00:36:32 | 46.86278 | 19.56099 | 29° | 13km/h | 28934m | 5.2m/s | -45.0°C | 0.7% | 14.7hPa | 2.5V | 00:00:00 | 00:00:00 | 00:00:00 | |
| LZ4TU-5 | 2026-09-04 00:36:28 | 46.86270 | 19.56072 | 83° | 16km/h | 28902m | 6.0m/s | -45.2°C | 0.7% | 14.8hPa | 2.5V | 00:00:00 | 00:00:00 | 00:00:00 | |
| OM5KV | 2026-09-04 00:36:27 | 46.86270 | 19.56072 | 83° | 16km/h | 28902m | 6.0m/s | -45.2°C | 0.7% | 14.8hPa | 2.5V | 00:00:00 | 00:00:00 | 00:00:00 | |
| OM5KV | 2026-09-04 00:36:23 | 46.86266 | 19.56076 | 297° | 13km/h | 28866m | 7.7m/s | -45.2°C | 0.7% | 14.9hPa | 2.5V | 00:00:00 | 00:00:00 | 00:00:00 | |
| OM5KV | 2026-09-04 00:36:20 | 46.86263 | 19.56083 | 308° | 9km/h | 28853m | 6.6m/s | -45.2°C | 0.7% | 14.9hPa | 2.5V | 00:00:00 | 00:00:00 | 00:00:00 | |
| OM5KV | 2026-09-04 00:36:18 | 46.86259 | 19.56089 | 355° | 5km/h | 28832m | 6.0m/s | -45.3°C | 0.7% | 14.9hPa | 2.5V | 00:00:00 | 00:00:00 | 00:00:00 | |
| OE5DRO-10 | 2026-09-04 00:36:16 | 46.86255 | 19.56086 | 46° | 11km/h | 28817m | 7.9m/s | -45.3°C | 2.9% | 14.9hPa | 2.5V | 00:00:00 | 00:00:00 | 00:00:00 | |
| OM5KV | 2026-09-04 00:36:15 | 46.86253 | 19.56082 | 43° | 16km/h | 28810m | 6.0m/s | -45.5°C | 0.7% | 15.0hPa | 2.5V | 00:00:00 | 00:00:00 | 00:00:00 | |
| OM5KV | 2026-09-04 00:36:11 | 46.86242 | 19.56077 | 342° | 15km/h | 28790m | 7.2m/s | -45.5°C | 0.7% | 15.0hPa | 2.5V | 00:00:00 | 00:00:00 | 00:00:00 | |
| OM5KV | 2026-09-04 00:36:08 | 46.86234 | 19.56087 | 302° | 15km/h | 28769m | 5.9m/s | -45.6°C | 0.8% | 15.1hPa | 2.5V | 00:00:00 | 00:00:00 | 00:00:00 | |
| OM5KV | 2026-09-04 00:36:05 | 46.86231 | 19.56104 | 253° | 7km/h | 28741m | 6.8m/s | -45.6°C | 0.8% | 15.1hPa | 2.5V | 00:00:00 | 00:00:00 | 00:00:00 | |
| OM5KV | 2026-09-04 00:36:03 | 46.86233 | 19.56105 | 118° | 7km/h | 28726m | 6.3m/s | -45.5°C | 0.8% | 15.2hPa | 2.5V | 00:00:00 | 00:00:00 | 00:00:00 | |
| OM5KV | 2026-09-04 00:35:59 | 46.86233 | 19.56094 | 78° | 7km/h | 28705m | 8.5m/s | -45.5°C | 0.8% | 15.2hPa | 2.5V | 00:00:00 | 00:00:00 | 00:00:00 | |
| OE5DRO-10 | 2026-09-04 00:35:57 | 46.86233 | 19.56093 | 241° | 11km/h | 28686m | 8.1m/s | -45.3°C | 2.9% | 15.2hPa | 2.5V | 00:00:00 | 00:00:00 | 00:00:00 | |
| OM5KV | 2026-09-04 00:35:56 | 46.86234 | 19.56094 | 226° | 4km/h | 28677m | 9.7m/s | -45.3°C | 0.7% | 15.3hPa | 2.5V | 00:00:00 | 00:00:00 | 00:00:00 | |
| OM5KV | 2026-09-04 00:35:53 | 46.86236 | 19.56099 | 239° | 9km/h | 28659m | 7.8m/s | -45.1°C | 0.7% | 15.3hPa | 2.5V | 00:00:00 | 00:00:00 | 00:00:00 | |
| GYPAP8-17 | 2026-09-04 00:35:52 | 46.86236 | 19.56099 | 239° | 9km/h | 28659m | 7.8m/s | -45.1°C | 0.7% | 15.3hPa | 2.5V | 00:00:00 | 00:00:00 | 00:00:00 | |
| OM5KV | 2026-09-04 00:35:49 | 46.86243 | 19.56104 | 164° | 11km/h | 28640m | 6.1m/s | -45.1°C | 0.7% | 15.4hPa | 2.5V | 00:00:00 | 00:00:00 | 00:00:00 | |
| PETON7-10 | 2026-09-04 00:35:48 | 46.86247 | 19.56096 | 106° | 13km/h | 28624m | 7.3m/s | -45.2°C | 2.9% | 15.4hPa | 2.5V | 00:00:00 | 00:00:00 | 00:00:00 | |
| OM5KV | 2026-09-04 00:35:45 | 46.86248 | 19.56074 | 86° | 15km/h | 28603m | 8.3m/s | -45.4°C | 0.7% | 15.5hPa | 2.5V | 00:00:00 | 00:00:00 | 00:00:00 | |
| OM5KV | 2026-09-04 00:35:44 | 46.86247 | 19.56070 | 66° | 9km/h | 28596m | 6.3m/s | -45.4°C | 0.7% | 15.5hPa | 2.5V | 00:00:00 | 00:00:00 | 00:00:00 | |
| OM5KV | 2026-09-04 00:35:39 | 46.86240 | 19.56073 | 278° | 13km/h | 28561m | 8.4m/s | -45.3°C | 0.7% | 15.6hPa | 2.5V | 00:00:00 | 00:00:00 | 00:00:00 | |
| OE5DRO-10 | 2026-09-04 00:35:38 | 46.86240 | 19.56077 | 260° | 11km/h | 28554m | 6.7m/s | -45.2°C | 2.9% | 15.5hPa | 2.5V | 00:00:00 | 00:00:00 | 00:00:00 | |
| OM5KV | 2026-09-04 00:35:35 | 46.86243 | 19.56083 | 184° | 5km/h | 28542m | 7.1m/s | -45.3°C | 0.7% | 15.6hPa | 2.6V | 00:00:00 | 00:00:00 | 00:00:00 | |
| PETON7-10 | 2026-09-04 00:35:33 | 46.86247 | 19.56067 | 105° | 11km/h | 28522m | 5.4m/s | -45.5°C | 2.9% | 15.6hPa | 2.6V | 00:00:00 | 01:41:13 | 00:00:00 | |
| OM5KV | 2026-09-04 00:35:20 | 46.86243 | 19.56055 | 87° | 9km/h | 28438m | 8.1m/s | -45.8°C | 0.8% | 15.9hPa | 2.6V | 00:00:00 | 00:00:00 | 00:00:00 | |
| OE5DRO-10 | 2026-09-04 00:35:19 | 46.86241 | 19.56044 | 78° | 13km/h | 28424m | 5.9m/s | -45.8°C | 3.0% | 15.8hPa | 2.6V | 00:00:00 | 00:00:00 | 00:00:00 | |
| PETON7-10 | 2026-09-04 00:35:18 | 46.86240 | 19.56037 | 80° | 13km/h | 28417m | 7.3m/s | -45.7°C | 3.0% | 15.9hPa | 2.6V | 00:00:00 | 00:00:00 | 08:30:00 | |
| OM5KV | 2026-09-04 00:35:03 | 46.86255 | 19.55981 | 104° | 15km/h | 28315m | 7.1m/s | -45.8°C | 0.7% | 16.2hPa | 2.6V | 00:00:00 | 00:00:00 | 00:00:00 | |
| OE5DRO-10 | 2026-09-04 00:35:00 | 46.86254 | 19.55967 | 86° | 18km/h | 28295m | 6.6m/s | -45.7°C | 3.0% | 16.2hPa | 2.6V | 00:00:00 | 00:00:00 | 00:00:00 | |
| OM5KV | 2026-09-04 00:34:58 | 46.86256 | 19.55958 | 133° | 15km/h | 28281m | 5.6m/s | -45.8°C | 0.8% | 16.3hPa | 2.6V | 00:00:00 | 00:00:00 | 00:00:00 | |
| OM5KV | 2026-09-04 00:34:50 | 46.86276 | 19.55920 | 120° | 24km/h | 28232m | 9.8m/s | -45.6°C | 0.8% | 16.4hPa | 2.6V | 00:00:00 | 00:00:00 | 00:00:00 | |
| OM5KV | 2026-09-04 00:34:49 | 46.86279 | 19.55913 | 116° | 18km/h | 28226m | 3.2m/s | -45.5°C | 0.7% | 16.4hPa | 2.6V | 00:00:00 | 00:00:00 | 00:00:00 | |
| PETON7-10 | 2026-09-04 00:34:48 | 46.86280 | 19.55901 | 88° | 20km/h | 28216m | 8.1m/s | -45.4°C | 2.9% | 16.3hPa | 2.6V | 00:00:00 | 01:40:28 | 00:00:00 | |
| OM5KV | 2026-09-04 00:34:45 | 46.86278 | 19.55890 | 69° | 18km/h | 28198m | 3.1m/s | -45.5°C | 0.7% | 16.4hPa | 2.6V | 00:00:00 | 00:00:00 | 00:00:00 | |
| OM5KV | 2026-09-04 00:34:44 | 46.86277 | 19.55884 | 86° | 15km/h | 28195m | 3.0m/s | -45.5°C | 0.8% | 16.4hPa | 2.6V | 00:00:00 | 00:00:00 | 00:00:00 | |
| OM5KV | 2026-09-04 00:34:40 | 46.86296 | 19.55868 | 168° | 26km/h | 28162m | 7.7m/s | -45.5°C | 0.7% | 16.5hPa | 2.6V | 00:00:00 | 00:00:00 | 00:00:00 | |
| OM5KV | 2026-09-04 00:34:38 | 46.86301 | 19.55865 | 159° | 22km/h | 28153m | 9.6m/s | -45.6°C | 0.7% | 16.5hPa | 2.6V | 00:00:00 | 00:00:00 | 00:00:00 | |
| LZ4TU-5 | 2026-09-04 00:34:35 | 46.86314 | 19.55844 | 117° | 22km/h | 28125m | 7.3m/s | -45.8°C | 0.8% | 16.6hPa | 2.6V | 00:00:00 | 00:00:00 | 00:00:00 | |
| PETON7-10 | 2026-09-04 00:34:33 | 46.86317 | 19.55828 | 96° | 15km/h | 28112m | 7.4m/s | -45.9°C | 3.0% | 16.6hPa | 2.6V | 00:00:00 | 00:00:00 | 00:00:00 | |
| OM5KV | 2026-09-04 00:34:31 | 46.86317 | 19.55819 | 88° | 24km/h | 28104m | 8.0m/s | -45.9°C | 0.8% | 16.7hPa | 2.6V | 00:00:00 | 00:00:00 | 00:00:00 | |
| LZ4TU-5 | 2026-09-04 00:34:29 | 46.86316 | 19.55802 | 93° | 24km/h | 28090m | 7.0m/s | -46.0°C | 0.7% | 16.7hPa | 2.6V | 00:00:00 | 00:00:00 | 00:00:00 | |
| OM5KV | 2026-09-04 00:34:27 | 46.86321 | 19.55781 | 131° | 16km/h | 28070m | 6.9m/s | -46.0°C | 0.8% | 16.8hPa | 2.6V | 00:00:00 | 00:00:00 | 00:00:00 | |
| OM5KV | 2026-09-04 00:34:21 | 46.86326 | 19.55770 | 97° | 5km/h | 28035m | 3.8m/s | -46.0°C | 0.8% | 16.9hPa | 2.6V | 00:00:00 | 00:00:00 | 00:00:00 | |
| PETON7-10 | 2026-09-04 00:34:18 | 46.86324 | 19.55753 | 72° | 16km/h | 28006m | 5.8m/s | -46.0°C | 3.0% | 16.9hPa | 2.6V | 00:00:00 | 00:00:00 | 00:00:00 | |
| OM5KV | 2026-09-04 00:34:13 | 46.86322 | 19.55715 | 98° | 27km/h | 27979m | 5.9m/s | -46.1°C | 0.8% | 17.0hPa | 2.6V | 00:00:00 | 00:00:00 | 00:00:00 | |
| OM5KV | 2026-09-04 00:34:09 | 46.86319 | 19.55690 | 45° | 11km/h | 27951m | 7.4m/s | -46.2°C | 0.8% | 17.1hPa | 2.6V | 00:00:00 | 00:00:00 | 00:00:00 | |
| OM5KV | 2026-09-04 00:34:08 | 46.86316 | 19.55686 | 49° | 5km/h | 27935m | 6.0m/s | -46.2°C | 0.8% | 17.1hPa | 2.6V | 00:00:00 | 00:00:00 | 00:00:00 | |
| PETON7-10 | 2026-09-04 00:34:03 | 46.86306 | 19.55667 | 68° | 22km/h | 27902m | 8.2m/s | -46.3°C | 3.0% | 17.2hPa | 2.6V | 00:00:00 | 01:39:43 | 00:00:00 | |
| OM5KV | 2026-09-04 00:34:02 | 46.86307 | 19.55667 | 69° | 20km/h | 27902m | 8.3m/s | -46.3°C | 0.8% | 17.2hPa | 2.6V | 00:00:00 | 00:00:00 | 00:00:00 | |
| OM5KV | 2026-09-04 00:34:01 | 46.86305 | 19.55659 | 78° | 24km/h | 27894m | 6.7m/s | -46.4°C | 0.8% | 17.2hPa | 2.6V | 00:00:00 | 00:00:00 | 00:00:00 | |
| OM5KV | 2026-09-04 00:33:56 | 46.86290 | 19.55603 | 58° | 24km/h | 27851m | 7.6m/s | -46.6°C | 0.8% | 17.4hPa | 2.6V | 00:00:00 | 00:00:00 | 00:00:00 | |
| PETON7-10 | 2026-09-04 00:33:48 | 46.86268 | 19.55564 | 91° | 22km/h | 27796m | 6.6m/s | -46.5°C | 3.1% | 17.4hPa | 2.6V | 00:00:00 | 00:00:00 | 00:00:00 | |
| OM5KV | 2026-09-04 00:33:46 | 46.86267 | 19.55548 | 78° | 24km/h | 27781m | 8.0m/s | -46.6°C | 0.8% | 17.5hPa | 2.6V | 00:00:00 | 00:00:00 | 00:00:00 | |
| OM5KV | 2026-09-04 00:33:45 | 46.86265 | 19.55540 | 66° | 24km/h | 27775m | 5.4m/s | -46.6°C | 0.8% | 17.5hPa | 2.6V | 00:00:00 | 00:00:00 | 00:00:00 | |
| OE5DRO-10 | 2026-09-04 00:33:44 | 46.86256 | 19.55516 | 57° | 20km/h | 27753m | 4.8m/s | -46.7°C | 3.1% | 17.5hPa | 2.6V | 00:00:00 | 00:00:00 | 08:30:00 | |
| OM5KV | 2026-09-04 00:33:37 | 46.86239 | 19.55491 | 32° | 22km/h | 27725m | 4.9m/s | -46.9°C | 0.8% | 17.7hPa | 2.6V | 00:00:00 | 00:00:00 | 00:00:00 | |
| OM5KV | 2026-09-04 00:33:34 | 46.86231 | 19.55480 | 91° | 11km/h | 27705m | 7.3m/s | -46.9°C | 0.8% | 17.7hPa | 2.6V | 00:00:00 | 00:00:00 | 00:00:00 | |
| PETON7-10 | 2026-09-04 00:33:33 | 46.86232 | 19.55471 | 111° | 20km/h | 27692m | 7.2m/s | -46.9°C | 3.2% | 17.7hPa | 2.6V | 00:00:00 | 00:00:00 | 00:00:00 | |
| OM5KV | 2026-09-04 00:33:32 | 46.86234 | 19.55465 | 97° | 15km/h | 27684m | 7.4m/s | -47.0°C | 0.8% | 17.8hPa | 2.6V | 00:00:00 | 00:00:00 | 00:00:00 | |
| OM5KV | 2026-09-04 00:33:28 | 46.86230 | 19.55445 | 70° | 22km/h | 27662m | 8.7m/s | -47.0°C | 0.8% | 17.8hPa | 2.6V | 00:00:00 | 00:00:00 | 00:00:00 | |
| OM5KV | 2026-09-04 00:33:26 | 46.86220 | 19.55424 | 42° | 26km/h | 27642m | 7.8m/s | -47.0°C | 0.8% | 17.9hPa | 2.6V | 00:00:00 | 00:00:00 | 00:00:00 | |
| OM5KV | 2026-09-04 00:33:25 | 46.86220 | 19.55424 | 42° | 26km/h | 27642m | 7.8m/s | -47.0°C | 0.8% | 17.9hPa | 2.6V | 00:00:00 | 00:00:00 | 00:00:00 | |
| OM5KV | 2026-09-04 00:33:19 | 46.86195 | 19.55395 | 48° | 11km/h | 27598m | 8.8m/s | -46.8°C | 0.8% | 18.0hPa | 2.6V | 00:00:00 | 00:00:00 | 00:00:00 | |
| PETON7-10 | 2026-09-04 00:33:18 | 46.86192 | 19.55390 | 45° | 18km/h | 27584m | 7.0m/s | -46.6°C | 3.1% | 18.0hPa | 2.6V | 00:00:00 | 01:38:58 | 00:00:00 | |
| OM5KV | 2026-09-04 00:33:17 | 46.86190 | 19.55387 | 57° | 11km/h | 27576m | 8.3m/s | -46.6°C | 0.8% | 18.1hPa | 2.6V | 00:00:00 | 00:00:00 | 00:00:00 | |
| OM5KV | 2026-09-04 00:33:11 | 46.86166 | 19.55355 | 26° | 29km/h | 27534m | 7.8m/s | -46.7°C | 0.8% | 18.2hPa | 2.6V | 00:00:00 | 00:00:00 | 00:00:00 | |
| OM5KV | 2026-09-04 00:33:10 | 46.86160 | 19.55350 | 26° | 27km/h | 27526m | 8.4m/s | -46.8°C | 0.8% | 18.2hPa | 2.6V | 00:00:00 | 00:00:00 | 00:00:00 | |
| OM5KV | 2026-09-04 00:33:05 | 46.86144 | 19.55341 | 20° | 13km/h | 27497m | 7.7m/s | -46.8°C | 0.8% | 18.3hPa | 2.6V | 00:00:00 | 00:00:00 | 00:00:00 | |
| PETON7-10 | 2026-09-04 00:33:03 | 46.86138 | 19.55332 | 83° | 15km/h | 27477m | 8.3m/s | -46.8°C | 3.1% | 18.3hPa | 2.6V | 00:00:00 | 00:00:00 | 08:30:00 | |
| OM5KV | 2026-09-04 00:33:01 | 46.86138 | 19.55325 | 98° | 18km/h | 27470m | 6.0m/s | -46.9°C | 0.8% | 18.4hPa | 2.6V | 00:00:00 | 00:00:00 | 00:00:00 | |
| OM5KV | 2026-09-04 00:33:00 | 46.86139 | 19.55318 | 97° | 20km/h | 27463m | 6.5m/s | -46.9°C | 0.8% | 18.4hPa | 2.6V | 00:00:00 | 00:00:00 | 00:00:00 | |
| OM5KV | 2026-09-04 00:32:54 | 46.86125 | 19.55277 | 36° | 13km/h | 27414m | 7.1m/s | -47.0°C | 0.8% | 18.5hPa | 2.6V | 00:00:00 | 00:00:00 | 00:00:00 | |
| GYPAP8-17 | 2026-09-04 00:32:52 | 46.86120 | 19.55274 | 13° | 11km/h | 27399m | 6.4m/s | -46.9°C | 0.8% | 18.6hPa | 2.6V | 00:00:00 | 00:00:00 | 00:00:00 | |
| OM5KV | 2026-09-04 00:32:49 | 46.86116 | 19.55271 | 73° | 5km/h | 27385m | 7.3m/s | -46.9°C | 0.8% | 18.6hPa | 2.6V | 00:00:00 | 00:00:00 | 00:00:00 | |
| PETON7-10 | 2026-09-04 00:32:48 | 46.86117 | 19.55265 | 106° | 11km/h | 27371m | 7.5m/s | -46.8°C | 3.1% | 18.6hPa | 2.6V | 00:00:00 | 00:00:00 | 00:00:00 | |
| LZ4TU-5 | 2026-09-04 00:32:47 | 46.86118 | 19.55260 | 99° | 13km/h | 27363m | 8.8m/s | -46.9°C | 0.8% | 18.7hPa | 2.6V | 00:00:00 | 00:00:00 | 00:00:00 | |
| OM5KV | 2026-09-04 00:32:42 | 46.86116 | 19.55233 | 77° | 13km/h | 27330m | 6.8m/s | -47.1°C | 0.8% | 18.8hPa | 2.6V | 00:00:00 | 00:00:00 | 00:00:00 | |
| OM5KV | 2026-09-04 00:32:36 | 46.86103 | 19.55219 | 70° | 4km/h | 27286m | 6.1m/s | -47.4°C | 0.8% | 18.9hPa | 2.6V | 00:00:00 | 00:00:00 | 00:00:00 | |
| PETON7-10 | 2026-09-04 00:32:33 | 46.86104 | 19.55214 | 102° | 9km/h | 27265m | 7.0m/s | -47.5°C | 3.2% | 18.9hPa | 2.6V | 00:00:00 | 01:38:13 | 00:00:00 | |
| OM5KV | 2026-09-04 00:32:30 | 46.86105 | 19.55207 | 113° | 13km/h | 27251m | 6.7m/s | -47.6°C | 0.9% | 19.0hPa | 2.6V | 00:00:00 | 00:00:00 | 00:00:00 | |
| OM5KV | 2026-09-04 00:32:27 | 46.86108 | 19.55193 | 90° | 11km/h | 27230m | 8.5m/s | -47.6°C | 0.8% | 19.0hPa | 2.6V | 00:00:00 | 00:00:00 | 00:00:00 | |
| OM5KV | 2026-09-04 00:32:24 | 46.86106 | 19.55184 | 78° | 7km/h | 27208m | 8.2m/s | -47.6°C | 0.9% | 19.1hPa | 2.6V | 00:00:00 | 00:00:00 | 00:00:00 | |
| OE5DRO-10 | 2026-09-04 00:32:23 | 46.86108 | 19.55180 | 148° | 9km/h | 27196m | 7.4m/s | -47.5°C | 3.3% | 19.1hPa | 2.6V | 00:00:00 | 00:00:00 | 00:00:00 | |
| OM5KV | 2026-09-04 00:32:22 | 46.86108 | 19.55180 | 149° | 7km/h | 27196m | 7.4m/s | -47.5°C | 0.9% | 19.2hPa | 2.6V | 00:00:00 | 00:00:00 | 00:00:00 | |
| OM5KV | 2026-09-04 00:32:19 | 46.86112 | 19.55173 | 114° | 11km/h | 27174m | 5.8m/s | -47.4°C | 0.8% | 19.2hPa | 2.6V | 00:00:00 | 00:00:00 | 00:00:00 | |
| PETON7-10 | 2026-09-04 00:32:18 | 46.86114 | 19.55166 | 112° | 9km/h | 27159m | 8.8m/s | -47.3°C | 3.3% | 19.2hPa | 2.6V | 00:00:00 | 00:00:00 | 00:00:00 | |
| OM5KV | 2026-09-04 00:32:15 | 46.86114 | 19.55161 | 49° | 5km/h | 27148m | 5.6m/s | -47.4°C | 0.8% | 19.3hPa | 2.7V | 00:00:00 | 00:00:00 | 00:00:00 | |
| OM5KV | 2026-09-04 00:32:12 | 46.86102 | 19.55158 | 2° | 13km/h | 27119m | 4.7m/s | -47.2°C | 0.8% | 19.4hPa | 2.7V | 00:00:00 | 00:00:00 | 00:00:00 | |
| OM5KV | 2026-09-04 00:32:11 | 46.86099 | 19.55158 | 351° | 9km/h | 27113m | 7.0m/s | -47.2°C | 0.8% | 19.4hPa | 2.7V | 00:00:00 | 00:00:00 | 00:00:00 | |
| OM5KV | 2026-09-04 00:32:05 | 46.86108 | 19.55159 | 166° | 11km/h | 27074m | 7.1m/s | -47.0°C | 0.8% | 19.5hPa | 2.7V | 00:00:00 | 00:00:00 | 00:00:00 | |
| OE5DRO-10 | 2026-09-04 00:32:04 | 46.86110 | 19.55158 | 173° | 9km/h | 27067m | 5.6m/s | -46.9°C | 3.2% | 19.5hPa | 2.7V | 00:00:00 | 00:00:00 | 00:00:00 | |
| PETON7-10 | 2026-09-04 00:32:03 | 46.86112 | 19.55158 | 179° | 9km/h | 27061m | 6.2m/s | -46.9°C | 3.2% | 19.5hPa | 2.7V | 00:00:00 | 00:00:00 | 00:00:00 | |
| OM5KV | 2026-09-04 00:31:58 | 46.86108 | 19.55159 | 332° | 9km/h | 27026m | 7.3m/s | -46.9°C | 0.8% | 19.7hPa | 2.7V | 00:00:00 | 00:00:00 | 00:00:00 | |
| OM5KV | 2026-09-04 00:31:53 | 46.86101 | 19.55171 | 306° | 9km/h | 26999m | 4.7m/s | -46.8°C | 0.8% | 19.8hPa | 2.7V | 00:00:00 | 00:00:00 | 00:00:00 | |
| OM5KV | 2026-09-04 00:31:50 | 46.86100 | 19.55180 | 252° | 11km/h | 26977m | 8.3m/s | -46.9°C | 0.8% | 19.8hPa | 2.7V | 00:00:00 | 00:00:00 | 00:00:00 | |
| PETON7-10 | 2026-09-04 00:31:48 | 46.86102 | 19.55192 | 271° | 15km/h | 26957m | 9.1m/s | -46.9°C | 3.1% | 19.8hPa | 2.7V | 00:00:00 | 01:37:28 | 00:00:00 | |
| GYPAP8-17 | 2026-09-04 00:31:46 | 46.86102 | 19.55195 | 314° | 7km/h | 26950m | 6.5m/s | -47.0°C | 0.8% | 19.9hPa | 2.7V | 00:00:00 | 00:00:00 | 00:00:00 | |
| OE5DRO-10 | 2026-09-04 00:31:45 | 46.86097 | 19.55200 | 326° | 15km/h | 26937m | 7.9m/s | -47.0°C | 3.1% | 19.9hPa | 2.7V | 00:00:00 | 00:00:00 | 00:00:00 | |
| OM5KV | 2026-09-04 00:31:43 | 46.86095 | 19.55203 | 322° | 16km/h | 26930m | 6.2m/s | -47.2°C | 0.8% | 19.9hPa | 2.6V | 00:00:00 | 00:00:00 | 00:00:00 | |
| OM5KV | 2026-09-04 00:31:40 | 46.86083 | 19.55215 | 332° | 18km/h | 26909m | 6.1m/s | -47.3°C | 0.8% | 20.0hPa | 2.6V | 00:00:00 | 00:00:00 | 00:00:00 | |
| PETON7-10 | 2026-09-04 00:31:33 | 46.86082 | 19.55246 | 202° | 13km/h | 26856m | 5.7m/s | -47.2°C | 3.1% | 20.1hPa | 2.6V | 00:00:00 | 00:00:00 | 00:00:00 | |
| OM5KV | 2026-09-04 00:31:32 | 46.86082 | 19.55246 | 203° | 9km/h | 26856m | 5.8m/s | -47.3°C | 0.8% | 20.2hPa | 2.6V | 00:00:00 | 00:00:00 | 00:00:00 | |
| OM5KV | 2026-09-04 00:31:27 | 46.86083 | 19.55268 | 311° | 15km/h | 26814m | 6.2m/s | -47.6°C | 0.8% | 20.3hPa | 2.6V | 00:00:00 | 00:00:00 | 00:00:00 | |
| OE5DRO-10 | 2026-09-04 00:31:26 | 46.86081 | 19.55272 | 310° | 11km/h | 26807m | 7.1m/s | -47.7°C | 3.2% | 20.3hPa | 2.6V | 00:00:00 | 00:00:00 | 00:00:00 | |
| OM5KV | 2026-09-04 00:31:21 | 46.86082 | 19.55288 | 205° | 15km/h | 26778m | 8.4m/s | -47.7°C | 0.8% | 20.4hPa | 2.6V | 00:00:00 | 00:00:00 | 00:00:00 | |
| PETON7-10 | 2026-09-04 00:31:18 | 46.86117 | 19.55285 | 178° | 7km/h | 26748m | 6.4m/s | -47.6°C | 3.2% | 20.5hPa | 2.6V | 00:00:00 | 00:00:00 | 00:00:00 | |
| OM5KV | 2026-09-04 00:31:16 | 46.86108 | 19.55286 | 187° | 13km/h | 26736m | 7.0m/s | -47.6°C | 0.8% | 20.6hPa | 2.6V | 00:00:00 | 00:00:00 | 00:00:00 | |
| OM5KV | 2026-09-04 00:31:10 | 46.86116 | 19.55294 | 260° | 7km/h | 26694m | 4.7m/s | -47.7°C | 0.8% | 20.7hPa | 2.6V | 00:00:00 | 00:00:00 | 00:00:00 | |
| OM5KV | 2026-09-04 00:31:09 | 46.86116 | 19.55294 | 260° | 7km/h | 26694m | 4.7m/s | -47.7°C | 0.8% | 20.7hPa | 2.6V | 00:00:00 | 00:00:00 | 00:00:00 | |
| OE5DRO-10 | 2026-09-04 00:31:07 | 46.86116 | 19.55294 | 87° | 9km/h | 26673m | 5.0m/s | -47.7°C | 3.2% | 20.7hPa | 2.6V | 00:00:00 | 00:00:00 | 00:00:00 | |
| OM5KV | 2026-09-04 00:31:04 | 46.86117 | 19.55288 | 117° | 7km/h | 26660m | 8.6m/s | -47.8°C | 0.8% | 20.8hPa | 2.6V | 00:00:00 | 00:00:00 | 00:00:00 | |
| PETON7-10 | 2026-09-04 00:31:03 | 46.86119 | 19.55283 | 118° | 9km/h | 26648m | 4.5m/s | -47.9°C | 3.2% | 20.8hPa | 2.6V | 00:00:00 | 01:36:43 | 00:00:00 | |
| OM5KV | 2026-09-04 00:30:58 | 46.86121 | 19.55267 | 111° | 7km/h | 26621m | 5.9m/s | -48.1°C | 0.8% | 20.9hPa | 2.6V | 00:00:00 | 00:00:00 | 00:00:00 | |
| OM5KV | 2026-09-04 00:30:57 | 46.86122 | 19.55265 | 162° | 5km/h | 26614m | 8.4m/s | -48.1°C | 0.9% | 20.9hPa | 2.6V | 00:00:00 | 00:00:00 | 00:00:00 | |
| OM5KV | 2026-09-04 00:30:56 | 46.86123 | 19.55266 | 218° | 9km/h | 26606m | 6.7m/s | -48.1°C | 0.9% | 21.0hPa | 2.6V | 00:00:00 | 00:00:00 | 00:00:00 | |
| LZ4TU-5 | 2026-09-04 00:30:54 | 46.86127 | 19.55272 | 245° | 9km/h | 26593m | 7.8m/s | -48.1°C | 0% | 0hPa | 2.6V | 00:00:00 | 00:00:00 | 00:00:00 | |
| OM5KV | 2026-09-04 00:30:51 | 46.86124 | 19.55282 | 322° | 7km/h | 26565m | 6.9m/s | -48.3°C | 0.8% | 21.1hPa | 2.6V | 00:00:00 | 00:00:00 | 00:00:00 | |
| PETON7-10 | 2026-09-04 00:30:48 | 46.86118 | 19.55281 | 34° | 9km/h | 26546m | 8.4m/s | -48.3°C | 3.3% | 21.1hPa | 2.6V | 00:00:00 | 00:00:00 | 08:30:00 | |
| OM5KV | 2026-09-04 00:30:45 | 46.86112 | 19.55268 | 82° | 13km/h | 26526m | 8.2m/s | -48.5°C | 0.8% | 21.2hPa | 2.6V | 00:00:00 | 00:00:00 | 00:00:00 | |
| OM5KV | 2026-09-04 00:30:39 | 46.86113 | 19.55264 | 0° | 0km/h | 26486m | 6.7m/s | -48.4°C | 0.9% | 21.3hPa | 2.6V | 00:00:00 | 00:00:00 | 00:00:00 | |
| OM5KV | 2026-09-04 00:30:35 | 46.86104 | 19.55251 | 65° | 20km/h | 26451m | 6.8m/s | -48.7°C | 0.9% | 21.4hPa | 2.6V | 00:00:00 | 00:00:00 | 00:00:00 | |
| OM5KV | 2026-09-04 00:30:34 | 46.86102 | 19.55245 | 72° | 18km/h | 26444m | 7.8m/s | -48.7°C | 0.9% | 21.5hPa | 2.6V | 00:00:00 | 00:00:00 | 00:00:00 | |
| OM5KV | 2026-09-04 00:30:28 | 46.86098 | 19.55222 | 75° | 11km/h | 26408m | 6.4m/s | -48.6°C | 0.8% | 21.6hPa | 2.6V | 00:00:00 | 00:00:00 | 00:00:00 | |
| OM5KV | 2026-09-04 00:30:26 | 46.86097 | 19.55219 | 61° | 7km/h | 26402m | 7.0m/s | -48.6°C | 0.8% | 21.6hPa | 2.6V | 00:00:00 | 00:00:00 | 00:00:00 | |
| OM5KV | 2026-09-04 00:30:25 | 46.86096 | 19.55217 | 18° | 5km/h | 26395m | 6.6m/s | -48.6°C | 0.9% | 21.7hPa | 2.6V | 00:00:00 | 00:00:00 | 00:00:00 | |
| OM5KV | 2026-09-04 00:30:21 | 46.86083 | 19.55212 | 53° | 11km/h | 26360m | 7.1m/s | -48.7°C | 0.9% | 21.8hPa | 2.6V | 00:00:00 | 00:00:00 | 00:00:00 | |
| PETON7-10 | 2026-09-04 00:30:18 | 46.86081 | 19.55202 | 86° | 9km/h | 26337m | 8.0m/s | -48.7°C | 3.3% | 21.8hPa | 2.6V | 00:00:00 | 01:35:58 | 00:00:00 | |
| OM5KV | 2026-09-04 00:30:15 | 46.86081 | 19.55197 | 81° | 5km/h | 26324m | 6.9m/s | -48.7°C | 0.9% | 21.9hPa | 2.6V | 00:00:00 | 00:00:00 | 00:00:00 | |
| OM5KV | 2026-09-04 00:30:14 | 46.86080 | 19.55195 | 73° | 4km/h | 26317m | 8.0m/s | -48.8°C | 0.9% | 21.9hPa | 2.6V | 00:00:00 | 00:00:00 | 00:00:00 | |
| OM5KV | 2026-09-04 00:30:10 | 46.86074 | 19.55203 | 353° | 15km/h | 26280m | 5.0m/s | -48.8°C | 0.9% | 22.0hPa | 2.6V | 00:00:00 | 00:00:00 | 00:00:00 | |
| OE5DRO-10 | 2026-09-04 00:30:08 | 46.86062 | 19.55199 | 40° | 11km/h | 26251m | 5.1m/s | -48.8°C | 3.3% | 22.1hPa | 2.6V | 00:00:00 | 00:00:00 | 00:00:00 | |
| OM5KV | 2026-09-04 00:30:02 | 46.86053 | 19.55190 | 27° | 15km/h | 26231m | 5.5m/s | -48.9°C | 0.9% | 22.2hPa | 2.6V | 00:00:00 | 00:00:00 | 00:00:00 | |
| OM5KV | 2026-09-04 00:29:58 | 46.86043 | 19.55196 | 306° | 9km/h | 26197m | 8.2m/s | -49.0°C | 0.9% | 22.3hPa | 2.6V | 00:00:00 | 00:00:00 | 00:00:00 | |
| OM5KV | 2026-09-04 00:29:57 | 46.86042 | 19.55198 | 329° | 9km/h | 26189m | 6.5m/s | -49.0°C | 0.9% | 22.3hPa | 2.6V | 00:00:00 | 00:00:00 | 00:00:00 | |
| OM5KV | 2026-09-04 00:29:53 | 46.86035 | 19.55203 | 321° | 5km/h | 26161m | 6.8m/s | -49.2°C | 0.9% | 22.4hPa | 2.6V | 00:00:00 | 00:00:00 | 00:00:00 | |
| OM5KV | 2026-09-04 00:29:51 | 46.86034 | 19.55204 | 329° | 5km/h | 26153m | 8.3m/s | -49.2°C | 0.9% | 22.5hPa | 2.6V | 00:00:00 | 00:00:00 | 00:00:00 | |
| PETON7-10 | 2026-09-04 00:29:48 | 46.86027 | 19.55213 | 296° | 9km/h | 26125m | 4.9m/s | -49.2°C | 3.5% | 22.5hPa | 2.6V | 00:00:00 | 00:00:00 | 00:00:00 | |
| OM5KV | 2026-09-04 00:29:47 | 46.86025 | 19.55218 | 291° | 15km/h | 26119m | 7.6m/s | -49.2°C | 0.9% | 22.6hPa | 2.6V | 00:00:00 | 00:00:00 | 00:00:00 | |
| OM5KV | 2026-09-04 00:29:40 | 46.86017 | 19.55238 | 0° | 0km/h | 26074m | 6.1m/s | -49.1°C | 0.9% | 22.7hPa | 2.6V | 00:00:00 | 00:00:00 | 00:00:00 | |
| GYPAP8-17 | 2026-09-04 00:29:39 | 46.86017 | 19.55238 | 65° | 5km/h | 26068m | 7.1m/s | -49.2°C | 0.9% | 22.8hPa | 2.6V | 00:00:00 | 00:00:00 | 00:00:00 | |
| OM5KV | 2026-09-04 00:29:35 | 46.86014 | 19.55222 | 142° | 4km/h | 26032m | 7.5m/s | -49.3°C | 0.9% | 22.9hPa | 2.6V | 00:00:00 | 00:00:00 | 00:00:00 | |
| OM5KV | 2026-09-04 00:29:34 | 46.86014 | 19.55222 | 142° | 4km/h | 26032m | 7.5m/s | -49.3°C | 0.9% | 22.9hPa | 2.6V | 00:00:00 | 00:00:00 | 00:00:00 | |
| PETON7-10 | 2026-09-04 00:29:33 | 46.86016 | 19.55223 | 214° | 5km/h | 26019m | 6.7m/s | -49.3°C | 3.5% | 22.9hPa | 2.6V | 00:00:00 | 01:35:13 | 00:00:00 | |
| OM5KV | 2026-09-04 00:29:29 | 46.86020 | 19.55230 | 233° | 5km/h | 25989m | 6.8m/s | -49.4°C | 0.9% | 23.0hPa | 2.6V | 00:00:00 | 00:00:00 | 00:00:00 | |
| OM5KV | 2026-09-04 00:29:23 | 46.86016 | 19.55224 | 31° | 7km/h | 25954m | 7.9m/s | -49.3°C | 0.9% | 23.2hPa | 2.6V | 00:00:00 | 00:00:00 | 00:00:00 | |
| PETON7-10 | 2026-09-04 00:29:18 | 46.86011 | 19.55221 | 24° | 7km/h | 25914m | 8.5m/s | -49.2°C | 3.5% | 23.2hPa | 2.6V | 00:00:00 | 00:00:00 | 00:00:00 | |
| OM5KV | 2026-09-04 00:29:16 | 46.86011 | 19.55221 | 282° | 2km/h | 25905m | 9.1m/s | -49.3°C | 0.9% | 23.3hPa | 2.6V | 00:00:00 | 00:00:00 | 00:00:00 | |
| OM5KV | 2026-09-04 00:29:13 | 46.86008 | 19.55223 | 24° | 7km/h | 25885m | 8.6m/s | -49.3°C | 0.9% | 23.4hPa | 2.6V | 00:00:00 | 00:00:00 | 00:00:00 | |
| OM5KV | 2026-09-04 00:29:10 | 46.86001 | 19.55219 | 4° | 11km/h | 25866m | 7.3m/s | -49.4°C | 0.9% | 23.5hPa | 2.6V | 00:00:00 | 00:00:00 | 00:00:00 | |
| OE5DRO-10 | 2026-09-04 00:29:07 | 46.85991 | 19.55232 | 287° | 5km/h | 25825m | 8.3m/s | -49.5°C | 3.4% | 23.6hPa | 2.6V | 00:00:00 | 00:00:00 | 00:00:00 | |
| PETON7-10 | 2026-09-04 00:29:03 | 46.85990 | 19.55239 | 283° | 5km/h | 25811m | 6.2m/s | -49.5°C | 3.5% | 23.6hPa | 2.6V | 00:00:00 | 00:00:00 | 00:00:00 | |
| LZ4TU-5 | 2026-09-04 00:29:02 | 46.85990 | 19.55239 | 284° | 9km/h | 25811m | 6.3m/s | -49.5°C | 0% | 0hPa | 2.6V | 00:00:00 | 00:00:00 | 00:00:00 | |
| OM5KV | 2026-09-04 00:29:01 | 46.85989 | 19.55242 | 302° | 7km/h | 25804m | 7.8m/s | -49.5°C | 0.9% | 23.7hPa | 2.6V | 00:00:00 | 00:00:00 | 00:00:00 | |
| OM5KV | 2026-09-04 00:29:00 | 46.85988 | 19.55243 | 357° | 5km/h | 25797m | 6.1m/s | -49.5°C | 0.9% | 23.7hPa | 2.6V | 00:00:00 | 00:00:00 | 00:00:00 | |
| LZ4TU-5 | 2026-09-04 00:28:59 | 46.85985 | 19.55241 | 41° | 5km/h | 25784m | 7.6m/s | -49.5°C | 0% | 0hPa | 2.6V | 00:00:00 | 00:00:00 | 00:00:00 | |
| OM5KV | 2026-09-04 00:28:55 | 46.85984 | 19.55240 | 0° | 0km/h | 25764m | 7.4m/s | -49.5°C | 0.9% | 23.8hPa | 2.6V | 00:00:00 | 00:00:00 | 00:00:00 | |
| OM5KV | 2026-09-04 00:28:54 | 46.85984 | 19.55240 | 0° | 0km/h | 25757m | 6.6m/s | -49.5°C | 0.9% | 23.9hPa | 2.6V | 00:00:00 | 00:00:00 | 00:00:00 | |
| OM5KV | 2026-09-04 00:28:53 | 46.85984 | 19.55241 | 297° | 2km/h | 25750m | 6.3m/s | -49.5°C | 0.9% | 23.9hPa | 2.6V | 00:00:00 | 00:00:00 | 00:00:00 | |
| OM5KV | 2026-09-04 00:28:50 | 46.85985 | 19.55250 | 256° | 7km/h | 25722m | 6.8m/s | -49.4°C | 0.9% | 24.0hPa | 2.6V | 00:00:00 | 00:00:00 | 00:00:00 | |
| PETON7-10 | 2026-09-04 00:28:48 | 46.85986 | 19.55253 | 161° | 7km/h | 25709m | 6.3m/s | -49.4°C | 3.4% | 24.0hPa | 2.6V | 00:00:00 | 01:34:28 | 00:00:00 | |
| OE5DRO-10 | 2026-09-04 00:28:47 | 46.85986 | 19.55252 | 133° | 7km/h | 25702m | 7.1m/s | -49.4°C | 3.4% | 24.0hPa | 2.6V | 00:00:00 | 00:00:00 | 00:00:00 | |
| OM5KV | 2026-09-04 00:28:46 | 46.85986 | 19.55252 | 133° | 5km/h | 25702m | 7.1m/s | -49.4°C | 0.9% | 24.1hPa | 2.6V | 00:00:00 | 00:00:00 | 00:00:00 | |
| OM5KV | 2026-09-04 00:28:44 | 46.85990 | 19.55244 | 116° | 13km/h | 25681m | 7.7m/s | -49.6°C | 0.9% | 24.1hPa | 2.6V | 00:00:00 | 00:00:00 | 00:00:00 | |
| OM5KV | 2026-09-04 00:28:40 | 46.85992 | 19.55231 | 88° | 9km/h | 25661m | 7.2m/s | -49.5°C | 0.9% | 24.2hPa | 2.6V | 00:00:00 | 00:00:00 | 00:00:00 | |
| OM5KV | 2026-09-04 00:28:39 | 46.85992 | 19.55229 | 98° | 4km/h | 25654m | 7.8m/s | -49.5°C | 0.9% | 24.3hPa | 2.6V | 00:00:00 | 00:00:00 | 00:00:00 | |
| OM5KV | 2026-09-04 00:28:37 | 46.85992 | 19.55229 | 292° | 4km/h | 25641m | 6.9m/s | -49.6°C | 0.9% | 24.3hPa | 2.6V | 00:00:00 | 00:00:00 | 00:00:00 | |
| PETON7-10 | 2026-09-04 00:28:33 | 46.85985 | 19.55236 | 311° | 7km/h | 25607m | 6.1m/s | -49.8°C | 3.4% | 24.4hPa | 2.6V | 00:00:00 | 00:00:00 | 08:30:00 | |
| OM5KV | 2026-09-04 00:28:31 | 46.85985 | 19.55236 | 115° | 2km/h | 25601m | 5.7m/s | -49.9°C | 0.9% | 24.5hPa | 2.7V | 00:00:00 | 00:00:00 | 00:00:00 | |
| OM5KV | 2026-09-04 00:28:29 | 46.85986 | 19.55231 | 99° | 11km/h | 25587m | 5.9m/s | -50.1°C | 0.9% | 24.5hPa | 2.7V | 00:00:00 | 00:00:00 | 00:00:00 | |
| OE5DRO-10 | 2026-09-04 00:28:28 | 46.85986 | 19.55224 | 112° | 7km/h | 25575m | 7.3m/s | -50.1°C | 3.5% | 24.5hPa | 2.7V | 00:00:00 | 00:00:00 | 00:00:00 | |
| OM5KV | 2026-09-04 00:28:24 | 46.85991 | 19.55220 | 178° | 7km/h | 25554m | 7.3m/s | -50.3°C | 0.9% | 24.6hPa | 2.7V | 00:00:00 | 00:00:00 | 00:00:00 | |
| OM5KV | 2026-09-04 00:28:23 | 46.85992 | 19.55220 | 201° | 4km/h | 25548m | 5.6m/s | -50.4°C | 0.9% | 24.7hPa | 2.7V | 00:00:00 | 00:00:00 | 00:00:00 | |
| OM5KV | 2026-09-04 00:28:19 | 46.85992 | 19.55234 | 291° | 9km/h | 25516m | 8.4m/s | -50.6°C | 0.9% | 24.8hPa | 2.7V | 00:00:00 | 00:00:00 | 00:00:00 | |
| PETON7-10 | 2026-09-04 00:28:18 | 46.85991 | 19.55236 | 319° | 7km/h | 25508m | 6.6m/s | -50.6°C | 3.7% | 24.8hPa | 2.7V | 00:00:00 | 00:00:00 | 00:00:00 | |
| OM5KV | 2026-09-04 00:28:17 | 46.85991 | 19.55236 | 319° | 4km/h | 25508m | 6.7m/s | -50.7°C | 1.0% | 24.8hPa | 2.7V | 00:00:00 | 00:00:00 | 00:00:00 | |
| OM5KV | 2026-09-04 00:28:13 | 46.85995 | 19.55232 | 158° | 15km/h | 25482m | 6.6m/s | -50.7°C | 0.9% | 24.9hPa | 2.7V | 00:00:00 | 00:00:00 | 00:00:00 | |
| OM5KV | 2026-09-04 00:28:11 | 46.86001 | 19.55227 | 146° | 11km/h | 25468m | 5.4m/s | -50.7°C | 0.9% | 25.0hPa | 2.7V | 00:00:00 | 00:00:00 | 00:00:00 | |
| OE5DRO-10 | 2026-09-04 00:28:09 | 46.86005 | 19.55225 | 227° | 7km/h | 25450m | 7.4m/s | -50.7°C | 3.6% | 25.0hPa | 2.7V | 00:00:00 | 00:00:00 | 00:00:00 | |
| PETON7-10 | 2026-09-04 00:28:03 | 46.85999 | 19.55229 | 340° | 5km/h | 25412m | 5.9m/s | -50.8°C | 3.6% | 25.1hPa | 2.7V | 00:00:00 | 01:33:43 | 00:00:00 | |
| OM5KV | 2026-09-04 00:28:00 | 46.85999 | 19.55230 | 133° | 4km/h | 25399m | 7.5m/s | -50.9°C | 0.9% | 25.2hPa | 2.7V | 00:00:00 | 00:00:00 | 00:00:00 | |
| OM5KV | 2026-09-04 00:27:59 | 46.85999 | 19.55228 | 129° | 7km/h | 25392m | 6.8m/s | -51.0°C | 1.0% | 25.3hPa | 2.7V | 00:00:00 | 00:00:00 | 00:00:00 | |
| GYPAP8-17 | 2026-09-04 00:27:56 | 46.86005 | 19.55221 | 159° | 11km/h | 25372m | 8.6m/s | -51.1°C | 1.0% | 25.3hPa | 2.7V | 00:00:00 | 00:00:00 | 00:00:00 | |
| OM5KV | 2026-09-04 00:27:53 | 46.86012 | 19.55219 | 174° | 4km/h | 25353m | 7.0m/s | -51.1°C | 1.0% | 25.4hPa | 2.7V | 00:00:00 | 00:00:00 | 00:00:00 | |
| OE5DRO-10 | 2026-09-04 00:27:50 | 46.86009 | 19.55222 | 297° | 9km/h | 25327m | 6.4m/s | -51.1°C | 3.7% | 25.5hPa | 2.7V | 00:00:00 | 00:00:00 | 08:30:00 | |
| PETON7-10 | 2026-09-04 00:27:48 | 46.86010 | 19.55223 | 137° | 11km/h | 25314m | 6.8m/s | -51.2°C | 3.8% | 25.5hPa | 2.6V | 00:00:00 | 00:00:00 | 00:00:00 | |
| OM5KV | 2026-09-04 00:27:47 | 46.86010 | 19.55223 | 138° | 5km/h | 25314m | 6.9m/s | -51.2°C | 1.0% | 25.6hPa | 2.6V | 00:00:00 | 00:00:00 | 00:00:00 | |
| OM5KV | 2026-09-04 00:27:43 | 46.86020 | 19.55208 | 147° | 18km/h | 25287m | 5.7m/s | -51.2°C | 1.0% | 25.7hPa | 2.6V | 00:00:00 | 00:00:00 | 00:00:00 | |
| OM5KV | 2026-09-04 00:27:39 | 46.86029 | 19.55196 | 98° | 5km/h | 25263m | 6.8m/s | -51.2°C | 1.0% | 25.8hPa | 2.6V | 00:00:00 | 00:00:00 | 00:00:00 | |
| OM5KV | 2026-09-04 00:27:37 | 46.86029 | 19.55194 | 0° | 0km/h | 25248m | 5.4m/s | -51.2°C | 1.0% | 25.8hPa | 2.6V | 00:00:00 | 00:00:00 | 00:00:00 | |
| OM5KV | 2026-09-04 00:27:36 | 46.86030 | 19.55195 | 207° | 4km/h | 25243m | 5.2m/s | -51.2°C | 1.0% | 25.9hPa | 2.6V | 00:00:00 | 00:00:00 | 00:00:00 | |
| PETON7-10 | 2026-09-04 00:27:33 | 46.86036 | 19.55188 | 142° | 9km/h | 25217m | 6.5m/s | -51.2°C | 3.8% | 25.9hPa | 2.6V | 00:00:00 | 00:00:00 | 00:00:00 | |
| OM5KV | 2026-09-04 00:27:32 | 46.86040 | 19.55185 | 154° | 18km/h | 25210m | 7.2m/s | -51.3°C | 1.0% | 26.0hPa | 2.6V | 00:00:00 | 00:00:00 | 00:00:00 | |
| OE5DRO-10 | 2026-09-04 00:27:31 | 46.86044 | 19.55182 | 162° | 13km/h | 25204m | 5.6m/s | -51.2°C | 3.7% | 26.0hPa | 2.6V | 00:00:00 | 00:00:00 | 00:00:00 | |
| OM5KV | 2026-09-04 00:27:21 | 46.86056 | 19.55190 | 218° | 4km/h | 25139m | 6.7m/s | -51.4°C | 1.0% | 26.2hPa | 2.6V | 00:00:00 | 00:00:00 | 00:00:00 | |
| PETON7-10 | 2026-09-04 00:27:18 | 46.86065 | 19.55189 | 161° | 15km/h | 25119m | 7.1m/s | -51.3°C | 3.7% | 26.3hPa | 2.6V | 00:00:00 | 01:32:58 | 00:00:00 | |
| OM5KV | 2026-09-04 00:27:17 | 46.86065 | 19.55189 | 161° | 18km/h | 25119m | 7.2m/s | -51.4°C | 1.0% | 26.3hPa | 2.6V | 00:00:00 | 00:00:00 | 00:00:00 | |
| LZ4TU-5 | 2026-09-04 00:27:15 | 46.86074 | 19.55182 | 146° | 22km/h | 25105m | 6.3m/s | -51.4°C | 0% | 0hPa | 2.6V | 00:00:00 | 00:00:00 | 00:00:00 | |
| OM5KV | 2026-09-04 00:27:14 | 46.86079 | 19.55177 | 149° | 22km/h | 25099m | 6.7m/s | -51.4°C | 1.0% | 26.4hPa | 2.6V | 00:00:00 | 00:00:00 | 00:00:00 | |
| OE5DRO-10 | 2026-09-04 00:27:12 | 46.86091 | 19.55171 | 183° | 13km/h | 25079m | 7.3m/s | -51.4°C | 3.8% | 26.5hPa | 2.6V | 00:00:00 | 00:00:00 | 00:00:00 | |
| OM5KV | 2026-09-04 00:27:11 | 46.86094 | 19.55173 | 210° | 11km/h | 25073m | 4.6m/s | -51.5°C | 1.0% | 26.5hPa | 2.6V | 00:00:00 | 00:00:00 | 00:00:00 | |
| PETON7-10 | 2026-09-04 00:27:03 | 46.86111 | 19.55189 | 160° | 15km/h | 25020m | 7.2m/s | -51.5°C | 3.8% | 26.7hPa | 2.6V | 00:00:00 | 00:00:00 | 00:00:00 | |
| OM5KV | 2026-09-04 00:26:58 | 46.86129 | 19.55181 | 173° | 11km/h | 24988m | 5.0m/s | -51.7°C | 1.0% | 26.9hPa | 2.6V | 00:00:00 | 00:00:00 | 00:00:00 | |
| OM5KV | 2026-09-04 00:26:56 | 46.86132 | 19.55182 | 200° | 11km/h | 24983m | 6.6m/s | -51.7°C | 1.0% | 26.9hPa | 2.6V | 00:00:00 | 00:00:00 | 00:00:00 | |
| GYPAP8-17 | 2026-09-04 00:26:54 | 46.86137 | 19.55189 | 234° | 20km/h | 24968m | 6.0m/s | -51.7°C | 1.0% | 27.0hPa | 2.6V | 00:00:00 | 00:00:00 | 00:00:00 | |
| OE5DRO-10 | 2026-09-04 00:26:53 | 46.86142 | 19.55201 | 240° | 16km/h | 24956m | 6.5m/s | -51.6°C | 3.8% | 27.0hPa | 2.6V | 00:00:00 | 00:00:00 | 00:00:00 | |
| OM5KV | 2026-09-04 00:26:52 | 46.86142 | 19.55201 | 241° | 18km/h | 24956m | 6.5m/s | -51.7°C | 1.0% | 27.0hPa | 2.7V | 00:00:00 | 00:00:00 | 00:00:00 | |
| OM5KV | 2026-09-04 00:26:51 | 46.86145 | 19.55206 | 241° | 16km/h | 24949m | 5.4m/s | -51.6°C | 1.0% | 27.0hPa | 2.7V | 00:00:00 | 00:00:00 | 00:00:00 | |
| PETON7-10 | 2026-09-04 00:26:48 | 46.86155 | 19.55225 | 216° | 16km/h | 24923m | 7.0m/s | -51.6°C | 3.8% | 27.1hPa | 2.7V | 00:00:00 | 00:00:00 | 00:00:00 | |
| OM5KV | 2026-09-04 00:26:47 | 46.86155 | 19.55225 | 216° | 16km/h | 24923m | 7.1m/s | -51.7°C | 1.0% | 27.2hPa | 2.7V | 00:00:00 | 00:00:00 | 00:00:00 | |
| OM5KV | 2026-09-04 00:26:38 | 46.86179 | 19.55245 | 216° | 15km/h | 24863m | 6.7m/s | -51.7°C | 1.0% | 27.4hPa | 2.7V | 00:00:00 | 00:00:00 | 00:00:00 | |
| OM5KV | 2026-09-04 00:26:37 | 46.86182 | 19.55249 | 220° | 16km/h | 24855m | 9.2m/s | -51.8°C | 1.0% | 27.4hPa | 2.7V | 00:00:00 | 00:00:00 | 00:00:00 | |
| OM5KV | 2026-09-04 00:26:35 | 46.86191 | 19.55258 | 219° | 24km/h | 24842m | 5.9m/s | -51.8°C | 1.0% | 27.5hPa | 2.7V | 00:00:00 | 00:00:00 | 00:00:00 | |
| OE5DRO-10 | 2026-09-04 00:26:34 | 46.86200 | 19.55267 | 201° | 18km/h | 24828m | 6.2m/s | -51.7°C | 3.9% | 27.5hPa | 2.7V | 00:00:00 | 00:00:00 | 00:00:00 | |
| PETON7-10 | 2026-09-04 00:26:33 | 46.86204 | 19.55269 | 192° | 18km/h | 24822m | 6.1m/s | -51.7°C | 3.8% | 27.6hPa | 2.7V | 00:00:00 | 01:32:13 | 00:00:00 | |
| OM5KV | 2026-09-04 00:26:26 | 46.86239 | 19.55262 | 167° | 22km/h | 24776m | 6.0m/s | -51.7°C | 1.0% | 27.8hPa | 2.7V | 00:00:00 | 00:00:00 | 00:00:00 | |
| OM5KV | 2026-09-04 00:26:23 | 46.86253 | 19.55265 | 210° | 15km/h | 24757m | 6.4m/s | -51.7°C | 1.0% | 27.9hPa | 2.7V | 00:00:00 | 00:00:00 | 00:00:00 | |
| OM5KV | 2026-09-04 00:26:18 | 46.86270 | 19.55275 | 187° | 22km/h | 24725m | 6.4m/s | -51.7°C | 1.0% | 28.0hPa | 2.7V | 00:00:00 | 00:00:00 | 00:00:00 | |
| OE5DRO-10 | 2026-09-04 00:26:15 | 46.86291 | 19.55270 | 157° | 29km/h | 24706m | 8.5m/s | -51.7°C | 3.8% | 28.1hPa | 2.7V | 00:00:00 | 00:00:00 | 00:00:00 | |
| OM5KV | 2026-09-04 00:26:14 | 46.86291 | 19.55270 | 158° | 33km/h | 24706m | 8.5m/s | -51.7°C | 1.0% | 28.1hPa | 2.7V | 00:00:00 | 00:00:00 | 00:00:00 | |
| OM5KV | 2026-09-04 00:26:11 | 46.86312 | 19.55250 | 149° | 33km/h | 24686m | 7.8m/s | -51.8°C | 1.0% | 28.2hPa | 2.7V | 00:00:00 | 00:00:00 | 00:00:00 | |
| OM5KV | 2026-09-04 00:26:08 | 46.86333 | 19.55239 | 171° | 26km/h | 24668m | 7.4m/s | -51.7°C | 1.0% | 28.3hPa | 2.7V | 00:00:00 | 00:00:00 | 00:00:00 | |
| OM5KV | 2026-09-04 00:26:03 | 46.86366 | 19.55233 | 143° | 27km/h | 24629m | 8.5m/s | -51.7°C | 1.0% | 28.4hPa | 2.7V | 00:00:00 | 00:00:00 | 00:00:00 | |
| OM5KV | 2026-09-04 00:26:01 | 46.86371 | 19.55225 | 130° | 31km/h | 24622m | 5.7m/s | -51.6°C | 1.0% | 28.5hPa | 2.7V | 00:00:00 | 00:00:00 | 00:00:00 | |
| OM5KV | 2026-09-04 00:26:00 | 46.86382 | 19.55206 | 132° | 35km/h | 24607m | 8.3m/s | -51.6°C | 1.0% | 28.5hPa | 2.7V | 00:00:00 | 00:00:00 | 00:00:00 | |
| OM5KV | 2026-09-04 00:25:57 | 46.86399 | 19.55180 | 137° | 26km/h | 24590m | 5.2m/s | -51.6°C | 1.0% | 28.6hPa | 2.7V | 00:00:00 | 00:00:00 | 00:00:00 | |
| OE5DRO-10 | 2026-09-04 00:25:56 | 46.86403 | 19.55175 | 141° | 20km/h | 24585m | 5.9m/s | -51.5°C | 3.8% | 28.6hPa | 2.7V | 00:00:00 | 00:00:00 | 00:00:00 | |
| GYPAP8-17 | 2026-09-04 00:25:54 | 46.86407 | 19.55171 | 146° | 16km/h | 24577m | 8.5m/s | -51.5°C | 1.0% | 28.6hPa | 2.6V | 00:00:00 | 00:00:00 | 00:00:00 | |
| PETON7-10 | 2026-09-04 00:25:48 | 46.86429 | 19.55133 | 133° | 20km/h | 24528m | 8.1m/s | -51.4°C | 3.7% | 28.8hPa | 2.6V | 00:00:00 | 01:31:28 | 00:00:00 | |
| OM5KV | 2026-09-04 00:25:44 | 46.86445 | 19.55107 | 132° | 29km/h | 24508m | 8.8m/s | -51.4°C | 1.0% | 29.0hPa | 2.6V | 00:00:00 | 00:00:00 | 00:00:00 | |
| OM5KV | 2026-09-04 00:25:42 | 46.86456 | 19.55090 | 138° | 16km/h | 24487m | 8.6m/s | -51.4°C | 1.0% | 29.1hPa | 2.6V | 00:00:00 | 00:00:00 | 00:00:00 | |
| OM5KV | 2026-09-04 00:25:39 | 46.86462 | 19.55077 | 112° | 11km/h | 24467m | 8.9m/s | -51.6°C | 1.0% | 29.1hPa | 2.6V | 00:00:00 | 00:00:00 | 00:00:00 | |
| OM5KV | 2026-09-04 00:25:37 | 46.86465 | 19.55071 | 132° | 13km/h | 24454m | 5.3m/s | -51.6°C | 1.0% | 29.2hPa | 2.6V | 00:00:00 | 00:00:00 | 00:00:00 | |
| PETON7-10 | 2026-09-04 00:25:33 | 46.86476 | 19.55045 | 113° | 18km/h | 24427m | 7.5m/s | -51.4°C | 3.8% | 29.3hPa | 2.6V | 00:00:00 | 00:00:00 | 00:00:00 | |
| OM5KV | 2026-09-04 00:25:31 | 46.86478 | 19.55037 | 110° | 20km/h | 24418m | 8.8m/s | -51.5°C | 1.0% | 29.4hPa | 2.6V | 00:00:00 | 00:00:00 | 00:00:00 | |
| OM5KV | 2026-09-04 00:25:30 | 46.86480 | 19.55031 | 108° | 15km/h | 24411m | 4.7m/s | -51.5°C | 1.0% | 29.4hPa | 2.6V | 00:00:00 | 00:00:00 | 00:00:00 | |
| LZ4TU-5 | 2026-09-04 00:25:28 | 46.86481 | 19.55016 | 77° | 13km/h | 24391m | 5.5m/s | -51.6°C | 0% | 0hPa | 2.6V | 00:00:00 | 00:00:00 | 00:00:00 | |
| OM5KV | 2026-09-04 00:25:27 | 46.86481 | 19.55016 | 77° | 13km/h | 24391m | 5.5m/s | -51.6°C | 1.0% | 29.5hPa | 2.6V | 00:00:00 | 00:00:00 | 00:00:00 | |
| OM5KV | 2026-09-04 00:25:25 | 46.86479 | 19.55009 | 58° | 7km/h | 24379m | 7.6m/s | -51.7°C | 1.0% | 29.5hPa | 2.6V | 00:00:00 | 00:00:00 | 00:00:00 | |
| OM5KV | 2026-09-04 00:25:24 | 46.86479 | 19.55008 | 130° | 4km/h | 24371m | 7.4m/s | -51.7°C | 1.0% | 29.6hPa | 2.6V | 00:00:00 | 00:00:00 | 00:00:00 | |
| LZ4TU-5 | 2026-09-04 00:25:22 | 46.86484 | 19.55002 | 141° | 20km/h | 24359m | 6.7m/s | -51.8°C | 0% | 0hPa | 2.6V | 00:00:00 | 00:00:00 | 00:00:00 | |
| OE5DRO-10 | 2026-09-04 00:25:19 | 46.86503 | 19.54958 | 112° | 20km/h | 24323m | 7.4m/s | -51.8°C | 3.8% | 29.8hPa | 2.6V | 00:00:00 | 00:00:00 | 00:00:00 | |
| PETON7-10 | 2026-09-04 00:25:18 | 46.86503 | 19.54958 | 112° | 22km/h | 24323m | 7.4m/s | -51.8°C | 3.8% | 29.8hPa | 2.6V | 00:00:00 | 00:00:00 | 00:00:00 | |
| OM5KV | 2026-09-04 00:25:14 | 46.86505 | 19.54922 | 78° | 22km/h | 24295m | 9.7m/s | -52.0°C | 1.0% | 29.9hPa | 2.6V | 00:00:00 | 00:00:00 | 00:00:00 | |
| OM5KV | 2026-09-04 00:25:13 | 46.86503 | 19.54915 | 72° | 18km/h | 24287m | 6.4m/s | -52.0°C | 1.0% | 30.0hPa | 2.6V | 00:00:00 | 00:00:00 | 00:00:00 | |
| OM5KV | 2026-09-04 00:25:10 | 46.86500 | 19.54902 | 71° | 20km/h | 24273m | 8.2m/s | -52.0°C | 1.0% | 30.0hPa | 2.6V | 00:00:00 | 00:00:00 | 00:00:00 | |
| GYPAP8-17 | 2026-09-04 00:25:06 | 46.86497 | 19.54865 | 102° | 20km/h | 24238m | 6.3m/s | -52.0°C | 1.0% | 30.2hPa | 2.6V | 00:00:00 | 00:00:00 | 00:00:00 | |
| OM5KV | 2026-09-04 00:25:03 | 46.86498 | 19.54841 | 84° | 24km/h | 24216m | 6.4m/s | -52.0°C | 1.0% | 30.3hPa | 2.6V | 00:00:00 | 00:00:00 | 00:00:00 | |
| OM5KV | 2026-09-04 00:24:56 | 46.86483 | 19.54811 | 21° | 18km/h | 24175m | 6.7m/s | -52.1°C | 1.0% | 30.5hPa | 2.6V | 00:00:00 | 00:00:00 | 00:00:00 | |
| OM5KV | 2026-09-04 00:24:55 | 46.86479 | 19.54809 | 21° | 16km/h | 24167m | 8.0m/s | -52.1°C | 1.0% | 30.5hPa | 2.6V | 00:00:00 | 00:00:00 | 00:00:00 | |
| OM5KV | 2026-09-04 00:24:50 | 46.86465 | 19.54801 | 34° | 11km/h | 24131m | 6.2m/s | -52.2°C | 1.1% | 30.7hPa | 2.6V | 00:00:00 | 00:00:00 | 00:00:00 | |
| OM5KV | 2026-09-04 00:24:49 | 46.86463 | 19.54799 | 43° | 9km/h | 24124m | 7.7m/s | -52.2°C | 1.0% | 30.7hPa | 2.6V | 00:00:00 | 00:00:00 | 00:00:00 | |
| PETON7-10 | 2026-09-04 00:24:48 | 46.86460 | 19.54795 | 27° | 16km/h | 24109m | 6.8m/s | -52.2°C | 3.9% | 30.7hPa | 2.6V | 00:00:00 | 00:00:00 | 00:00:00 | |
| OM5KV | 2026-09-04 00:24:45 | 46.86451 | 19.54794 | 354° | 18km/h | 24089m | 7.1m/s | -52.2°C | 1.0% | 30.9hPa | 2.6V | 00:00:00 | 00:00:00 | 00:00:00 | |
| OM5KV | 2026-09-04 00:24:43 | 46.86446 | 19.54795 | 347° | 18km/h | 24081m | 8.4m/s | -52.2°C | 1.0% | 31.0hPa | 2.6V | 00:00:00 | 00:00:00 | 00:00:00 | |
| OM5KV | 2026-09-04 00:24:39 | 46.86425 | 19.54816 | 316° | 20km/h | 24045m | 6.6m/s | -52.2°C | 1.0% | 31.1hPa | 2.6V | 00:00:00 | 00:00:00 | 00:00:00 | |
| OE5DRO-10 | 2026-09-04 00:24:38 | 46.86419 | 19.54833 | 282° | 9km/h | 24023m | 6.6m/s | -52.1°C | 3.8% | 31.2hPa | 2.6V | 00:00:00 | 00:00:00 | 00:00:00 | |
| PETON7-10 | 2026-09-04 00:24:33 | 46.86414 | 19.54851 | 294° | 18km/h | 24003m | 7.0m/s | -52.0°C | 3.8% | 31.3hPa | 2.6V | 00:00:00 | 00:00:00 | 00:00:00 | |
| OM5KV | 2026-09-04 00:24:32 | 46.86415 | 19.54851 | 295° | 16km/h | 24003m | 7.0m/s | -52.1°C | 1.0% | 31.3hPa | 2.6V | 00:00:00 | 00:00:00 | 00:00:00 | |
| OM5KV | 2026-09-04 00:24:31 | 46.86412 | 19.54862 | 288° | 16km/h | 23988m | 6.3m/s | -52.2°C | 1.0% | 31.4hPa | 2.6V | 00:00:00 | 00:00:00 | 00:00:00 | |
| OM5KV | 2026-09-04 00:24:22 | 46.86399 | 19.54907 | 277° | 20km/h | 23929m | 8.4m/s | -52.5°C | 1.1% | 31.7hPa | 2.6V | 00:00:00 | 00:00:00 | 00:00:00 | |
| PETON7-10 | 2026-09-04 00:24:18 | 46.86399 | 19.54947 | 261° | 7km/h | 23894m | 6.4m/s | -52.5°C | 3.9% | 31.8hPa | 2.6V | 00:00:00 | 01:29:58 | 00:00:00 | |
| OM5KV | 2026-09-04 00:24:15 | 46.86400 | 19.54964 | 257° | 9km/h | 23873m | 6.6m/s | -52.6°C | 1.1% | 31.9hPa | 2.6V | 00:00:00 | 00:00:00 | 00:00:00 | |
| OM5KV | 2026-09-04 00:24:11 | 46.86404 | 19.54969 | 201° | 7km/h | 23852m | 6.3m/s | -52.6°C | 1.1% | 32.1hPa | 2.6V | 00:00:00 | 00:00:00 | 00:00:00 | |
| OM5KV | 2026-09-04 00:24:08 | 46.86407 | 19.54972 | 253° | 4km/h | 23832m | 7.3m/s | -52.7°C | 1.1% | 32.2hPa | 2.6V | 00:00:00 | 00:00:00 | 00:00:00 | |
| OM5KV | 2026-09-04 00:24:05 | 46.86409 | 19.54977 | 248° | 7km/h | 23810m | 6.7m/s | -52.6°C | 1.1% | 32.3hPa | 2.6V | 00:00:00 | 00:00:00 | 00:00:00 | |
| OM5KV | 2026-09-04 00:24:04 | 46.86409 | 19.54981 | 311° | 5km/h | 23797m | 6.3m/s | -52.6°C | 1.1% | 32.3hPa | 2.6V | 00:00:00 | 00:00:00 | 00:00:00 | |
| PETON7-10 | 2026-09-04 00:24:03 | 46.86408 | 19.54982 | 322° | 9km/h | 23790m | 7.1m/s | -52.5°C | 4.0% | 32.3hPa | 2.6V | 00:00:00 | 00:00:00 | 08:30:00 | |
| OM5KV | 2026-09-04 00:24:02 | 46.86408 | 19.54982 | 323° | 4km/h | 23790m | 7.2m/s | -52.6°C | 1.1% | 32.4hPa | 2.6V | 00:00:00 | 00:00:00 | 00:00:00 | |
| OM5KV | 2026-09-04 00:23:57 | 46.86406 | 19.54982 | 336° | 4km/h | 23756m | 6.2m/s | -52.4°C | 1.0% | 32.6hPa | 2.6V | 00:00:00 | 00:00:00 | 00:00:00 | |
| OM5KV | 2026-09-04 00:23:51 | 46.86399 | 19.55011 | 310° | 15km/h | 23708m | 7.7m/s | -52.1°C | 1.0% | 32.8hPa | 2.6V | 00:00:00 | 00:00:00 | 00:00:00 | |
| PETON7-10 | 2026-09-04 00:23:48 | 46.86392 | 19.55017 | 353° | 13km/h | 23687m | 7.5m/s | -52.1°C | 3.8% | 32.8hPa | 2.6V | 00:00:00 | 00:00:00 | 00:00:00 | |
| GYPAP8-17 | 2026-09-04 00:23:43 | 46.86385 | 19.55018 | 342° | 4km/h | 23660m | 9.1m/s | -52.4°C | 1.0% | 33.0hPa | 2.6V | 00:00:00 | 00:00:00 | 00:00:00 | |
| OM5KV | 2026-09-04 00:23:42 | 46.86385 | 19.55019 | 308° | 4km/h | 23653m | 4.0m/s | -52.4°C | 1.0% | 33.0hPa | 2.6V | 00:00:00 | 00:00:00 | 00:00:00 | |
| OM5KV | 2026-09-04 00:23:39 | 46.86379 | 19.55026 | 324° | 18km/h | 23635m | 5.6m/s | -52.5°C | 1.0% | 33.1hPa | 2.6V | 00:00:00 | 00:00:00 | 00:00:00 | |
| OM5KV | 2026-09-04 00:23:36 | 46.86367 | 19.55040 | 321° | 18km/h | 23615m | 6.3m/s | -52.5°C | 1.1% | 33.3hPa | 2.6V | 00:00:00 | 00:00:00 | 00:00:00 | |
| LZ4TU-5 | 2026-09-04 00:23:35 | 46.86364 | 19.55043 | 322° | 16km/h | 23609m | 6.5m/s | -52.5°C | 0% | 0hPa | 2.6V | 00:00:00 | 00:00:00 | 00:00:00 | |
| PETON7-10 | 2026-09-04 00:23:33 | 46.86354 | 19.55053 | 328° | 15km/h | 23589m | 6.9m/s | -52.6°C | 3.9% | 33.3hPa | 2.6V | 00:00:00 | 01:29:13 | 00:00:00 | |
| OM5KV | 2026-09-04 00:23:31 | 46.86349 | 19.55059 | 299° | 11km/h | 23575m | 6.3m/s | -52.7°C | 1.0% | 33.5hPa | 2.6V | 00:00:00 | 00:00:00 | 00:00:00 | |
| OM5KV | 2026-09-04 00:23:27 | 46.86345 | 19.55074 | 302° | 18km/h | 23555m | 5.8m/s | -52.7°C | 1.0% | 33.6hPa | 2.6V | 00:00:00 | 00:00:00 | 00:00:00 | |
| OM5KV | 2026-09-04 00:23:24 | 46.86338 | 19.55091 | 297° | 16km/h | 23535m | 5.8m/s | -52.8°C | 1.1% | 33.7hPa | 2.6V | 00:00:00 | 00:00:00 | 00:00:00 | |
| OM5KV | 2026-09-04 00:23:21 | 46.86332 | 19.55104 | 301° | 13km/h | 23515m | 5.5m/s | -52.9°C | 1.1% | 33.8hPa | 2.6V | 00:00:00 | 00:00:00 | 00:00:00 | |
| OM5KV | 2026-09-04 00:23:19 | 46.86331 | 19.55118 | 254° | 16km/h | 23495m | 6.1m/s | -52.9°C | 1.1% | 33.9hPa | 2.6V | 00:00:00 | 00:00:00 | 00:00:00 | |
| PETON7-10 | 2026-09-04 00:23:18 | 46.86332 | 19.55124 | 253° | 15km/h | 23488m | 7.0m/s | -52.9°C | 4.1% | 33.9hPa | 2.6V | 00:00:00 | 00:00:00 | 00:00:00 | |
| OM5KV | 2026-09-04 00:23:15 | 46.86334 | 19.55137 | 263° | 18km/h | 23476m | 5.7m/s | -53.0°C | 1.1% | 34.0hPa | 2.6V | 00:00:00 | 00:00:00 | 00:00:00 | |
| OM5KV | 2026-09-04 00:23:12 | 46.86338 | 19.55156 | 250° | 16km/h | 23457m | 6.0m/s | -53.0°C | 1.1% | 34.1hPa | 2.6V | 00:00:00 | 00:00:00 | 00:00:00 | |
| OM5KV | 2026-09-04 00:23:10 | 46.86340 | 19.55166 | 257° | 11km/h | 23443m | 6.9m/s | -52.9°C | 1.1% | 34.2hPa | 2.6V | 00:00:00 | 00:00:00 | 00:00:00 | |
| OM5KV | 2026-09-04 00:23:07 | 46.86344 | 19.55177 | 226° | 15km/h | 23425m | 5.5m/s | -52.9°C | 1.1% | 34.2hPa | 2.6V | 00:00:00 | 00:00:00 | 00:00:00 | |
| PETON7-10 | 2026-09-04 00:23:03 | 46.86359 | 19.55194 | 223° | 13km/h | 23394m | 7.5m/s | -52.9°C | 4.1% | 34.4hPa | 2.6V | 00:00:00 | 00:00:00 | 00:00:00 | |
| OM5KV | 2026-09-04 00:22:59 | 46.86363 | 19.55216 | 294° | 16km/h | 23368m | 6.1m/s | -52.9°C | 1.1% | 34.6hPa | 2.6V | 00:00:00 | 00:00:00 | 00:00:00 | |
| OM5KV | 2026-09-04 00:22:55 | 46.86358 | 19.55233 | 286° | 15km/h | 23349m | 5.8m/s | -52.9°C | 1.1% | 34.7hPa | 2.6V | 00:00:00 | 00:00:00 | 00:00:00 | |
| OM5KV | 2026-09-04 00:22:53 | 46.86356 | 19.55245 | 281° | 7km/h | 23331m | 5.0m/s | -52.9°C | 1.1% | 34.8hPa | 2.6V | 00:00:00 | 00:00:00 | 00:00:00 | |
| OM5KV | 2026-09-04 00:22:49 | 46.86356 | 19.55253 | 266° | 9km/h | 23311m | 5.4m/s | -52.9°C | 1.1% | 34.9hPa | 2.6V | 00:00:00 | 00:00:00 | 00:00:00 | |
| PETON7-10 | 2026-09-04 00:22:48 | 46.86356 | 19.55260 | 297° | 5km/h | 23299m | 6.9m/s | -52.8°C | 4.0% | 34.9hPa | 2.6V | 00:00:00 | 01:28:28 | 00:00:00 | |
| OM5KV | 2026-09-04 00:22:46 | 46.86354 | 19.55262 | 323° | 9km/h | 23293m | 5.4m/s | -52.9°C | 1.1% | 35.0hPa | 2.6V | 00:00:00 | 00:00:00 | 00:00:00 | |
| GYPAP8-17 | 2026-09-04 00:22:41 | 46.86349 | 19.55269 | 330° | 4km/h | 23261m | 5.7m/s | -53.0°C | 1.1% | 35.1hPa | 2.6V | 00:00:00 | 00:00:00 | 00:00:00 | |
| OM5KV | 2026-09-04 00:22:40 | 46.86348 | 19.55270 | 325° | 2km/h | 23255m | 5.3m/s | -53.0°C | 1.1% | 35.2hPa | 2.6V | 00:00:00 | 00:00:00 | 00:00:00 | |
| OE5DRO-10 | 2026-09-04 00:22:39 | 46.86350 | 19.55276 | 244° | 11km/h | 23230m | 7.1m/s | -52.8°C | 4.0% | 35.3hPa | 2.6V | 00:00:00 | 00:00:00 | 00:00:00 | |
| PETON7-10 | 2026-09-04 00:22:33 | 46.86347 | 19.55287 | 301° | 15km/h | 23205m | 6.7m/s | -52.9°C | 4.0% | 35.4hPa | 2.6V | 00:00:00 | 00:00:00 | 00:00:00 | |
| OM5KV | 2026-09-04 00:22:30 | 46.86340 | 19.55301 | 315° | 15km/h | 23186m | 6.3m/s | -53.0°C | 1.1% | 35.5hPa | 2.6V | 00:00:00 | 00:00:00 | 00:00:00 | |
| OM5KV | 2026-09-04 00:22:26 | 46.86335 | 19.55312 | 278° | 13km/h | 23169m | 6.5m/s | -53.0°C | 1.1% | 35.7hPa | 2.6V | 00:00:00 | 00:00:00 | 00:00:00 | |
| OM5KV | 2026-09-04 00:22:24 | 46.86337 | 19.55327 | 254° | 13km/h | 23151m | 5.4m/s | -53.2°C | 1.1% | 35.7hPa | 2.6V | 00:00:00 | 00:00:00 | 00:00:00 | |
| OM5KV | 2026-09-04 00:22:23 | 46.86337 | 19.55327 | 254° | 13km/h | 23151m | 5.4m/s | -53.2°C | 1.1% | 35.7hPa | 2.6V | 00:00:00 | 00:00:00 | 00:00:00 | |
| OM5KV | 2026-09-04 00:22:20 | 46.86341 | 19.55341 | 243° | 16km/h | 23133m | 6.4m/s | -53.3°C | 1.1% | 35.8hPa | 2.6V | 00:00:00 | 00:00:00 | 00:00:00 | |
| PETON7-10 | 2026-09-04 00:22:18 | 46.86346 | 19.55356 | 254° | 16km/h | 23115m | 4.9m/s | -53.2°C | 4.1% | 35.9hPa | 2.6V | 00:00:00 | 00:00:00 | 00:00:00 | |
| OM5KV | 2026-09-04 00:22:17 | 46.86346 | 19.55356 | 255° | 15km/h | 23115m | 5.0m/s | -53.2°C | 1.1% | 36.0hPa | 2.6V | 00:00:00 | 00:00:00 | 00:00:00 | |
| OM5KV | 2026-09-04 00:22:12 | 46.86350 | 19.55387 | 263° | 16km/h | 23084m | 5.1m/s | -53.2°C | 1.1% | 36.1hPa | 2.6V | 00:00:00 | 00:00:00 | 00:00:00 | |
| OM5KV | 2026-09-04 00:22:11 | 46.86351 | 19.55399 | 264° | 16km/h | 23072m | 6.9m/s | -53.3°C | 1.1% | 36.2hPa | 2.6V | 00:00:00 | 00:00:00 | 00:00:00 | |
| OM5KV | 2026-09-04 00:22:09 | 46.86352 | 19.55405 | 261° | 18km/h | 23065m | 6.3m/s | -53.3°C | 1.1% | 36.2hPa | 2.6V | 00:00:00 | 00:00:00 | 00:00:00 | |
| OM5KV | 2026-09-04 00:22:07 | 46.86353 | 19.55424 | 276° | 15km/h | 23048m | 4.8m/s | -53.4°C | 1.1% | 36.3hPa | 2.6V | 00:00:00 | 00:00:00 | 00:00:00 | |
| OM5KV | 2026-09-04 00:22:04 | 46.86353 | 19.55434 | 276° | 11km/h | 23036m | 7.2m/s | -53.4°C | 1.1% | 36.4hPa | 2.6V | 00:00:00 | 00:00:00 | 00:00:00 | |
| PETON7-10 | 2026-09-04 00:22:03 | 46.86353 | 19.55442 | 265° | 16km/h | 23024m | 6.0m/s | -53.3°C | 4.1% | 36.4hPa | 2.6V | 00:00:00 | 01:27:43 | 00:00:00 | |
| OM5KV | 2026-09-04 00:22:01 | 46.86353 | 19.55444 | 273° | 5km/h | 23018m | 7.0m/s | -53.3°C | 1.1% | 36.5hPa | 2.6V | 00:00:00 | 00:00:00 | 00:00:00 | |
| OM5KV | 2026-09-04 00:21:58 | 46.86352 | 19.55451 | 269° | 9km/h | 23000m | 7.5m/s | -53.2°C | 1.1% | 36.6hPa | 2.6V | 00:00:00 | 00:00:00 | 00:00:00 | |
| OM5KV | 2026-09-04 00:21:56 | 46.86353 | 19.55470 | 267° | 20km/h | 22981m | 8.3m/s | -53.1°C | 1.1% | 36.7hPa | 2.6V | 00:00:00 | 00:00:00 | 00:00:00 | |
| OM5KV | 2026-09-04 00:21:53 | 46.86353 | 19.55494 | 271° | 26km/h | 22963m | 7.1m/s | -53.1°C | 1.1% | 36.8hPa | 2.6V | 00:00:00 | 00:00:00 | 00:00:00 | |
| PETON7-10 | 2026-09-04 00:21:48 | 46.86356 | 19.55532 | 255° | 18km/h | 22933m | 5.0m/s | -53.0°C | 4.1% | 36.9hPa | 2.6V | 00:00:00 | 00:00:00 | 08:30:00 | |
| OM5KV | 2026-09-04 00:21:47 | 46.86356 | 19.55532 | 255° | 9km/h | 22933m | 5.1m/s | -53.1°C | 1.1% | 37.0hPa | 2.6V | 00:00:00 | 00:00:00 | 00:00:00 | |
| OM5KV | 2026-09-04 00:21:46 | 46.86357 | 19.55535 | 242° | 9km/h | 22927m | 6.6m/s | -53.1°C | 1.1% | 37.0hPa | 2.6V | 00:00:00 | 00:00:00 | 00:00:00 | |
| OM5KV | 2026-09-04 00:21:45 | 46.86360 | 19.55542 | 241° | 13km/h | 22915m | 5.3m/s | -53.0°C | 1.1% | 37.1hPa | 2.6V | 00:00:00 | 00:00:00 | 00:00:00 | |
| GYPAP8-17 | 2026-09-04 00:21:41 | 46.86364 | 19.55556 | 257° | 18km/h | 22898m | 5.1m/s | -53.0°C | 1.1% | 37.2hPa | 2.6V | 00:00:00 | 00:00:00 | 00:00:00 | |
| OM5KV | 2026-09-04 00:21:36 | 46.86378 | 19.55606 | 236° | 20km/h | 22862m | 6.7m/s | -53.1°C | 1.1% | 37.4hPa | 2.6V | 00:00:00 | 00:00:00 | 00:00:00 | |
| PETON7-10 | 2026-09-04 00:21:33 | 46.86386 | 19.55618 | 220° | 16km/h | 22842m | 6.6m/s | -53.0°C | 4.0% | 37.5hPa | 2.6V | 00:00:00 | 00:00:00 | 00:00:00 | |
| OM5KV | 2026-09-04 00:21:30 | 46.86389 | 19.55621 | 211° | 4km/h | 22831m | 5.7m/s | -53.0°C | 1.1% | 37.6hPa | 2.6V | 00:00:00 | 00:00:00 | 00:00:00 | |
| OM5KV | 2026-09-04 00:21:29 | 46.86390 | 19.55622 | 225° | 5km/h | 22825m | 6.4m/s | -53.0°C | 1.1% | 37.6hPa | 2.6V | 00:00:00 | 00:00:00 | 00:00:00 | |
| OM5KV | 2026-09-04 00:21:24 | 46.86396 | 19.55647 | 256° | 22km/h | 22794m | 6.5m/s | -52.9°C | 1.1% | 37.8hPa | 2.6V | 00:00:00 | 00:00:00 | 00:00:00 | |
| OM5KV | 2026-09-04 00:21:21 | 46.86406 | 19.55679 | 241° | 20km/h | 22768m | 6.4m/s | -53.0°C | 1.1% | 37.9hPa | 2.6V | 00:00:00 | 00:00:00 | 00:00:00 | |
| PETON7-10 | 2026-09-04 00:21:18 | 46.86415 | 19.55692 | 209° | 22km/h | 22750m | 6.0m/s | -53.0°C | 4.0% | 38.0hPa | 2.6V | 00:00:00 | 01:26:58 | 00:00:00 | |
| OM5KV | 2026-09-04 00:21:09 | 46.86442 | 19.55728 | 240° | 26km/h | 22701m | 6.7m/s | -53.0°C | 1.1% | 38.3hPa | 2.6V | 00:00:00 | 00:00:00 | 00:00:00 | |
| OM5KV | 2026-09-04 00:21:08 | 46.86445 | 19.55736 | 240° | 26km/h | 22695m | 5.6m/s | -53.0°C | 1.1% | 38.4hPa | 2.6V | 00:00:00 | 00:00:00 | 00:00:00 | |
| OM5KV | 2026-09-04 00:21:03 | 46.86472 | 19.55773 | 205° | 20km/h | 22658m | 5.3m/s | -53.2°C | 1.1% | 38.6hPa | 2.6V | 00:00:00 | 00:00:00 | 00:00:00 | |
| OM5KV | 2026-09-04 00:21:02 | 46.86477 | 19.55776 | 200° | 18km/h | 22652m | 6.3m/s | -53.2°C | 1.1% | 38.6hPa | 2.6V | 00:00:00 | 00:00:00 | 00:00:00 | |
| OM5KV | 2026-09-04 00:20:54 | 46.86502 | 19.55798 | 233° | 20km/h | 22608m | 6.6m/s | -53.2°C | 1.1% | 38.9hPa | 2.6V | 00:00:00 | 00:00:00 | 00:00:00 | |
| OM5KV | 2026-09-04 00:20:51 | 46.86520 | 19.55824 | 214° | 27km/h | 22584m | 5.5m/s | -53.3°C | 1.1% | 39.0hPa | 2.6V | 00:00:00 | 00:00:00 | 00:00:00 | |
| OM5KV | 2026-09-04 00:20:45 | 46.86555 | 19.55841 | 178° | 27km/h | 22552m | 5.5m/s | -53.2°C | 1.1% | 39.2hPa | 2.6V | 00:00:00 | 00:00:00 | 00:00:00 | |
| OM5KV | 2026-09-04 00:20:40 | 46.86585 | 19.55842 | 206° | 16km/h | 22514m | 4.6m/s | -53.2°C | 1.1% | 39.5hPa | 2.6V | 00:00:00 | 00:00:00 | 00:00:00 | |
| GYPAP8-17 | 2026-09-04 00:20:39 | 46.86585 | 19.55842 | 206° | 16km/h | 22514m | 4.6m/s | -53.2°C | 1.1% | 39.5hPa | 2.6V | 00:00:00 | 00:00:00 | 00:00:00 | |
| OM5KV | 2026-09-04 00:20:33 | 46.86620 | 19.55861 | 182° | 31km/h | 22477m | 5.1m/s | -53.4°C | 1.1% | 39.7hPa | 2.6V | 00:00:00 | 00:00:00 | 00:00:00 | |
| PETON7-10 | 2026-09-04 00:20:32 | 46.86636 | 19.55860 | 175° | 20km/h | 22464m | 7.5m/s | -53.4°C | 4.2% | 39.7hPa | 2.6V | 00:00:00 | 01:26:12 | 00:00:00 | |
| OM5KV | 2026-09-04 00:20:23 | 46.86668 | 19.55861 | 213° | 16km/h | 22414m | 5.3m/s | -53.4°C | 1.1% | 40.1hPa | 2.6V | 00:00:00 | 00:00:00 | 00:00:00 | |
| PETON7-10 | 2026-09-04 00:20:17 | 46.86708 | 19.55854 | 151° | 13km/h | 22371m | 5.9m/s | -53.7°C | 4.2% | 40.3hPa | 2.6V | 00:00:00 | 00:00:00 | 00:00:00 | |
| OM5KV | 2026-09-04 00:20:13 | 46.86722 | 19.55838 | 141° | 7km/h | 22346m | 6.4m/s | -53.8°C | 1.1% | 40.5hPa | 2.6V | 00:00:00 | 00:00:00 | 00:00:00 | |
| OM5KV | 2026-09-04 00:20:06 | 46.86731 | 19.55837 | 168° | 13km/h | 22308m | 6.8m/s | -53.9°C | 1.1% | 40.7hPa | 2.6V | 00:00:00 | 00:00:00 | 00:00:00 | |
| OM5KV | 2026-09-04 00:20:03 | 46.86741 | 19.55826 | 136° | 18km/h | 22289m | 7.0m/s | -54.0°C | 1.1% | 40.9hPa | 2.6V | 00:00:00 | 00:00:00 | 00:00:00 | |
| PETON7-10 | 2026-09-04 00:20:02 | 46.86747 | 19.55816 | 126° | 16km/h | 22276m | 6.1m/s | -54.0°C | 4.2% | 40.9hPa | 2.6V | 00:00:00 | 00:00:00 | 00:00:00 | |
| OM5KV | 2026-09-04 00:20:01 | 46.86747 | 19.55816 | 127° | 18km/h | 22276m | 6.1m/s | -54.1°C | 1.2% | 40.9hPa | 2.6V | 00:00:00 | 00:00:00 | 00:00:00 | |
| OM5KV | 2026-09-04 00:19:56 | 46.86758 | 19.55787 | 132° | 15km/h | 22245m | 6.6m/s | -54.1°C | 1.1% | 41.2hPa | 2.6V | 00:00:00 | 00:00:00 | 00:00:00 | |
| OM5KV | 2026-09-04 00:19:55 | 46.86760 | 19.55783 | 137° | 15km/h | 22238m | 7.2m/s | -54.1°C | 1.1% | 41.2hPa | 2.6V | 00:00:00 | 00:00:00 | 00:00:00 | |
| LZ4TU-5 | 2026-09-04 00:19:54 | 46.86767 | 19.55775 | 142° | 18km/h | 22226m | 6.6m/s | -54.1°C | 0% | 0hPa | 2.6V | 00:00:00 | 00:00:00 | 00:00:00 | |
| OM5KV | 2026-09-04 00:19:52 | 46.86771 | 19.55770 | 146° | 20km/h | 22219m | 7.1m/s | -54.1°C | 1.1% | 41.3hPa | 2.6V | 00:00:00 | 00:00:00 | 00:00:00 | |
| LZ4TU-5 | 2026-09-04 00:19:49 | 46.86784 | 19.55754 | 122° | 15km/h | 22194m | 4.8m/s | -54.0°C | 0% | 0hPa | 2.6V | 00:00:00 | 00:00:00 | 00:00:00 | |
| PETON7-10 | 2026-09-04 00:19:47 | 46.86788 | 19.55745 | 123° | 13km/h | 22181m | 8.0m/s | -54.0°C | 4.1% | 41.5hPa | 2.6V | 00:00:00 | 01:25:27 | 00:00:00 | |
| OM5KV | 2026-09-04 00:19:46 | 46.86788 | 19.55745 | 124° | 13km/h | 22181m | 8.0m/s | -54.1°C | 1.1% | 41.6hPa | 2.6V | 00:00:00 | 00:00:00 | 00:00:00 | |
| OM5KV | 2026-09-04 00:19:45 | 46.86790 | 19.55741 | 133° | 13km/h | 22174m | 5.3m/s | -54.2°C | 1.1% | 41.6hPa | 2.6V | 00:00:00 | 00:00:00 | 00:00:00 | |
| OM5KV | 2026-09-04 00:19:39 | 46.86813 | 19.55717 | 165° | 16km/h | 22129m | 5.7m/s | -54.7°C | 1.2% | 41.9hPa | 2.6V | 00:00:00 | 00:00:00 | 00:00:00 | |
| GYPAP8-17 | 2026-09-04 00:19:35 | 46.86823 | 19.55710 | 146° | 11km/h | 22112m | 7.3m/s | -54.8°C | 1.2% | 42.0hPa | 2.6V | 00:00:00 | 00:00:00 | 00:00:00 | |
| OM5KV | 2026-09-04 00:19:33 | 46.86825 | 19.55706 | 129° | 5km/h | 22099m | 6.7m/s | -54.7°C | 1.2% | 42.1hPa | 2.6V | 00:00:00 | 00:00:00 | 00:00:00 | |
| PETON7-10 | 2026-09-04 00:19:32 | 46.86826 | 19.55702 | 80° | 13km/h | 22086m | 5.4m/s | -54.6°C | 4.4% | 42.2hPa | 2.6V | 00:00:00 | 00:00:00 | 08:30:00 | |
| OM5KV | 2026-09-04 00:19:28 | 46.86828 | 19.55689 | 132° | 15km/h | 22060m | 6.0m/s | -54.5°C | 1.2% | 42.4hPa | 2.6V | 00:00:00 | 00:00:00 | 00:00:00 | |
| OM5KV | 2026-09-04 00:19:21 | 46.86847 | 19.55659 | 117° | 11km/h | 22022m | 6.6m/s | -54.6°C | 1.2% | 42.6hPa | 2.6V | 00:00:00 | 00:00:00 | 00:00:00 | |
| OM5KV | 2026-09-04 00:19:19 | 46.86845 | 19.55651 | 20° | 11km/h | 22002m | 8.0m/s | -54.5°C | 1.2% | 42.7hPa | 2.6V | 00:00:00 | 00:00:00 | 00:00:00 | |
| PETON7-10 | 2026-09-04 00:19:17 | 46.86839 | 19.55650 | 1° | 11km/h | 21988m | 5.7m/s | -54.5°C | 4.3% | 42.8hPa | 2.6V | 00:00:00 | 00:00:00 | 00:00:00 | |
| OM5KV | 2026-09-04 00:19:15 | 46.86835 | 19.55650 | 12° | 13km/h | 21982m | 5.8m/s | -54.5°C | 1.1% | 42.9hPa | 2.6V | 00:00:00 | 00:00:00 | 00:00:00 | |
| OM5KV | 2026-09-04 00:19:06 | 46.86839 | 19.55615 | 124° | 7km/h | 21918m | 6.8m/s | -54.5°C | 1.2% | 43.3hPa | 2.6V | 00:00:00 | 00:00:00 | 00:00:00 | |
| PETON7-10 | 2026-09-04 00:19:02 | 46.86842 | 19.55606 | 127° | 11km/h | 21892m | 6.2m/s | -54.5°C | 4.3% | 43.4hPa | 2.6V | 00:00:00 | 01:24:42 | 00:00:00 | |
| OM5KV | 2026-09-04 00:19:01 | 46.86842 | 19.55606 | 128° | 7km/h | 21892m | 6.3m/s | -54.5°C | 1.2% | 43.5hPa | 2.6V | 00:00:00 | 00:00:00 | 00:00:00 | |
| OM5KV | 2026-09-04 00:19:00 | 46.86843 | 19.55604 | 128° | 7km/h | 21885m | 6.1m/s | -54.5°C | 1.2% | 43.5hPa | 2.6V | 00:00:00 | 00:00:00 | 00:00:00 | |
| OM5KV | 2026-09-04 00:18:59 | 46.86844 | 19.55601 | 123° | 11km/h | 21879m | 7.1m/s | -54.5°C | 1.2% | 43.5hPa | 2.6V | 00:00:00 | 00:00:00 | 00:00:00 | |
| OE5DRO-10 | 2026-09-04 00:18:54 | 46.86856 | 19.55576 | 124° | 13km/h | 21840m | 6.0m/s | -54.3°C | 4.2% | 43.8hPa | 2.6V | 00:00:00 | 00:00:00 | 00:00:00 | |
| OM5KV | 2026-09-04 00:18:48 | 46.86864 | 19.55566 | 154° | 7km/h | 21808m | 7.0m/s | -54.5°C | 1.2% | 44.1hPa | 2.6V | 00:00:00 | 00:00:00 | 00:00:00 | |
| PETON7-10 | 2026-09-04 00:18:47 | 46.86867 | 19.55561 | 110° | 13km/h | 21795m | 5.4m/s | -54.4°C | 4.3% | 44.1hPa | 2.6V | 00:00:00 | 00:00:00 | 00:00:00 | |
| OM5KV | 2026-09-04 00:18:43 | 46.86868 | 19.55550 | 95° | 11km/h | 21777m | 6.6m/s | -54.6°C | 1.2% | 44.3hPa | 2.6V | 00:00:00 | 00:00:00 | 00:00:00 | |
| OM5KV | 2026-09-04 00:18:39 | 46.86869 | 19.55524 | 110° | 15km/h | 21744m | 6.0m/s | -54.7°C | 1.2% | 44.5hPa | 2.6V | 00:00:00 | 00:00:00 | 00:00:00 | |
| OM5KV | 2026-09-04 00:18:38 | 46.86871 | 19.55519 | 112° | 15km/h | 21737m | 6.7m/s | -54.7°C | 1.2% | 44.5hPa | 2.6V | 00:00:00 | 00:00:00 | 00:00:00 | |
| PETON7-10 | 2026-09-04 00:18:32 | 46.86875 | 19.55491 | 100° | 15km/h | 21700m | 6.9m/s | -54.7°C | 4.4% | 44.8hPa | 2.6V | 00:00:00 | 00:00:00 | 00:00:00 | |
| OE5DRO-10 | 2026-09-04 00:18:29 | 46.86878 | 19.55475 | 131° | 16km/h | 21674m | 6.0m/s | -54.7°C | 4.4% | 44.9hPa | 2.6V | 00:00:00 | 00:00:00 | 00:00:00 | |
| OM5KV | 2026-09-04 00:18:25 | 46.86887 | 19.55462 | 137° | 22km/h | 21656m | 5.8m/s | -54.9°C | 1.2% | 45.1hPa | 2.6V | 00:00:00 | 00:00:00 | 00:00:00 | |
| OM5KV | 2026-09-04 00:18:21 | 46.86897 | 19.55447 | 126° | 16km/h | 21636m | 6.5m/s | -54.9°C | 1.3% | 45.3hPa | 2.6V | 00:00:00 | 00:00:00 | 00:00:00 | |
| OM5KV | 2026-09-04 00:18:18 | 46.86902 | 19.55433 | 108° | 13km/h | 21619m | 7.6m/s | -54.8°C | 1.2% | 45.4hPa | 2.6V | 00:00:00 | 00:00:00 | 00:00:00 | |
| PETON7-10 | 2026-09-04 00:18:16 | 46.86904 | 19.55420 | 101° | 16km/h | 21599m | 7.0m/s | -54.6°C | 4.4% | 45.5hPa | 2.6V | 00:00:00 | 01:23:56 | 00:00:00 | |
| OM5KV | 2026-09-04 00:18:13 | 46.86905 | 19.55403 | 99° | 16km/h | 21581m | 8.3m/s | -54.6°C | 1.2% | 45.6hPa | 2.6V | 00:00:00 | 00:00:00 | 00:00:00 | |
| OE5DRO-10 | 2026-09-04 00:18:09 | 46.86914 | 19.55374 | 117° | 22km/h | 21550m | 5.2m/s | -54.5°C | 4.3% | 45.8hPa | 2.6V | 00:00:00 | 00:00:00 | 08:30:00 | |
| OM5KV | 2026-09-04 00:18:07 | 46.86914 | 19.55374 | 117° | 20km/h | 21550m | 5.3m/s | -54.6°C | 1.2% | 45.9hPa | 2.7V | 00:00:00 | 00:00:00 | 00:00:00 | |
| LZ4TU-5 | 2026-09-04 00:18:05 | 46.86918 | 19.55363 | 123° | 13km/h | 21536m | 7.3m/s | -54.5°C | 0% | 0hPa | 2.7V | 00:00:00 | 00:00:00 | 00:00:00 | |
| OM5KV | 2026-09-04 00:18:04 | 46.86920 | 19.55359 | 127° | 15km/h | 21530m | 3.5m/s | -54.6°C | 1.2% | 46.0hPa | 2.7V | 00:00:00 | 00:00:00 | 00:00:00 | |
| PETON7-10 | 2026-09-04 00:18:01 | 46.86928 | 19.55337 | 122° | 22km/h | 21508m | 5.2m/s | -54.5°C | 4.3% | 46.1hPa | 2.7V | 00:00:00 | 00:00:00 | 00:00:00 | |
| OM5KV | 2026-09-04 00:18:00 | 46.86928 | 19.55337 | 122° | 16km/h | 21508m | 5.3m/s | -54.6°C | 1.2% | 46.2hPa | 2.7V | 00:00:00 | 00:00:00 | 00:00:00 | |
| OM5KV | 2026-09-04 00:17:54 | 46.86956 | 19.55306 | 135° | 31km/h | 21469m | 2.0m/s | -54.5°C | 1.2% | 46.5hPa | 2.7V | 00:00:00 | 00:00:00 | 00:00:00 | |
| OM5KV | 2026-09-04 00:17:50 | 46.86979 | 19.55278 | 143° | 15km/h | 21441m | 6.7m/s | -54.6°C | 1.2% | 46.6hPa | 2.7V | 00:00:00 | 00:00:00 | 00:00:00 | |
| OM5KV | 2026-09-04 00:17:48 | 46.86984 | 19.55269 | 120° | 16km/h | 21427m | 3.9m/s | -54.6°C | 1.2% | 46.8hPa | 2.7V | 00:00:00 | 00:00:00 | 00:00:00 | |
| PETON7-10 | 2026-09-04 00:17:46 | 46.86988 | 19.55258 | 116° | 16km/h | 21415m | 8.8m/s | -54.7°C | 4.3% | 46.8hPa | 2.7V | 00:00:00 | 00:00:00 | 00:00:00 | |
| OM5KV | 2026-09-04 00:17:42 | 46.86995 | 19.55233 | 116° | 27km/h | 21390m | 5.2m/s | -54.8°C | 1.2% | 47.0hPa | 2.7V | 00:00:00 | 00:00:00 | 00:00:00 | |
| OM5KV | 2026-09-04 00:17:38 | 46.87003 | 19.55206 | 106° | 22km/h | 21373m | 7.3m/s | -54.9°C | 1.2% | 47.2hPa | 2.7V | 00:00:00 | 00:00:00 | 00:00:00 | |
| OM5KV | 2026-09-04 00:17:37 | 46.87004 | 19.55199 | 98° | 18km/h | 21367m | 4.7m/s | -55.0°C | 1.2% | 47.2hPa | 2.7V | 00:00:00 | 00:00:00 | 00:00:00 | |
| OM5KV | 2026-09-04 00:17:36 | 46.87004 | 19.55192 | 98° | 18km/h | 21362m | 6.8m/s | -55.0°C | 1.2% | 47.2hPa | 2.7V | 00:00:00 | 00:00:00 | 00:00:00 | |
| PETON7-10 | 2026-09-04 00:17:31 | 46.87006 | 19.55173 | 118° | 13km/h | 21326m | 5.1m/s | -55.1°C | 4.4% | 47.4hPa | 2.7V | 00:00:00 | 01:23:11 | 00:00:00 | |
| OM5KV | 2026-09-04 00:17:30 | 46.87006 | 19.55173 | 118° | 2km/h | 21326m | 5.2m/s | -55.2°C | 1.2% | 47.5hPa | 2.7V | 00:00:00 | 00:00:00 | 00:00:00 | |
| OM5KV | 2026-09-04 00:17:24 | 46.87011 | 19.55137 | 91° | 20km/h | 21288m | 5.4m/s | -55.0°C | 1.2% | 47.8hPa | 2.7V | 00:00:00 | 00:00:00 | 00:00:00 | |
| GYPAP8-17 | 2026-09-04 00:17:23 | 46.87011 | 19.55123 | 94° | 16km/h | 21276m | 5.1m/s | -55.1°C | 1.2% | 47.9hPa | 2.7V | 00:00:00 | 00:00:00 | 00:00:00 | |
| OM5KV | 2026-09-04 00:17:21 | 46.87011 | 19.55118 | 86° | 11km/h | 21270m | 5.8m/s | -55.1°C | 1.2% | 47.9hPa | 2.7V | 00:00:00 | 00:00:00 | 00:00:00 | |
| OM5KV | 2026-09-04 00:17:18 | 46.87009 | 19.55112 | 43° | 4km/h | 21253m | 4.0m/s | -55.4°C | 1.2% | 48.0hPa | 2.7V | 00:00:00 | 00:00:00 | 00:00:00 | |
| PETON7-10 | 2026-09-04 00:17:16 | 46.87011 | 19.55100 | 111° | 24km/h | 21237m | 6.1m/s | -55.5°C | 4.5% | 48.1hPa | 2.7V | 00:00:00 | 00:00:00 | 08:30:00 | |
| OM5KV | 2026-09-04 00:17:15 | 46.87016 | 19.55079 | 108° | 35km/h | 21224m | 6.2m/s | -55.6°C | 1.2% | 48.3hPa | 2.6V | 00:00:00 | 00:00:00 | 00:00:00 | |
| OE5DRO-10 | 2026-09-04 00:17:12 | 46.87021 | 19.55054 | 114° | 26km/h | 21210m | 5.7m/s | 0°C | 0% | 0hPa | 2.6V | 00:00:00 | 00:00:00 | 00:00:00 | |
| OM5KV | 2026-09-04 00:17:07 | 46.87031 | 19.55015 | 99° | 16km/h | 21189m | 4.6m/s | -55.5°C | 1.2% | 48.5hPa | 2.6V | 00:00:00 | 00:00:00 | 00:00:00 | |
| OM5KV | 2026-09-04 00:17:06 | 46.87033 | 19.55005 | 122° | 13km/h | 21175m | 5.8m/s | -55.4°C | 1.2% | 48.6hPa | 2.6V | 00:00:00 | 00:00:00 | 00:00:00 | |
| OM5KV | 2026-09-04 00:17:04 | 46.87034 | 19.55001 | 117° | 15km/h | 21170m | 4.4m/s | -55.4°C | 1.2% | 48.7hPa | 2.6V | 00:00:00 | 00:00:00 | 00:00:00 | |
| PETON7-10 | 2026-09-04 00:17:01 | 46.87038 | 19.54972 | 100° | 27km/h | 21146m | 7.4m/s | -55.5°C | 4.6% | 48.8hPa | 2.6V | 00:00:00 | 00:00:00 | 00:00:00 | |
| OM5KV | 2026-09-04 00:16:59 | 46.87039 | 19.54963 | 101° | 27km/h | 21139m | 5.3m/s | -55.6°C | 1.3% | 48.9hPa | 2.6V | 00:00:00 | 00:00:00 | 00:00:00 | |
| OE5DRO-10 | 2026-09-04 00:16:53 | 46.87034 | 19.54887 | 89° | 22km/h | 21098m | 4.2m/s | 0°C | 0% | 0hPa | 2.6V | 00:00:00 | 00:00:00 | 00:00:00 | |
| OM5KV | 2026-09-04 00:16:48 | 46.87034 | 19.54851 | 101° | 26km/h | 21072m | 7.1m/s | -55.4°C | 1.2% | 49.4hPa | 2.6V | 00:00:00 | 00:00:00 | 00:00:00 | |
| OM5KV | 2026-09-04 00:16:47 | 46.87036 | 19.54843 | 105° | 24km/h | 21066m | 5.0m/s | -55.4°C | 1.2% | 49.5hPa | 2.6V | 00:00:00 | 00:00:00 | 00:00:00 | |
| PETON7-10 | 2026-09-04 00:16:46 | 46.87037 | 19.54827 | 83° | 16km/h | 21053m | 7.6m/s | -55.3°C | 4.4% | 49.5hPa | 2.6V | 00:00:00 | 01:22:26 | 00:00:00 | |
| OM5KV | 2026-09-04 00:16:44 | 46.87033 | 19.54812 | 65° | 24km/h | 21041m | 4.4m/s | -55.5°C | 1.2% | 49.7hPa | 2.6V | 00:00:00 | 00:00:00 | 00:00:00 | |
| OM5KV | 2026-09-04 00:16:38 | 46.87026 | 19.54774 | 100° | 15km/h | 21012m | 9.2m/s | -55.7°C | 1.3% | 49.9hPa | 2.6V | 00:00:00 | 00:00:00 | 00:00:00 | |
| OM5KV | 2026-09-04 00:16:37 | 46.87027 | 19.54769 | 91° | 11km/h | 21004m | 5.7m/s | -55.7°C | 1.3% | 50.0hPa | 2.6V | 00:00:00 | 00:00:00 | 00:00:00 | |
| OM5KV | 2026-09-04 00:16:34 | 46.87025 | 19.54756 | 89° | 15km/h | 20984m | 4.5m/s | -55.6°C | 1.3% | 50.1hPa | 2.6V | 00:00:00 | 00:00:00 | 00:00:00 | |
| OM5KV | 2026-09-04 00:16:32 | 46.87025 | 19.54746 | 92° | 11km/h | 20973m | 7.6m/s | -55.6°C | 1.2% | 50.2hPa | 2.6V | 00:00:00 | 00:00:00 | 00:00:00 | |
| PETON7-10 | 2026-09-04 00:16:30 | 46.87027 | 19.54739 | 128° | 5km/h | 20953m | 8.5m/s | -55.6°C | 4.5% | 50.3hPa | 2.6V | 00:00:00 | 00:00:00 | 00:00:00 | |
| OM5KV | 2026-09-04 00:16:28 | 46.87028 | 19.54737 | 141° | 7km/h | 20946m | 5.1m/s | -55.6°C | 1.3% | 50.4hPa | 2.7V | 00:00:00 | 00:00:00 | 00:00:00 | |
| OM5KV | 2026-09-04 00:16:27 | 46.87029 | 19.54736 | 134° | 4km/h | 20941m | 5.7m/s | -55.6°C | 1.2% | 50.4hPa | 2.7V | 00:00:00 | 00:00:00 | 00:00:00 | |
| OM5KV | 2026-09-04 00:16:22 | 46.87028 | 19.54729 | 105° | 7km/h | 20911m | 6.1m/s | -55.6°C | 1.2% | 50.7hPa | 2.7V | 00:00:00 | 00:00:00 | 00:00:00 | |
| OM5KV | 2026-09-04 00:16:21 | 46.87029 | 19.54727 | 107° | 5km/h | 20906m | 4.5m/s | -55.6°C | 1.2% | 50.7hPa | 2.7V | 00:00:00 | 00:00:00 | 00:00:00 | |
| LZ4TU-5 | 2026-09-04 00:16:17 | 46.87028 | 19.54727 | 264° | 4km/h | 20884m | 6.4m/s | -55.6°C | 0% | 0hPa | 2.7V | 00:00:00 | 00:00:00 | 00:00:00 | |
| OM5KV | 2026-09-04 00:16:16 | 46.87028 | 19.54728 | 215° | 5km/h | 20876m | 9.4m/s | -55.7°C | 1.2% | 51.0hPa | 2.7V | 00:00:00 | 00:00:00 | 00:00:00 | |
| PETON7-10 | 2026-09-04 00:16:15 | 46.87032 | 19.54731 | 216° | 11km/h | 20866m | 4.3m/s | -55.8°C | 4.7% | 51.0hPa | 2.7V | 00:00:00 | 00:00:00 | 00:00:00 | |
| LZ4TU-5 | 2026-09-04 00:16:13 | 46.87033 | 19.54735 | 286° | 5km/h | 20854m | 4.8m/s | -55.9°C | 0% | 0hPa | 2.7V | 00:00:00 | 00:00:00 | 00:00:00 | |
| OM5KV | 2026-09-04 00:16:12 | 46.87032 | 19.54736 | 332° | 5km/h | 20848m | 6.5m/s | -55.9°C | 1.3% | 51.2hPa | 2.7V | 00:00:00 | 00:00:00 | 00:00:00 | |
| OM5KV | 2026-09-04 00:16:09 | 46.87028 | 19.54733 | 43° | 9km/h | 20829m | 4.9m/s | -55.9°C | 1.3% | 51.4hPa | 2.7V | 00:00:00 | 00:00:00 | 00:00:00 | |
| OM5KV | 2026-09-04 00:16:04 | 46.87029 | 19.54732 | 208° | 15km/h | 20806m | 6.4m/s | -55.9°C | 1.3% | 51.5hPa | 2.7V | 00:00:00 | 00:00:00 | 00:00:00 | |
| PETON7-10 | 2026-09-04 00:16:00 | 46.87049 | 19.54753 | 208° | 7km/h | 20776m | 5.6m/s | -55.7°C | 4.7% | 51.7hPa | 2.7V | 00:00:00 | 01:21:40 | 00:00:00 | |
| OM5KV | 2026-09-04 00:15:58 | 46.87051 | 19.54755 | 206° | 7km/h | 20771m | 5.5m/s | -55.8°C | 1.3% | 51.8hPa | 2.7V | 00:00:00 | 00:00:00 | 00:00:00 | |
| OM5KV | 2026-09-04 00:15:52 | 46.87046 | 19.54754 | 357° | 5km/h | 20733m | 6.1m/s | -55.6°C | 1.3% | 52.1hPa | 2.7V | 00:00:00 | 00:00:00 | 00:00:00 | |
| OM5KV | 2026-09-04 00:15:47 | 46.87048 | 19.54759 | 211° | 11km/h | 20703m | 6.5m/s | -55.3°C | 1.3% | 52.4hPa | 2.7V | 00:00:00 | 00:00:00 | 00:00:00 | |
| OM5KV | 2026-09-04 00:15:46 | 46.87051 | 19.54762 | 226° | 13km/h | 20697m | 5.2m/s | -55.3°C | 1.3% | 52.4hPa | 2.7V | 00:00:00 | 00:00:00 | 00:00:00 | |
| PETON7-10 | 2026-09-04 00:15:45 | 46.87054 | 19.54768 | 238° | 9km/h | 20686m | 6.7m/s | -55.2°C | 4.5% | 52.5hPa | 2.7V | 00:00:00 | 00:00:00 | 00:00:00 | |
| OM5KV | 2026-09-04 00:15:41 | 46.87051 | 19.54774 | 339° | 11km/h | 20661m | 6.1m/s | -55.2°C | 1.3% | 52.7hPa | 2.7V | 00:00:00 | 00:00:00 | 00:00:00 | |
| OM5KV | 2026-09-04 00:15:35 | 46.87047 | 19.54782 | 237° | 9km/h | 20629m | 4.8m/s | -55.0°C | 1.2% | 53.0hPa | 2.7V | 00:00:00 | 00:00:00 | 00:00:00 | |
| PETON7-10 | 2026-09-04 00:15:30 | 46.87060 | 19.54796 | 249° | 9km/h | 20594m | 4.9m/s | -54.7°C | 4.5% | 53.2hPa | 2.7V | 00:00:00 | 00:00:00 | 00:00:00 | |
| OM5KV | 2026-09-04 00:15:29 | 46.87060 | 19.54796 | 249° | 7km/h | 20594m | 5.0m/s | -54.8°C | 1.2% | 53.3hPa | 2.7V | 00:00:00 | 00:00:00 | 00:00:00 | |
| OM5KV | 2026-09-04 00:15:27 | 46.87060 | 19.54802 | 284° | 9km/h | 20582m | 7.5m/s | -54.7°C | 1.3% | 53.4hPa | 2.7V | 00:00:00 | 00:00:00 | 00:00:00 | |
| GYPAP8-17 | 2026-09-04 00:15:16 | 46.87077 | 19.54824 | 225° | 11km/h | 20510m | 8.4m/s | -54.2°C | 1.2% | 54.0hPa | 2.7V | 00:00:00 | 00:00:00 | 00:00:00 | |
| PETON7-10 | 2026-09-04 00:15:15 | 46.87078 | 19.54827 | 234° | 11km/h | 20502m | 7.0m/s | -54.1°C | 4.3% | 54.0hPa | 2.7V | 00:00:00 | 01:20:55 | 00:00:00 | |
| OM5KV | 2026-09-04 00:15:13 | 46.87080 | 19.54830 | 246° | 11km/h | 20495m | 6.5m/s | -54.1°C | 1.2% | 54.1hPa | 2.7V | 00:00:00 | 00:00:00 | 00:00:00 | |
| OM5KV | 2026-09-04 00:15:08 | 46.87091 | 19.54840 | 146° | 16km/h | 20457m | 6.9m/s | -53.9°C | 1.2% | 54.5hPa | 2.7V | 00:00:00 | 00:00:00 | 00:00:00 | |
| OM5KV | 2026-09-04 00:15:07 | 46.87094 | 19.54837 | 145° | 15km/h | 20449m | 9.4m/s | -53.9°C | 1.2% | 54.5hPa | 2.7V | 00:00:00 | 00:00:00 | 00:00:00 | |
| OM5KV | 2026-09-04 00:15:03 | 46.87102 | 19.54833 | 182° | 11km/h | 20426m | 9.6m/s | -53.7°C | 1.1% | 54.7hPa | 2.7V | 00:00:00 | 00:00:00 | 00:00:00 | |
| PETON7-10 | 2026-09-04 00:15:00 | 46.87110 | 19.54838 | 276° | 15km/h | 20396m | 5.3m/s | -53.6°C | 4.0% | 54.9hPa | 2.7V | 00:00:00 | 00:00:00 | 08:30:00 | |
| OM5KV | 2026-09-04 00:14:57 | 46.87108 | 19.54840 | 0° | 0km/h | 20387m | 6.4m/s | -53.7°C | 1.1% | 55.0hPa | 2.7V | 00:00:00 | 00:00:00 | 00:00:00 | |
| OM5KV | 2026-09-04 00:14:50 | 46.87127 | 19.54826 | 157° | 16km/h | 20341m | 6.3m/s | -54.2°C | 1.2% | 55.4hPa | 2.7V | 00:00:00 | 00:00:00 | 00:00:00 | |
| OM5KV | 2026-09-04 00:14:49 | 46.87132 | 19.54823 | 151° | 20km/h | 20334m | 6.2m/s | -54.4°C | 1.1% | 55.5hPa | 2.7V | 00:00:00 | 00:00:00 | 00:00:00 | |
| OM5KV | 2026-09-04 00:14:46 | 46.87142 | 19.54807 | 124° | 22km/h | 20316m | 5.9m/s | -54.8°C | 1.2% | 55.6hPa | 2.7V | 00:00:00 | 00:00:00 | 00:00:00 | |
| PETON7-10 | 2026-09-04 00:14:45 | 46.87148 | 19.54793 | 121° | 20km/h | 20305m | 6.0m/s | -54.8°C | 4.4% | 55.7hPa | 2.7V | 00:00:00 | 00:00:00 | 00:00:00 | |
| OM5KV | 2026-09-04 00:14:44 | 46.87148 | 19.54793 | 121° | 24km/h | 20305m | 6.0m/s | -54.9°C | 1.2% | 55.7hPa | 2.7V | 00:00:00 | 00:00:00 | 00:00:00 | |
| OM5KV | 2026-09-04 00:14:41 | 46.87157 | 19.54764 | 119° | 20km/h | 20279m | 6.2m/s | -54.9°C | 1.3% | 56.0hPa | 2.7V | 00:00:00 | 00:00:00 | 00:00:00 | |
| OM5KV | 2026-09-04 00:14:39 | 46.87160 | 19.54758 | 128° | 20km/h | 20273m | 4.4m/s | -54.9°C | 1.2% | 56.0hPa | 2.7V | 00:00:00 | 00:00:00 | 00:00:00 | |
| OM5KV | 2026-09-04 00:14:34 | 46.87172 | 19.54730 | 118° | 20km/h | 20243m | 6.8m/s | -54.9°C | 1.2% | 56.3hPa | 2.7V | 00:00:00 | 00:00:00 | 00:00:00 | |
| OM5KV | 2026-09-04 00:14:33 | 46.87174 | 19.54724 | 116° | 22km/h | 20238m | 4.7m/s | -54.9°C | 1.2% | 56.3hPa | 2.7V | 00:00:00 | 00:00:00 | 00:00:00 | |
| OM5KV | 2026-09-04 00:14:32 | 46.87177 | 19.54716 | 116° | 24km/h | 20232m | 6.6m/s | -54.9°C | 1.2% | 56.4hPa | 2.7V | 00:00:00 | 00:00:00 | 00:00:00 | |
| PETON7-10 | 2026-09-04 00:14:30 | 46.87184 | 19.54689 | 116° | 26km/h | 20214m | 5.7m/s | -54.9°C | 4.3% | 56.5hPa | 2.7V | 00:00:00 | 01:20:10 | 00:00:00 | |
| OM5KV | 2026-09-04 00:14:29 | 46.87184 | 19.54689 | 117° | 29km/h | 20214m | 5.8m/s | -54.9°C | 1.2% | 56.5hPa | 2.7V | 00:00:00 | 00:00:00 | 00:00:00 | |
| OM5KV | 2026-09-04 00:14:27 | 46.87193 | 19.54670 | 129° | 33km/h | 20202m | 4.9m/s | -55.1°C | 1.2% | 56.6hPa | 2.7V | 00:00:00 | 00:00:00 | 00:00:00 | |
| OM5KV | 2026-09-04 00:14:26 | 46.87198 | 19.54660 | 129° | 31km/h | 20197m | 6.5m/s | -55.2°C | 1.2% | 56.7hPa | 2.7V | 00:00:00 | 00:00:00 | 00:00:00 | |
| OM5KV | 2026-09-04 00:14:23 | 46.87208 | 19.54638 | 125° | 18km/h | 20178m | 6.4m/s | -55.4°C | 1.3% | 56.9hPa | 2.7V | 00:00:00 | 00:00:00 | 00:00:00 | |
| GYPAP8-17 | 2026-09-04 00:14:22 | 46.87211 | 19.54633 | 129° | 18km/h | 20172m | 5.3m/s | -55.4°C | 1.3% | 56.9hPa | 2.7V | 00:00:00 | 00:00:00 | 00:00:00 | |
| OM5KV | 2026-09-04 00:14:20 | 46.87215 | 19.54621 | 110° | 20km/h | 20161m | 6.5m/s | -55.4°C | 1.3% | 57.0hPa | 2.7V | 00:00:00 | 00:00:00 | 00:00:00 | |
| OM5KV | 2026-09-04 00:14:19 | 46.87217 | 19.54613 | 102° | 24km/h | 20155m | 7.0m/s | -55.4°C | 1.3% | 57.1hPa | 2.7V | 00:00:00 | 00:00:00 | 00:00:00 | |
| PETON7-10 | 2026-09-04 00:14:15 | 46.87227 | 19.54560 | 107° | 26km/h | 20126m | 6.1m/s | -55.3°C | 4.5% | 57.3hPa | 2.7V | 00:00:00 | 00:00:00 | 00:00:00 | |
| OM5KV | 2026-09-04 00:14:13 | 46.87230 | 19.54549 | 105° | 31km/h | 20120m | 4.7m/s | -55.4°C | 1.3% | 57.4hPa | 2.6V | 00:00:00 | 00:00:00 | 00:00:00 | |
| OM5KV | 2026-09-04 00:14:11 | 46.87238 | 19.54521 | 127° | 24km/h | 20103m | 5.6m/s | -55.4°C | 1.2% | 57.5hPa | 2.6V | 00:00:00 | 00:00:00 | 00:00:00 | |
| OM5KV | 2026-09-04 00:14:03 | 46.87249 | 19.54459 | 103° | 27km/h | 20065m | 4.9m/s | -55.4°C | 1.3% | 57.9hPa | 2.6V | 00:00:00 | 00:00:00 | 00:00:00 | |
| OM5KV | 2026-09-04 00:14:02 | 46.87251 | 19.54449 | 98° | 27km/h | 20059m | 6.9m/s | -55.5°C | 1.3% | 57.9hPa | 2.6V | 00:00:00 | 00:00:00 | 00:00:00 | |
| PETON7-10 | 2026-09-04 00:14:00 | 46.87252 | 19.54423 | 101° | 22km/h | 20044m | 6.9m/s | -55.4°C | 4.5% | 58.0hPa | 2.6V | 00:00:00 | 00:00:00 | 00:00:00 | |
| OM5KV | 2026-09-04 00:13:58 | 46.87255 | 19.54412 | 118° | 15km/h | 20031m | 3.3m/s | -55.5°C | 1.3% | 58.1hPa | 2.6V | 00:00:00 | 00:00:00 | 00:00:00 | |
| OM5KV | 2026-09-04 00:13:57 | 46.87255 | 19.54412 | 118° | 15km/h | 20031m | 3.3m/s | -55.5°C | 1.3% | 58.2hPa | 2.6V | 00:00:00 | 00:00:00 | 00:00:00 | |
| OM5KV | 2026-09-04 00:13:56 | 46.87257 | 19.54407 | 111° | 15km/h | 20027m | 5.4m/s | -55.5°C | 1.3% | 58.2hPa | 2.6V | 00:00:00 | 00:00:00 | 00:00:00 | |
| OM5KV | 2026-09-04 00:13:50 | 46.87262 | 19.54366 | 115° | 26km/h | 19993m | 5.9m/s | -55.3°C | 1.3% | 58.5hPa | 2.6V | 00:00:00 | 00:00:00 | 00:00:00 | |
| OM5KV | 2026-09-04 00:13:47 | 46.87271 | 19.54337 | 121° | 29km/h | 19975m | 6.2m/s | -55.2°C | 1.3% | 58.7hPa | 2.6V | 00:00:00 | 00:00:00 | 00:00:00 | |
| PETON7-10 | 2026-09-04 00:13:45 | 46.87281 | 19.54315 | 120° | 24km/h | 19958m | 6.8m/s | -55.3°C | 4.4% | 58.8hPa | 2.6V | 00:00:00 | 01:19:25 | 00:00:00 | |
| OM5KV | 2026-09-04 00:13:42 | 46.87285 | 19.54297 | 111° | 15km/h | 19941m | 7.1m/s | -55.4°C | 1.3% | 59.0hPa | 2.6V | 00:00:00 | 00:00:00 | 00:00:00 | |
| PETON7-10 | 2026-09-04 00:13:30 | 46.87324 | 19.54201 | 142° | 22km/h | 19872m | 6.2m/s | -55.9°C | 4.6% | 59.6hPa | 2.6V | 00:00:00 | 00:00:00 | 00:00:00 | |
| OM5KV | 2026-09-04 00:13:18 | 46.87369 | 19.54161 | 123° | 27km/h | 19810m | 4.7m/s | -56.3°C | 1.4% | 60.2hPa | 2.7V | 00:00:00 | 00:00:00 | 00:00:00 | |
| OM5KV | 2026-09-04 00:13:17 | 46.87373 | 19.54152 | 126° | 27km/h | 19804m | 6.8m/s | -56.3°C | 1.4% | 60.3hPa | 2.7V | 00:00:00 | 00:00:00 | 00:00:00 | |
| PETON7-10 | 2026-09-04 00:13:15 | 46.87386 | 19.54130 | 131° | 27km/h | 19785m | 6.7m/s | -56.2°C | 4.7% | 60.4hPa | 2.7V | 00:00:00 | 00:00:00 | 00:00:00 | |
| OE5DRO-10 | 2026-09-04 00:13:14 | 46.87390 | 19.54123 | 130° | 27km/h | 19779m | 5.3m/s | 0°C | 0% | 0hPa | 2.7V | 00:00:00 | 00:00:00 | 00:00:00 | |
| OM5KV | 2026-09-04 00:13:13 | 46.87390 | 19.54123 | 130° | 26km/h | 19779m | 5.3m/s | -56.3°C | 1.4% | 60.5hPa | 2.7V | 00:00:00 | 00:00:00 | 00:00:00 | |
| OM5KV | 2026-09-04 00:13:10 | 46.87404 | 19.54104 | 141° | 24km/h | 19762m | 5.4m/s | -56.3°C | 1.4% | 60.7hPa | 2.7V | 00:00:00 | 00:00:00 | 00:00:00 | |
| GYPAP8-17 | 2026-09-04 00:13:08 | 46.87412 | 19.54091 | 126° | 26km/h | 19749m | 5.7m/s | -56.2°C | 1.4% | 60.8hPa | 2.7V | 00:00:00 | 00:00:00 | 00:00:00 | |
| OM5KV | 2026-09-04 00:13:05 | 46.87426 | 19.54055 | 112° | 31km/h | 19725m | 7.5m/s | -56.1°C | 1.4% | 61.0hPa | 2.7V | 00:00:00 | 00:00:00 | 00:00:00 | |
| OM5KV | 2026-09-04 00:13:03 | 46.87432 | 19.54033 | 112° | 33km/h | 19713m | 4.8m/s | -56.1°C | 1.4% | 61.2hPa | 2.7V | 00:00:00 | 00:00:00 | 00:00:00 | |
| OM5KV | 2026-09-04 00:13:01 | 46.87435 | 19.54022 | 119° | 31km/h | 19707m | 6.5m/s | -56.2°C | 1.4% | 61.2hPa | 2.7V | 00:00:00 | 00:00:00 | 00:00:00 | |
| PETON7-10 | 2026-09-04 00:13:00 | 46.87443 | 19.54003 | 126° | 26km/h | 19696m | 5.1m/s | -56.1°C | 4.7% | 61.3hPa | 2.7V | 00:00:00 | 01:18:40 | 00:00:00 | |
| OM5KV | 2026-09-04 00:12:58 | 46.87446 | 19.53996 | 124° | 24km/h | 19690m | 7.2m/s | -56.2°C | 1.4% | 61.4hPa | 2.7V | 00:00:00 | 00:00:00 | 00:00:00 | |
| OE5DRO-10 | 2026-09-04 00:12:55 | 46.87458 | 19.53970 | 122° | 26km/h | 19667m | 4.9m/s | 0°C | 0% | 0hPa | 2.7V | 00:00:00 | 00:00:00 | 00:00:00 | |
| OM5KV | 2026-09-04 00:12:51 | 46.87464 | 19.53944 | 102° | 26km/h | 19649m | 6.4m/s | -56.0°C | 1.3% | 61.8hPa | 2.7V | 00:00:00 | 00:00:00 | 00:00:00 | |
| OM5KV | 2026-09-04 00:12:48 | 46.87468 | 19.53912 | 98° | 31km/h | 19629m | 6.2m/s | -55.9°C | 1.4% | 62.0hPa | 2.7V | 00:00:00 | 00:00:00 | 00:00:00 | |
| PETON7-10 | 2026-09-04 00:12:45 | 46.87470 | 19.53871 | 96° | 27km/h | 19605m | 5.2m/s | -55.8°C | 4.6% | 62.2hPa | 2.7V | 00:00:00 | 00:00:00 | 08:30:00 | |
| OM5KV | 2026-09-04 00:12:42 | 46.87471 | 19.53848 | 90° | 31km/h | 19592m | 6.7m/s | -55.9°C | 1.3% | 62.3hPa | 2.6V | 00:00:00 | 00:00:00 | 00:00:00 | |
| OM5KV | 2026-09-04 00:12:39 | 46.87470 | 19.53812 | 93° | 33km/h | 19573m | 6.8m/s | -55.9°C | 1.3% | 62.5hPa | 2.6V | 00:00:00 | 00:00:00 | 00:00:00 | |
| LZ4TU-5 | 2026-09-04 00:12:38 | 46.87471 | 19.53801 | 95° | 27km/h | 19567m | 3.8m/s | -55.9°C | 0% | 0hPa | 2.6V | 00:00:00 | 00:00:00 | 00:00:00 | |
| OM5KV | 2026-09-04 00:12:35 | 46.87471 | 19.53775 | 85° | 20km/h | 19551m | 4.3m/s | -55.9°C | 1.4% | 62.7hPa | 2.6V | 00:00:00 | 00:00:00 | 00:00:00 | |
| LZ4TU-5 | 2026-09-04 00:12:34 | 46.87470 | 19.53759 | 93° | 26km/h | 19538m | 7.4m/s | 0°C | 0% | 0hPa | 2.6V | 00:00:00 | 00:00:00 | 00:00:00 | |
| OM5KV | 2026-09-04 00:12:32 | 46.87471 | 19.53749 | 97° | 29km/h | 19532m | 4.8m/s | -55.8°C | 1.3% | 62.9hPa | 2.6V | 00:00:00 | 00:00:00 | 00:00:00 | |
| PETON7-10 | 2026-09-04 00:12:30 | 46.87473 | 19.53714 | 95° | 31km/h | 19515m | 7.6m/s | -55.6°C | 4.6% | 63.0hPa | 2.6V | 00:00:00 | 00:00:00 | 00:00:00 | |
| OM5KV | 2026-09-04 00:12:28 | 46.87474 | 19.53701 | 95° | 37km/h | 19508m | 7.4m/s | -55.6°C | 1.3% | 63.2hPa | 2.6V | 00:00:00 | 00:00:00 | 00:00:00 | |
| OM5KV | 2026-09-04 00:12:25 | 46.87473 | 19.53663 | 85° | 31km/h | 19489m | 7.5m/s | -55.6°C | 1.3% | 63.3hPa | 2.6V | 00:00:00 | 00:00:00 | 00:00:00 | |
| OM5KV | 2026-09-04 00:12:24 | 46.87472 | 19.53643 | 88° | 26km/h | 19475m | 6.2m/s | -55.8°C | 1.3% | 63.5hPa | 2.6V | 00:00:00 | 00:00:00 | 00:00:00 | |
| OM5KV | 2026-09-04 00:12:23 | 46.87471 | 19.53634 | 89° | 22km/h | 19468m | 6.1m/s | -55.8°C | 1.4% | 63.6hPa | 2.6V | 00:00:00 | 00:00:00 | 00:00:00 | |
| OM5KV | 2026-09-04 00:12:19 | 46.87472 | 19.53610 | 99° | 26km/h | 19450m | 7.5m/s | -55.8°C | 1.3% | 63.8hPa | 2.6V | 00:00:00 | 00:00:00 | 00:00:00 | |
| OM5KV | 2026-09-04 00:12:18 | 46.87473 | 19.53599 | 106° | 33km/h | 19443m | 6.7m/s | -55.8°C | 1.3% | 63.8hPa | 2.6V | 00:00:00 | 00:00:00 | 00:00:00 | |
| PETON7-10 | 2026-09-04 00:12:15 | 46.87482 | 19.53543 | 101° | 31km/h | 19418m | 6.5m/s | -55.6°C | 4.6% | 64.0hPa | 2.6V | 00:00:00 | 01:17:55 | 00:00:00 | |
| GYPAP8-17 | 2026-09-04 00:12:14 | 46.87482 | 19.53543 | 102° | 40km/h | 19418m | 6.5m/s | -55.7°C | 1.3% | 64.1hPa | 2.6V | 00:00:00 | 00:00:00 | 00:00:00 | |
| OM5KV | 2026-09-04 00:12:12 | 46.87487 | 19.53502 | 101° | 33km/h | 19401m | 4.3m/s | -55.5°C | 1.3% | 64.2hPa | 2.6V | 00:00:00 | 00:00:00 | 00:00:00 | |
| OM5KV | 2026-09-04 00:12:06 | 46.87499 | 19.53452 | 119° | 24km/h | 19371m | 4.8m/s | -55.3°C | 1.4% | 64.6hPa | 2.6V | 00:00:00 | 00:00:00 | 00:00:00 | |
| PETON7-10 | 2026-09-04 00:12:01 | 46.87518 | 19.53385 | 102° | 27km/h | 19329m | 7.5m/s | -54.9°C | 4.5% | 64.9hPa | 2.6V | 00:00:00 | 00:00:00 | 00:00:00 | |
| OM5KV | 2026-09-04 00:11:55 | 46.87529 | 19.53333 | 118° | 24km/h | 19298m | 6.5m/s | -54.8°C | 1.3% | 65.3hPa | 2.6V | 00:00:00 | 00:00:00 | 00:00:00 | |
| OM5KV | 2026-09-04 00:11:53 | 46.87532 | 19.53325 | 125° | 26km/h | 19290m | 7.9m/s | -54.8°C | 1.3% | 65.4hPa | 2.6V | 00:00:00 | 00:00:00 | 00:00:00 | |
| OM5KV | 2026-09-04 00:11:50 | 46.87543 | 19.53302 | 123° | 26km/h | 19273m | 5.6m/s | -54.6°C | 1.3% | 65.6hPa | 2.6V | 00:00:00 | 00:00:00 | 00:00:00 | |
| OM5KV | 2026-09-04 00:11:47 | 46.87552 | 19.53276 | 117° | 29km/h | 19253m | 7.6m/s | -54.5°C | 1.2% | 65.7hPa | 2.6V | 00:00:00 | 00:00:00 | 00:00:00 | |
| PETON7-10 | 2026-09-04 00:11:45 | 46.87559 | 19.53246 | 107° | 22km/h | 19236m | 6.1m/s | -54.4°C | 4.2% | 65.9hPa | 2.6V | 00:00:00 | 00:00:00 | 00:00:00 | |
| OM5KV | 2026-09-04 00:11:44 | 46.87560 | 19.53246 | 107° | 27km/h | 19236m | 6.1m/s | -54.5°C | 1.2% | 65.9hPa | 2.6V | 00:00:00 | 00:00:00 | 00:00:00 | |
| OM5KV | 2026-09-04 00:11:36 | 46.87583 | 19.53187 | 128° | 22km/h | 19184m | 5.7m/s | -55.0°C | 1.3% | 66.5hPa | 2.6V | 00:00:00 | 00:00:00 | 00:00:00 | |
| OM5KV | 2026-09-04 00:11:35 | 46.87586 | 19.53181 | 122° | 22km/h | 19178m | 5.8m/s | -55.0°C | 1.3% | 66.5hPa | 2.6V | 00:00:00 | 00:00:00 | 00:00:00 | |
| PETON7-10 | 2026-09-04 00:11:30 | 46.87597 | 19.53146 | 135° | 22km/h | 19142m | 6.0m/s | -54.9°C | 4.3% | 66.9hPa | 2.6V | 00:00:00 | 01:17:10 | 00:00:00 | |
| OM5KV | 2026-09-04 00:11:25 | 46.87617 | 19.53132 | 159° | 24km/h | 19110m | 6.2m/s | -55.5°C | 1.3% | 67.3hPa | 2.6V | 00:00:00 | 00:00:00 | 00:00:00 | |
| GYPAP8-17 | 2026-09-04 00:11:18 | 46.87652 | 19.53089 | 124° | 24km/h | 19067m | 5.0m/s | -55.3°C | 1.3% | 67.7hPa | 2.6V | 00:00:00 | 00:00:00 | 00:00:00 | |
| OM5KV | 2026-09-04 00:11:17 | 46.87656 | 19.53082 | 128° | 22km/h | 19061m | 6.4m/s | -55.3°C | 1.3% | 67.8hPa | 2.6V | 00:00:00 | 00:00:00 | 00:00:00 | |
| PETON7-10 | 2026-09-04 00:11:15 | 46.87663 | 19.53072 | 147° | 20km/h | 19048m | 5.7m/s | -55.2°C | 4.4% | 67.9hPa | 2.6V | 00:00:00 | 00:00:00 | 00:00:00 | |
| OM5KV | 2026-09-04 00:11:14 | 46.87663 | 19.53072 | 148° | 20km/h | 19048m | 5.7m/s | -55.2°C | 1.3% | 67.9hPa | 2.6V | 00:00:00 | 00:00:00 | 00:00:00 | |
| OM5KV | 2026-09-04 00:11:12 | 46.87675 | 19.53061 | 153° | 18km/h | 19029m | 5.1m/s | -55.2°C | 1.3% | 68.1hPa | 2.6V | 00:00:00 | 00:00:00 | 00:00:00 | |
| OM5KV | 2026-09-04 00:11:10 | 46.87679 | 19.53058 | 154° | 20km/h | 19023m | 6.1m/s | -55.2°C | 1.3% | 68.2hPa | 2.6V | 00:00:00 | 00:00:00 | 00:00:00 | |
| OM5KV | 2026-09-04 00:11:08 | 46.87688 | 19.53049 | 143° | 22km/h | 19011m | 6.6m/s | -55.1°C | 1.3% | 68.3hPa | 2.6V | 00:00:00 | 00:00:00 | 00:00:00 | |
| OM5KV | 2026-09-04 00:11:05 | 46.87698 | 19.53030 | 122° | 22km/h | 18994m | 6.7m/s | -55.3°C | 1.3% | 68.5hPa | 2.6V | 00:00:00 | 00:00:00 | 00:00:00 | |
| OM5KV | 2026-09-04 00:11:04 | 46.87701 | 19.53023 | 124° | 22km/h | 18988m | 6.3m/s | -55.4°C | 1.3% | 68.6hPa | 2.6V | 00:00:00 | 00:00:00 | 00:00:00 | |
| PETON7-10 | 2026-09-04 00:11:00 | 46.87714 | 19.52989 | 117° | 22km/h | 18954m | 8.0m/s | -55.3°C | 4.3% | 68.9hPa | 2.6V | 00:00:00 | 00:00:00 | 00:00:00 | |
| OM5KV | 2026-09-04 00:10:59 | 46.87714 | 19.52989 | 117° | 22km/h | 18954m | 8.1m/s | -55.3°C | 1.3% | 68.9hPa | 2.6V | 00:00:00 | 00:00:00 | 00:00:00 | |
| OM5KV | 2026-09-04 00:10:58 | 46.87717 | 19.52981 | 117° | 22km/h | 18948m | 4.9m/s | -55.4°C | 1.3% | 69.0hPa | 2.6V | 00:00:00 | 00:00:00 | 00:00:00 | |
| OM5KV | 2026-09-04 00:10:47 | 46.87742 | 19.52900 | 125° | 26km/h | 18881m | 5.7m/s | -56.3°C | 1.3% | 69.7hPa | 2.6V | 00:00:00 | 00:00:00 | 00:00:00 | |
| PETON7-10 | 2026-09-04 00:10:45 | 46.87751 | 19.52881 | 122° | 24km/h | 18862m | 5.2m/s | -56.6°C | 4.8% | 69.9hPa | 2.6V | 00:00:00 | 01:16:25 | 00:00:00 | |
| LZ4TU-5 | 2026-09-04 00:10:44 | 46.87754 | 19.52876 | 123° | 20km/h | 18856m | 7.3m/s | 0°C | 0% | 0hPa | 2.6V | 00:00:00 | 00:00:00 | 00:00:00 | |
| OM5KV | 2026-09-04 00:10:42 | 46.87757 | 19.52869 | 124° | 22km/h | 18849m | 5.2m/s | -56.7°C | 1.4% | 70.1hPa | 2.6V | 00:00:00 | 00:00:00 | 00:00:00 | |
| OM5KV | 2026-09-04 00:10:41 | 46.87760 | 19.52862 | 124° | 22km/h | 18844m | 6.0m/s | -56.8°C | 1.4% | 70.1hPa | 2.6V | 00:00:00 | 00:00:00 | 00:00:00 | |
| LZ4TU-5 | 2026-09-04 00:10:39 | 46.87764 | 19.52847 | 103° | 24km/h | 18831m | 6.6m/s | 0°C | 0% | 0hPa | 2.6V | 00:00:00 | 00:00:00 | 00:00:00 | |
| PETON7-10 | 2026-09-04 00:10:30 | 46.87764 | 19.52755 | 77° | 20km/h | 18767m | 5.0m/s | -56.5°C | 4.9% | 70.9hPa | 2.6V | 00:00:00 | 00:00:00 | 08:30:00 | |
| OM5KV | 2026-09-04 00:10:26 | 46.87768 | 19.52731 | 130° | 16km/h | 18745m | 6.1m/s | -56.5°C | 1.4% | 71.2hPa | 2.7V | 00:00:00 | 00:00:00 | 00:00:00 | |
| OM5KV | 2026-09-04 00:10:20 | 46.87776 | 19.52702 | 93° | 20km/h | 18716m | 5.8m/s | -56.2°C | 1.4% | 71.5hPa | 2.7V | 00:00:00 | 00:00:00 | 00:00:00 | |
| OM5KV | 2026-09-04 00:10:19 | 46.87775 | 19.52695 | 80° | 22km/h | 18710m | 5.7m/s | -56.2°C | 1.4% | 71.6hPa | 2.7V | 00:00:00 | 00:00:00 | 00:00:00 | |
| PETON7-10 | 2026-09-04 00:10:15 | 46.87772 | 19.52653 | 111° | 16km/h | 18682m | 5.9m/s | -55.9°C | 4.7% | 71.9hPa | 2.7V | 00:00:00 | 00:00:00 | 00:00:00 | |
| OM5KV | 2026-09-04 00:10:14 | 46.87774 | 19.52649 | 130° | 13km/h | 18676m | 6.8m/s | -55.9°C | 1.4% | 72.0hPa | 2.7V | 00:00:00 | 00:00:00 | 00:00:00 | |
| OM5KV | 2026-09-04 00:10:13 | 46.87774 | 19.52649 | 130° | 13km/h | 18676m | 6.8m/s | -55.9°C | 1.4% | 72.0hPa | 2.7V | 00:00:00 | 00:00:00 | 00:00:00 | |
| OM5KV | 2026-09-04 00:10:09 | 46.87783 | 19.52633 | 123° | 13km/h | 18646m | 4.1m/s | -55.7°C | 1.3% | 72.3hPa | 2.7V | 00:00:00 | 00:00:00 | 00:00:00 | |
| OM5KV | 2026-09-04 00:10:07 | 46.87784 | 19.52629 | 115° | 13km/h | 18641m | 7.0m/s | -55.6°C | 1.3% | 72.4hPa | 2.7V | 00:00:00 | 00:00:00 | 00:00:00 | |
| OM5KV | 2026-09-04 00:10:03 | 46.87782 | 19.52603 | 80° | 24km/h | 18617m | 5.6m/s | -55.5°C | 1.4% | 72.6hPa | 2.7V | 00:00:00 | 00:00:00 | 00:00:00 | |
| PETON7-10 | 2026-09-04 00:10:00 | 46.87780 | 19.52573 | 99° | 16km/h | 18594m | 4.7m/s | -55.3°C | 4.5% | 72.8hPa | 2.7V | 00:00:00 | 01:15:40 | 00:00:00 | |
| OM5KV | 2026-09-04 00:09:57 | 46.87782 | 19.52561 | 117° | 18km/h | 18583m | 5.7m/s | -55.5°C | 1.3% | 73.0hPa | 2.7V | 00:00:00 | 00:00:00 | 00:00:00 | |
| OM5KV | 2026-09-04 00:09:54 | 46.87791 | 19.52545 | 139° | 16km/h | 18566m | 5.4m/s | -55.5°C | 1.4% | 73.2hPa | 2.7V | 00:00:00 | 00:00:00 | 00:00:00 | |
| OM5KV | 2026-09-04 00:09:51 | 46.87801 | 19.52531 | 133° | 20km/h | 18549m | 6.0m/s | -55.4°C | 1.4% | 73.4hPa | 2.7V | 00:00:00 | 00:00:00 | 00:00:00 | |
| OM5KV | 2026-09-04 00:09:48 | 46.87808 | 19.52518 | 123° | 13km/h | 18530m | 5.6m/s | -55.3°C | 1.3% | 73.6hPa | 2.7V | 00:00:00 | 00:00:00 | 00:00:00 | |
| PETON7-10 | 2026-09-04 00:09:45 | 46.87812 | 19.52501 | 107° | 16km/h | 18507m | 5.1m/s | -55.2°C | 4.6% | 73.9hPa | 2.7V | 00:00:00 | 00:00:00 | 00:00:00 | |
| OM5KV | 2026-09-04 00:09:43 | 46.87813 | 19.52493 | 96° | 11km/h | 18496m | 5.4m/s | -55.2°C | 1.3% | 74.0hPa | 2.6V | 00:00:00 | 00:00:00 | 00:00:00 | |
| OM5KV | 2026-09-04 00:09:40 | 46.87814 | 19.52484 | 97° | 13km/h | 18485m | 6.7m/s | -55.1°C | 1.4% | 74.2hPa | 2.6V | 00:00:00 | 00:00:00 | 00:00:00 | |
| OM5KV | 2026-09-04 00:09:39 | 46.87814 | 19.52479 | 109° | 15km/h | 18478m | 6.5m/s | -55.1°C | 1.3% | 74.3hPa | 2.6V | 00:00:00 | 00:00:00 | 00:00:00 | |
| OM5KV | 2026-09-04 00:09:36 | 46.87819 | 19.52461 | 112° | 20km/h | 18462m | 6.5m/s | -54.9°C | 1.3% | 74.4hPa | 2.6V | 00:00:00 | 00:00:00 | 00:00:00 | |
| OM5KV | 2026-09-04 00:09:34 | 46.87823 | 19.52447 | 116° | 20km/h | 18448m | 5.5m/s | -54.8°C | 1.3% | 74.6hPa | 2.6V | 00:00:00 | 00:00:00 | 00:00:00 | |
| OM5KV | 2026-09-04 00:09:33 | 46.87825 | 19.52440 | 111° | 20km/h | 18443m | 6.1m/s | -54.8°C | 1.3% | 74.6hPa | 2.6V | 00:00:00 | 00:00:00 | 00:00:00 | |
| PETON7-10 | 2026-09-04 00:09:30 | 46.87829 | 19.52411 | 99° | 18km/h | 18419m | 5.8m/s | -54.6°C | 4.5% | 74.9hPa | 2.6V | 00:00:00 | 00:00:00 | 00:00:00 | |
| OM5KV | 2026-09-04 00:09:29 | 46.87829 | 19.52411 | 99° | 16km/h | 18419m | 5.8m/s | -54.6°C | 1.3% | 74.9hPa | 2.6V | 00:00:00 | 00:00:00 | 00:00:00 | |
| OM5KV | 2026-09-04 00:09:26 | 46.87831 | 19.52394 | 105° | 16km/h | 18402m | 5.6m/s | -54.5°C | 1.3% | 75.1hPa | 2.6V | 00:00:00 | 00:00:00 | 00:00:00 | |
| OM5KV | 2026-09-04 00:09:20 | 46.87842 | 19.52357 | 111° | 20km/h | 18368m | 6.5m/s | -54.3°C | 1.3% | 75.5hPa | 2.6V | 00:00:00 | 00:00:00 | 00:00:00 | |
| OM5KV | 2026-09-04 00:09:19 | 46.87844 | 19.52351 | 110° | 20km/h | 18361m | 5.9m/s | -54.3°C | 1.3% | 75.6hPa | 2.6V | 00:00:00 | 00:00:00 | 00:00:00 | |
| PETON7-10 | 2026-09-04 00:09:15 | 46.87850 | 19.52310 | 103° | 18km/h | 18334m | 5.4m/s | -54.0°C | 4.3% | 75.9hPa | 2.6V | 00:00:00 | 01:14:55 | 00:00:00 | |
| OM5KV | 2026-09-04 00:09:13 | 46.87851 | 19.52302 | 108° | 22km/h | 18329m | 5.9m/s | -54.0°C | 1.3% | 76.0hPa | 2.6V | 00:00:00 | 00:00:00 | 00:00:00 | |
| GYPAP8-17 | 2026-09-04 00:09:09 | 46.87856 | 19.52275 | 115° | 16km/h | 18307m | 5.7m/s | -53.9°C | 1.3% | 76.3hPa | 2.6V | 00:00:00 | 00:00:00 | 00:00:00 | |
| OM5KV | 2026-09-04 00:09:08 | 46.87857 | 19.52270 | 110° | 15km/h | 18301m | 5.5m/s | -53.8°C | 1.2% | 76.3hPa | 2.6V | 00:00:00 | 00:00:00 | 00:00:00 | |
| OM5KV | 2026-09-04 00:09:07 | 46.87858 | 19.52265 | 101° | 13km/h | 18296m | 5.5m/s | -53.8°C | 1.2% | 76.4hPa | 2.6V | 00:00:00 | 00:00:00 | 00:00:00 | |
| OM5KV | 2026-09-04 00:09:03 | 46.87861 | 19.52243 | 109° | 20km/h | 18275m | 5.1m/s | -53.6°C | 1.3% | 76.6hPa | 2.6V | 00:00:00 | 00:00:00 | 00:00:00 | |
| OM5KV | 2026-09-04 00:09:02 | 46.87863 | 19.52235 | 105° | 22km/h | 18269m | 5.7m/s | -53.6°C | 1.2% | 76.7hPa | 2.6V | 00:00:00 | 00:00:00 | 00:00:00 | |
| OM5KV | 2026-09-04 00:09:01 | 46.87865 | 19.52218 | 105° | 27km/h | 18258m | 5.7m/s | -53.5°C | 1.2% | 76.8hPa | 2.6V | 00:00:00 | 00:00:00 | 00:00:00 | |
| PETON7-10 | 2026-09-04 00:09:00 | 46.87867 | 19.52208 | 106° | 24km/h | 18253m | 5.2m/s | -53.4°C | 4.2% | 76.9hPa | 2.6V | 00:00:00 | 00:00:00 | 00:00:00 | |
| OM5KV | 2026-09-04 00:08:54 | 46.87873 | 19.52162 | 99° | 22km/h | 18225m | 6.3m/s | -53.2°C | 1.2% | 77.2hPa | 2.7V | 00:00:00 | 00:00:00 | 00:00:00 | |
| OM5KV | 2026-09-04 00:08:51 | 46.87876 | 19.52139 | 95° | 18km/h | 18208m | 5.6m/s | -53.0°C | 1.2% | 77.4hPa | 2.7V | 00:00:00 | 00:00:00 | 00:00:00 | |
| OM5KV | 2026-09-04 00:08:50 | 46.87876 | 19.52132 | 99° | 20km/h | 18203m | 4.4m/s | -53.0°C | 1.2% | 77.5hPa | 2.7V | 00:00:00 | 00:00:00 | 00:00:00 | |
| OM5KV | 2026-09-04 00:08:49 | 46.87877 | 19.52125 | 107° | 22km/h | 18198m | 6.0m/s | -53.0°C | 1.2% | 77.6hPa | 2.7V | 00:00:00 | 00:00:00 | 00:00:00 | |
| PETON7-10 | 2026-09-04 00:08:45 | 46.87887 | 19.52083 | 109° | 24km/h | 18172m | 6.7m/s | -52.8°C | 3.9% | 77.8hPa | 2.7V | 00:00:00 | 00:00:00 | 00:00:00 | |
| LZ4TU-5 | 2026-09-04 00:08:44 | 46.87887 | 19.52083 | 109° | 22km/h | 18172m | 6.8m/s | 0°C | 0% | 0hPa | 2.7V | 00:00:00 | 00:00:00 | 00:00:00 | |
| LZ4TU-5 | 2026-09-04 00:08:39 | 46.87890 | 19.52047 | 87° | 22km/h | 18146m | 5.2m/s | 0°C | 0% | 0hPa | 2.7V | 00:00:00 | 00:00:00 | 00:00:00 | |
| PETON7-10 | 2026-09-04 00:08:30 | 46.87902 | 19.51961 | 117° | 24km/h | 18092m | 7.2m/s | -52.9°C | 3.9% | 78.8hPa | 2.7V | 00:00:00 | 01:14:10 | 00:00:00 | |
| OM5KV | 2026-09-04 00:08:24 | 46.87915 | 19.51918 | 111° | 24km/h | 18067m | 5.1m/s | -53.4°C | 1.2% | 79.1hPa | 2.7V | 00:00:00 | 00:00:00 | 00:00:00 | |
| OM5KV | 2026-09-04 00:08:23 | 46.87917 | 19.51910 | 107° | 22km/h | 18061m | 7.0m/s | -53.3°C | 1.2% | 79.2hPa | 2.7V | 00:00:00 | 00:00:00 | 00:00:00 | |
| OM5KV | 2026-09-04 00:08:17 | 46.87934 | 19.51866 | 131° | 24km/h | 18030m | 6.4m/s | -53.2°C | 1.2% | 79.6hPa | 2.7V | 00:00:00 | 00:00:00 | 00:00:00 | |
| OM5KV | 2026-09-04 00:08:16 | 46.87937 | 19.51859 | 125° | 22km/h | 18023m | 6.6m/s | -53.2°C | 1.1% | 79.7hPa | 2.7V | 00:00:00 | 00:00:00 | 00:00:00 | |
| PETON7-10 | 2026-09-04 00:08:15 | 46.87943 | 19.51845 | 117° | 33km/h | 18015m | 4.6m/s | -53.3°C | 3.8% | 79.7hPa | 2.7V | 00:00:00 | 00:00:00 | 08:30:00 | |
| OM5KV | 2026-09-04 00:08:13 | 46.87946 | 19.51837 | 125° | 26km/h | 18009m | 6.7m/s | -53.6°C | 1.2% | 79.9hPa | 2.6V | 00:00:00 | 00:00:00 | 00:00:00 | |
| OM5KV | 2026-09-04 00:08:12 | 46.87951 | 19.51830 | 137° | 29km/h | 18003m | 4.3m/s | -53.9°C | 1.2% | 79.9hPa | 2.6V | 00:00:00 | 00:00:00 | 00:00:00 | |
| OM5KV | 2026-09-04 00:08:09 | 46.87969 | 19.51811 | 155° | 31km/h | 17987m | 5.3m/s | -54.4°C | 1.2% | 80.1hPa | 2.6V | 00:00:00 | 00:00:00 | 00:00:00 | |
| GYPAP8-17 | 2026-09-04 00:08:07 | 46.87993 | 19.51798 | 164° | 37km/h | 17971m | 5.0m/s | -54.8°C | 1.3% | 80.3hPa | 2.6V | 00:00:00 | 00:00:00 | 00:00:00 | |
| OM5KV | 2026-09-04 00:08:06 | 46.87993 | 19.51798 | 164° | 37km/h | 17971m | 5.0m/s | -54.8°C | 1.3% | 80.3hPa | 2.6V | 00:00:00 | 00:00:00 | 00:00:00 | |
| OM5KV | 2026-09-04 00:08:03 | 46.88016 | 19.51780 | 135° | 35km/h | 17956m | 2.7m/s | -55.3°C | 1.4% | 80.5hPa | 2.6V | 00:00:00 | 00:00:00 | 00:00:00 | |
| PETON7-10 | 2026-09-04 00:08:00 | 46.88040 | 19.51741 | 135° | 38km/h | 17933m | 5.0m/s | -55.5°C | 4.5% | 80.8hPa | 2.6V | 00:00:00 | 00:00:00 | 00:00:00 | |
| OM5KV | 2026-09-04 00:07:54 | 46.88077 | 19.51691 | 139° | 37km/h | 17905m | 5.6m/s | -55.7°C | 1.4% | 81.2hPa | 2.6V | 00:00:00 | 00:00:00 | 00:00:00 | |
| OM5KV | 2026-09-04 00:07:50 | 46.88101 | 19.51654 | 131° | 33km/h | 17883m | 5.5m/s | -55.8°C | 1.4% | 81.5hPa | 2.6V | 00:00:00 | 00:00:00 | 00:00:00 | |
| OM5KV | 2026-09-04 00:07:47 | 46.88127 | 19.51611 | 133° | 42km/h | 17861m | 6.6m/s | -55.7°C | 1.4% | 81.7hPa | 2.6V | 00:00:00 | 00:00:00 | 00:00:00 | |
| OM5KV | 2026-09-04 00:07:43 | 46.88149 | 19.51576 | 134° | 47km/h | 17844m | 4.4m/s | -55.6°C | 1.4% | 81.9hPa | 2.6V | 00:00:00 | 00:00:00 | 00:00:00 | |
| OM5KV | 2026-09-04 00:07:40 | 46.88172 | 19.51538 | 131° | 40km/h | 17828m | 5.7m/s | -55.6°C | 1.4% | 82.2hPa | 2.6V | 00:00:00 | 00:00:00 | 00:00:00 | |
| OM5KV | 2026-09-04 00:07:38 | 46.88185 | 19.51518 | 138° | 35km/h | 17817m | 3.9m/s | -55.6°C | 1.4% | 82.3hPa | 2.6V | 00:00:00 | 00:00:00 | 00:00:00 | |
| OM5KV | 2026-09-04 00:07:37 | 46.88192 | 19.51509 | 140° | 35km/h | 17813m | 5.2m/s | -55.7°C | 1.4% | 82.4hPa | 2.6V | 00:00:00 | 00:00:00 | 00:00:00 | |
| OM5KV | 2026-09-04 00:07:36 | 46.88204 | 19.51493 | 138° | 31km/h | 17800m | 5.7m/s | -55.8°C | 1.4% | 82.5hPa | 2.6V | 00:00:00 | 00:00:00 | 00:00:00 | |
| OE3OSB-13 | 2026-09-04 00:07:33 | 46.88224 | 19.51470 | 146° | 37km/h | 17784m | 5.8m/s | -55.8°C | 1.4% | 82.7hPa | 2.6V | 00:00:00 | 00:00:00 | 00:00:00 | |
| OM5KV | 2026-09-04 00:07:32 | 46.88224 | 19.51470 | 148° | 37km/h | 17784m | 5.8m/s | -55.8°C | 1.4% | 82.7hPa | 2.6V | 00:00:00 | 00:00:00 | 00:00:00 | |
| PETON7-10 | 2026-09-04 00:07:30 | 46.88247 | 19.51447 | 143° | 46km/h | 17765m | 6.5m/s | -55.7°C | 4.6% | 82.9hPa | 2.6V | 00:00:00 | 00:00:00 | 00:00:00 | |
| OM5KV | 2026-09-04 00:07:29 | 46.88247 | 19.51447 | 143° | 38km/h | 17765m | 6.6m/s | -55.7°C | 1.4% | 83.0hPa | 2.6V | 00:00:00 | 00:00:00 | 00:00:00 | |
| OE5DRO-10 | 2026-09-04 00:07:26 | 46.88277 | 19.51408 | 132° | 46km/h | 17741m | 5.2m/s | 0°C | 0% | 0hPa | 2.6V | 00:00:00 | 00:00:00 | 00:00:00 | |
| OM5KV | 2026-09-04 00:07:22 | 46.88309 | 19.51360 | 137° | 47km/h | 17719m | 7.4m/s | -55.9°C | 1.5% | 83.6hPa | 2.6V | 00:00:00 | 00:00:00 | 00:00:00 | |
| OM5KV | 2026-09-04 00:07:17 | 46.88346 | 19.51317 | 149° | 49km/h | 17697m | 4.6m/s | -55.9°C | 1.4% | 83.8hPa | 2.6V | 00:00:00 | 00:00:00 | 00:00:00 | |
| OM5KV | 2026-09-04 00:07:16 | 46.88366 | 19.51298 | 147° | 46km/h | 17685m | 7.5m/s | -55.9°C | 1.5% | 84.0hPa | 2.6V | 00:00:00 | 00:00:00 | 00:00:00 | |
| PETON7-10 | 2026-09-04 00:07:15 | 46.88375 | 19.51288 | 145° | 53km/h | 17679m | 4.2m/s | -55.9°C | 4.7% | 84.1hPa | 2.6V | 00:00:00 | 00:00:00 | 00:00:00 | |
| OM5KV | 2026-09-04 00:07:14 | 46.88375 | 19.51288 | 145° | 44km/h | 17679m | 4.2m/s | -55.9°C | 1.5% | 84.1hPa | 2.6V | 00:00:00 | 00:00:00 | 00:00:00 | |
| GYPAP8-17 | 2026-09-04 00:07:13 | 46.88384 | 19.51279 | 145° | 46km/h | 17675m | 5.0m/s | -55.9°C | 1.4% | 84.2hPa | 2.6V | 00:00:00 | 00:00:00 | 00:00:00 | |
| OM5KV | 2026-09-04 00:07:11 | 46.88403 | 19.51258 | 140° | 47km/h | 17664m | 5.2m/s | -56.0°C | 1.5% | 84.3hPa | 2.6V | 00:00:00 | 00:00:00 | 00:00:00 | |
| OM5KV | 2026-09-04 00:07:09 | 46.88429 | 19.51218 | 132° | 53km/h | 17646m | 5.1m/s | -56.1°C | 1.5% | 84.6hPa | 2.6V | 00:00:00 | 00:00:00 | 00:00:00 | |
| OM5KV | 2026-09-04 00:07:05 | 46.88458 | 19.51172 | 137° | 60km/h | 17630m | 2.7m/s | -56.1°C | 1.5% | 84.8hPa | 2.6V | 00:00:00 | 00:00:00 | 00:00:00 | |
| OE3OSB-13 | 2026-09-04 00:07:02 | 46.88500 | 19.51116 | 134° | 53km/h | 17606m | 6.9m/s | -56.2°C | 1.5% | 85.1hPa | 2.6V | 00:00:00 | 00:00:00 | 00:00:00 | |
| OM5KV | 2026-09-04 00:07:00 | 46.88518 | 19.51087 | 134° | 51km/h | 17595m | 5.9m/s | -56.2°C | 1.5% | 85.3hPa | 2.6V | 00:00:00 | 00:00:00 | 00:00:00 | |
| LZ4TU-5 | 2026-09-04 00:06:54 | 46.88558 | 19.51017 | 127° | 57km/h | 17565m | 3.8m/s | 0°C | 0% | 0hPa | 2.6V | 00:00:00 | 00:00:00 | 00:00:00 | |
| OM5KV | 2026-09-04 00:06:53 | 46.88567 | 19.50999 | 126° | 57km/h | 17559m | 7.2m/s | -56.0°C | 1.5% | 85.7hPa | 2.6V | 00:00:00 | 00:00:00 | 00:00:00 | |
| OM5KV | 2026-09-04 00:06:50 | 46.88589 | 19.50951 | 125° | 53km/h | 17539m | 6.9m/s | -56.1°C | 1.5% | 86.0hPa | 2.6V | 00:00:00 | 00:00:00 | 00:00:00 | |
| OM5KV | 2026-09-04 00:06:48 | 46.88610 | 19.50901 | 117° | 53km/h | 17519m | 8.1m/s | -56.1°C | 1.4% | 86.3hPa | 2.6V | 00:00:00 | 00:00:00 | 00:00:00 | |
| OM5KV | 2026-09-04 00:06:46 | 46.88615 | 19.50883 | 115° | 53km/h | 17512m | 5.6m/s | -56.1°C | 1.5% | 86.4hPa | 2.6V | 00:00:00 | 00:00:00 | 00:00:00 | |
| PETON7-10 | 2026-09-04 00:06:45 | 46.88627 | 19.50849 | 117° | 49km/h | 17499m | 4.8m/s | -55.9°C | 4.6% | 86.5hPa | 2.6V | 00:00:00 | 00:00:00 | 00:00:00 | |
| OM5KV | 2026-09-04 00:06:40 | 46.88656 | 19.50769 | 127° | 51km/h | 17467m | 4.1m/s | -55.8°C | 1.5% | 87.0hPa | 2.7V | 00:00:00 | 00:00:00 | 00:00:00 | |
| OM5KV | 2026-09-04 00:06:36 | 46.88678 | 19.50723 | 122° | 51km/h | 17449m | 4.2m/s | -55.9°C | 1.4% | 87.2hPa | 2.7V | 00:00:00 | 00:00:00 | 00:00:00 | |
| OM5KV | 2026-09-04 00:06:33 | 46.88697 | 19.50671 | 116° | 53km/h | 17431m | 7.5m/s | -56.0°C | 1.4% | 87.5hPa | 2.7V | 00:00:00 | 00:00:00 | 00:00:00 | |
| 9A1FER-10 | 2026-09-04 00:06:31 | 46.88712 | 19.50621 | 116° | 42km/h | 17411m | 5.5m/s | 0°C | 0% | 0hPa | 2.7V | 00:00:00 | 01:12:11 | 00:00:00 | |
| PETON7-10 | 2026-09-04 00:06:30 | 46.88717 | 19.50606 | 117° | 46km/h | 17405m | 6.3m/s | -56.6°C | 4.7% | 87.8hPa | 2.7V | 00:00:00 | 00:00:00 | 00:00:00 | |
| OM5KV | 2026-09-04 00:06:28 | 46.88728 | 19.50580 | 126° | 38km/h | 17393m | 7.0m/s | -56.9°C | 1.5% | 88.0hPa | 2.7V | 00:00:00 | 00:00:00 | 00:00:00 | |
| OM5KV | 2026-09-04 00:06:24 | 46.88745 | 19.50545 | 127° | 40km/h | 17374m | 7.2m/s | -57.3°C | 1.6% | 88.2hPa | 2.7V | 00:00:00 | 00:00:00 | 00:00:00 | |
| OM5KV | 2026-09-04 00:06:18 | 46.88800 | 19.50432 | 131° | 53km/h | 17322m | 6.0m/s | -57.5°C | 1.6% | 89.0hPa | 2.7V | 00:00:00 | 00:00:00 | 00:00:00 | |
| PETON7-10 | 2026-09-04 00:06:15 | 46.88817 | 19.50403 | 131° | 42km/h | 17311m | 5.5m/s | -57.4°C | 5.1% | 89.1hPa | 2.7V | 00:00:00 | 01:11:55 | 00:00:00 | |
| OM5KV | 2026-09-04 00:06:12 | 46.88832 | 19.50378 | 134° | 42km/h | 17298m | 5.1m/s | -57.5°C | 1.6% | 89.3hPa | 2.7V | 00:00:00 | 00:00:00 | 00:00:00 | |
| OM5KV | 2026-09-04 00:06:06 | 46.88870 | 19.50306 | 130° | 42km/h | 17263m | 2.9m/s | -57.5°C | 1.7% | 89.8hPa | 2.7V | 00:00:00 | 00:00:00 | 00:00:00 | |
| OM5KV | 2026-09-04 00:06:05 | 46.88877 | 19.50294 | 131° | 46km/h | 17258m | 6.5m/s | -57.5°C | 1.6% | 89.9hPa | 2.7V | 00:00:00 | 00:00:00 | 00:00:00 | |
| OM5KV | 2026-09-04 00:06:04 | 46.88884 | 19.50281 | 132° | 49km/h | 17252m | 6.0m/s | -57.5°C | 1.7% | 90.0hPa | 2.7V | 00:00:00 | 00:00:00 | 00:00:00 | |
| OE3OSB-13 | 2026-09-04 00:06:01 | 46.88921 | 19.50222 | 132° | 37km/h | 17225m | 4.7m/s | -57.3°C | 1.6% | 90.4hPa | 2.7V | 00:00:00 | 00:00:00 | 00:00:00 | |
| PETON7-10 | 2026-09-04 00:06:00 | 46.88921 | 19.50222 | 133° | 38km/h | 17225m | 4.6m/s | -57.2°C | 5.1% | 90.3hPa | 2.7V | 00:00:00 | 00:00:00 | 08:30:00 | |
| OM5KV | 2026-09-04 00:05:59 | 46.88921 | 19.50222 | 133° | 37km/h | 17225m | 4.7m/s | -57.3°C | 1.6% | 90.4hPa | 2.6V | 00:00:00 | 00:00:00 | 00:00:00 | |
| GYPAP8-17 | 2026-09-04 00:05:56 | 46.88947 | 19.50189 | 144° | 37km/h | 17201m | 8.6m/s | -57.1°C | 1.6% | 90.7hPa | 2.6V | 00:00:00 | 00:00:00 | 00:00:00 | |
| OM5KV | 2026-09-04 00:05:53 | 46.88962 | 19.50171 | 140° | 40km/h | 17189m | 6.2m/s | -57.0°C | 1.6% | 90.9hPa | 2.6V | 00:00:00 | 00:00:00 | 00:00:00 | |
| OM5KV | 2026-09-04 00:05:50 | 46.88985 | 19.50140 | 135° | 44km/h | 17172m | 6.8m/s | -56.9°C | 1.6% | 91.1hPa | 2.6V | 00:00:00 | 00:00:00 | 00:00:00 | |
| OM5KV | 2026-09-04 00:05:47 | 46.89009 | 19.50103 | 135° | 44km/h | 17157m | 4.6m/s | -56.8°C | 1.6% | 91.3hPa | 2.6V | 00:00:00 | 00:00:00 | 00:00:00 | |
| PETON7-10 | 2026-09-04 00:05:44 | 46.89036 | 19.50074 | 155° | 42km/h | 17133m | 9.0m/s | -56.7°C | 4.9% | 91.6hPa | 2.6V | 00:00:00 | 00:00:00 | 00:00:00 | |
| OM5KV | 2026-09-04 00:05:39 | 46.89067 | 19.50056 | 157° | 38km/h | 17108m | 6.9m/s | -56.8°C | 1.6% | 92.0hPa | 2.6V | 00:00:00 | 00:00:00 | 00:00:00 | |
| OM5KV | 2026-09-04 00:05:36 | 46.89096 | 19.50030 | 145° | 47km/h | 17089m | 6.4m/s | -56.7°C | 1.6% | 92.3hPa | 2.6V | 00:00:00 | 00:00:00 | 00:00:00 | |
| OM5KV | 2026-09-04 00:05:35 | 46.89106 | 19.50019 | 144° | 49km/h | 17083m | 4.1m/s | -56.7°C | 1.6% | 92.4hPa | 2.6V | 00:00:00 | 00:00:00 | 00:00:00 | |
| OM5KV | 2026-09-04 00:05:30 | 46.89154 | 19.49970 | 156° | 38km/h | 17054m | 5.2m/s | -56.6°C | 1.6% | 92.8hPa | 2.6V | 00:00:00 | 00:00:00 | 00:00:00 | |
| PETON7-10 | 2026-09-04 00:05:29 | 46.89171 | 19.49959 | 159° | 40km/h | 17042m | 7.0m/s | -56.6°C | 4.8% | 92.9hPa | 2.6V | 00:00:00 | 01:11:09 | 00:00:00 | |
| OM5KV | 2026-09-04 00:05:28 | 46.89171 | 19.49959 | 159° | 35km/h | 17042m | 7.0m/s | -56.7°C | 1.6% | 93.0hPa | 2.6V | 00:00:00 | 00:00:00 | 00:00:00 | |
| OM5KV | 2026-09-04 00:05:23 | 46.89210 | 19.49931 | 146° | 38km/h | 17011m | 4.3m/s | -56.7°C | 1.6% | 93.5hPa | 2.6V | 00:00:00 | 00:00:00 | 00:00:00 | |
| OM5KV | 2026-09-04 00:05:16 | 46.89258 | 19.49847 | 125° | 42km/h | 16972m | 5.3m/s | -56.5°C | 1.6% | 94.0hPa | 2.6V | 00:00:00 | 00:00:00 | 00:00:00 | |
| PETON7-10 | 2026-09-04 00:05:14 | 46.89277 | 19.49810 | 128° | 40km/h | 16954m | 5.4m/s | -56.4°C | 4.7% | 94.2hPa | 2.6V | 00:00:00 | 00:00:00 | 00:00:00 | |
| OM5KV | 2026-09-04 00:05:13 | 46.89283 | 19.49800 | 131° | 35km/h | 16948m | 6.7m/s | -56.5°C | 1.5% | 94.4hPa | 2.7V | 00:00:00 | 00:00:00 | 00:00:00 | |
| OM5KV | 2026-09-04 00:05:11 | 46.89289 | 19.49790 | 136° | 33km/h | 16943m | 3.6m/s | -56.6°C | 1.6% | 94.5hPa | 2.7V | 00:00:00 | 00:00:00 | 00:00:00 | |
| LZ4TU-5 | 2026-09-04 00:05:03 | 46.89341 | 19.49702 | 116° | 47km/h | 16900m | 3.8m/s | 0°C | 0% | 0hPa | 2.7V | 00:00:00 | 00:00:00 | 00:00:00 | |
| OE3OSB-13 | 2026-09-04 00:04:58 | 46.89366 | 19.49616 | 117° | 42km/h | 16869m | 4.7m/s | -56.6°C | 1.6% | 95.5hPa | 2.7V | 00:00:00 | 00:00:00 | 00:00:00 | |
| GYPAP8-17 | 2026-09-04 00:04:54 | 46.89383 | 19.49575 | 127° | 46km/h | 16852m | 5.7m/s | -56.5°C | 1.6% | 95.8hPa | 2.7V | 00:00:00 | 00:00:00 | 00:00:00 | |
| OM5KV | 2026-09-04 00:04:52 | 46.89398 | 19.49547 | 132° | 51km/h | 16841m | 5.1m/s | -56.6°C | 1.6% | 96.0hPa | 2.7V | 00:00:00 | 00:00:00 | 00:00:00 | |
| OM5KV | 2026-09-04 00:04:46 | 46.89449 | 19.49468 | 133° | 51km/h | 16807m | 4.0m/s | -56.9°C | 1.7% | 96.5hPa | 2.7V | 00:00:00 | 00:00:00 | 00:00:00 | |
| OM5KV | 2026-09-04 00:04:45 | 46.89457 | 19.49454 | 130° | 49km/h | 16802m | 7.0m/s | -56.9°C | 1.7% | 96.6hPa | 2.7V | 00:00:00 | 00:00:00 | 00:00:00 | |
| PETON7-10 | 2026-09-04 00:04:44 | 46.89470 | 19.49425 | 119° | 46km/h | 16790m | 5.6m/s | -56.9°C | 5.1% | 96.7hPa | 2.7V | 00:00:00 | 01:10:24 | 00:00:00 | |
| OM5KV | 2026-09-04 00:04:43 | 46.89475 | 19.49410 | 117° | 46km/h | 16785m | 4.4m/s | -56.9°C | 1.7% | 96.8hPa | 2.7V | 00:00:00 | 00:00:00 | 00:00:00 | |
| OM5KV | 2026-09-04 00:04:40 | 46.89489 | 19.49368 | 117° | 40km/h | 16767m | 4.0m/s | -56.8°C | 1.7% | 97.1hPa | 2.7V | 00:00:00 | 00:00:00 | 00:00:00 | |
| OM5KV | 2026-09-04 00:04:34 | 46.89523 | 19.49302 | 132° | 47km/h | 16738m | 7.1m/s | -56.7°C | 1.6% | 97.5hPa | 2.7V | 00:00:00 | 00:00:00 | 00:00:00 | |
| OM5KV | 2026-09-04 00:04:31 | 46.89543 | 19.49260 | 122° | 47km/h | 16721m | 7.7m/s | -56.8°C | 1.6% | 97.8hPa | 2.7V | 00:00:00 | 00:00:00 | 00:00:00 | |
| PETON7-10 | 2026-09-04 00:04:29 | 46.89558 | 19.49218 | 112° | 38km/h | 16704m | 3.9m/s | -56.9°C | 5.1% | 98.0hPa | 2.7V | 00:00:00 | 00:00:00 | 00:00:00 | |
| OM5KV | 2026-09-04 00:04:28 | 46.89558 | 19.49218 | 113° | 33km/h | 16704m | 3.9m/s | -56.9°C | 1.7% | 98.1hPa | 2.6V | 00:00:00 | 00:00:00 | 00:00:00 | |
| OM5KV | 2026-09-04 00:04:27 | 46.89563 | 19.49184 | 98° | 31km/h | 16687m | 4.3m/s | -56.8°C | 1.7% | 98.3hPa | 2.6V | 00:00:00 | 00:00:00 | 00:00:00 | |
| OM5KV | 2026-09-04 00:04:24 | 46.89569 | 19.49150 | 116° | 37km/h | 16673m | 5.3m/s | -56.7°C | 1.7% | 98.5hPa | 2.6V | 00:00:00 | 00:00:00 | 00:00:00 | |
| OM5KV | 2026-09-04 00:04:20 | 46.89587 | 19.49107 | 127° | 51km/h | 16658m | 4.8m/s | -56.6°C | 1.7% | 98.8hPa | 2.6V | 00:00:00 | 00:00:00 | 00:00:00 | |
| PETON7-10 | 2026-09-04 00:04:14 | 46.89618 | 19.49026 | 90° | 46km/h | 16623m | 4.5m/s | -56.2°C | 5.0% | 99.2hPa | 2.6V | 00:00:00 | 00:00:00 | 00:00:00 | |
| OM5KV | 2026-09-04 00:04:12 | 46.89618 | 19.49012 | 84° | 38km/h | 16619m | 3.4m/s | -56.2°C | 1.6% | 99.4hPa | 2.6V | 00:00:00 | 00:00:00 | 00:00:00 | |
| OM5KV | 2026-09-04 00:04:08 | 46.89635 | 19.48953 | 149° | 40km/h | 16587m | 6.0m/s | -56.0°C | 1.6% | 99.9hPa | 2.6V | 00:00:00 | 00:00:00 | 00:00:00 | |
| OE3OSB-13 | 2026-09-04 00:03:57 | 46.89715 | 19.48777 | 122° | 38km/h | 16512m | 11.1m/s | -56.0°C | 1.6% | 101.0hPa | 2.6V | 00:00:00 | 00:00:00 | 00:00:00 | |
| OM5KV | 2026-09-04 00:03:55 | 46.89721 | 19.48764 | 129° | 46km/h | 16502m | 8.2m/s | -56.0°C | 1.6% | 101.2hPa | 2.6V | 00:00:00 | 00:00:00 | 00:00:00 | |
| OM5KV | 2026-09-04 00:03:50 | 46.89762 | 19.48699 | 133° | 49km/h | 16471m | 2.9m/s | -56.0°C | 1.7% | 101.7hPa | 2.6V | 00:00:00 | 00:00:00 | 00:00:00 | |
| OM5KV | 2026-09-04 00:03:46 | 46.89787 | 19.48660 | 134° | 46km/h | 16456m | 4.7m/s | -55.9°C | 1.6% | 102.0hPa | 2.6V | 00:00:00 | 00:00:00 | 00:00:00 | |
| OM5KV | 2026-09-04 00:03:44 | 46.89810 | 19.48619 | 125° | 47km/h | 16442m | 3.1m/s | -55.9°C | 1.6% | 102.2hPa | 2.6V | 00:00:00 | 00:00:00 | 00:00:00 | |
| OM5KV | 2026-09-04 00:03:37 | 46.89849 | 19.48533 | 127° | 51km/h | 16412m | 4.7m/s | -55.9°C | 1.6% | 102.7hPa | 2.6V | 00:00:00 | 00:00:00 | 00:00:00 | |
| OM5KV | 2026-09-04 00:03:34 | 46.89887 | 19.48465 | 128° | 46km/h | 16386m | 3.3m/s | -55.8°C | 1.7% | 103.1hPa | 2.6V | 00:00:00 | 00:00:00 | 00:00:00 | |
| PETON7-10 | 2026-09-04 00:03:29 | 46.89913 | 19.48411 | 120° | 44km/h | 16367m | 7.0m/s | -55.8°C | 4.9% | 103.3hPa | 2.6V | 00:00:00 | 00:00:00 | 00:00:00 | |
| OM5KV | 2026-09-04 00:03:28 | 46.89919 | 19.48395 | 117° | 47km/h | 16360m | 5.7m/s | -55.9°C | 1.7% | 103.5hPa | 2.6V | 00:00:00 | 00:00:00 | 00:00:00 | |
| OM5KV | 2026-09-04 00:03:27 | 46.89924 | 19.48380 | 118° | 47km/h | 16356m | 4.1m/s | -55.9°C | 1.7% | 103.6hPa | 2.6V | 00:00:00 | 00:00:00 | 00:00:00 | |
| OE3OSB-13 | 2026-09-04 00:03:25 | 46.89943 | 19.48335 | 124° | 44km/h | 16340m | 3.7m/s | -55.9°C | 1.7% | 103.8hPa | 2.6V | 00:00:00 | 00:00:00 | 00:00:00 | |
| OM5KV | 2026-09-04 00:03:22 | 46.89954 | 19.48308 | 118° | 40km/h | 16328m | 5.9m/s | -55.9°C | 1.7% | 104.0hPa | 2.6V | 00:00:00 | 00:00:00 | 00:00:00 | |
| OM5KV | 2026-09-04 00:03:15 | 46.89991 | 19.48217 | 117° | 47km/h | 16293m | 4.3m/s | -55.8°C | 1.7% | 104.6hPa | 2.6V | 00:00:00 | 00:00:00 | 00:00:00 | |
| PETON7-10 | 2026-09-04 00:03:14 | 46.89997 | 19.48201 | 116° | 42km/h | 16287m | 6.7m/s | -55.8°C | 4.9% | 104.6hPa | 2.6V | 00:00:00 | 01:08:54 | 00:00:00 | |
| OM5KV | 2026-09-04 00:03:05 | 46.90040 | 19.48080 | 119° | 38km/h | 16235m | 5.5m/s | -55.7°C | 1.7% | 105.5hPa | 2.6V | 00:00:00 | 00:00:00 | 00:00:00 | |
| OM5KV | 2026-09-04 00:03:04 | 46.90045 | 19.48067 | 121° | 40km/h | 16229m | 6.7m/s | -55.7°C | 1.7% | 105.7hPa | 2.6V | 00:00:00 | 00:00:00 | 00:00:00 | |
| OM5KV | 2026-09-04 00:02:32 | 46.90440 | 19.47414 | 132° | 47km/h | 15915m | 6.9m/s | -55.5°C | 1.8% | 111.0hPa | 2.6V | 00:00:00 | 00:00:00 | 00:00:00 | |
| OM5KV | 2026-09-04 00:02:20 | 46.90509 | 19.47285 | 128° | 47km/h | 15863m | 5.6m/s | -55.5°C | 1.8% | 111.9hPa | 2.6V | 00:00:00 | 00:00:00 | 00:00:00 | |
| OM5KV | 2026-09-04 00:02:17 | 46.90531 | 19.47241 | 128° | 49km/h | 15842m | 5.3m/s | -55.5°C | 1.7% | 112.3hPa | 2.6V | 00:00:00 | 00:00:00 | 00:00:00 | |
| OM5KV | 2026-09-04 00:02:14 | 46.90555 | 19.47201 | 132° | 46km/h | 15824m | 6.2m/s | -55.4°C | 1.8% | 112.6hPa | 2.6V | 00:00:00 | 00:00:00 | 00:00:00 | |
| OM5KV | 2026-09-04 00:02:10 | 46.90570 | 19.47176 | 136° | 42km/h | 15812m | 6.7m/s | -55.4°C | 1.8% | 112.8hPa | 2.6V | 00:00:00 | 00:00:00 | 00:00:00 | |
| OM5KV | 2026-09-04 00:02:04 | 46.90603 | 19.47128 | 138° | 35km/h | 15783m | 5.8m/s | -55.3°C | 1.8% | 113.3hPa | 2.6V | 00:00:00 | 00:00:00 | 00:00:00 | |
| PETON7-10 | 2026-09-04 00:01:57 | 46.90642 | 19.47071 | 137° | 40km/h | 15757m | 6.7m/s | -55.2°C | 4.8% | 113.7hPa | 2.6V | 00:00:00 | 01:07:24 | 00:00:00 | |
| OM5KV | 2026-09-04 00:01:56 | 46.90642 | 19.47071 | 137° | 49km/h | 15757m | 6.7m/s | -55.2°C | 1.7% | 113.8hPa | 2.6V | 00:00:00 | 00:00:00 | 00:00:00 | |
| OM5KV | 2026-09-04 00:01:49 | 46.90693 | 19.47011 | 153° | 35km/h | 15724m | 4.9m/s | -55.1°C | 1.7% | 114.4hPa | 2.6V | 00:00:00 | 00:00:00 | 00:00:00 | |
| GYPAP8-17 | 2026-09-04 00:01:48 | 46.90693 | 19.47011 | 153° | 35km/h | 15724m | 4.9m/s | -55.1°C | 1.7% | 114.4hPa | 2.6V | 00:00:00 | 00:00:00 | 00:00:00 | |
| OM5KV | 2026-09-04 00:01:39 | 46.90732 | 19.46977 | 148° | 42km/h | 15699m | 5.6m/s | -55.1°C | 1.7% | 114.8hPa | 2.6V | 00:00:00 | 00:00:00 | 00:00:00 | |
| PETON7-10 | 2026-09-04 00:01:36 | 46.90767 | 19.46940 | 144° | 46km/h | 15678m | 4.8m/s | -54.9°C | 4.9% | 115.1hPa | 2.6V | 00:00:00 | 00:00:00 | 08:30:00 | |
| OM5KV | 2026-09-04 00:01:34 | 46.90776 | 19.46930 | 146° | 47km/h | 15673m | 5.1m/s | -54.9°C | 1.7% | 115.3hPa | 2.6V | 00:00:00 | 00:00:00 | 00:00:00 | |
| OM5KV | 2026-09-04 00:01:29 | 46.90809 | 19.46901 | 152° | 51km/h | 15656m | 6.7m/s | -54.8°C | 1.7% | 115.6hPa | 2.6V | 00:00:00 | 00:00:00 | 00:00:00 | |
| OE3OSB-13 | 2026-09-04 00:01:24 | 46.90857 | 19.46856 | 137° | 40km/h | 15627m | 6.0m/s | -54.6°C | 1.7% | 116.1hPa | 2.6V | 00:00:00 | 00:00:00 | 00:00:00 | |
| OM5KV | 2026-09-04 00:01:22 | 46.90856 | 19.46856 | 139° | 42km/h | 15627m | 6.0m/s | -54.6°C | 1.7% | 116.1hPa | 2.6V | 00:00:00 | 00:00:00 | 00:00:00 | |
| OM5KV | 2026-09-04 00:01:20 | 46.90880 | 19.46825 | 138° | 42km/h | 15611m | 7.6m/s | -54.5°C | 1.7% | 116.4hPa | 2.6V | 00:00:00 | 00:00:00 | 00:00:00 | |
| OM5KV | 2026-09-04 00:01:17 | 46.90906 | 19.46797 | 155° | 44km/h | 15594m | 4.9m/s | -54.4°C | 1.7% | 116.7hPa | 2.6V | 00:00:00 | 00:00:00 | 00:00:00 | |
| OM5KV | 2026-09-04 00:01:12 | 46.90953 | 19.46766 | 152° | 40km/h | 15564m | 9.5m/s | -54.2°C | 1.7% | 117.2hPa | 2.6V | 00:00:00 | 00:00:00 | 00:00:00 | |
| PETON7-10 | 2026-09-04 00:01:00 | 46.91028 | 19.46693 | 174° | 37km/h | 15496m | 5.8m/s | -53.9°C | 4.7% | 118.5hPa | 2.6V | 00:00:00 | 01:06:39 | 00:00:00 | |
| OM5KV | 2026-09-04 00:00:58 | 46.91042 | 19.46690 | 167° | 26km/h | 15485m | 3.6m/s | -53.8°C | 1.7% | 118.7hPa | 2.6V | 00:00:00 | 00:00:00 | 00:00:00 | |
| OE3OSB-13 | 2026-09-04 00:00:50 | 46.91103 | 19.46646 | 155° | 47km/h | 15438m | 6.2m/s | -53.4°C | 1.6% | 119.6hPa | 2.6V | 00:00:00 | 00:00:00 | 00:00:00 | |
| OM5KV | 2026-09-04 00:00:47 | 46.91114 | 19.46640 | 162° | 49km/h | 15433m | 4.2m/s | -53.3°C | 1.6% | 119.7hPa | 2.6V | 00:00:00 | 00:00:00 | 00:00:00 | |
| PETON7-10 | 2026-09-04 00:00:45 | 46.91153 | 19.46624 | 167° | 33km/h | 15413m | 5.9m/s | -53.1°C | 4.4% | 120.0hPa | 2.6V | 00:00:00 | 00:00:00 | 00:00:00 | |
| OM5KV | 2026-09-04 00:00:42 | 46.91167 | 19.46618 | 164° | 31km/h | 15401m | 6.9m/s | -53.0°C | 1.6% | 120.3hPa | 2.6V | 00:00:00 | 00:00:00 | 00:00:00 | |
| OM5KV | 2026-09-04 00:00:37 | 46.91217 | 19.46597 | 149° | 31km/h | 15354m | 5.5m/s | -52.6°C | 1.6% | 121.2hPa | 2.6V | 00:00:00 | 00:00:00 | 00:00:00 | |
| PETON7-10 | 2026-09-04 00:00:35 | 46.91269 | 19.46557 | 169° | 38km/h | 15318m | 5.1m/s | -52.6°C | 4.2% | 121.8hPa | 2.6V | 00:00:00 | 00:00:00 | 00:00:00 | |
| OM5KV | 2026-09-04 00:00:34 | 46.91269 | 19.46556 | 169° | 42km/h | 15318m | 5.1m/s | -52.7°C | 1.6% | 121.8hPa | 2.6V | 00:00:00 | 00:00:00 | 00:00:00 | |
| OM5KV | 2026-09-04 00:00:26 | 46.91313 | 19.46542 | 171° | 29km/h | 15289m | 5.2m/s | -52.8°C | 1.6% | 122.3hPa | 2.6V | 00:00:00 | 00:00:00 | 00:00:00 | |
| OM5KV | 2026-09-04 00:00:20 | 46.91367 | 19.46512 | 158° | 42km/h | 15251m | 7.1m/s | -53.2°C | 1.7% | 123.1hPa | 2.6V | 00:00:00 | 00:00:00 | 00:00:00 | |
| PETON7-10 | 2026-09-04 00:00:14 | 46.91406 | 19.46490 | 154° | 37km/h | 15231m | 4.4m/s | -53.3°C | 4.7% | 123.4hPa | 2.6V | 00:00:00 | 01:05:54 | 00:00:00 | |
| OM5KV | 2026-09-04 00:00:12 | 46.91415 | 19.46483 | 153° | 42km/h | 15226m | 4.4m/s | -53.3°C | 1.7% | 123.6hPa | 2.6V | 00:00:00 | 00:00:00 | 00:00:00 | |
| OM5KV | 2026-09-04 00:00:11 | 46.91425 | 19.46475 | 152° | 38km/h | 15221m | 6.1m/s | -53.3°C | 1.7% | 123.6hPa | 2.6V | 00:00:00 | 00:00:00 | 00:00:00 | |
| OM5KV | 2026-09-04 00:00:00 | 46.91504 | 19.46397 | 158° | 46km/h | 15165m | 6.5m/s | -53.2°C | 1.7% | 124.7hPa | 2.6V | 00:00:00 | 00:00:00 | 00:00:00 | |
| PETON7-10 | 2026-09-03 23:59:58 | 46.91532 | 19.46375 | 138° | 46km/h | 15146m | 6.0m/s | -53.1°C | 4.5% | 125.1hPa | 2.6V | 00:00:00 | 00:00:00 | 00:00:00 | |
| OM5KV | 2026-09-03 23:59:55 | 46.91545 | 19.46353 | 129° | 38km/h | 15135m | 6.3m/s | -53.1°C | 1.7% | 125.3hPa | 2.6V | 00:00:00 | 00:00:00 | 00:00:00 | |
| OM5KV | 2026-09-03 23:59:54 | 46.91551 | 19.46342 | 130° | 38km/h | 15128m | 6.7m/s | -53.1°C | 1.7% | 125.4hPa | 2.6V | 00:00:00 | 00:00:00 | 00:00:00 | |
| OM5KV | 2026-09-03 23:59:50 | 46.91581 | 19.46301 | 148° | 46km/h | 15101m | 5.2m/s | -53.0°C | 1.7% | 126.0hPa | 2.6V | 00:00:00 | 00:00:00 | 00:00:00 | |
| OM5KV | 2026-09-03 23:59:49 | 46.91592 | 19.46292 | 149° | 49km/h | 15095m | 7.0m/s | -53.1°C | 1.7% | 126.1hPa | 2.6V | 00:00:00 | 00:00:00 | 00:00:00 | |
| OE3OSB-13 | 2026-09-03 23:59:47 | 46.91626 | 19.46259 | 143° | 53km/h | 15079m | 5.1m/s | -53.2°C | 1.8% | 126.4hPa | 2.6V | 00:00:00 | 00:00:00 | 00:00:00 | |
| OM5KV | 2026-09-03 23:59:44 | 46.91645 | 19.46234 | 132° | 49km/h | 15070m | 3.4m/s | -53.1°C | 1.8% | 126.6hPa | 2.6V | 00:00:00 | 00:00:00 | 00:00:00 | |
| PETON7-10 | 2026-09-03 23:59:43 | 46.91661 | 19.46206 | 131° | 49km/h | 15059m | 6.3m/s | -53.0°C | 4.6% | 126.8hPa | 2.6V | 00:00:00 | 00:00:00 | 00:00:00 | |
| GYPAP8-17 | 2026-09-03 23:59:40 | 46.91678 | 19.46182 | 140° | 47km/h | 15047m | 3.5m/s | -52.9°C | 1.8% | 127.1hPa | 2.6V | 00:00:00 | 00:00:00 | 00:00:00 | |
| OM5KV | 2026-09-03 23:59:37 | 46.91706 | 19.46151 | 147° | 47km/h | 15031m | 4.4m/s | -52.8°C | 1.7% | 127.4hPa | 2.6V | 00:00:00 | 00:00:00 | 00:00:00 | |
| OM5KV | 2026-09-03 23:59:32 | 46.91760 | 19.46095 | 143° | 53km/h | 15005m | 4.3m/s | -52.6°C | 1.7% | 127.9hPa | 2.6V | 00:00:00 | 00:00:00 | 00:00:00 | |
| PETON7-10 | 2026-09-03 23:59:28 | 46.91807 | 19.46030 | 133° | 51km/h | 14981m | 5.2m/s | -52.5°C | 4.3% | 128.3hPa | 2.6V | 00:00:00 | 01:05:08 | 00:00:00 | |
| OM5KV | 2026-09-03 23:59:26 | 46.91815 | 19.46018 | 134° | 46km/h | 14975m | 5.1m/s | -52.6°C | 1.7% | 128.4hPa | 2.6V | 00:00:00 | 00:00:00 | 00:00:00 | |
| OM5KV | 2026-09-03 23:59:21 | 46.91864 | 19.45960 | 149° | 53km/h | 14948m | 6.1m/s | -52.7°C | 1.7% | 129.0hPa | 2.6V | 00:00:00 | 00:00:00 | 00:00:00 | |
| OM5KV | 2026-09-03 23:59:20 | 46.91876 | 19.45949 | 151° | 57km/h | 14943m | 4.6m/s | -52.7°C | 1.7% | 129.1hPa | 2.6V | 00:00:00 | 00:00:00 | 00:00:00 | |
| OM5KV | 2026-09-03 23:59:16 | 46.91934 | 19.45900 | 145° | 47km/h | 14920m | 4.0m/s | -52.6°C | 1.7% | 129.6hPa | 2.6V | 00:00:00 | 00:00:00 | 00:00:00 | |
| OM5KV | 2026-09-03 23:59:14 | 46.91945 | 19.45889 | 142° | 49km/h | 14914m | 6.9m/s | -52.7°C | 1.7% | 129.7hPa | 2.6V | 00:00:00 | 00:00:00 | 00:00:00 | |
| PETON7-10 | 2026-09-03 23:59:13 | 46.91965 | 19.45863 | 139° | 57km/h | 14905m | 4.3m/s | -52.7°C | 4.3% | 129.8hPa | 2.6V | 00:00:00 | 00:00:00 | 08:30:00 | |
| OM5KV | 2026-09-03 23:59:08 | 46.92006 | 19.45808 | 137° | 57km/h | 14884m | 4.8m/s | -52.9°C | 1.7% | 130.3hPa | 2.6V | 00:00:00 | 00:00:00 | 00:00:00 | |
| OM5KV | 2026-09-03 23:59:02 | 46.92073 | 19.45742 | 151° | 57km/h | 14853m | 5.5m/s | -53.5°C | 1.7% | 130.9hPa | 2.6V | 00:00:00 | 00:00:00 | 00:00:00 | |
| OE3OSB-13 | 2026-09-03 23:58:45 | 46.92303 | 19.45467 | 126° | 77km/h | 14761m | 4.1m/s | -54.5°C | 1.9% | 132.8hPa | 2.6V | 00:00:00 | 00:00:00 | 00:00:00 | |
| PETON7-10 | 2026-09-03 23:58:43 | 46.92326 | 19.45421 | 127° | 69km/h | 14752m | 5.2m/s | -54.4°C | 4.8% | 132.9hPa | 2.6V | 00:00:00 | 01:04:23 | 00:00:00 | |
| OM5KV | 2026-09-03 23:58:41 | 46.92337 | 19.45399 | 130° | 71km/h | 14747m | 4.8m/s | -54.4°C | 1.9% | 133.1hPa | 2.6V | 00:00:00 | 00:00:00 | 00:00:00 | |
| OM5KV | 2026-09-03 23:58:40 | 46.92349 | 19.45379 | 133° | 69km/h | 14743m | 4.6m/s | -54.4°C | 1.8% | 133.2hPa | 2.6V | 00:00:00 | 00:00:00 | 00:00:00 | |
| OM5KV | 2026-09-03 23:58:35 | 46.92411 | 19.45289 | 137° | 69km/h | 14718m | 6.2m/s | -54.4°C | 1.8% | 133.7hPa | 2.6V | 00:00:00 | 00:00:00 | 00:00:00 | |
| OM5KV | 2026-09-03 23:58:34 | 46.92424 | 19.45272 | 138° | 69km/h | 14712m | 5.1m/s | -54.5°C | 1.9% | 133.8hPa | 2.6V | 00:00:00 | 00:00:00 | 00:00:00 | |
| PETON7-10 | 2026-09-03 23:58:28 | 46.92509 | 19.45153 | 140° | 77km/h | 14677m | 5.5m/s | -54.5°C | 4.9% | 134.5hPa | 2.6V | 00:00:00 | 00:00:00 | 00:00:00 | |
| OM5KV | 2026-09-03 23:58:23 | 46.92566 | 19.45082 | 139° | 82km/h | 14657m | 4.5m/s | -54.6°C | 1.9% | 135.0hPa | 2.7V | 00:00:00 | 00:00:00 | 00:00:00 | |
| OM5KV | 2026-09-03 23:58:22 | 46.92582 | 19.45061 | 138° | 84km/h | 14652m | 5.6m/s | -54.6°C | 2.0% | 135.1hPa | 2.7V | 00:00:00 | 00:00:00 | 00:00:00 | |
| OM5KV | 2026-09-03 23:58:17 | 46.92658 | 19.44960 | 140° | 82km/h | 14626m | 4.1m/s | -54.7°C | 2.0% | 135.6hPa | 2.7V | 00:00:00 | 00:00:00 | 00:00:00 | |
| OM5KV | 2026-09-03 23:58:16 | 46.92674 | 19.44941 | 140° | 77km/h | 14621m | 4.5m/s | -54.6°C | 1.9% | 135.7hPa | 2.7V | 00:00:00 | 00:00:00 | 00:00:00 | |
| PETON7-10 | 2026-09-03 23:58:13 | 46.92721 | 19.44870 | 132° | 78km/h | 14599m | 7.2m/s | -54.4°C | 4.7% | 136.1hPa | 2.7V | 00:00:00 | 00:00:00 | 00:00:00 | |
| OM5KV | 2026-09-03 23:58:10 | 46.92744 | 19.44834 | 135° | 68km/h | 14589m | 6.7m/s | -54.4°C | 1.9% | 136.4hPa | 2.7V | 00:00:00 | 00:00:00 | 00:00:00 | |
| OM5KV | 2026-09-03 23:58:07 | 46.92784 | 19.44776 | 137° | 82km/h | 14572m | 7.5m/s | -54.5°C | 1.9% | 136.8hPa | 2.7V | 00:00:00 | 00:00:00 | 00:00:00 | |
| OM5KV | 2026-09-03 23:58:04 | 46.92834 | 19.44710 | 140° | 89km/h | 14555m | 5.1m/s | -54.8°C | 2.0% | 137.1hPa | 2.7V | 00:00:00 | 00:00:00 | 00:00:00 | |
| OM5KV | 2026-09-03 23:58:00 | 46.92898 | 19.44635 | 142° | 77km/h | 14532m | 4.5m/s | -54.9°C | 2.0% | 137.6hPa | 2.7V | 00:00:00 | 00:00:00 | 00:00:00 | |
| OM5KV | 2026-09-03 23:57:59 | 46.92913 | 19.44618 | 143° | 78km/h | 14526m | 8.0m/s | -54.8°C | 2.0% | 137.8hPa | 2.7V | 00:00:00 | 00:00:00 | 00:00:00 | |
| PETON7-10 | 2026-09-03 23:57:58 | 46.92945 | 19.44581 | 142° | 80km/h | 14512m | 5.6m/s | -54.8°C | 5.0% | 138.0hPa | 2.7V | 00:00:00 | 01:03:38 | 00:00:00 | |
| OM5KV | 2026-09-03 23:57:57 | 46.92961 | 19.44563 | 144° | 80km/h | 14505m | 8.2m/s | -54.8°C | 2.0% | 138.2hPa | 2.7V | 00:00:00 | 00:00:00 | 00:00:00 | |
| PETON7-10 | 2026-09-03 23:57:43 | 46.93168 | 19.44280 | 138° | 75km/h | 14427m | 5.9m/s | -55.2°C | 5.0% | 139.9hPa | 2.7V | 00:00:00 | 00:00:00 | 00:00:00 | |
| OM5KV | 2026-09-03 23:57:42 | 46.93168 | 19.44280 | 138° | 82km/h | 14427m | 6.0m/s | -55.3°C | 2.0% | 139.9hPa | 2.7V | 00:00:00 | 00:00:00 | 00:00:00 | |
| GYPAP8-17 | 2026-09-03 23:57:40 | 46.93198 | 19.44240 | 138° | 78km/h | 14416m | 5.5m/s | -55.2°C | 2.1% | 140.1hPa | 2.7V | 00:00:00 | 00:00:00 | 00:00:00 | |
| OM5KV | 2026-09-03 23:57:37 | 46.93254 | 19.44168 | 139° | 69km/h | 14396m | 4.0m/s | -55.1°C | 2.0% | 140.6hPa | 2.7V | 00:00:00 | 00:00:00 | 00:00:00 | |
| OM5KV | 2026-09-03 23:57:31 | 46.93317 | 19.44073 | 136° | 73km/h | 14372m | 4.6m/s | -55.0°C | 2.0% | 141.1hPa | 2.7V | 00:00:00 | 00:00:00 | 00:00:00 | |
| PETON7-10 | 2026-09-03 23:57:28 | 46.93375 | 19.43997 | 143° | 77km/h | 14352m | 5.8m/s | -55.1°C | 5.0% | 141.5hPa | 2.7V | 00:00:00 | 00:00:00 | 00:00:00 | |
| OM5KV | 2026-09-03 23:57:26 | 46.93390 | 19.43980 | 144° | 75km/h | 14347m | 4.7m/s | -55.2°C | 2.1% | 141.7hPa | 2.7V | 00:00:00 | 00:00:00 | 00:00:00 | |
| OM5KV | 2026-09-03 23:57:21 | 46.93461 | 19.43894 | 141° | 69km/h | 14320m | 5.1m/s | -55.9°C | 2.1% | 142.3hPa | 2.7V | 00:00:00 | 00:00:00 | 00:00:00 | |
| OM5KV | 2026-09-03 23:57:19 | 46.93490 | 19.43861 | 144° | 75km/h | 14309m | 7.2m/s | -56.2°C | 2.2% | 142.5hPa | 2.7V | 00:00:00 | 00:00:00 | 00:00:00 | |
| OM5KV | 2026-09-03 23:57:16 | 46.93540 | 19.43810 | 148° | 84km/h | 14291m | 5.8m/s | -56.2°C | 2.2% | 142.9hPa | 2.7V | 00:00:00 | 00:00:00 | 00:00:00 | |
| PETON7-10 | 2026-09-03 23:57:13 | 46.93608 | 19.43735 | 138° | 82km/h | 14270m | 2.9m/s | -56.2°C | 5.4% | 143.4hPa | 2.7V | 00:00:00 | 01:02:53 | 00:00:00 | |
| OE3OSB-13 | 2026-09-03 23:57:12 | 46.93623 | 19.43714 | 137° | 80km/h | 14266m | 6.2m/s | -56.2°C | 2.2% | 143.5hPa | 2.7V | 00:00:00 | 00:00:00 | 00:00:00 | |
| OM5KV | 2026-09-03 23:57:10 | 46.93638 | 19.43694 | 140° | 82km/h | 14260m | 4.8m/s | -56.3°C | 2.2% | 143.6hPa | 2.7V | 00:00:00 | 00:00:00 | 00:00:00 | |
| OM5KV | 2026-09-03 23:56:59 | 46.93823 | 19.43503 | 146° | 80km/h | 14202m | 4.8m/s | -56.3°C | 2.2% | 144.9hPa | 2.7V | 00:00:00 | 00:00:00 | 00:00:00 | |
| PETON7-10 | 2026-09-03 23:56:58 | 46.93857 | 19.43469 | 145° | 84km/h | 14192m | 6.7m/s | -56.2°C | 5.4% | 145.1hPa | 2.7V | 00:00:00 | 00:00:00 | 08:30:00 | |
| OM5KV | 2026-09-03 23:56:55 | 46.93891 | 19.43434 | 146° | 84km/h | 14181m | 5.7m/s | -56.2°C | 2.2% | 145.4hPa | 2.7V | 00:00:00 | 00:00:00 | 00:00:00 | |
| OM5KV | 2026-09-03 23:56:54 | 46.93909 | 19.43416 | 147° | 88km/h | 14176m | 5.0m/s | -56.1°C | 2.2% | 145.5hPa | 2.7V | 00:00:00 | 00:00:00 | 00:00:00 | |
| OM5KV | 2026-09-03 23:56:49 | 46.93998 | 19.43325 | 148° | 86km/h | 14150m | 5.1m/s | -56.0°C | 2.2% | 146.1hPa | 2.7V | 00:00:00 | 00:00:00 | 00:00:00 | |
| OM5KV | 2026-09-03 23:56:48 | 46.94016 | 19.43308 | 148° | 86km/h | 14146m | 4.2m/s | -55.9°C | 2.2% | 146.2hPa | 2.7V | 00:00:00 | 00:00:00 | 00:00:00 | |
| PETON7-10 | 2026-09-03 23:56:43 | 46.94117 | 19.43196 | 138° | 88km/h | 14113m | 5.7m/s | -55.8°C | 5.3% | 146.9hPa | 2.7V | 00:00:00 | 00:00:00 | 00:00:00 | |
| OM5KV | 2026-09-03 23:56:37 | 46.94200 | 19.43103 | 149° | 88km/h | 14088m | 5.2m/s | -55.7°C | 2.1% | 147.5hPa | 2.7V | 00:00:00 | 00:00:00 | 00:00:00 | |
| OM5KV | 2026-09-03 23:56:32 | 46.94299 | 19.43008 | 147° | 97km/h | 14061m | 4.9m/s | -55.7°C | 2.2% | 148.2hPa | 2.7V | 00:00:00 | 00:00:00 | 00:00:00 | |
| OM5KV | 2026-09-03 23:56:31 | 46.94319 | 19.42989 | 147° | 93km/h | 14056m | 4.5m/s | -55.6°C | 2.1% | 148.3hPa | 2.7V | 00:00:00 | 00:00:00 | 00:00:00 | |
| PETON7-10 | 2026-09-03 23:56:27 | 46.94405 | 19.42890 | 135° | 91km/h | 14028m | 5.7m/s | -55.5°C | 5.1% | 148.9hPa | 2.7V | 00:00:00 | 01:02:07 | 00:00:00 | |
| OM5KV | 2026-09-03 23:56:26 | 46.94405 | 19.42890 | 136° | 86km/h | 14028m | 5.8m/s | -55.5°C | 2.0% | 149.0hPa | 2.7V | 00:00:00 | 00:00:00 | 00:00:00 | |
| OM5KV | 2026-09-03 23:56:25 | 46.94420 | 19.42867 | 135° | 88km/h | 14022m | 6.0m/s | -55.5°C | 2.0% | 149.1hPa | 2.7V | 00:00:00 | 00:00:00 | 00:00:00 | |
| OM5KV | 2026-09-03 23:56:21 | 46.94492 | 19.42773 | 142° | 100km/h | 13999m | 8.6m/s | -55.4°C | 2.1% | 149.6hPa | 2.7V | 00:00:00 | 00:00:00 | 00:00:00 | |
| OM5KV | 2026-09-03 23:56:19 | 46.94530 | 19.42729 | 143° | 91km/h | 13987m | 2.9m/s | -55.3°C | 2.1% | 149.9hPa | 2.7V | 00:00:00 | 00:00:00 | 00:00:00 | |
| OM5KV | 2026-09-03 23:56:16 | 46.94586 | 19.42669 | 145° | 91km/h | 13969m | 5.9m/s | -55.2°C | 2.1% | 150.3hPa | 2.7V | 00:00:00 | 00:00:00 | 00:00:00 | |
| OM5KV | 2026-09-03 23:56:14 | 46.94622 | 19.42629 | 145° | 89km/h | 13957m | 6.6m/s | -55.1°C | 2.1% | 150.6hPa | 2.7V | 00:00:00 | 00:00:00 | 00:00:00 | |
| OM5KV | 2026-09-03 23:56:13 | 46.94641 | 19.42610 | 146° | 89km/h | 13951m | 6.8m/s | -55.0°C | 2.1% | 150.7hPa | 2.7V | 00:00:00 | 00:00:00 | 00:00:00 | |
| PETON7-10 | 2026-09-03 23:56:12 | 46.94676 | 19.42572 | 143° | 84km/h | 13940m | 3.5m/s | -54.9°C | 5.1% | 151.0hPa | 2.7V | 00:00:00 | 00:00:00 | 00:00:00 | |
| OM5KV | 2026-09-03 23:56:10 | 46.94693 | 19.42553 | 143° | 82km/h | 13935m | 6.3m/s | -54.9°C | 2.0% | 151.1hPa | 2.7V | 00:00:00 | 00:00:00 | 00:00:00 | |
| OM5KV | 2026-09-03 23:56:09 | 46.94709 | 19.42535 | 143° | 80km/h | 13927m | 8.7m/s | -54.9°C | 2.0% | 151.3hPa | 2.7V | 00:00:00 | 00:00:00 | 00:00:00 | |
| OM5KV | 2026-09-03 23:56:07 | 46.94740 | 19.42498 | 140° | 80km/h | 13916m | 4.1m/s | -54.8°C | 2.0% | 151.6hPa | 2.7V | 00:00:00 | 00:00:00 | 00:00:00 | |
| OM5KV | 2026-09-03 23:56:04 | 46.94804 | 19.42417 | 141° | 88km/h | 13890m | 4.1m/s | -54.7°C | 2.0% | 152.2hPa | 2.7V | 00:00:00 | 00:00:00 | 00:00:00 | |
| PETON7-10 | 2026-09-03 23:55:57 | 46.94929 | 19.42292 | 145° | 86km/h | 13845m | 6.2m/s | -54.3°C | 5.0% | 153.2hPa | 2.7V | 00:00:00 | 00:00:00 | 00:00:00 | |
| GYPAP8-17 | 2026-09-03 23:55:47 | 46.95083 | 19.42124 | 142° | 82km/h | 13791m | 3.5m/s | -54.3°C | 2.0% | 154.5hPa | 2.7V | 00:00:00 | 00:00:00 | 00:00:00 | |
| OM5KV | 2026-09-03 23:55:45 | 46.95116 | 19.42086 | 144° | 84km/h | 13778m | 7.1m/s | -54.3°C | 2.0% | 154.8hPa | 2.7V | 00:00:00 | 00:00:00 | 00:00:00 | |
| PETON7-10 | 2026-09-03 23:55:42 | 46.95190 | 19.42015 | 148° | 89km/h | 13753m | 7.2m/s | -54.2°C | 4.9% | 155.4hPa | 2.7V | 00:00:00 | 01:01:22 | 00:00:00 | |
| OM5KV | 2026-09-03 23:55:39 | 46.95229 | 19.41979 | 149° | 91km/h | 13741m | 3.6m/s | -54.2°C | 2.0% | 155.8hPa | 2.7V | 00:00:00 | 00:00:00 | 00:00:00 | |
| OM5KV | 2026-09-03 23:55:38 | 46.95249 | 19.41961 | 149° | 93km/h | 13736m | 6.7m/s | -54.2°C | 2.0% | 155.9hPa | 2.7V | 00:00:00 | 00:00:00 | 00:00:00 | |
| OM5KV | 2026-09-03 23:55:37 | 46.95269 | 19.41943 | 149° | 93km/h | 13729m | 7.0m/s | -54.1°C | 2.0% | 156.0hPa | 2.7V | 00:00:00 | 00:00:00 | 00:00:00 | |
| OM5KV | 2026-09-03 23:55:34 | 46.95327 | 19.41889 | 148° | 89km/h | 13712m | 7.9m/s | -54.1°C | 2.0% | 156.5hPa | 2.7V | 00:00:00 | 00:00:00 | 00:00:00 | |
| PETON7-10 | 2026-09-03 23:55:27 | 46.95469 | 19.41746 | 148° | 88km/h | 13660m | 8.3m/s | -53.7°C | 4.8% | 157.7hPa | 2.7V | 00:00:00 | 00:00:00 | 00:00:00 | |
| OM5KV | 2026-09-03 23:55:24 | 46.95508 | 19.41711 | 151° | 93km/h | 13649m | 4.1m/s | -53.7°C | 2.1% | 158.0hPa | 2.7V | 00:00:00 | 00:00:00 | 00:00:00 | |
| OM5KV | 2026-09-03 23:55:21 | 46.95567 | 19.41660 | 149° | 89km/h | 13630m | 5.0m/s | -53.7°C | 2.1% | 158.5hPa | 2.7V | 00:00:00 | 00:00:00 | 00:00:00 | |
| OM5KV | 2026-09-03 23:55:15 | 46.95683 | 19.41556 | 147° | 84km/h | 13595m | 6.1m/s | -54.1°C | 2.2% | 159.3hPa | 2.7V | 00:00:00 | 00:00:00 | 00:00:00 | |
| OM5KV | 2026-09-03 23:55:14 | 46.95700 | 19.41538 | 144° | 82km/h | 13588m | 7.4m/s | -54.2°C | 2.2% | 159.4hPa | 2.7V | 00:00:00 | 00:00:00 | 00:00:00 | |
| PETON7-10 | 2026-09-03 23:55:12 | 46.95750 | 19.41482 | 144° | 93km/h | 13568m | 6.9m/s | -54.0°C | 5.1% | 159.9hPa | 2.7V | 00:00:00 | 00:00:00 | 00:00:00 | |
| OM5KV | 2026-09-03 23:55:09 | 46.95787 | 19.41445 | 148° | 89km/h | 13555m | 4.3m/s | -54.0°C | 2.2% | 160.3hPa | 2.7V | 00:00:00 | 00:00:00 | 00:00:00 | |
| OM5KV | 2026-09-03 23:55:08 | 46.95806 | 19.41427 | 149° | 91km/h | 13549m | 7.6m/s | -54.0°C | 2.2% | 160.4hPa | 2.7V | 00:00:00 | 00:00:00 | 00:00:00 | |
| OM5KV | 2026-09-03 23:55:03 | 46.95906 | 19.41323 | 143° | 95km/h | 13516m | 5.5m/s | -54.0°C | 2.3% | 161.2hPa | 2.7V | 00:00:00 | 00:00:00 | 00:00:00 | |
| OM5KV | 2026-09-03 23:55:02 | 46.95925 | 19.41301 | 141° | 93km/h | 13512m | 3.0m/s | -53.9°C | 2.3% | 161.4hPa | 2.7V | 00:00:00 | 00:00:00 | 00:00:00 | |
| PETON7-10 | 2026-09-03 23:54:57 | 46.96029 | 19.41175 | 141° | 88km/h | 13475m | 6.6m/s | -53.6°C | 5.1% | 162.2hPa | 2.7V | 00:00:00 | 01:00:37 | 00:00:00 | |
| OM5KV | 2026-09-03 23:54:56 | 46.96029 | 19.41175 | 142° | 86km/h | 13475m | 6.6m/s | -53.7°C | 2.3% | 162.3hPa | 2.7V | 00:00:00 | 00:00:00 | 00:00:00 | |
| OM5KV | 2026-09-03 23:54:54 | 46.96063 | 19.41134 | 141° | 91km/h | 13463m | 3.9m/s | -53.7°C | 2.3% | 162.6hPa | 2.7V | 00:00:00 | 00:00:00 | 00:00:00 | |
| OM5KV | 2026-09-03 23:54:51 | 46.96116 | 19.41071 | 145° | 88km/h | 13445m | 6.0m/s | -53.8°C | 2.4% | 163.1hPa | 2.7V | 00:00:00 | 00:00:00 | 00:00:00 | |
| OM5KV | 2026-09-03 23:54:50 | 46.96134 | 19.41052 | 147° | 88km/h | 13440m | 3.3m/s | -53.8°C | 2.4% | 163.2hPa | 2.7V | 00:00:00 | 00:00:00 | 00:00:00 | |
| OM5KV | 2026-09-03 23:54:43 | 46.96255 | 19.40916 | 140° | 86km/h | 13398m | 5.2m/s | -53.8°C | 2.5% | 164.3hPa | 2.7V | 00:00:00 | 00:00:00 | 00:00:00 | |
| PETON7-10 | 2026-09-03 23:54:42 | 46.96289 | 19.40876 | 142° | 88km/h | 13388m | 6.8m/s | -53.8°C | 5.2% | 164.5hPa | 2.7V | 00:00:00 | 00:00:00 | 08:30:00 | |
| OE3JTB-15 | 2026-09-03 23:54:39 | 46.96377 | 19.40774 | 141° | 97km/h | 13358m | 5.4m/s | 0°C | 0% | 0hPa | 2.7V | 00:00:00 | 00:00:00 | 00:00:00 | |
| OE3OSB-13 | 2026-09-03 23:54:37 | 46.96394 | 19.40755 | 142° | 84km/h | 13352m | 5.8m/s | -54.1°C | 2.7% | 165.5hPa | 2.7V | 00:00:00 | 00:00:00 | 00:00:00 | |
| OM5KV | 2026-09-03 23:54:32 | 46.96446 | 19.40700 | 146° | 86km/h | 13333m | 6.5m/s | -54.1°C | 2.6% | 165.9hPa | 2.7V | 00:00:00 | 00:00:00 | 00:00:00 | |
| PETON7-10 | 2026-09-03 23:54:27 | 46.96552 | 19.40588 | 143° | 91km/h | 13297m | 6.3m/s | -54.4°C | 5.7% | 166.8hPa | 2.7V | 00:00:00 | 00:00:00 | 00:00:00 | |
| OM5KV | 2026-09-03 23:54:26 | 46.96552 | 19.40588 | 144° | 84km/h | 13297m | 6.4m/s | -54.4°C | 2.7% | 166.9hPa | 2.7V | 00:00:00 | 00:00:00 | 00:00:00 | |
| OM5KV | 2026-09-03 23:54:25 | 46.96569 | 19.40570 | 145° | 82km/h | 13292m | 2.3m/s | -54.5°C | 2.8% | 167.0hPa | 2.7V | 00:00:00 | 00:00:00 | 00:00:00 | |
| OM5KV | 2026-09-03 23:54:18 | 46.96713 | 19.40449 | 152° | 97km/h | 13248m | 5.9m/s | -54.8°C | 2.9% | 168.2hPa | 2.7V | 00:00:00 | 00:00:00 | 00:00:00 | |
| PETON7-10 | 2026-09-03 23:54:12 | 46.96855 | 19.40326 | 153° | 99km/h | 13204m | 6.2m/s | -55.3°C | 6.2% | 169.3hPa | 2.7V | 00:00:00 | 00:59:52 | 00:00:00 | |
| OM5KV | 2026-09-03 23:54:09 | 46.96901 | 19.40292 | 154° | 102km/h | 13195m | 6.6m/s | -55.4°C | 3.2% | 169.6hPa | 2.7V | 00:00:00 | 00:00:00 | 00:00:00 | |
| OM5KV | 2026-09-03 23:54:08 | 46.96923 | 19.40274 | 153° | 100km/h | 13189m | 6.1m/s | -55.4°C | 3.2% | 169.8hPa | 2.7V | 00:00:00 | 00:00:00 | 00:00:00 | |
| OE3OSB-13 | 2026-09-03 23:54:06 | 46.97008 | 19.40201 | 150° | 95km/h | 13164m | 6.6m/s | -55.5°C | 3.3% | 170.4hPa | 2.7V | 00:00:00 | 00:00:00 | 00:00:00 | |
| OM5KV | 2026-09-03 23:54:04 | 46.97008 | 19.40201 | 151° | 97km/h | 13164m | 6.6m/s | -55.5°C | 3.3% | 170.4hPa | 2.7V | 00:00:00 | 00:00:00 | 00:00:00 | |
| OM5KV | 2026-09-03 23:54:03 | 46.97029 | 19.40183 | 152° | 99km/h | 13158m | 5.8m/s | -55.6°C | 3.4% | 170.6hPa | 2.7V | 00:00:00 | 00:00:00 | 00:00:00 | |
| PETON7-10 | 2026-09-03 23:53:57 | 46.97186 | 19.40065 | 153° | 102km/h | 13113m | 7.7m/s | -55.7°C | 7.1% | 171.7hPa | 2.7V | 00:00:00 | 00:00:00 | 00:00:00 | |
| OM5KV | 2026-09-03 23:53:52 | 46.97279 | 19.39990 | 151° | 104km/h | 13089m | 3.1m/s | -56.0°C | 4.1% | 172.4hPa | 2.7V | 00:00:00 | 00:00:00 | 00:00:00 | |
| OM5KV | 2026-09-03 23:53:51 | 46.97302 | 19.39971 | 151° | 104km/h | 13085m | 6.5m/s | -56.0°C | 4.0% | 172.5hPa | 2.7V | 00:00:00 | 00:00:00 | 00:00:00 | |
| OM5KV | 2026-09-03 23:53:50 | 46.97325 | 19.39952 | 153° | 100km/h | 13078m | 6.9m/s | -56.1°C | 4.0% | 172.7hPa | 2.7V | 00:00:00 | 00:00:00 | 00:00:00 | |
| OM5KV | 2026-09-03 23:53:45 | 46.97435 | 19.39871 | 157° | 100km/h | 13046m | 3.7m/s | -56.5°C | 4.5% | 173.6hPa | 2.7V | 00:00:00 | 00:00:00 | 00:00:00 | |
| OM5KV | 2026-09-03 23:53:44 | 46.97458 | 19.39857 | 158° | 100km/h | 13040m | 7.7m/s | -56.4°C | 4.5% | 173.7hPa | 2.7V | 00:00:00 | 00:00:00 | 00:00:00 | |
| PETON7-10 | 2026-09-03 23:53:42 | 46.97533 | 19.39810 | 156° | 111km/h | 13022m | 5.1m/s | -56.3°C | 8.3% | 174.2hPa | 2.7V | 00:00:00 | 00:00:00 | 00:00:00 | |
| OM5KV | 2026-09-03 23:53:40 | 46.97560 | 19.39792 | 156° | 117km/h | 13016m | 7.4m/s | -56.3°C | 4.7% | 174.4hPa | 2.7V | 00:00:00 | 00:00:00 | 00:00:00 | |
| GYPAP8-17 | 2026-09-03 23:53:34 | 46.97713 | 19.39696 | 157° | 102km/h | 12977m | 7.4m/s | -56.1°C | 5.1% | 175.4hPa | 2.7V | 00:00:00 | 00:00:00 | 00:00:00 | |
| PETON7-10 | 2026-09-03 23:53:27 | 46.97927 | 19.39595 | 167° | 117km/h | 12931m | 6.5m/s | -55.9°C | 9.5% | 176.7hPa | 2.7V | 00:00:00 | 00:59:07 | 00:00:00 | |
| OM5KV | 2026-09-03 23:53:24 | 46.97985 | 19.39572 | 165° | 117km/h | 12920m | 7.0m/s | -55.9°C | 5.9% | 177.0hPa | 2.7V | 00:00:00 | 00:00:00 | 00:00:00 | |
| OM5KV | 2026-09-03 23:53:21 | 46.98065 | 19.39531 | 160° | 110km/h | 12902m | 6.9m/s | -56.1°C | 6.1% | 177.5hPa | 2.7V | 00:00:00 | 00:00:00 | 00:00:00 | |
| OM5KV | 2026-09-03 23:53:17 | 46.98169 | 19.39470 | 162° | 115km/h | 12881m | 2.7m/s | -56.2°C | 6.7% | 178.1hPa | 2.7V | 00:00:00 | 00:00:00 | 00:00:00 | |
| OM5KV | 2026-09-03 23:53:15 | 46.98224 | 19.39442 | 162° | 119km/h | 12868m | 8.6m/s | -56.3°C | 7.0% | 178.5hPa | 2.7V | 00:00:00 | 00:00:00 | 00:00:00 | |
| PETON7-10 | 2026-09-03 23:53:12 | 46.98346 | 19.39382 | 162° | 128km/h | 12845m | 4.6m/s | -56.2°C | 12.0% | 179.1hPa | 2.7V | 00:00:00 | 00:00:00 | 00:00:00 | |
| OE3OSB-13 | 2026-09-03 23:53:03 | 46.98614 | 19.39240 | 158° | 128km/h | 12792m | 10.0m/s | -56.5°C | 9.1% | 180.6hPa | 2.7V | 00:00:00 | 00:00:00 | 00:00:00 | |
| OM5KV | 2026-09-03 23:53:02 | 46.98613 | 19.39240 | 160° | 128km/h | 12792m | 10.0m/s | -56.5°C | 9.1% | 180.6hPa | 2.7V | 00:00:00 | 00:00:00 | 00:00:00 | |
| OM5KV | 2026-09-03 23:53:01 | 46.98644 | 19.39223 | 159° | 130km/h | 12783m | 7.2m/s | -56.6°C | 9.4% | 180.8hPa | 2.7V | 00:00:00 | 00:00:00 | 00:00:00 | |
| PETON7-10 | 2026-09-03 23:52:57 | 46.98795 | 19.39128 | 156° | 117km/h | 12750m | 5.9m/s | -56.8°C | 16.1% | 181.8hPa | 2.7V | 00:00:00 | 00:00:00 | 00:00:00 | |
| OM5KV | 2026-09-03 23:52:56 | 46.98795 | 19.39128 | 157° | 122km/h | 12750m | 6.0m/s | -56.9°C | 11.3% | 181.9hPa | 2.7V | 00:00:00 | 00:00:00 | 00:00:00 | |
| OM5KV | 2026-09-03 23:52:55 | 46.98822 | 19.39110 | 157° | 115km/h | 12745m | 3.5m/s | -56.9°C | 11.5% | 182.0hPa | 2.7V | 00:00:00 | 00:00:00 | 00:00:00 | |
| OM5KV | 2026-09-03 23:52:52 | 46.98901 | 19.39061 | 159° | 113km/h | 12726m | 4.5m/s | -56.8°C | 12.4% | 182.6hPa | 2.7V | 00:00:00 | 00:00:00 | 00:00:00 | |
| OM5KV | 2026-09-03 23:52:49 | 46.98983 | 19.39013 | 158° | 119km/h | 12705m | 5.3m/s | -56.7°C | 13.1% | 183.1hPa | 2.7V | 00:00:00 | 00:00:00 | 00:00:00 | |
| OM5KV | 2026-09-03 23:52:46 | 46.99066 | 19.38958 | 156° | 120km/h | 12684m | 3.2m/s | -57.1°C | 14.0% | 183.7hPa | 2.7V | 00:00:00 | 00:00:00 | 00:00:00 | |
| OM5KV | 2026-09-03 23:52:44 | 46.99121 | 19.38922 | 159° | 119km/h | 12672m | 6.3m/s | -58.1°C | 15.9% | 184.1hPa | 2.7V | 00:00:00 | 00:00:00 | 00:00:00 | |
| OM5KV | 2026-09-03 23:52:43 | 46.99149 | 19.38907 | 162° | 117km/h | 12667m | 2.7m/s | -58.3°C | 16.6% | 184.2hPa | 2.7V | 00:00:00 | 00:00:00 | 00:00:00 | |
| PETON7-10 | 2026-09-03 23:52:42 | 46.99205 | 19.38880 | 163° | 131km/h | 12655m | 6.0m/s | -58.4°C | 23.5% | 184.5hPa | 2.7V | 00:00:00 | 00:58:22 | 00:00:00 | |
| OM5KV | 2026-09-03 23:52:39 | 46.99264 | 19.38851 | 161° | 128km/h | 12641m | 7.4m/s | -58.5°C | 18.2% | 185.0hPa | 2.7V | 00:00:00 | 00:00:00 | 00:00:00 | |
| OM5KV | 2026-09-03 23:52:38 | 46.99296 | 19.38834 | 160° | 135km/h | 12635m | 5.8m/s | -58.6°C | 18.7% | 185.2hPa | 2.7V | 00:00:00 | 00:00:00 | 00:00:00 | |
| GYPAP8-17 | 2026-09-03 23:52:34 | 46.99424 | 19.38764 | 164° | 131km/h | 12612m | 2.6m/s | -59.1°C | 21.9% | 185.9hPa | 2.7V | 00:00:00 | 00:00:00 | 00:00:00 | |
| OM5KV | 2026-09-03 23:52:33 | 46.99456 | 19.38750 | 164° | 130km/h | 12607m | 7.5m/s | -59.2°C | 21.8% | 186.1hPa | 2.7V | 00:00:00 | 00:00:00 | 00:00:00 | |
| OE3OSB-13 | 2026-09-03 23:52:32 | 46.99550 | 19.38707 | 161° | 130km/h | 12587m | 10.2m/s | -59.5°C | 22.7% | 186.7hPa | 2.7V | 00:00:00 | 00:00:00 | 00:00:00 | |
| OM5KV | 2026-09-03 23:52:28 | 46.99612 | 19.38675 | 160° | 130km/h | 12572m | 8.0m/s | -59.7°C | 23.7% | 187.1hPa | 2.7V | 00:00:00 | 00:00:00 | 00:00:00 | |
| PETON7-10 | 2026-09-03 23:52:27 | 46.99673 | 19.38639 | 159° | 135km/h | 12560m | 3.6m/s | -59.7°C | 32.5% | 187.5hPa | 2.7V | 00:00:00 | 00:00:00 | 08:30:00 | |
| OM5KV | 2026-09-03 23:52:25 | 46.99704 | 19.38621 | 159° | 131km/h | 12553m | 9.8m/s | -59.8°C | 25.0% | 187.7hPa | 2.7V | 00:00:00 | 00:00:00 | 00:00:00 | |
| OM5KV | 2026-09-03 23:52:22 | 46.99799 | 19.38579 | 167° | 130km/h | 12533m | 12.0m/s | -59.7°C | 25.2% | 188.3hPa | 2.7V | 00:00:00 | 00:00:00 | 00:00:00 | |
| PETON7-10 | 2026-09-03 23:52:12 | 47.00165 | 19.38439 | 166° | 135km/h | 12453m | 11.4m/s | -59.1°C | 34.1% | 190.7hPa | 2.7V | 00:00:00 | 00:00:00 | 00:00:00 | |
| OM5KV | 2026-09-03 23:52:11 | 47.00165 | 19.38439 | 166° | 139km/h | 12453m | 11.4m/s | -59.1°C | 26.3% | 190.7hPa | 2.7V | 00:00:00 | 00:00:00 | 00:00:00 | |
| OE3OSB-13 | 2026-09-03 23:52:01 | 47.00537 | 19.38324 | 165° | 131km/h | 12385m | 5.2m/s | -59.2°C | 29.6% | 192.7hPa | 2.7V | 00:00:00 | 00:00:00 | 00:00:00 | |
| OM5KV | 2026-09-03 23:52:00 | 47.00537 | 19.38323 | 166° | 131km/h | 12386m | 5.2m/s | -59.2°C | 29.7% | 192.7hPa | 2.7V | 00:00:00 | 00:00:00 | 00:00:00 | |
| OM5KV | 2026-09-03 23:51:59 | 47.00569 | 19.38311 | 165° | 133km/h | 12379m | 6.4m/s | -59.2°C | 30.1% | 192.9hPa | 2.7V | 00:00:00 | 00:00:00 | 00:00:00 | |
| PETON7-10 | 2026-09-03 23:51:57 | 47.00667 | 19.38272 | 168° | 148km/h | 12365m | 5.9m/s | -59.1°C | 39.7% | 193.3hPa | 2.7V | 00:00:00 | 00:57:37 | 00:00:00 | |
| OM5KV | 2026-09-03 23:51:54 | 47.00735 | 19.38252 | 172° | 141km/h | 12355m | 3.2m/s | -59.2°C | 32.0% | 193.7hPa | 2.7V | 00:00:00 | 00:00:00 | 00:00:00 | |
| OM5KV | 2026-09-03 23:51:47 | 47.00994 | 19.38202 | 166° | 159km/h | 12320m | 5.1m/s | -59.0°C | 34.6% | 194.7hPa | 2.7V | 00:00:00 | 00:00:00 | 00:00:00 | |
| PETON7-10 | 2026-09-03 23:51:42 | 47.01220 | 19.38127 | 173° | 164km/h | 12280m | 10.0m/s | -58.9°C | 42.7% | 195.9hPa | 2.7V | 00:00:00 | 00:00:00 | 00:00:00 | |
| OM5KV | 2026-09-03 23:51:41 | 47.01220 | 19.38127 | 174° | 150km/h | 12280m | 10.1m/s | -58.9°C | 33.9% | 195.9hPa | 2.7V | 00:00:00 | 00:00:00 | 00:00:00 | |
| OM5KV | 2026-09-03 23:51:37 | 47.01383 | 19.38094 | 172° | 172km/h | 12240m | 8.9m/s | -58.9°C | 35.4% | 197.3hPa | 2.7V | 00:00:00 | 00:00:00 | 00:00:00 | |
| OM5KV | 2026-09-03 23:51:36 | 47.01426 | 19.38083 | 171° | 172km/h | 12232m | 9.1m/s | -58.8°C | 36.0% | 197.6hPa | 2.7V | 00:00:00 | 00:00:00 | 00:00:00 | |
| OM5KV | 2026-09-03 23:51:34 | 47.01509 | 19.38058 | 168° | 164km/h | 12217m | 7.4m/s | -58.8°C | 36.2% | 198.1hPa | 2.7V | 00:00:00 | 00:00:00 | 00:00:00 | |
| OM5KV | 2026-09-03 23:51:31 | 47.01627 | 19.38017 | 168° | 161km/h | 12197m | 6.3m/s | -58.7°C | 36.2% | 198.7hPa | 2.7V | 00:00:00 | 00:00:00 | 00:00:00 | |
| OE3OSB-13 | 2026-09-03 23:51:30 | 47.01708 | 19.37993 | 169° | 162km/h | 12184m | 8.6m/s | -58.5°C | 35.9% | 199.0hPa | 2.7V | 00:00:00 | 00:00:00 | 00:00:00 | |
| PETON7-10 | 2026-09-03 23:51:27 | 47.01834 | 19.37959 | 170° | 164km/h | 12166m | 8.2m/s | -58.4°C | 45.4% | 199.5hPa | 2.7V | 00:00:00 | 00:00:00 | 00:00:00 | |
| OM5KV | 2026-09-03 23:51:25 | 47.01876 | 19.37946 | 168° | 172km/h | 12159m | 5.6m/s | -58.4°C | 37.2% | 199.8hPa | 2.7V | 00:00:00 | 00:00:00 | 00:00:00 | |
| OM5KV | 2026-09-03 23:51:20 | 47.02077 | 19.37867 | 168° | 157km/h | 12132m | 7.4m/s | -58.4°C | 38.6% | 200.6hPa | 2.7V | 00:00:00 | 00:00:00 | 00:00:00 | |
| OM5KV | 2026-09-03 23:51:17 | 47.02198 | 19.37830 | 171° | 170km/h | 12114m | 1.1m/s | -58.5°C | 38.9% | 201.1hPa | 2.7V | 00:00:00 | 00:00:00 | 00:00:00 | |
| OM5KV | 2026-09-03 23:51:14 | 47.02323 | 19.37795 | 167° | 164km/h | 12097m | 4.3m/s | -58.5°C | 39.7% | 201.7hPa | 2.7V | 00:00:00 | 00:00:00 | 00:00:00 | |
| PETON7-10 | 2026-09-03 23:51:12 | 47.02440 | 19.37745 | 163° | 151km/h | 12080m | 4.5m/s | -58.5°C | 51.2% | 202.2hPa | 2.7V | 00:00:00 | 00:56:52 | 00:00:00 | |
| OM5KV | 2026-09-03 23:51:11 | 47.02440 | 19.37745 | 164° | 155km/h | 12080m | 4.5m/s | -58.6°C | 41.5% | 202.3hPa | 2.7V | 00:00:00 | 00:00:00 | 00:00:00 | |
| OM5KV | 2026-09-03 23:51:04 | 47.02703 | 19.37662 | 169° | 150km/h | 12036m | 3.5m/s | -58.5°C | 44.5% | 203.7hPa | 2.7V | 00:00:00 | 00:00:00 | 00:00:00 | |
| OE3OSB-13 | 2026-09-03 23:50:59 | 47.03486 | 19.37499 | 175° | 137km/h | 11898m | 8.9m/s | -58.0°C | 45.6% | 208.2hPa | 2.7V | 00:00:00 | 00:00:00 | 00:00:00 | |
| PETON7-10 | 2026-09-03 23:50:57 | 47.02999 | 19.37582 | 170° | 148km/h | 11980m | 9.4m/s | -58.3°C | 54.6% | 205.3hPa | 2.7V | 00:00:00 | 00:00:00 | 00:00:00 | |
| OM5KV | 2026-09-03 23:50:54 | 47.03070 | 19.37564 | 171° | 142km/h | 11967m | 6.4m/s | -58.2°C | 44.7% | 205.9hPa | 2.7V | 00:00:00 | 00:00:00 | 00:00:00 | |
| OM5KV | 2026-09-03 23:50:48 | 47.03300 | 19.37520 | 177° | 153km/h | 11934m | 6.0m/s | -58.0°C | 45.4% | 207.0hPa | 2.7V | 00:00:00 | 00:00:00 | 00:00:00 | |
| GYPAP8-17 | 2026-09-03 23:50:45 | 47.03414 | 19.37508 | 176° | 146km/h | 11912m | 5.0m/s | -58.0°C | 45.8% | 207.7hPa | 2.7V | 00:00:00 | 00:00:00 | 00:00:00 | |
| PETON7-10 | 2026-09-03 23:50:42 | 47.03553 | 19.37493 | 178° | 151km/h | 11886m | 5.3m/s | -57.9°C | 57.2% | 208.5hPa | 2.7V | 00:00:00 | 00:00:00 | 00:00:00 | |
| OM5KV | 2026-09-03 23:50:39 | 47.03626 | 19.37489 | 179° | 151km/h | 11878m | 4.5m/s | -58.0°C | 47.6% | 208.9hPa | 2.7V | 00:00:00 | 00:00:00 | 00:00:00 | |
| OM5KV | 2026-09-03 23:50:36 | 47.03745 | 19.37489 | 184° | 161km/h | 11855m | 9.4m/s | -57.9°C | 48.4% | 209.6hPa | 2.7V | 00:00:00 | 00:00:00 | 00:00:00 | |
| OM5KV | 2026-09-03 23:50:29 | 47.04011 | 19.37482 | 175° | 146km/h | 11812m | 10.0m/s | -57.9°C | 50.8% | 211.0hPa | 2.7V | 00:00:00 | 00:00:00 | 00:00:00 | |
| PETON7-10 | 2026-09-03 23:50:27 | 47.04127 | 19.37469 | 178° | 159km/h | 11793m | 6.0m/s | -58.3°C | 63.0% | 211.6hPa | 2.7V | 00:00:00 | 00:56:07 | 00:00:00 | |
| OM5KV | 2026-09-03 23:50:26 | 47.04127 | 19.37469 | 178° | 153km/h | 11793m | 6.1m/s | -58.3°C | 52.1% | 211.7hPa | 2.7V | 00:00:00 | 00:00:00 | 00:00:00 | |
| OM5KV | 2026-09-03 23:50:23 | 47.04236 | 19.37463 | 179° | 139km/h | 11776m | 3.2m/s | -58.2°C | 50.6% | 212.3hPa | 2.7V | 00:00:00 | 00:00:00 | 00:00:00 | |
| OM5KV | 2026-09-03 23:50:20 | 47.04342 | 19.37463 | 184° | 142km/h | 11763m | 6.1m/s | -58.1°C | 50.7% | 212.6hPa | 2.7V | 00:00:00 | 00:00:00 | 00:00:00 | |
| PETON7-10 | 2026-09-03 23:50:12 | 47.04733 | 19.37462 | 181° | 168km/h | 11700m | 8.6m/s | -57.3°C | 60.9% | 214.7hPa | 2.7V | 00:00:00 | 00:00:00 | 08:30:00 | |
| OM5KV | 2026-09-03 23:50:08 | 47.04853 | 19.37464 | 180° | 161km/h | 11680m | 9.3m/s | -57.5°C | 50.0% | 215.4hPa | 2.7V | 00:00:00 | 00:00:00 | 00:00:00 | |
| OM5KV | 2026-09-03 23:50:07 | 47.04895 | 19.37462 | 178° | 168km/h | 11671m | 7.9m/s | -57.5°C | 50.1% | 215.8hPa | 2.7V | 00:00:00 | 00:00:00 | 00:00:00 | |
| OM5KV | 2026-09-03 23:50:02 | 47.05111 | 19.37441 | 177° | 173km/h | 11638m | 5.5m/s | -57.5°C | 48.6% | 216.9hPa | 2.7V | 00:00:00 | 00:00:00 | 00:00:00 | |
| OM5KV | 2026-09-03 23:50:01 | 47.05155 | 19.37436 | 177° | 172km/h | 11631m | 8.8m/s | -57.4°C | 48.7% | 217.2hPa | 2.7V | 00:00:00 | 00:00:00 | 00:00:00 | |
| PETON7-10 | 2026-09-03 23:49:57 | 47.05382 | 19.37451 | 187° | 184km/h | 11594m | 9.6m/s | -57.3°C | 57.3% | 218.4hPa | 2.7V | 00:00:00 | 00:00:00 | 00:00:00 | |
| OM5KV | 2026-09-03 23:49:55 | 47.05426 | 19.37457 | 186° | 175km/h | 11586m | 6.1m/s | -57.4°C | 47.4% | 218.8hPa | 2.7V | 00:00:00 | 00:00:00 | 00:00:00 | |
| OM5KV | 2026-09-03 23:49:54 | 47.05470 | 19.37462 | 184° | 175km/h | 11579m | 7.5m/s | -57.3°C | 47.9% | 219.0hPa | 2.7V | 00:00:00 | 00:00:00 | 00:00:00 | |
| OM5KV | 2026-09-03 23:49:49 | 47.05701 | 19.37471 | 184° | 188km/h | 11545m | 5.2m/s | -57.1°C | 49.4% | 220.2hPa | 2.7V | 00:00:00 | 00:00:00 | 00:00:00 | |
| OM5KV | 2026-09-03 23:49:48 | 47.05748 | 19.37475 | 184° | 188km/h | 11538m | 8.7m/s | -57.0°C | 49.5% | 220.4hPa | 2.7V | 00:00:00 | 00:00:00 | 00:00:00 | |
| OM5KV | 2026-09-03 23:49:43 | 47.05986 | 19.37505 | 187° | 188km/h | 11507m | 5.9m/s | -56.8°C | 49.7% | 221.4hPa | 2.7V | 00:00:00 | 00:00:00 | 00:00:00 | |
| PETON7-10 | 2026-09-03 23:49:42 | 47.06081 | 19.37519 | 185° | 193km/h | 11493m | 6.7m/s | -56.6°C | 60.5% | 221.9hPa | 2.7V | 00:00:00 | 00:55:22 | 00:00:00 | |
| GYPAP8-17 | 2026-09-03 23:49:41 | 47.06081 | 19.37519 | 186° | 190km/h | 11493m | 6.7m/s | -56.6°C | 0% | 221.9hPa | 2.7V | 00:00:00 | 00:00:00 | 00:00:00 | |
| OM5KV | 2026-09-03 23:49:36 | 47.06319 | 19.37539 | 184° | 188km/h | 11458m | 7.4m/s | -56.3°C | 48.7% | 223.1hPa | 2.7V | 00:00:00 | 00:00:00 | 00:00:00 | |
| OM5KV | 2026-09-03 23:49:30 | 47.06615 | 19.37569 | 183° | 197km/h | 11418m | 3.4m/s | -55.9°C | 47.6% | 224.7hPa | 2.7V | 00:00:00 | 00:00:00 | 00:00:00 | |
| PETON7-10 | 2026-09-03 23:49:27 | 47.06813 | 19.37579 | 182° | 188km/h | 11393m | 4.0m/s | -55.7°C | 58.1% | 225.4hPa | 2.7V | 00:00:00 | 00:00:00 | 00:00:00 | |
| OM5KV | 2026-09-03 23:49:24 | 47.06909 | 19.37582 | 182° | 188km/h | 11382m | 3.5m/s | -55.7°C | 49.3% | 225.9hPa | 2.7V | 00:00:00 | 00:00:00 | 00:00:00 | |
| OM5KV | 2026-09-03 23:49:19 | 47.07150 | 19.37597 | 186° | 192km/h | 11353m | 7.1m/s | -55.4°C | 49.7% | 226.9hPa | 2.7V | 00:00:00 | 00:00:00 | 00:00:00 | |
| OM5KV | 2026-09-03 23:49:18 | 47.07197 | 19.37603 | 187° | 186km/h | 11346m | 7.1m/s | -55.4°C | 50.2% | 227.2hPa | 2.7V | 00:00:00 | 00:00:00 | 00:00:00 | |
| OM5KV | 2026-09-03 23:49:13 | 47.07430 | 19.37621 | 180° | 188km/h | 11318m | 6.8m/s | -55.2°C | 49.8% | 228.2hPa | 2.7V | 00:00:00 | 00:00:00 | 00:00:00 | |
| PETON7-10 | 2026-09-03 23:49:12 | 47.07525 | 19.37619 | 180° | 192km/h | 11303m | 9.3m/s | -55.0°C | 58.8% | 228.7hPa | 2.7V | 00:00:00 | 00:00:00 | 00:00:00 | |
| OM5KV | 2026-09-03 23:49:07 | 47.07723 | 19.37626 | 185° | 201km/h | 11275m | 3.7m/s | -54.9°C | 49.3% | 229.7hPa | 2.7V | 00:00:00 | 00:00:00 | 00:00:00 | |
| OM5KV | 2026-09-03 23:49:06 | 47.07773 | 19.37631 | 185° | 201km/h | 11270m | 6.8m/s | -54.8°C | 49.8% | 229.9hPa | 2.7V | 00:00:00 | 00:00:00 | 00:00:00 | |
| OM5KV | 2026-09-03 23:49:01 | 47.08023 | 19.37640 | 180° | 192km/h | 11240m | 4.9m/s | -54.6°C | 53.7% | 231.0hPa | 2.7V | 00:00:00 | 00:00:00 | 00:00:00 | |
| OE3OSB-13 | 2026-09-03 23:48:55 | 47.08399 | 19.37645 | 180° | 199km/h | 11193m | 6.9m/s | -54.2°C | 51.5% | 232.6hPa | 2.7V | 00:00:00 | 00:00:00 | 00:00:00 | |
| OM5KV | 2026-09-03 23:48:51 | 47.08500 | 19.37645 | 180° | 197km/h | 11179m | 5.7m/s | -54.1°C | 52.3% | 233.1hPa | 2.7V | 00:00:00 | 00:00:00 | 00:00:00 | |
| OM5KV | 2026-09-03 23:48:49 | 47.08598 | 19.37640 | 178° | 192km/h | 11167m | 10.1m/s | -54.0°C | 51.1% | 233.5hPa | 2.7V | 00:00:00 | 00:00:00 | 00:00:00 | |
| OM5KV | 2026-09-03 23:48:48 | 47.08645 | 19.37637 | 178° | 186km/h | 11159m | 6.6m/s | -53.9°C | 51.8% | 233.9hPa | 2.7V | 00:00:00 | 00:00:00 | 00:00:00 | |
| OM5KV | 2026-09-03 23:48:43 | 47.08877 | 19.37632 | 181° | 184km/h | 11123m | 4.8m/s | -53.6°C | 53.4% | 235.1hPa | 2.7V | 00:00:00 | 00:00:00 | 00:00:00 | |
| PETON7-10 | 2026-09-03 23:48:42 | 47.08969 | 19.37632 | 180° | 190km/h | 11110m | 7.0m/s | -53.5°C | 64.1% | 235.6hPa | 2.7V | 00:00:00 | 00:00:00 | 00:00:00 | |
| OM5KV | 2026-09-03 23:48:37 | 47.09160 | 19.37621 | 177° | 199km/h | 11084m | 5.5m/s | -53.3°C | 53.7% | 236.6hPa | 2.7V | 00:00:00 | 00:00:00 | 00:00:00 | |
| OM5KV | 2026-09-03 23:48:34 | 47.09309 | 19.37610 | 180° | 192km/h | 11063m | 8.6m/s | -53.2°C | 54.8% | 237.4hPa | 2.7V | 00:00:00 | 00:00:00 | 00:00:00 | |
| OM5KV | 2026-09-03 23:48:31 | 47.09450 | 19.37609 | 180° | 181km/h | 11045m | 3.7m/s | -53.1°C | 56.3% | 238.1hPa | 2.7V | 00:00:00 | 00:00:00 | 00:00:00 | |
| PETON7-10 | 2026-09-03 23:48:27 | 47.09690 | 19.37592 | 177° | 188km/h | 11009m | 5.8m/s | -52.8°C | 67.2% | 239.3hPa | 2.7V | 00:00:00 | 00:00:00 | 00:00:00 | |
| OM5KV | 2026-09-03 23:48:22 | 47.09883 | 19.37566 | 175° | 184km/h | 10988m | 4.8m/s | -52.6°C | 56.3% | 240.2hPa | 2.7V | 00:00:00 | 00:00:00 | 00:00:00 | |
| OM5KV | 2026-09-03 23:48:21 | 47.09929 | 19.37559 | 175° | 181km/h | 10982m | 7.4m/s | -52.5°C | 56.4% | 240.4hPa | 2.7V | 00:00:00 | 00:00:00 | 00:00:00 | |
| OM5KV | 2026-09-03 23:48:16 | 47.10161 | 19.37541 | 180° | 192km/h | 10955m | 5.5m/s | -52.3°C | 56.1% | 241.5hPa | 2.7V | 00:00:00 | 00:00:00 | 00:00:00 | |
| OM5KV | 2026-09-03 23:48:13 | 47.10307 | 19.37534 | 177° | 192km/h | 10935m | 6.3m/s | -52.1°C | 56.3% | 242.2hPa | 2.7V | 00:00:00 | 00:00:00 | 00:00:00 | |
| PETON7-10 | 2026-09-03 23:48:12 | 47.10403 | 19.37523 | 176° | 188km/h | 10923m | 9.9m/s | -51.9°C | 64.4% | 242.6hPa | 2.7V | 00:00:00 | 00:53:52 | 00:00:00 | |
| OM5KV | 2026-09-03 23:48:10 | 47.10451 | 19.37517 | 176° | 190km/h | 10915m | 5.9m/s | -51.9°C | 56.0% | 243.0hPa | 2.7V | 00:00:00 | 00:00:00 | 00:00:00 | |
| OM5KV | 2026-09-03 23:48:07 | 47.10594 | 19.37505 | 179° | 188km/h | 10895m | 5.4m/s | -51.7°C | 54.0% | 243.7hPa | 2.7V | 00:00:00 | 00:00:00 | 00:00:00 | |
| OM5KV | 2026-09-03 23:48:04 | 47.10734 | 19.37497 | 178° | 184km/h | 10872m | 7.5m/s | -51.5°C | 53.1% | 244.5hPa | 2.7V | 00:00:00 | 00:00:00 | 00:00:00 | |
| OM5KV | 2026-09-03 23:48:03 | 47.10780 | 19.37493 | 178° | 183km/h | 10865m | 8.2m/s | -51.4°C | 53.5% | 244.8hPa | 2.7V | 00:00:00 | 00:00:00 | 00:00:00 | |
| OM5KV | 2026-09-03 23:48:02 | 47.10826 | 19.37488 | 177° | 183km/h | 10856m | 9.2m/s | -51.4°C | 53.6% | 245.1hPa | 2.7V | 00:00:00 | 00:00:00 | 00:00:00 | |
| OM5KV | 2026-09-03 23:47:58 | 47.11017 | 19.37469 | 178° | 192km/h | 10827m | 8.0m/s | -51.1°C | 55.3% | 246.3hPa | 2.7V | 00:00:00 | 00:00:00 | 00:00:00 | |
| PETON7-10 | 2026-09-03 23:47:57 | 47.11114 | 19.37462 | 178° | 188km/h | 10814m | 10.3m/s | -50.9°C | 63.0% | 246.6hPa | 2.7V | 00:00:00 | 00:00:00 | 08:30:00 | |
| OM5KV | 2026-09-03 23:47:56 | 47.11114 | 19.37462 | 179° | 190km/h | 10814m | 10.3m/s | -51.0°C | 54.3% | 246.7hPa | 2.7V | 00:00:00 | 00:00:00 | 00:00:00 | |
| ATIDSZ-14 | 2026-09-03 23:47:53 | 47.11258 | 19.37445 | 174° | 190km/h | 10792m | 8.7m/s | -50.8°C | 52.8% | 247.5hPa | 2.7V | 00:00:00 | 00:00:00 | 00:00:00 | |
| OM5KV | 2026-09-03 23:47:52 | 47.11306 | 19.37436 | 172° | 190km/h | 10785m | 4.8m/s | -50.7°C | 53.1% | 247.7hPa | 2.7V | 00:00:00 | 00:00:00 | 00:00:00 | |
| GYPAP8-17 | 2026-09-03 23:47:50 | 47.11400 | 19.37415 | 174° | 186km/h | 10773m | 4.9m/s | -50.6°C | 0% | 248.2hPa | 2.7V | 00:00:00 | 00:00:00 | 00:00:00 | |
| OM5KV | 2026-09-03 23:47:46 | 47.11588 | 19.37399 | 181° | 192km/h | 10745m | 5.7m/s | -50.3°C | 54.8% | 249.2hPa | 2.7V | 00:00:00 | 00:00:00 | 00:00:00 | |
| OM5KV | 2026-09-03 23:47:45 | 47.11636 | 19.37398 | 181° | 192km/h | 10740m | 5.8m/s | -50.3°C | 55.5% | 249.5hPa | 2.7V | 00:00:00 | 00:00:00 | 00:00:00 | |
| OM5KV | 2026-09-03 23:47:44 | 47.11685 | 19.37397 | 179° | 190km/h | 10734m | 6.0m/s | -50.2°C | 55.4% | 249.7hPa | 2.7V | 00:00:00 | 00:00:00 | 00:00:00 | |
| PETON7-10 | 2026-09-03 23:47:42 | 47.11826 | 19.37383 | 174° | 190km/h | 10715m | 8.5m/s | -50.0°C | 65.3% | 250.4hPa | 2.7V | 00:00:00 | 00:00:00 | 00:00:00 | |
| OM5KV | 2026-09-03 23:47:38 | 47.11966 | 19.37363 | 178° | 184km/h | 10696m | 6.7m/s | -49.9°C | 58.2% | 251.1hPa | 2.7V | 00:00:00 | 00:00:00 | 00:00:00 | |
| OM5KV | 2026-09-03 23:47:32 | 47.12245 | 19.37350 | 175° | 188km/h | 10662m | 5.6m/s | -49.6°C | 58.0% | 252.5hPa | 2.7V | 00:00:00 | 00:00:00 | 00:00:00 | |
| OM5KV | 2026-09-03 23:47:28 | 47.12444 | 19.37317 | 175° | 203km/h | 10639m | 4.8m/s | -49.4°C | 57.3% | 253.3hPa | 2.7V | 00:00:00 | 00:00:00 | 00:00:00 | |
| PETON7-10 | 2026-09-03 23:47:27 | 47.12543 | 19.37301 | 175° | 186km/h | 10627m | 7.3m/s | -49.2°C | 65.8% | 253.8hPa | 2.7V | 00:00:00 | 00:53:07 | 00:00:00 | |
| OM5KV | 2026-09-03 23:47:22 | 47.12721 | 19.37277 | 175° | 177km/h | 10598m | 5.2m/s | -49.0°C | 57.1% | 254.9hPa | 2.7V | 00:00:00 | 00:00:00 | 00:00:00 | |
| OM5KV | 2026-09-03 23:47:15 | 47.13051 | 19.37242 | 181° | 197km/h | 10557m | 6.3m/s | -48.6°C | 54.6% | 256.5hPa | 2.7V | 00:00:00 | 00:00:00 | 00:00:00 | |
| PETON7-10 | 2026-09-03 23:47:12 | 47.13247 | 19.37237 | 179° | 186km/h | 10535m | 8.9m/s | -48.4°C | 61.9% | 257.3hPa | 2.7V | 00:00:00 | 00:00:00 | 00:00:00 | |
| OM5KV | 2026-09-03 23:47:09 | 47.13338 | 19.37234 | 180° | 175km/h | 10519m | 7.3m/s | -48.3°C | 56.1% | 258.1hPa | 2.9V | 00:00:00 | 00:00:00 | 00:00:00 | |
| ATIDSZ-14 | 2026-09-03 23:47:07 | 47.13428 | 19.37229 | 178° | 179km/h | 10506m | 5.8m/s | -48.3°C | 58.3% | 258.6hPa | 2.9V | 00:00:00 | 00:00:00 | 00:00:00 | |
| OM5KV | 2026-09-03 23:47:06 | 47.13520 | 19.37221 | 178° | 184km/h | 10495m | 8.7m/s | -48.2°C | 57.3% | 259.0hPa | 2.9V | 00:00:00 | 00:00:00 | 00:00:00 | |
| OM5KV | 2026-09-03 23:47:04 | 47.13567 | 19.37217 | 177° | 184km/h | 10487m | 6.0m/s | -48.2°C | 58.0% | 259.3hPa | 2.9V | 00:00:00 | 00:00:00 | 00:00:00 | |
| OM5KV | 2026-09-03 23:46:59 | 47.13811 | 19.37203 | 180° | 195km/h | 10461m | 5.7m/s | -48.0°C | 58.3% | 260.2hPa | 2.9V | 00:00:00 | 00:00:00 | 00:00:00 | |
| OM5KV | 2026-09-03 23:46:54 | 47.14034 | 19.37169 | 171° | 172km/h | 10431m | 7.2m/s | -47.7°C | 55.3% | 261.5hPa | 2.9V | 00:00:00 | 00:00:00 | 00:00:00 | |
| OM5KV | 2026-09-03 23:46:53 | 47.14077 | 19.37158 | 172° | 177km/h | 10425m | 4.5m/s | -47.7°C | 55.0% | 261.7hPa | 2.9V | 00:00:00 | 00:00:00 | 00:00:00 | |
| OM5KV | 2026-09-03 23:46:48 | 47.14310 | 19.37120 | 178° | 186km/h | 10394m | 6.3m/s | -47.5°C | 53.6% | 262.9hPa | 2.9V | 00:00:00 | 00:00:00 | 00:00:00 | |
| GYPAP8-17 | 2026-09-03 23:46:46 | 47.14403 | 19.37116 | 180° | 179km/h | 10382m | 4.2m/s | -47.4°C | 0% | 0hPa | 2.9V | 00:00:00 | 00:00:00 | 00:00:00 | |
| OM5KV | 2026-09-03 23:46:43 | 47.14533 | 19.37107 | 177° | 164km/h | 10366m | 3.9m/s | -47.2°C | 53.4% | 264.1hPa | 2.9V | 00:00:00 | 00:00:00 | 00:00:00 | |
| PETON7-10 | 2026-09-03 23:46:42 | 47.14614 | 19.37097 | 175° | 170km/h | 10356m | 5.4m/s | -47.1°C | 59.7% | 264.4hPa | 2.9V | 00:00:00 | 00:52:22 | 00:00:00 | |
| OM5KV | 2026-09-03 23:46:33 | 47.14945 | 19.37055 | 176° | 179km/h | 10310m | 4.9m/s | -46.8°C | 53.4% | 266.3hPa | 2.9V | 00:00:00 | 00:00:00 | 00:00:00 | |
| OM5KV | 2026-09-03 23:46:32 | 47.14991 | 19.37050 | 177° | 181km/h | 10304m | 6.8m/s | -46.7°C | 52.8% | 266.4hPa | 2.9V | 00:00:00 | 00:00:00 | 00:00:00 | |
| OM5KV | 2026-09-03 23:46:30 | 47.15125 | 19.37042 | 180° | 173km/h | 10286m | 7.4m/s | -46.6°C | 51.5% | 267.2hPa | 2.9V | 00:00:00 | 00:00:00 | 00:00:00 | |
| OM5KV | 2026-09-03 23:46:24 | 47.15389 | 19.37024 | 176° | 175km/h | 10250m | 7.6m/s | -46.2°C | 50.9% | 268.7hPa | 2.9V | 00:00:00 | 00:00:00 | 00:00:00 | |
| OM5KV | 2026-09-03 23:46:15 | 47.15729 | 19.36960 | 173° | 172km/h | 10191m | 9.1m/s | -45.8°C | 50.9% | 271.0hPa | 2.9V | 00:00:00 | 00:00:00 | 00:00:00 | |
| PETON7-10 | 2026-09-03 23:46:12 | 47.15906 | 19.36923 | 172° | 164km/h | 10163m | 8.4m/s | -45.6°C | 59.4% | 272.1hPa | 2.9V | 00:00:00 | 00:00:00 | 00:00:00 | |
| OM5KV | 2026-09-03 23:46:09 | 47.15988 | 19.36906 | 174° | 161km/h | 10151m | 7.5m/s | -45.5°C | 52.5% | 272.6hPa | 2.9V | 00:00:00 | 00:00:00 | 00:00:00 | |
| OM5KV | 2026-09-03 23:46:06 | 47.16110 | 19.36886 | 175° | 161km/h | 10132m | 7.6m/s | -45.4°C | 54.2% | 273.4hPa | 2.9V | 00:00:00 | 00:00:00 | 00:00:00 | |
| OM5KV | 2026-09-03 23:46:02 | 47.16313 | 19.36842 | 173° | 168km/h | 10097m | 8.6m/s | -45.1°C | 56.1% | 274.9hPa | 2.9V | 00:00:00 | 00:00:00 | 00:00:00 | |
| ATIDSZ-14 | 2026-09-03 23:46:01 | 47.16313 | 19.36842 | 173° | 168km/h | 10097m | 8.6m/s | -45.1°C | 56.1% | 274.9hPa | 2.9V | 00:00:00 | 00:00:00 | 00:00:00 | |
| OM5KV | 2026-09-03 23:46:00 | 47.16356 | 19.36834 | 175° | 170km/h | 10090m | 4.5m/s | -45.1°C | 56.6% | 275.2hPa | 2.9V | 00:00:00 | 00:00:00 | 00:00:00 | |
| PETON7-10 | 2026-09-03 23:45:57 | 47.16524 | 19.36797 | 170° | 164km/h | 10063m | 5.3m/s | -44.8°C | 65.2% | 276.2hPa | 2.9V | 00:00:00 | 00:51:37 | 00:00:00 | |
| OM5KV | 2026-09-03 23:45:52 | 47.16683 | 19.36765 | 177° | 153km/h | 10036m | 6.9m/s | -44.6°C | 56.2% | 277.3hPa | 2.9V | 00:00:00 | 00:00:00 | 00:00:00 | |
| OM5KV | 2026-09-03 23:45:49 | 47.16804 | 19.36747 | 172° | 168km/h | 10016m | 6.6m/s | -44.4°C | 56.3% | 278.2hPa | 2.9V | 00:00:00 | 00:00:00 | 00:00:00 | |
| GYPAP8-17 | 2026-09-03 23:45:48 | 47.16846 | 19.36737 | 170° | 172km/h | 10010m | 5.3m/s | -44.3°C | 0% | 0hPa | 2.9V | 00:00:00 | 00:00:00 | 00:00:00 | |
| OM5KV | 2026-09-03 23:45:46 | 47.16932 | 19.36708 | 167° | 173km/h | 9997m | 4.7m/s | -44.2°C | 56.2% | 279.1hPa | 2.9V | 00:00:00 | 00:00:00 | 00:00:00 | |
| OM5KV | 2026-09-03 23:45:43 | 47.17056 | 19.36665 | 169° | 159km/h | 9979m | 5.4m/s | -44.0°C | 57.5% | 279.7hPa | 2.9V | 00:00:00 | 00:00:00 | 00:00:00 | |
| PETON7-10 | 2026-09-03 23:45:42 | 47.17133 | 19.36644 | 171° | 164km/h | 9968m | 6.4m/s | -43.9°C | 65.0% | 280.2hPa | 2.9V | 00:00:00 | 00:00:00 | 08:30:00 | |
| OM5KV | 2026-09-03 23:45:40 | 47.17173 | 19.36635 | 174° | 161km/h | 9963m | 3.2m/s | -43.9°C | 58.2% | 280.5hPa | 2.9V | 00:00:00 | 00:00:00 | 00:00:00 | |
| ATIDSZ-14 | 2026-09-03 23:45:39 | 47.17213 | 19.36628 | 175° | 161km/h | 9959m | 5.7m/s | -43.8°C | 57.2% | 280.7hPa | 2.9V | 00:00:00 | 00:00:00 | 00:00:00 | |
| OM5KV | 2026-09-03 23:45:37 | 47.17293 | 19.36618 | 177° | 155km/h | 9948m | 5.6m/s | -43.7°C | 56.9% | 281.0hPa | 2.9V | 00:00:00 | 00:00:00 | 00:00:00 | |
| OM5KV | 2026-09-03 23:45:34 | 47.17414 | 19.36603 | 176° | 166km/h | 9933m | 6.0m/s | -43.6°C | 56.3% | 281.7hPa | 2.9V | 00:00:00 | 00:00:00 | 00:00:00 | |
| OM5KV | 2026-09-03 23:45:33 | 47.17457 | 19.36597 | 175° | 172km/h | 9926m | 7.9m/s | -43.5°C | 56.1% | 282.0hPa | 2.9V | 00:00:00 | 00:00:00 | 00:00:00 | |
| OM5KV | 2026-09-03 23:45:31 | 47.17545 | 19.36580 | 172° | 175km/h | 9911m | 4.8m/s | -43.4°C | 57.7% | 282.7hPa | 2.9V | 00:00:00 | 00:00:00 | 00:00:00 | |
| PETON7-10 | 2026-09-03 23:45:27 | 47.17754 | 19.36518 | 167° | 164km/h | 9878m | 7.9m/s | -43.0°C | 64.3% | 284.1hPa | 2.9V | 00:00:00 | 00:00:00 | 00:00:00 | |
| OM5KV | 2026-09-03 23:45:25 | 47.17792 | 19.36504 | 167° | 153km/h | 9871m | 6.5m/s | -43.0°C | 57.7% | 284.3hPa | 2.9V | 00:00:00 | 00:00:00 | 00:00:00 | |
| OM5KV | 2026-09-03 23:45:22 | 47.17910 | 19.36468 | 172° | 162km/h | 9853m | 5.8m/s | -42.9°C | 57.1% | 285.1hPa | 2.9V | 00:00:00 | 00:00:00 | 00:00:00 | |
| OE3OSB-13 | 2026-09-03 23:45:17 | 47.18160 | 19.36408 | 168° | 162km/h | 9812m | 5.3m/s | -42.5°C | 57.4% | 286.8hPa | 2.9V | 00:00:00 | 00:00:00 | 00:00:00 | |
| OM5KV | 2026-09-03 23:45:16 | 47.18200 | 19.36395 | 168° | 164km/h | 9806m | 6.6m/s | -42.4°C | 57.6% | 287.1hPa | 2.9V | 00:00:00 | 00:00:00 | 00:00:00 | |
| PETON7-10 | 2026-09-03 23:45:12 | 47.18368 | 19.36344 | 171° | 168km/h | 9783m | 4.3m/s | -42.2°C | 64.8% | 288.0hPa | 2.9V | 00:00:00 | 00:50:52 | 00:00:00 | |
| OM5KV | 2026-09-03 23:45:09 | 47.18452 | 19.36324 | 172° | 164km/h | 9772m | 5.0m/s | -42.1°C | 58.7% | 288.6hPa | 2.9V | 00:00:00 | 00:00:00 | 00:00:00 | |
| OM5KV | 2026-09-03 23:45:05 | 47.18615 | 19.36291 | 174° | 170km/h | 9751m | 5.3m/s | -41.9°C | 59.8% | 289.5hPa | 2.9V | 00:00:00 | 00:00:00 | 00:00:00 | |
| OM5KV | 2026-09-03 23:44:58 | 47.18909 | 19.36210 | 168° | 172km/h | 9708m | 8.0m/s | -41.5°C | 60.2% | 291.3hPa | 2.9V | 00:00:00 | 00:00:00 | 00:00:00 | |
| PETON7-10 | 2026-09-03 23:44:57 | 47.18995 | 19.36183 | 170° | 168km/h | 9696m | 1.8m/s | -41.4°C | 67.4% | 291.7hPa | 2.9V | 00:00:00 | 00:00:00 | 00:00:00 | |
| OM5KV | 2026-09-03 23:44:56 | 47.18995 | 19.36183 | 170° | 175km/h | 9696m | 1.9m/s | -41.4°C | 60.8% | 291.8hPa | 2.9V | 00:00:00 | 00:00:00 | 00:00:00 | |
| GYPAP8-17 | 2026-09-03 23:44:54 | 47.19083 | 19.36158 | 170° | 175km/h | 9684m | 7.4m/s | -41.3°C | 0% | 0hPa | 2.9V | 00:00:00 | 00:00:00 | 00:00:00 | |
| ATIDSZ-14 | 2026-09-03 23:44:53 | 47.19127 | 19.36145 | 169° | 170km/h | 9678m | 4.6m/s | -41.3°C | 61.0% | 292.6hPa | 2.9V | 00:00:00 | 00:00:00 | 00:00:00 | |
| OM5KV | 2026-09-03 23:44:52 | 47.19168 | 19.36133 | 170° | 168km/h | 9671m | 9.4m/s | -41.2°C | 61.2% | 292.8hPa | 2.9V | 00:00:00 | 00:00:00 | 00:00:00 | |
| OM5KV | 2026-09-03 23:44:50 | 47.19251 | 19.36110 | 170° | 162km/h | 9654m | 7.9m/s | -41.1°C | 62.5% | 293.5hPa | 2.9V | 00:00:00 | 00:00:00 | 00:00:00 | |
| PETON7-10 | 2026-09-03 23:44:42 | 47.19616 | 19.35993 | 162° | 164km/h | 9599m | 7.5m/s | -40.6°C | 66.5% | 295.8hPa | 2.9V | 00:00:00 | 00:00:00 | 00:00:00 | |
| OM5KV | 2026-09-03 23:44:41 | 47.19616 | 19.35993 | 163° | 162km/h | 9599m | 7.6m/s | -40.6°C | 60.2% | 295.9hPa | 2.9V | 00:00:00 | 00:00:00 | 00:00:00 | |
| OM5KV | 2026-09-03 23:44:40 | 47.19655 | 19.35975 | 163° | 161km/h | 9592m | 7.3m/s | -40.6°C | 60.5% | 296.1hPa | 2.9V | 00:00:00 | 00:00:00 | 00:00:00 | |
| OM5KV | 2026-09-03 23:44:36 | 47.19852 | 19.35901 | 171° | 164km/h | 9560m | 6.2m/s | -40.3°C | 61.9% | 297.5hPa | 2.9V | 00:00:00 | 00:00:00 | 00:00:00 | |
| OM5KV | 2026-09-03 23:44:34 | 47.19893 | 19.35891 | 173° | 164km/h | 9555m | 3.8m/s | -40.3°C | 62.2% | 297.7hPa | 2.9V | 00:00:00 | 00:00:00 | 00:00:00 | |
| ATIDSZ-14 | 2026-09-03 23:44:33 | 47.19934 | 19.35882 | 172° | 162km/h | 9551m | 5.4m/s | -40.2°C | 62.2% | 297.9hPa | 2.9V | 00:00:00 | 00:00:00 | 00:00:00 | |
| PETON7-10 | 2026-09-03 23:44:27 | 47.20217 | 19.35778 | 166° | 164km/h | 9505m | 7.3m/s | -39.8°C | 66.4% | 299.9hPa | 2.9V | 00:00:00 | 00:50:07 | 00:00:00 | |
| OM5KV | 2026-09-03 23:44:23 | 47.20340 | 19.35730 | 166° | 170km/h | 9485m | 5.7m/s | -39.6°C | 61.0% | 300.8hPa | 2.9V | 00:00:00 | 00:00:00 | 00:00:00 | |
| OM5KV | 2026-09-03 23:44:18 | 47.20540 | 19.35652 | 166° | 164km/h | 9455m | 7.0m/s | -39.4°C | 60.8% | 302.2hPa | 2.9V | 00:00:00 | 00:00:00 | 00:00:00 | |
| OM5KV | 2026-09-03 23:44:17 | 47.20580 | 19.35636 | 164° | 164km/h | 9448m | 5.0m/s | -39.3°C | 60.9% | 302.4hPa | 2.9V | 00:00:00 | 00:00:00 | 00:00:00 | |
| OE3OSB-13 | 2026-09-03 23:44:15 | 47.20701 | 19.35577 | 161° | 164km/h | 9434m | 4.0m/s | -39.2°C | 63.1% | 303.1hPa | 2.9V | 00:00:00 | 00:00:00 | 00:00:00 | |
| OM5KV | 2026-09-03 23:44:13 | 47.20740 | 19.35559 | 165° | 161km/h | 9431m | 3.1m/s | -39.2°C | 63.2% | 303.3hPa | 2.9V | 00:00:00 | 00:00:00 | 00:00:00 | |
| PETON7-10 | 2026-09-03 23:44:12 | 47.20819 | 19.35528 | 167° | 164km/h | 9418m | 9.1m/s | -39.0°C | 68.2% | 303.8hPa | 2.9V | 00:00:00 | 00:00:00 | 00:00:00 | |
| OM5KV | 2026-09-03 23:44:11 | 47.20819 | 19.35528 | 168° | 162km/h | 9418m | 9.1m/s | -39.0°C | 62.1% | 303.8hPa | 2.9V | 00:00:00 | 00:00:00 | 00:00:00 | |
| OM5KV | 2026-09-03 23:44:07 | 47.20980 | 19.35480 | 169° | 162km/h | 9387m | 7.5m/s | -38.8°C | 63.1% | 305.2hPa | 2.9V | 00:00:00 | 00:00:00 | 00:00:00 | |
| OE3OSB-13 | 2026-09-03 23:43:44 | 47.21921 | 19.35187 | 168° | 159km/h | 9239m | 8.7m/s | -37.7°C | 64.8% | 311.7hPa | 2.9V | 00:00:00 | 00:00:00 | 00:00:00 | |
| OM5KV | 2026-09-03 23:43:43 | 47.21921 | 19.35187 | 169° | 159km/h | 9239m | 8.7m/s | -37.7°C | 64.9% | 311.7hPa | 2.9V | 00:00:00 | 00:00:00 | 00:00:00 | |
| PETON7-10 | 2026-09-03 23:43:42 | 47.21999 | 19.35160 | 166° | 148km/h | 9228m | 2.8m/s | -37.6°C | 72.2% | 312.3hPa | 2.9V | 00:00:00 | 00:49:22 | 00:00:00 | |
| OM5KV | 2026-09-03 23:43:37 | 47.22151 | 19.35106 | 169° | 144km/h | 9206m | 5.4m/s | -37.5°C | 68.5% | 313.3hPa | 2.9V | 00:00:00 | 00:00:00 | 00:00:00 | |
| OM5KV | 2026-09-03 23:43:36 | 47.22186 | 19.35095 | 168° | 141km/h | 9201m | 4.5m/s | -37.5°C | 68.6% | 313.5hPa | 2.9V | 00:00:00 | 00:00:00 | 00:00:00 | |
| OM5KV | 2026-09-03 23:43:32 | 47.22321 | 19.35038 | 163° | 141km/h | 9182m | 6.3m/s | -37.3°C | 69.2% | 314.3hPa | 2.9V | 00:00:00 | 00:00:00 | 00:00:00 | |
| OM5KV | 2026-09-03 23:43:31 | 47.22355 | 19.35022 | 166° | 142km/h | 9177m | 5.3m/s | -37.3°C | 70.1% | 314.6hPa | 2.9V | 00:00:00 | 00:00:00 | 00:00:00 | |
| OM5KV | 2026-09-03 23:43:30 | 47.22391 | 19.35009 | 168° | 150km/h | 9172m | 3.5m/s | -37.2°C | 69.3% | 314.8hPa | 2.9V | 00:00:00 | 00:00:00 | 00:00:00 | |
| PETON7-10 | 2026-09-03 23:43:27 | 47.22540 | 19.34965 | 168° | 144km/h | 9145m | 8.2m/s | -36.9°C | 74.0% | 316.1hPa | 2.9V | 00:00:00 | 00:00:00 | 08:30:00 | |
| OM5KV | 2026-09-03 23:43:25 | 47.22575 | 19.34953 | 166° | 142km/h | 9139m | 4.9m/s | -36.9°C | 68.2% | 316.4hPa | 2.9V | 00:00:00 | 00:00:00 | 00:00:00 | |
| OE3OSB-13 | 2026-09-03 23:43:13 | 47.23069 | 19.34786 | 166° | 131km/h | 9071m | 5.1m/s | -36.4°C | 70.0% | 319.5hPa | 2.9V | 00:00:00 | 00:00:00 | 00:00:00 | |
| PETON7-10 | 2026-09-03 23:43:12 | 47.23069 | 19.34786 | 167° | 141km/h | 9071m | 5.1m/s | -36.4°C | 76.0% | 319.4hPa | 2.9V | 00:00:00 | 00:00:00 | 00:00:00 | |
| OM5KV | 2026-09-03 23:43:10 | 47.23102 | 19.34774 | 167° | 131km/h | 9065m | 8.6m/s | -36.4°C | 69.5% | 319.8hPa | 2.9V | 00:00:00 | 00:00:00 | 00:00:00 | |
| OM5KV | 2026-09-03 23:43:09 | 47.23134 | 19.34762 | 166° | 133km/h | 9057m | 7.1m/s | -36.3°C | 69.7% | 320.2hPa | 2.9V | 00:00:00 | 00:00:00 | 00:00:00 | |
| OM5KV | 2026-09-03 23:43:07 | 47.23198 | 19.34732 | 161° | 137km/h | 9044m | 3.6m/s | -36.2°C | 69.7% | 320.8hPa | 2.9V | 00:00:00 | 00:00:00 | 00:00:00 | |
| OM5KV | 2026-09-03 23:43:05 | 47.23293 | 19.34676 | 160° | 131km/h | 9028m | 7.1m/s | -36.1°C | 69.7% | 321.4hPa | 2.9V | 00:00:00 | 00:00:00 | 00:00:00 | |
| OM5KV | 2026-09-03 23:43:03 | 47.23325 | 19.34660 | 164° | 135km/h | 9021m | 5.4m/s | -36.0°C | 69.6% | 321.7hPa | 2.9V | 00:00:00 | 00:00:00 | 00:00:00 | |
| OM5KV | 2026-09-03 23:43:01 | 47.23395 | 19.34632 | 167° | 151km/h | 9010m | 6.3m/s | -35.9°C | 68.2% | 322.2hPa | 2.9V | 00:00:00 | 00:00:00 | 00:00:00 | |
| GYPAP8-17 | 2026-09-03 23:42:58 | 47.23509 | 19.34587 | 164° | 153km/h | 8990m | 4.2m/s | -35.7°C | 0% | 0hPa | 2.9V | 00:00:00 | 00:00:00 | 00:00:00 | |
| PETON7-10 | 2026-09-03 23:42:57 | 47.23582 | 19.34553 | 164° | 142km/h | 8978m | 5.5m/s | -35.6°C | 72.7% | 323.6hPa | 2.9V | 00:00:00 | 00:48:37 | 00:00:00 | |
| OM5KV | 2026-09-03 23:42:56 | 47.23582 | 19.34553 | 164° | 148km/h | 8978m | 5.5m/s | -35.6°C | 67.0% | 323.6hPa | 2.9V | 00:00:00 | 00:00:00 | 00:00:00 | |
| ATIDSZ-14 | 2026-09-03 23:42:51 | 47.23746 | 19.34484 | 165° | 137km/h | 8949m | 6.9m/s | -35.3°C | 65.7% | 325.0hPa | 2.9V | 00:00:00 | 00:00:00 | 00:00:00 | |
| OM5KV | 2026-09-03 23:42:47 | 47.23893 | 19.34429 | 169° | 151km/h | 8926m | 6.4m/s | -35.1°C | 65.4% | 326.1hPa | 2.9V | 00:00:00 | 00:00:00 | 00:00:00 | |
| OM5KV | 2026-09-03 23:42:46 | 47.23930 | 19.34418 | 170° | 146km/h | 8922m | 2.5m/s | -35.1°C | 65.9% | 326.4hPa | 2.9V | 00:00:00 | 00:00:00 | 00:00:00 | |
| PETON7-10 | 2026-09-03 23:42:42 | 47.24109 | 19.34376 | 173° | 137km/h | 8897m | 3.9m/s | -34.9°C | 70.1% | 327.5hPa | 2.9V | 00:00:00 | 00:00:00 | 00:00:00 | |
| OM5KV | 2026-09-03 23:42:41 | 47.24109 | 19.34376 | 174° | 144km/h | 8897m | 4.0m/s | -34.9°C | 64.7% | 327.5hPa | 2.9V | 00:00:00 | 00:00:00 | 00:00:00 | |
| OM5KV | 2026-09-03 23:42:40 | 47.24145 | 19.34369 | 173° | 142km/h | 8893m | 4.7m/s | -34.9°C | 64.8% | 327.8hPa | 2.9V | 00:00:00 | 00:00:00 | 00:00:00 | |
| OM5KV | 2026-09-03 23:42:37 | 47.24243 | 19.34346 | 171° | 124km/h | 8879m | 4.9m/s | -34.8°C | 63.8% | 328.4hPa | 2.9V | 00:00:00 | 00:00:00 | 00:00:00 | |
| ATIDSZ-14 | 2026-09-03 23:42:31 | 47.24442 | 19.34282 | 165° | 148km/h | 8843m | 6.9m/s | -34.5°C | 63.4% | 330.1hPa | 2.9V | 00:00:00 | 00:00:00 | 00:00:00 | |
| OM5KV | 2026-09-03 23:42:30 | 47.24477 | 19.34267 | 166° | 146km/h | 8836m | 7.3m/s | -34.4°C | 63.6% | 330.3hPa | 2.9V | 00:00:00 | 00:00:00 | 00:00:00 | |
| PETON7-10 | 2026-09-03 23:42:27 | 47.24619 | 19.34226 | 174° | 135km/h | 8811m | 7.9m/s | -34.2°C | 68.1% | 331.5hPa | 2.9V | 00:00:00 | 00:00:00 | 00:00:00 | |
| OM5KV | 2026-09-03 23:42:25 | 47.24657 | 19.34220 | 174° | 148km/h | 8805m | 4.4m/s | -34.3°C | 63.3% | 331.7hPa | 2.9V | 00:00:00 | 00:00:00 | 00:00:00 | |
| OM5KV | 2026-09-03 23:42:24 | 47.24693 | 19.34212 | 173° | 146km/h | 8800m | 3.9m/s | -34.4°C | 64.4% | 332.0hPa | 2.9V | 00:00:00 | 00:00:00 | 00:00:00 | |
| OM5KV | 2026-09-03 23:42:22 | 47.24765 | 19.34192 | 168° | 146km/h | 8791m | 5.0m/s | -34.3°C | 63.8% | 332.5hPa | 2.9V | 00:00:00 | 00:00:00 | 00:00:00 | |
| OM5KV | 2026-09-03 23:42:19 | 47.24869 | 19.34155 | 168° | 133km/h | 8772m | 7.3m/s | -34.1°C | 63.7% | 333.4hPa | 2.9V | 00:00:00 | 00:00:00 | 00:00:00 | |
| OM5KV | 2026-09-03 23:42:16 | 47.24964 | 19.34127 | 172° | 126km/h | 8756m | 8.3m/s | -34.0°C | 62.6% | 334.2hPa | 2.9V | 00:00:00 | 00:00:00 | 00:00:00 | |
| OM5KV | 2026-09-03 23:42:13 | 47.25062 | 19.34108 | 173° | 130km/h | 8741m | 5.7m/s | -33.9°C | 62.7% | 334.9hPa | 2.9V | 00:00:00 | 00:00:00 | 00:00:00 | |
| OE3OSB-13 | 2026-09-03 23:42:11 | 47.25189 | 19.34066 | 163° | 131km/h | 8715m | 4.8m/s | -33.7°C | 63.4% | 336.2hPa | 2.9V | 00:00:00 | 00:00:00 | 00:00:00 | |
| OM5KV | 2026-09-03 23:42:10 | 47.25189 | 19.34066 | 165° | 131km/h | 8715m | 4.8m/s | -33.7°C | 63.4% | 336.2hPa | 2.9V | 00:00:00 | 00:00:00 | 00:00:00 | |
| OM5KV | 2026-09-03 23:42:08 | 47.25220 | 19.34052 | 164° | 130km/h | 8710m | 6.6m/s | -33.6°C | 62.7% | 336.4hPa | 2.9V | 00:00:00 | 00:00:00 | 00:00:00 | |
| OM5KV | 2026-09-03 23:42:03 | 47.25371 | 19.33995 | 166° | 126km/h | 8677m | 7.6m/s | -33.3°C | 62.8% | 337.9hPa | 2.9V | 00:00:00 | 00:00:00 | 00:00:00 | |
| OM5KV | 2026-09-03 23:42:02 | 47.25403 | 19.33982 | 165° | 133km/h | 8671m | 4.9m/s | -33.3°C | 62.9% | 338.3hPa | 2.9V | 00:00:00 | 00:00:00 | 00:00:00 | |
| OM5KV | 2026-09-03 23:41:58 | 47.25572 | 19.33896 | 163° | 144km/h | 8643m | 4.4m/s | -33.0°C | 62.9% | 339.6hPa | 2.9V | 00:00:00 | 00:00:00 | 00:00:00 | |
| OM5KV | 2026-09-03 23:41:57 | 47.25606 | 19.33880 | 164° | 142km/h | 8638m | 5.0m/s | -33.0°C | 62.8% | 339.8hPa | 2.9V | 00:00:00 | 00:00:00 | 00:00:00 | |
| PETON7-10 | 2026-09-03 23:41:56 | 47.25641 | 19.33865 | 164° | 131km/h | 8632m | 8.1m/s | -32.9°C | 67.3% | 340.0hPa | 2.9V | 00:00:00 | 00:00:00 | 00:00:00 | |
| GYPAP8-17 | 2026-09-03 23:41:54 | 47.25675 | 19.33851 | 165° | 137km/h | 8624m | 7.8m/s | 0°C | 0% | 0hPa | 2.9V | 00:00:00 | 00:00:00 | 00:00:00 | |
| OM5KV | 2026-09-03 23:41:52 | 47.25776 | 19.33814 | 169° | 139km/h | 8605m | 7.5m/s | -32.7°C | 61.9% | 341.4hPa | 2.9V | 00:00:00 | 00:00:00 | 00:00:00 | |
| ATIDSZ-14 | 2026-09-03 23:41:50 | 47.25810 | 19.33803 | 167° | 142km/h | 8597m | 6.8m/s | -32.7°C | 63.0% | 341.8hPa | 2.9V | 00:00:00 | 00:00:00 | 00:00:00 | |
| OM5KV | 2026-09-03 23:41:45 | 47.25972 | 19.33733 | 162° | 117km/h | 8569m | 7.6m/s | -32.4°C | 62.7% | 343.2hPa | 2.9V | 00:00:00 | 00:00:00 | 00:00:00 | |
| OM5KV | 2026-09-03 23:41:44 | 47.26000 | 19.33718 | 160° | 119km/h | 8563m | 3.8m/s | -32.4°C | 63.5% | 343.5hPa | 2.9V | 00:00:00 | 00:00:00 | 00:00:00 | |
| PETON7-10 | 2026-09-03 23:41:41 | 47.26119 | 19.33661 | 165° | 128km/h | 8543m | 6.9m/s | -32.2°C | 69.4% | 344.5hPa | 2.9V | 00:00:00 | 00:00:00 | 00:00:00 | |
| OM5KV | 2026-09-03 23:41:39 | 47.26151 | 19.33648 | 167° | 131km/h | 8535m | 10.2m/s | -32.1°C | 64.8% | 344.9hPa | 2.9V | 00:00:00 | 00:00:00 | 00:00:00 | |
| OM5KV | 2026-09-03 23:41:38 | 47.26183 | 19.33636 | 165° | 131km/h | 8527m | 5.4m/s | -32.1°C | 65.9% | 345.3hPa | 2.9V | 00:00:00 | 00:00:00 | 00:00:00 | |
| OM5KV | 2026-09-03 23:41:33 | 47.26341 | 19.33574 | 169° | 128km/h | 8498m | 5.4m/s | -31.9°C | 67.7% | 346.6hPa | 2.9V | 00:00:00 | 00:00:00 | 00:00:00 | |
| OM5KV | 2026-09-03 23:41:28 | 47.26522 | 19.33497 | 162° | 122km/h | 8462m | 10.0m/s | -31.6°C | 68.7% | 348.3hPa | 2.9V | 00:00:00 | 00:00:00 | 00:00:00 | |
| PETON7-10 | 2026-09-03 23:41:26 | 47.26583 | 19.33464 | 158° | 137km/h | 8448m | 7.8m/s | -31.5°C | 75.3% | 349.0hPa | 2.9V | 00:00:00 | 00:47:06 | 00:00:00 | |
| ATIDSZ-14 | 2026-09-03 23:41:25 | 47.26583 | 19.33464 | 159° | 133km/h | 8448m | 7.9m/s | -31.6°C | 70.3% | 349.1hPa | 2.9V | 00:00:00 | 00:00:00 | 00:00:00 | |
| OM5KV | 2026-09-03 23:41:22 | 47.26681 | 19.33406 | 159° | 139km/h | 8430m | 7.6m/s | -31.4°C | 70.4% | 349.9hPa | 2.9V | 00:00:00 | 00:00:00 | 00:00:00 | |
| OM5KV | 2026-09-03 23:41:15 | 47.26906 | 19.33290 | 163° | 142km/h | 8391m | 4.7m/s | -31.1°C | 76.3% | 351.8hPa | 2.9V | 00:00:00 | 00:00:00 | 00:00:00 | |
| PETON7-10 | 2026-09-03 23:41:11 | 47.27071 | 19.33193 | 158° | 146km/h | 8365m | 7.9m/s | -30.9°C | 82.9% | 353.0hPa | 2.9V | 00:00:00 | 00:00:00 | 08:30:00 | |
| OE3OSB-13 | 2026-09-03 23:41:09 | 47.27179 | 19.33132 | 159° | 151km/h | 8342m | 4.2m/s | -30.8°C | 80.0% | 354.2hPa | 2.7V | 00:00:00 | 00:00:00 | 00:00:00 | |
| ATIDSZ-14 | 2026-09-03 23:41:04 | 47.27284 | 19.33074 | 160° | 142km/h | 8325m | 7.4m/s | -30.7°C | 80.6% | 355.1hPa | 2.7V | 00:00:00 | 00:00:00 | 00:00:00 | |
| OM5KV | 2026-09-03 23:40:59 | 47.27445 | 19.32985 | 158° | 139km/h | 8293m | 6.5m/s | -30.4°C | 81.1% | 356.7hPa | 2.7V | 00:00:00 | 00:00:00 | 00:00:00 | |
| OM5KV | 2026-09-03 23:40:58 | 47.27480 | 19.32965 | 158° | 151km/h | 8288m | 4.0m/s | -30.4°C | 81.9% | 357.1hPa | 2.7V | 00:00:00 | 00:00:00 | 00:00:00 | |
| PETON7-10 | 2026-09-03 23:40:56 | 47.27585 | 19.32898 | 157° | 141km/h | 8273m | 5.8m/s | -30.2°C | 89.1% | 357.8hPa | 2.7V | 00:00:00 | 00:00:00 | 00:00:00 | |
| OM5KV | 2026-09-03 23:40:52 | 47.27679 | 19.32841 | 160° | 128km/h | 8257m | 8.5m/s | -30.1°C | 82.3% | 358.6hPa | 2.7V | 00:00:00 | 00:00:00 | 00:00:00 | |
| OM5KV | 2026-09-03 23:40:47 | 47.27875 | 19.32756 | 161° | 142km/h | 8219m | 6.1m/s | -29.8°C | 81.5% | 360.4hPa | 2.7V | 00:00:00 | 00:00:00 | 00:00:00 | |
| ATIDSZ-14 | 2026-09-03 23:40:43 | 47.27982 | 19.32698 | 161° | 151km/h | 8199m | 6.4m/s | -29.6°C | 81.7% | 361.5hPa | 2.7V | 00:00:00 | 00:00:00 | 00:00:00 | |
| PETON7-10 | 2026-09-03 23:40:41 | 47.28086 | 19.32639 | 159° | 144km/h | 8181m | 7.7m/s | -29.4°C | 86.0% | 362.2hPa | 2.7V | 00:00:00 | 00:46:21 | 00:00:00 | |
| OM5KV | 2026-09-03 23:40:38 | 47.28152 | 19.32603 | 163° | 139km/h | 8168m | 6.6m/s | -29.4°C | 79.7% | 363.0hPa | 2.7V | 00:00:00 | 00:00:00 | 00:00:00 | |
| OE3OSB-13 | 2026-09-03 23:40:37 | 47.28222 | 19.32573 | 165° | 148km/h | 8155m | 3.3m/s | -29.3°C | 78.9% | 363.6hPa | 2.7V | 00:00:00 | 00:00:00 | 00:00:00 | |
| PETON7-10 | 2026-09-03 23:40:26 | 47.28604 | 19.32385 | 160° | 141km/h | 8095m | 3.8m/s | -28.7°C | 84.2% | 366.7hPa | 2.7V | 00:00:00 | 00:00:00 | 00:00:00 | |
| ATIDSZ-14 | 2026-09-03 23:40:18 | 47.28864 | 19.32204 | 157° | 137km/h | 8041m | 7.0m/s | -28.3°C | 77.7% | 369.4hPa | 2.7V | 00:00:00 | 00:00:00 | 00:00:00 | |
| OM5KV | 2026-09-03 23:40:15 | 47.28964 | 19.32155 | 166° | 139km/h | 8020m | 4.6m/s | -28.1°C | 76.7% | 370.6hPa | 2.7V | 00:00:00 | 00:00:00 | 00:00:00 | |
| PETON7-10 | 2026-09-03 23:40:11 | 47.29098 | 19.32102 | 164° | 141km/h | 8002m | 5.6m/s | -27.9°C | 80.7% | 371.4hPa | 2.7V | 00:00:00 | 00:00:00 | 00:00:00 | |
| OE3OSB-13 | 2026-09-03 23:40:08 | 47.29257 | 19.32027 | 157° | 139km/h | 7968m | 5.1m/s | -27.6°C | 73.6% | 373.2hPa | 2.7V | 00:00:00 | 00:00:00 | 00:00:00 | |
| OM5KV | 2026-09-03 23:40:03 | 47.29323 | 19.31983 | 154° | 144km/h | 7958m | 6.5m/s | -27.5°C | 72.8% | 373.8hPa | 2.7V | 00:00:00 | 00:00:00 | 00:00:00 | |
| GYPAP8-17 | 2026-09-03 23:40:01 | 47.29388 | 19.31937 | 156° | 144km/h | 7949m | 3.9m/s | 0°C | 0% | 0hPa | 2.7V | 00:00:00 | 00:00:00 | 00:00:00 | |
| OM5KV | 2026-09-03 23:39:57 | 47.29560 | 19.31833 | 164° | 144km/h | 7919m | 6.8m/s | -27.2°C | 72.4% | 375.9hPa | 2.7V | 00:00:00 | 00:00:00 | 00:00:00 | |
| PETON7-10 | 2026-09-03 23:39:56 | 47.29594 | 19.31819 | 166° | 137km/h | 7913m | 5.1m/s | -27.1°C | 76.1% | 376.1hPa | 2.7V | 00:00:00 | 00:45:36 | 00:00:00 | |
| ATIDSZ-14 | 2026-09-03 23:39:53 | 47.29660 | 19.31795 | 167° | 130km/h | 7900m | 6.0m/s | -27.0°C | 72.9% | 376.8hPa | 2.7V | 00:00:00 | 00:00:00 | 00:00:00 | |
| OM5KV | 2026-09-03 23:39:52 | 47.29692 | 19.31782 | 164° | 128km/h | 7895m | 4.1m/s | -27.0°C | 74.1% | 377.1hPa | 2.7V | 00:00:00 | 00:00:00 | 00:00:00 | |
| OM5KV | 2026-09-03 23:39:51 | 47.29722 | 19.31768 | 162° | 128km/h | 7890m | 4.6m/s | -27.0°C | 74.3% | 377.3hPa | 2.7V | 00:00:00 | 00:00:00 | 00:00:00 | |
| OM5KV | 2026-09-03 23:39:46 | 47.29882 | 19.31698 | 167° | 142km/h | 7859m | 7.7m/s | -26.8°C | 72.0% | 378.9hPa | 2.7V | 00:00:00 | 00:00:00 | 00:00:00 | |
| PETON7-10 | 2026-09-03 23:39:41 | 47.30087 | 19.31587 | 156° | 133km/h | 7827m | 5.2m/s | -26.5°C | 75.3% | 380.6hPa | 2.7V | 00:00:00 | 00:00:00 | 00:00:00 | |
| OM5KV | 2026-09-03 23:39:36 | 47.30234 | 19.31510 | 161° | 128km/h | 7798m | 5.6m/s | -26.4°C | 68.5% | 382.2hPa | 2.9V | 00:00:00 | 00:00:00 | 00:00:00 | |
| OM5KV | 2026-09-03 23:39:35 | 47.30265 | 19.31493 | 161° | 131km/h | 7792m | 6.6m/s | -26.4°C | 66.9% | 382.5hPa | 2.9V | 00:00:00 | 00:00:00 | 00:00:00 | |
| ATIDSZ-14 | 2026-09-03 23:39:33 | 47.30297 | 19.31478 | 163° | 131km/h | 7784m | 9.6m/s | -26.3°C | 65.7% | 382.8hPa | 2.9V | 00:00:00 | 00:00:00 | 00:00:00 | |
| OM5KV | 2026-09-03 23:39:29 | 47.30469 | 19.31396 | 163° | 148km/h | 7759m | 4.3m/s | -26.2°C | 63.5% | 384.3hPa | 2.9V | 00:00:00 | 00:00:00 | 00:00:00 | |
| OM5KV | 2026-09-03 23:39:28 | 47.30469 | 19.31396 | 163° | 148km/h | 7759m | 4.3m/s | -26.2°C | 63.5% | 384.3hPa | 2.9V | 00:00:00 | 00:00:00 | 00:00:00 | |
| PETON7-10 | 2026-09-03 23:39:26 | 47.30568 | 19.31351 | 164° | 124km/h | 7743m | 6.2m/s | -26.0°C | 65.7% | 385.1hPa | 2.9V | 00:00:00 | 00:00:00 | 00:00:00 | |
| OM5KV | 2026-09-03 23:39:23 | 47.30654 | 19.31314 | 163° | 117km/h | 7722m | 3.9m/s | -26.0°C | 60.8% | 386.2hPa | 2.9V | 00:00:00 | 00:00:00 | 00:00:00 | |
| OM5KV | 2026-09-03 23:39:17 | 47.30805 | 19.31228 | 165° | 133km/h | 7694m | 7.9m/s | -26.0°C | 53.4% | 387.7hPa | 2.9V | 00:00:00 | 00:00:00 | 00:00:00 | |
| GYPAP8-17 | 2026-09-03 23:39:15 | 47.30869 | 19.31209 | 171° | 124km/h | 7682m | 7.1m/s | 0°C | 0% | 0hPa | 2.9V | 00:00:00 | 00:00:00 | 00:00:00 | |
| PETON7-10 | 2026-09-03 23:39:11 | 47.31016 | 19.31155 | 161° | 117km/h | 7654m | 3.7m/s | -25.7°C | 50.9% | 389.8hPa | 2.9V | 00:00:00 | 00:44:51 | 00:00:00 | |
| OE3OSB-13 | 2026-09-03 23:39:05 | 47.31217 | 19.31066 | 164° | 108km/h | 7612m | 6.0m/s | -25.6°C | 41.6% | 392.2hPa | 2.9V | 00:00:00 | 00:00:00 | 00:00:00 | |
| OM5KV | 2026-09-03 23:39:00 | 47.31331 | 19.31014 | 165° | 119km/h | 7590m | 6.5m/s | -25.6°C | 34.6% | 393.4hPa | 2.9V | 00:00:00 | 00:00:00 | 00:00:00 | |
| PETON7-10 | 2026-09-03 23:38:56 | 47.31444 | 19.30969 | 164° | 115km/h | 7558m | 8.3m/s | -25.4°C | 28.9% | 395.0hPa | 2.9V | 00:00:00 | 00:00:00 | 08:30:00 | |
| OM5KV | 2026-09-03 23:38:54 | 47.31474 | 19.30956 | 165° | 124km/h | 7551m | 5.7m/s | -25.4°C | 25.3% | 395.5hPa | 0V | 00:00:00 | 00:00:00 | 00:00:00 | |
| OM5KV | 2026-09-03 23:38:52 | 47.31535 | 19.30931 | 164° | 122km/h | 7539m | 5.5m/s | -25.3°C | 23.8% | 396.1hPa | 0V | 00:00:00 | 00:00:00 | 00:00:00 | |
| OM5KV | 2026-09-03 23:38:49 | 47.31653 | 19.30875 | 165° | 111km/h | 7515m | 4.9m/s | -25.2°C | 19.5% | 397.5hPa | 0V | 00:00:00 | 00:00:00 | 00:00:00 | |
| OM5KV | 2026-09-03 23:38:43 | 47.31808 | 19.30821 | 171° | 110km/h | 7479m | 5.9m/s | -25.0°C | 18.5% | 399.4hPa | 0V | 00:00:00 | 00:00:00 | 00:00:00 | |
| PETON7-10 | 2026-09-03 23:38:41 | 47.31864 | 19.30805 | 168° | 108km/h | 7470m | 4.1m/s | -24.9°C | 21.0% | 399.8hPa | 0V | 00:00:00 | 00:00:00 | 00:00:00 | |
| ATIDSZ-14 | 2026-09-03 23:38:40 | 47.31864 | 19.30805 | 168° | 113km/h | 7470m | 4.1m/s | -25.0°C | 19.4% | 399.9hPa | 0V | 00:00:00 | 00:00:00 | 00:00:00 | |
| OM5KV | 2026-09-03 23:38:37 | 47.31973 | 19.30756 | 159° | 104km/h | 7447m | 6.0m/s | -24.9°C | 19.9% | 401.2hPa | 0V | 00:00:00 | 00:00:00 | 00:00:00 | |
| OM5KV | 2026-09-03 23:38:35 | 47.31997 | 19.30742 | 159° | 100km/h | 7441m | 6.5m/s | -24.8°C | 19.5% | 401.5hPa | 0V | 00:00:00 | 00:00:00 | 00:00:00 | |
| OE3OSB-13 | 2026-09-03 23:38:34 | 47.32070 | 19.30708 | 165° | 106km/h | 7422m | 4.7m/s | -24.7°C | 17.8% | 402.5hPa | 0V | 00:00:00 | 00:00:00 | 00:00:00 | |
| OM5KV | 2026-09-03 23:38:29 | 47.32150 | 19.30672 | 161° | 113km/h | 7410m | 4.7m/s | -24.7°C | 15.9% | 403.3hPa | 0V | 00:00:00 | 00:00:00 | 00:00:00 | |
| PETON7-10 | 2026-09-03 23:38:26 | 47.32253 | 19.30616 | 159° | 99km/h | 7384m | 5.8m/s | 0°C | 0% | 0hPa | 0V | 00:00:00 | 00:44:06 | 00:00:00 | |
| OM5KV | 2026-09-03 23:38:25 | 47.32253 | 19.30616 | 160° | 100km/h | 7384m | 5.8m/s | -24.5°C | 12.8% | 404.7hPa | 0V | 00:00:00 | 00:00:00 | 00:00:00 | |
| OM5KV | 2026-09-03 23:38:23 | 47.32301 | 19.30585 | 155° | 106km/h | 7371m | 7.7m/s | -24.4°C | 12.1% | 405.5hPa | 0V | 00:00:00 | 00:00:00 | 00:00:00 | |
| ATIDSZ-14 | 2026-09-03 23:38:19 | 47.32389 | 19.30515 | 152° | 88km/h | 7341m | 6.7m/s | -24.2°C | 9.5% | 407.1hPa | 0V | 00:00:00 | 00:00:00 | 00:00:00 | |
| OM5KV | 2026-09-03 23:38:15 | 47.32477 | 19.30460 | 164° | 106km/h | 7316m | 3.6m/s | -24.1°C | 6.1% | 408.6hPa | 0V | 00:00:00 | 00:00:00 | 00:00:00 | |
| OM5KV | 2026-09-03 23:38:14 | 47.32503 | 19.30449 | 166° | 108km/h | 7312m | 4.9m/s | -24.1°C | 5.9% | 408.8hPa | 0V | 00:00:00 | 00:00:00 | 00:00:00 | |
| PETON7-10 | 2026-09-03 23:38:11 | 47.32592 | 19.30394 | 149° | 91km/h | 7288m | 7.1m/s | 0°C | 0% | 0hPa | 0V | 00:00:00 | 00:00:00 | 00:00:00 | |
| OM5KV | 2026-09-03 23:38:09 | 47.32610 | 19.30377 | 147° | 82km/h | 7280m | 9.4m/s | -23.9°C | 5.6% | 410.4hPa | 0V | 00:00:00 | 00:00:00 | 00:00:00 | |
| OM5KV | 2026-09-03 23:38:08 | 47.32628 | 19.30361 | 151° | 80km/h | 7273m | 4.6m/s | -23.9°C | 5.8% | 410.9hPa | 0V | 00:00:00 | 00:00:00 | 00:00:00 | |
| OM5KV | 2026-09-03 23:38:06 | 47.32664 | 19.30335 | 159° | 78km/h | 7265m | 5.6m/s | -23.9°C | 5.8% | 411.3hPa | 0V | 00:00:00 | 00:00:00 | 00:00:00 | |
| OE3OSB-13 | 2026-09-03 23:38:02 | 47.32773 | 19.30278 | 158° | 99km/h | 7234m | 6.8m/s | -23.7°C | 5.9% | -1.0hPa | 0V | 00:00:00 | 00:00:00 | 00:00:00 | |
| ATIDSZ-14 | 2026-09-03 23:37:59 | 47.32820 | 19.30249 | 157° | 102km/h | 7222m | 8.2m/s | -23.7°C | 5.9% | 413.8hPa | 0V | 00:00:00 | 00:00:00 | 00:00:00 | |
| OM5KV | 2026-09-03 23:37:56 | 47.32889 | 19.30204 | 156° | 95km/h | 7204m | 6.1m/s | -23.6°C | 5.9% | 414.7hPa | 0V | 00:00:00 | 00:00:00 | 00:00:00 | |
| OM5KV | 2026-09-03 23:37:51 | 47.32997 | 19.30107 | 151° | 100km/h | 7179m | 3.1m/s | -23.6°C | 6.0% | 416.3hPa | 0V | 00:00:00 | 00:00:00 | 00:00:00 | |
| OM5KV | 2026-09-03 23:37:49 | 47.33040 | 19.30072 | 156° | 95km/h | 7169m | 5.7m/s | -23.6°C | 6.1% | 416.9hPa | 0V | 00:00:00 | 00:00:00 | 00:00:00 | |
| PETON7-10 | 2026-09-03 23:37:41 | 47.33214 | 19.29944 | 153° | 86km/h | 7113m | 6.3m/s | 0°C | 0% | 0hPa | 0V | 00:00:00 | 00:43:21 | 00:00:00 | |
| OM5KV | 2026-09-03 23:37:39 | 47.33261 | 19.29906 | 153° | 106km/h | 7104m | 4.8m/s | -23.1°C | 6.3% | 420.4hPa | 0V | 00:00:00 | 00:00:00 | 00:00:00 | |
| ATIDSZ-14 | 2026-09-03 23:37:38 | 47.33261 | 19.29906 | 153° | 106km/h | 7104m | 4.8m/s | -23.1°C | 6.3% | 420.4hPa | 0V | 00:00:00 | 00:00:00 | 00:00:00 | |
| GYPAP8-17 | 2026-09-03 23:37:33 | 47.33358 | 19.29837 | 161° | 69km/h | 7069m | 8.5m/s | 0°C | 0% | 0hPa | 0V | 00:00:00 | 00:00:00 | 00:00:00 | |
| OM5KV | 2026-09-03 23:37:27 | 47.33468 | 19.29774 | 145° | 80km/h | 7033m | 6.1m/s | -22.7°C | 6.6% | 424.5hPa | 0V | 00:00:00 | 00:00:00 | 00:00:00 | |
| PETON7-10 | 2026-09-03 23:37:26 | 47.33501 | 19.29738 | 145° | 84km/h | 7024m | 5.3m/s | 0°C | 0% | 0hPa | 0V | 00:00:00 | 00:00:00 | 00:00:00 | |
| OM5KV | 2026-09-03 23:37:23 | 47.33556 | 19.29697 | 160° | 78km/h | 7007m | 6.4m/s | -22.6°C | 6.7% | 425.9hPa | 0V | 00:00:00 | 00:00:00 | 00:00:00 | |
| OM5KV | 2026-09-03 23:37:21 | 47.33575 | 19.29686 | 160° | 84km/h | 7001m | 6.4m/s | -22.6°C | 6.7% | 426.3hPa | 0V | 00:00:00 | 00:00:00 | 00:00:00 | |
| OM5KV | 2026-09-03 23:37:16 | 47.33682 | 19.29627 | 163° | 89km/h | 6977m | 4.4m/s | -22.4°C | 6.7% | 427.9hPa | 0V | 00:00:00 | 00:00:00 | 00:00:00 | |
| OM5KV | 2026-09-03 23:37:15 | 47.33703 | 19.29617 | 163° | 88km/h | 6973m | 3.8m/s | -22.4°C | 6.8% | 428.1hPa | 0V | 00:00:00 | 00:00:00 | 00:00:00 | |
| PETON7-10 | 2026-09-03 23:37:11 | 47.33790 | 19.29544 | 144° | 80km/h | 6946m | 5.7m/s | 0°C | 0% | 0hPa | 0V | 00:00:00 | 00:00:00 | 00:00:00 | |
| OM5KV | 2026-09-03 23:37:10 | 47.33806 | 19.29527 | 146° | 82km/h | 6939m | 8.9m/s | -22.2°C | 7.0% | 429.9hPa | 0V | 00:00:00 | 00:00:00 | 00:00:00 | |
| OM5KV | 2026-09-03 23:37:04 | 47.33909 | 19.29460 | 164° | 84km/h | 6910m | 4.6m/s | -22.0°C | 6.8% | 431.8hPa | 0V | 00:00:00 | 00:00:00 | 00:00:00 | |
| OM5KV | 2026-09-03 23:37:03 | 47.33929 | 19.29451 | 166° | 82km/h | 6904m | 6.8m/s | -21.9°C | 6.7% | 432.1hPa | 0V | 00:00:00 | 00:00:00 | 00:00:00 | |
| OM5KV | 2026-09-03 23:36:58 | 47.34009 | 19.29403 | 150° | 68km/h | 6877m | 4.5m/s | -21.8°C | 6.4% | 433.6hPa | 0V | 00:00:00 | 00:00:00 | 00:00:00 | |
| OM5KV | 2026-09-03 23:36:57 | 47.34024 | 19.29389 | 149° | 71km/h | 6872m | 5.2m/s | -21.7°C | 6.3% | 433.9hPa | 0V | 00:00:00 | 00:00:00 | 00:00:00 | |
| PETON7-10 | 2026-09-03 23:36:56 | 47.34060 | 19.29358 | 150° | 86km/h | 6862m | 5.6m/s | 0°C | 0% | 0hPa | 0V | 00:00:00 | 00:42:36 | 00:00:00 | |
| OM5KV | 2026-09-03 23:36:53 | 47.34097 | 19.29329 | 156° | 80km/h | 6847m | 7.4m/s | -21.5°C | 4.4% | 435.3hPa | 0V | 00:00:00 | 00:00:00 | 00:00:00 | |
| ATIDSZ-14 | 2026-09-03 23:36:52 | 47.34115 | 19.29318 | 160° | 75km/h | 6841m | 5.7m/s | -21.5°C | 3.9% | 435.7hPa | 0V | 00:00:00 | 00:00:00 | 00:00:00 | |
| OM5KV | 2026-09-03 23:36:47 | 47.34230 | 19.29252 | 162° | 86km/h | 6810m | 5.5m/s | -21.3°C | 3.8% | 437.7hPa | 0V | 00:00:00 | 00:00:00 | 00:00:00 | |
| PETON7-10 | 2026-09-03 23:36:38 | 47.34413 | 19.29159 | 153° | 84km/h | 6769m | 5.2m/s | 0°C | 0% | 0hPa | 0V | 00:00:00 | 00:00:00 | 00:00:00 | |
| OM5KV | 2026-09-03 23:36:36 | 47.34433 | 19.29142 | 149° | 91km/h | 6764m | 4.4m/s | -21.3°C | 3.5% | 440.3hPa | 0V | 00:00:00 | 00:00:00 | 00:00:00 | |
| OM5KV | 2026-09-03 23:36:34 | 47.34469 | 19.29103 | 142° | 82km/h | 6755m | 4.7m/s | -21.4°C | 3.8% | 440.9hPa | 0V | 00:00:00 | 00:00:00 | 00:00:00 | |
| ATIDSZ-14 | 2026-09-03 23:36:31 | 47.34512 | 19.29053 | 148° | 62km/h | 6736m | 5.7m/s | -21.3°C | 4.4% | 442.0hPa | 0V | 00:00:00 | 00:00:00 | 00:00:00 | |
| OM5KV | 2026-09-03 23:36:29 | 47.34537 | 19.29029 | 149° | 57km/h | 6725m | 6.4m/s | -21.3°C | 4.7% | 442.7hPa | 0V | 00:00:00 | 00:00:00 | 00:00:00 | |
| OM5KV | 2026-09-03 23:36:28 | 47.34549 | 19.29017 | 146° | 57km/h | 6719m | 6.7m/s | -21.3°C | 5.3% | 443.2hPa | 0V | 00:00:00 | 00:00:00 | 00:00:00 | |
| OM5KV | 2026-09-03 23:36:22 | 47.34642 | 19.28955 | 154° | 77km/h | 6689m | 4.4m/s | -21.3°C | 16.3% | 445.0hPa | 0V | 00:00:00 | 00:00:00 | 00:00:00 | |
| OM5KV | 2026-09-03 23:36:17 | 47.34709 | 19.28892 | 152° | 51km/h | 6663m | 6.4m/s | -21.0°C | 16.4% | 446.6hPa | 0V | 00:00:00 | 00:00:00 | 00:00:00 | |
| OM5KV | 2026-09-03 23:36:13 | 47.34786 | 19.28836 | 150° | 75km/h | 6638m | 4.7m/s | -21.0°C | 27.6% | 448.1hPa | 0V | 00:00:00 | 00:00:00 | 00:00:00 | |
| OM5KV | 2026-09-03 23:36:11 | 47.34801 | 19.28820 | 145° | 73km/h | 6633m | 4.2m/s | -21.0°C | 30.5% | 448.4hPa | 0V | 00:00:00 | 00:00:00 | 00:00:00 | |
| OM5KV | 2026-09-03 23:36:10 | 47.34816 | 19.28803 | 142° | 73km/h | 6629m | 4.1m/s | -20.9°C | 31.9% | 448.6hPa | 0V | 00:00:00 | 00:00:00 | 00:00:00 | |
| ATIDSZ-14 | 2026-09-03 23:36:09 | 47.34831 | 19.28786 | 143° | 75km/h | 6623m | 9.0m/s | -20.9°C | 33.5% | 449.0hPa | 0V | 00:00:00 | 00:00:00 | 00:00:00 | |
| OM5KV | 2026-09-03 23:36:06 | 47.34885 | 19.28735 | 146° | 49km/h | 6597m | 6.9m/s | -20.7°C | 40.8% | 450.5hPa | 0V | 00:00:00 | 00:00:00 | 00:00:00 | |
| OM5KV | 2026-09-03 23:36:04 | 47.34894 | 19.28725 | 141° | 42km/h | 6590m | 6.8m/s | -20.7°C | 42.9% | 451.0hPa | 0V | 00:00:00 | 00:00:00 | 00:00:00 | |
| OM5KV | 2026-09-03 23:36:00 | 47.34927 | 19.28693 | 162° | 42km/h | 6568m | 4.0m/s | -20.5°C | 43.7% | 452.2hPa | 0V | 00:00:00 | 00:00:00 | 00:00:00 | |
| OM5KV | 2026-09-03 23:35:55 | 47.35004 | 19.28649 | 159° | 68km/h | 6532m | 7.7m/s | -20.2°C | 45.7% | 454.3hPa | 0V | 00:00:00 | 00:00:00 | 00:00:00 | |
| OM5KV | 2026-09-03 23:35:50 | 47.35075 | 19.28583 | 133° | 66km/h | 6508m | 5.6m/s | -20.0°C | 49.2% | 455.8hPa | 0V | 00:00:00 | 00:00:00 | 00:00:00 | |
| GYPAP8-17 | 2026-09-03 23:35:49 | 47.35075 | 19.28583 | 133° | 66km/h | 6508m | 5.6m/s | 0°C | 0% | 0hPa | 0V | 00:00:00 | 00:00:00 | 00:00:00 | |
| OM5KV | 2026-09-03 23:35:48 | 47.35086 | 19.28565 | 132° | 62km/h | 6502m | 5.9m/s | -19.9°C | 49.5% | 456.2hPa | 0V | 00:00:00 | 00:00:00 | 00:00:00 | |
| OM5KV | 2026-09-03 23:35:43 | 47.35135 | 19.28493 | 142° | 35km/h | 6474m | 3.1m/s | -19.7°C | 51.8% | 458.0hPa | 0V | 00:00:00 | 00:00:00 | 00:00:00 | |
| OM5KV | 2026-09-03 23:35:38 | 47.35165 | 19.28448 | 144° | 57km/h | 6449m | 4.1m/s | -19.5°C | 51.9% | 459.5hPa | 0V | 00:00:00 | 00:00:00 | 00:00:00 | |
| OM5KV | 2026-09-03 23:35:32 | 47.35247 | 19.28379 | 142° | 49km/h | 6408m | 6.2m/s | -19.2°C | 51.8% | 462.1hPa | 0V | 00:00:00 | 00:00:00 | 00:00:00 | |
| OM5KV | 2026-09-03 23:35:25 | 47.35308 | 19.28331 | 158° | 47km/h | 6368m | 6.7m/s | -18.9°C | 51.6% | 464.6hPa | 0V | 00:00:00 | 00:00:00 | 00:00:00 | |
| OM5KV | 2026-09-03 23:35:21 | 47.35346 | 19.28296 | 153° | 42km/h | 6343m | 8.8m/s | -18.7°C | 52.5% | 466.1hPa | 0V | 00:00:00 | 00:00:00 | 00:00:00 | |
| OM5KV | 2026-09-03 23:35:20 | 47.35357 | 19.28288 | 159° | 53km/h | 6335m | 8.0m/s | -18.7°C | 52.6% | 466.6hPa | 0V | 00:00:00 | 00:00:00 | 00:00:00 | |
| OM5KV | 2026-09-03 23:35:15 | 47.35432 | 19.28235 | 147° | 58km/h | 6304m | 5.6m/s | -18.6°C | 54.9% | 468.5hPa | 0V | 00:00:00 | 00:00:00 | 00:00:00 | |
| OM5KV | 2026-09-03 23:35:14 | 47.35443 | 19.28224 | 149° | 47km/h | 6298m | 6.3m/s | -18.6°C | 55.2% | 468.8hPa | 0V | 00:00:00 | 00:00:00 | 00:00:00 | |
| OM5KV | 2026-09-03 23:35:09 | 47.35499 | 19.28150 | 132° | 69km/h | 6257m | 5.6m/s | -18.4°C | 56.9% | 471.4hPa | 0V | 00:00:00 | 00:00:00 | 00:00:00 | |
| ATIDSZ-14 | 2026-09-03 23:35:06 | 47.35521 | 19.28114 | 133° | 58km/h | 6248m | 4.5m/s | -18.3°C | 58.0% | 472.0hPa | 0V | 00:00:00 | 00:00:00 | 00:00:00 | |
| OM5KV | 2026-09-03 23:35:03 | 47.35547 | 19.28077 | 142° | 38km/h | 6233m | 5.5m/s | -18.2°C | 57.0% | 473.0hPa | 0V | 00:00:00 | 00:00:00 | 00:00:00 | |
| OM5KV | 2026-09-03 23:35:02 | 47.35555 | 19.28068 | 140° | 40km/h | 6227m | 6.0m/s | -18.2°C | 56.5% | 473.3hPa | 0V | 00:00:00 | 00:00:00 | 00:00:00 | |
| OM5KV | 2026-09-03 23:34:57 | 47.35603 | 19.27987 | 141° | 55km/h | 6196m | 6.0m/s | -18.0°C | 55.2% | 475.3hPa | 0V | 00:00:00 | 00:00:00 | 00:00:00 | |
| OM5KV | 2026-09-03 23:34:51 | 47.35667 | 19.27925 | 160° | 62km/h | 6155m | 8.1m/s | -17.7°C | 53.1% | 477.8hPa | 0V | 00:00:00 | 00:00:00 | 00:00:00 | |
| GYPAP8-17 | 2026-09-03 23:34:50 | 47.35667 | 19.27925 | 160° | 62km/h | 6155m | 8.1m/s | 0°C | 0% | 0hPa | 0V | 00:00:00 | 00:00:00 | 00:00:00 | |
| OM5KV | 2026-09-03 23:34:44 | 47.35752 | 19.27864 | 155° | 66km/h | 6118m | 6.4m/s | -17.4°C | 51.8% | 480.3hPa | 0V | 00:00:00 | 00:00:00 | 00:00:00 | |
| ATIDSZ-14 | 2026-09-03 23:34:43 | 47.35767 | 19.27854 | 156° | 60km/h | 6112m | 5.8m/s | -17.3°C | 51.7% | 480.6hPa | 0V | 00:00:00 | 00:00:00 | 00:00:00 | |
| OM5KV | 2026-09-03 23:34:39 | 47.35823 | 19.27824 | 162° | 69km/h | 6091m | 5.4m/s | -17.2°C | 50.1% | 481.9hPa | 0V | 00:00:00 | 00:00:00 | 00:00:00 | |
| OM5KV | 2026-09-03 23:34:28 | 47.35967 | 19.27672 | 150° | 69km/h | 6024m | 5.1m/s | -16.6°C | 47.3% | 486.3hPa | 0V | 00:00:00 | 00:00:00 | 00:00:00 | |
| OM5KV | 2026-09-03 23:34:27 | 47.35982 | 19.27660 | 153° | 64km/h | 6019m | 6.0m/s | -16.5°C | 46.5% | 486.6hPa | 0V | 00:00:00 | 00:00:00 | 00:00:00 | |
| OM5KV | 2026-09-03 23:34:23 | 47.36043 | 19.27586 | 145° | 73km/h | 5991m | 5.8m/s | -16.3°C | 44.9% | 488.6hPa | 0V | 00:00:00 | 00:00:00 | 00:00:00 | |
| OM5KV | 2026-09-03 23:34:15 | 47.36128 | 19.27501 | 140° | 60km/h | 5950m | 4.4m/s | -16.0°C | 43.9% | 491.1hPa | 0V | 00:00:00 | 00:00:00 | 00:00:00 | |
| OM5KV | 2026-09-03 23:34:14 | 47.36140 | 19.27486 | 145° | 62km/h | 5945m | 6.1m/s | -15.9°C | 43.8% | 491.5hPa | 0V | 00:00:00 | 00:00:00 | 00:00:00 | |
| OM5KV | 2026-09-03 23:34:11 | 47.36180 | 19.27451 | 152° | 60km/h | 5927m | 8.4m/s | -15.7°C | 43.4% | 492.7hPa | 0V | 00:00:00 | 00:00:00 | 00:00:00 | |
| OM5KV | 2026-09-03 23:34:08 | 47.36221 | 19.27410 | 148° | 71km/h | 5907m | 6.7m/s | -15.6°C | 43.9% | 494.1hPa | 0V | 00:00:00 | 00:00:00 | 00:00:00 | |
| OM5KV | 2026-09-03 23:34:06 | 47.36264 | 19.27375 | 146° | 57km/h | 5889m | 5.4m/s | -15.4°C | 44.3% | 495.3hPa | 0V | 00:00:00 | 00:00:00 | 00:00:00 | |
| ATIDSZ-14 | 2026-09-03 23:34:03 | 47.36286 | 19.27347 | 140° | 66km/h | 5878m | 6.0m/s | 0°C | 0% | 0hPa | 0V | 00:00:00 | 00:00:00 | 00:00:00 | |
| OM5KV | 2026-09-03 23:34:02 | 47.36300 | 19.27331 | 145° | 73km/h | 5873m | 5.3m/s | -15.3°C | 44.6% | 496.4hPa | 0V | 00:00:00 | 00:00:00 | 00:00:00 | |
| OM5KV | 2026-09-03 23:33:59 | 47.36348 | 19.27295 | 163° | 60km/h | 5855m | 7.0m/s | -15.1°C | 42.7% | 497.3hPa | 0V | 00:00:00 | 00:00:00 | 00:00:00 | |
| OM5KV | 2026-09-03 23:33:53 | 47.36427 | 19.27200 | 142° | 84km/h | 5818m | 4.6m/s | -14.8°C | 45.1% | 499.8hPa | 0V | 00:00:00 | 00:00:00 | 00:00:00 | |
| OM5KV | 2026-09-03 23:33:51 | 47.36458 | 19.27166 | 149° | 69km/h | 5808m | 6.2m/s | -14.7°C | 45.3% | 500.5hPa | 0V | 00:00:00 | 00:00:00 | 00:00:00 | |
| OM5KV | 2026-09-03 23:33:48 | 47.36497 | 19.27130 | 141° | 57km/h | 5787m | 6.2m/s | -14.5°C | 44.6% | 501.9hPa | 0V | 00:00:00 | 00:00:00 | 00:00:00 | |
| OM5KV | 2026-09-03 23:33:45 | 47.36530 | 19.27092 | 155° | 58km/h | 5768m | 5.5m/s | -14.3°C | 44.0% | 503.1hPa | 0V | 00:00:00 | 00:00:00 | 00:00:00 | |
| OM5KV | 2026-09-03 23:33:34 | 47.36687 | 19.26943 | 154° | 60km/h | 5695m | 5.7m/s | -13.6°C | 39.7% | 508.1hPa | 0V | 00:00:00 | 00:00:00 | 00:00:00 | |
| OM5KV | 2026-09-03 23:33:30 | 47.36757 | 19.26873 | 142° | 62km/h | 5664m | 6.4m/s | -13.2°C | 37.1% | 510.1hPa | 0V | 00:00:00 | 00:00:00 | 00:00:00 | |
| OM5KV | 2026-09-03 23:33:24 | 47.36840 | 19.26795 | 149° | 53km/h | 5623m | 6.4m/s | -12.9°C | 42.6% | 512.9hPa | 0V | 00:00:00 | 00:00:00 | 00:00:00 | |
| OM5KV | 2026-09-03 23:33:17 | 47.36924 | 19.26704 | 139° | 68km/h | 5585m | 6.1m/s | -12.5°C | 43.0% | 515.5hPa | 0V | 00:00:00 | 00:00:00 | 00:00:00 | |
| ATIDSZ-14 | 2026-09-03 23:33:16 | 47.36953 | 19.26674 | 151° | 75km/h | 5573m | 5.3m/s | 0°C | 0% | 0hPa | 0V | 00:00:00 | 00:00:00 | 00:00:00 | |
| OM5KV | 2026-09-03 23:33:11 | 47.37023 | 19.26612 | 148° | 82km/h | 5550m | 3.4m/s | -12.2°C | 38.2% | 517.8hPa | 0V | 00:00:00 | 00:00:00 | 00:00:00 | |
| OM5KV | 2026-09-03 23:33:10 | 47.37041 | 19.26596 | 150° | 84km/h | 5546m | 6.7m/s | -12.1°C | 35.6% | 518.2hPa | 0V | 00:00:00 | 00:00:00 | 00:00:00 | |
| GYPAP8-17 | 2026-09-03 23:33:05 | 47.37123 | 19.26543 | 147° | 60km/h | 5515m | 9.7m/s | 0°C | 0% | 0hPa | 0V | 00:00:00 | 00:00:00 | 00:00:00 | |
| OM5KV | 2026-09-03 23:33:04 | 47.37135 | 19.26529 | 138° | 60km/h | 5506m | 8.9m/s | -11.8°C | 36.4% | 521.0hPa | 0V | 00:00:00 | 00:00:00 | 00:00:00 | |
| OM5KV | 2026-09-03 23:33:01 | 47.37164 | 19.26481 | 134° | 49km/h | 5488m | 4.4m/s | -11.7°C | 39.1% | 522.0hPa | 0V | 00:00:00 | 00:00:00 | 00:00:00 | |
| OM5KV | 2026-09-03 23:32:58 | 47.37196 | 19.26453 | 163° | 57km/h | 5474m | 4.6m/s | -11.6°C | 42.8% | 523.0hPa | 0V | 00:00:00 | 00:00:00 | 00:00:00 | |
| ATIDSZ-14 | 2026-09-03 23:32:55 | 47.37244 | 19.26426 | 155° | 75km/h | 5460m | 5.0m/s | 0°C | 0% | 0hPa | 0V | 00:00:00 | 00:00:00 | 00:00:00 | |
| OM5KV | 2026-09-03 23:32:49 | 47.37338 | 19.26327 | 132° | 53km/h | 5430m | 7.3m/s | -11.6°C | 55.4% | 526.2hPa | 0V | 00:00:00 | 00:00:00 | 00:00:00 | |
| OM5KV | 2026-09-03 23:32:48 | 47.37346 | 19.26311 | 126° | 53km/h | 5422m | 9.4m/s | -11.5°C | 56.2% | 526.6hPa | 0V | 00:00:00 | 00:00:00 | 00:00:00 | |
| OM5KV | 2026-09-03 23:32:43 | 47.37411 | 19.26233 | 144° | 58km/h | 5381m | 6.0m/s | -11.2°C | 57.6% | 529.5hPa | 0V | 00:00:00 | 00:00:00 | 00:00:00 | |
| OM5KV | 2026-09-03 23:32:36 | 47.37495 | 19.26134 | 136° | 73km/h | 5337m | 6.0m/s | -10.9°C | 55.2% | 532.6hPa | 0V | 00:00:00 | 00:00:00 | 00:00:00 | |
| ATIDSZ-14 | 2026-09-03 23:32:34 | 47.37509 | 19.26115 | 143° | 73km/h | 5331m | 5.6m/s | 0°C | 0% | 0hPa | 0V | 00:00:00 | 00:00:00 | 00:00:00 | |
| OM5KV | 2026-09-03 23:32:32 | 47.37533 | 19.26090 | 147° | 46km/h | 5320m | 6.1m/s | -10.8°C | 51.7% | 533.7hPa | 0V | 00:00:00 | 00:00:00 | 00:00:00 | |
| OM5KV | 2026-09-03 23:32:31 | 47.37541 | 19.26079 | 130° | 44km/h | 5313m | 5.9m/s | -10.8°C | 50.1% | 534.1hPa | 0V | 00:00:00 | 00:00:00 | 00:00:00 | |
| OM5KV | 2026-09-03 23:32:21 | 47.37646 | 19.25919 | 146° | 68km/h | 5250m | 7.4m/s | -10.5°C | 46.8% | 538.6hPa | 0V | 00:00:00 | 00:00:00 | 00:00:00 | |
| OM5KV | 2026-09-03 23:32:20 | 47.37659 | 19.25906 | 150° | 60km/h | 5243m | 8.1m/s | -10.5°C | 44.3% | 539.2hPa | 0V | 00:00:00 | 00:00:00 | 00:00:00 | |
| OM5KV | 2026-09-03 23:32:18 | 47.37677 | 19.25883 | 124° | 42km/h | 5229m | 5.5m/s | -10.4°C | 43.3% | 540.2hPa | 0V | 00:00:00 | 00:00:00 | 00:00:00 | |
| ATIDSZ-14 | 2026-09-03 23:32:14 | 47.37710 | 19.25836 | 145° | 66km/h | 5202m | 7.0m/s | 0°C | 0% | 0hPa | 0V | 00:00:00 | 00:00:00 | 00:00:00 | |
| OM5KV | 2026-09-03 23:32:08 | 47.37772 | 19.25708 | 146° | 66km/h | 5157m | 6.5m/s | -10.2°C | 35.2% | 545.1hPa | 0V | 00:00:00 | 00:00:00 | 00:00:00 | |
| OM5KV | 2026-09-03 23:32:04 | 47.37815 | 19.25647 | 124° | 84km/h | 5138m | 3.9m/s | -10.1°C | 34.4% | 546.4hPa | 0V | 00:00:00 | 00:00:00 | 00:00:00 | |
| OM5KV | 2026-09-03 23:31:57 | 47.37887 | 19.25497 | 122° | 71km/h | 5091m | 6.7m/s | -9.9°C | 37.5% | 550.0hPa | 0V | 00:00:00 | 00:00:00 | 00:00:00 | |
| ATIDSZ-14 | 2026-09-03 23:31:51 | 47.37953 | 19.25419 | 139° | 86km/h | 5058m | 5.9m/s | 0°C | 0% | 0hPa | 0V | 00:00:00 | 00:00:00 | 00:00:00 | |
| OM5KV | 2026-09-03 23:31:47 | 47.37993 | 19.25323 | 122° | 62km/h | 5028m | 5.9m/s | -9.5°C | 36.0% | 554.3hPa | 0V | 00:00:00 | 00:00:00 | 00:00:00 | |
| OM5KV | 2026-09-03 23:31:45 | 47.38004 | 19.25302 | 136° | 75km/h | 5021m | 9.0m/s | -9.4°C | 35.4% | 554.7hPa | 0V | 00:00:00 | 00:00:00 | 00:00:00 | |
| OM5KV | 2026-09-03 23:31:40 | 47.38069 | 19.25234 | 116° | 51km/h | 4985m | 9.3m/s | -9.0°C | 34.7% | 557.3hPa | 0V | 00:00:00 | 00:00:00 | 00:00:00 | |
| GYPAP8-17 | 2026-09-03 23:31:36 | 47.38110 | 19.25168 | 150° | 73km/h | 4950m | 9.8m/s | 0°C | 0% | 0hPa | 0V | 00:00:00 | 00:00:00 | 00:00:00 | |
| OM5KV | 2026-09-03 23:31:33 | 47.38152 | 19.25122 | 135° | 55km/h | 4927m | 7.6m/s | -8.6°C | 31.3% | 561.5hPa | 0V | 00:00:00 | 00:00:00 | 00:00:00 | |
| ATIDSZ-14 | 2026-09-03 23:31:29 | 47.38196 | 19.25072 | 138° | 73km/h | 4899m | 7.1m/s | 0°C | 0% | 0hPa | 0V | 00:00:00 | 00:00:00 | 00:00:00 | |
| OM5KV | 2026-09-03 23:31:22 | 47.38276 | 19.24969 | 121° | 62km/h | 4849m | 6.5m/s | -8.0°C | 22.8% | 567.2hPa | 0V | 00:00:00 | 00:00:00 | 00:00:00 | |
| OM5KV | 2026-09-03 23:31:21 | 47.38284 | 19.24952 | 125° | 51km/h | 4842m | 6.1m/s | -7.9°C | 23.1% | 567.6hPa | 0V | 00:00:00 | 00:00:00 | 00:00:00 | |
| OM5KV | 2026-09-03 23:31:18 | 47.38323 | 19.24918 | 154° | 73km/h | 4820m | 6.5m/s | -7.8°C | 29.3% | 569.4hPa | 0V | 00:00:00 | 00:00:00 | 00:00:00 | |
| OM5KV | 2026-09-03 23:31:17 | 47.38338 | 19.24904 | 143° | 66km/h | 4813m | 6.9m/s | -7.7°C | 28.9% | 569.9hPa | 0V | 00:00:00 | 00:00:00 | 00:00:00 | |
| OM5KV | 2026-09-03 23:31:14 | 47.38361 | 19.24861 | 139° | 37km/h | 4792m | 5.1m/s | -7.5°C | 29.7% | 571.5hPa | 0V | 00:00:00 | 00:00:00 | 00:00:00 | |
| OM5KV | 2026-09-03 23:31:11 | 47.38386 | 19.24841 | 158° | 42km/h | 4774m | 5.8m/s | -7.4°C | 31.3% | 572.8hPa | 0V | 00:00:00 | 00:00:00 | 00:00:00 | |
| ATIDSZ-14 | 2026-09-03 23:31:08 | 47.38427 | 19.24816 | 158° | 66km/h | 4756m | 5.6m/s | 0°C | 0% | 0hPa | 0V | 00:00:00 | 00:00:00 | 00:00:00 | |
| OM5KV | 2026-09-03 23:31:07 | 47.38440 | 19.24806 | 147° | 53km/h | 4750m | 6.4m/s | -7.1°C | 20.9% | 574.8hPa | 0V | 00:00:00 | 00:00:00 | 00:00:00 | |
| OM5KV | 2026-09-03 23:31:00 | 47.38490 | 19.24716 | 153° | 40km/h | 4707m | 5.2m/s | -6.7°C | 10.6% | 577.9hPa | 0V | 00:00:00 | 00:00:00 | 00:00:00 | |
| OM5KV | 2026-09-03 23:30:59 | 47.38501 | 19.24706 | 150° | 57km/h | 4701m | 7.0m/s | -6.7°C | 10.1% | 578.3hPa | 0V | 00:00:00 | 00:00:00 | 00:00:00 | |
| OM5KV | 2026-09-03 23:30:56 | 47.38547 | 19.24673 | 155° | 53km/h | 4681m | 4.8m/s | -6.5°C | 9.6% | 579.8hPa | 0V | 00:00:00 | 00:00:00 | 00:00:00 | |
| OM5KV | 2026-09-03 23:30:54 | 47.38562 | 19.24650 | 116° | 38km/h | 4668m | 6.6m/s | -6.4°C | 10.1% | 580.5hPa | 0V | 00:00:00 | 00:00:00 | 00:00:00 | |
| OM5KV | 2026-09-03 23:30:50 | 47.38599 | 19.24616 | 159° | 77km/h | 4644m | 7.2m/s | -6.3°C | 8.5% | 582.2hPa | 0V | 00:00:00 | 00:00:00 | 00:00:00 | |
| OM5KV | 2026-09-03 23:30:49 | 47.38617 | 19.24603 | 148° | 78km/h | 4637m | 5.7m/s | -6.5°C | 10.1% | 582.6hPa | 0V | 00:00:00 | 00:00:00 | 00:00:00 | |
| ATIDSZ-14 | 2026-09-03 23:30:44 | 47.38657 | 19.24523 | 153° | 38km/h | 4606m | 6.0m/s | 0°C | 0% | 0hPa | 0V | 00:00:00 | 00:00:00 | 00:00:00 | |
| OM5KV | 2026-09-03 23:30:43 | 47.38668 | 19.24515 | 154° | 53km/h | 4601m | 5.6m/s | -6.5°C | 18.9% | 585.5hPa | 0V | 00:00:00 | 00:00:00 | 00:00:00 | |
| OM5KV | 2026-09-03 23:30:42 | 47.38680 | 19.24503 | 143° | 62km/h | 4595m | 7.0m/s | -6.5°C | 21.5% | 586.0hPa | 0V | 00:00:00 | 00:00:00 | 00:00:00 | |
| OM5KV | 2026-09-03 23:30:33 | 47.38764 | 19.24363 | 140° | 55km/h | 4527m | 7.9m/s | -6.8°C | 51.7% | 591.0hPa | 0V | 00:00:00 | 00:00:00 | 00:00:00 | |
| OM5KV | 2026-09-03 23:30:32 | 47.38775 | 19.24348 | 138° | 64km/h | 4519m | 7.6m/s | -6.9°C | 56.3% | 591.7hPa | 0V | 00:00:00 | 00:00:00 | 00:00:00 | |
| OM5KV | 2026-09-03 23:30:28 | 47.38824 | 19.24280 | 139° | 60km/h | 4482m | 6.9m/s | -6.8°C | 76.4% | 594.4hPa | 0V | 00:00:00 | 00:00:00 | 00:00:00 | |
| OM5KV | 2026-09-03 23:30:26 | 47.38834 | 19.24264 | 125° | 58km/h | 4475m | 7.2m/s | -6.8°C | 76.5% | 595.0hPa | 0V | 00:00:00 | 00:00:00 | 00:00:00 | |
| OM5KV | 2026-09-03 23:30:16 | 47.38913 | 19.24129 | 131° | 53km/h | 4403m | 7.4m/s | -6.2°C | 81.9% | 600.5hPa | 0V | 00:00:00 | 00:00:00 | 00:00:00 | |
| OM5KV | 2026-09-03 23:30:08 | 47.38978 | 19.24012 | 132° | 35km/h | 4343m | 7.0m/s | -5.7°C | 82.8% | 605.1hPa | 0V | 00:00:00 | 00:00:00 | 00:00:00 | |
| OM5KV | 2026-09-03 23:30:05 | 47.39006 | 19.23970 | 124° | 64km/h | 4322m | 7.2m/s | -5.5°C | 82.0% | 606.8hPa | 0V | 00:00:00 | 00:00:00 | 00:00:00 | |
| OM5KV | 2026-09-03 23:29:59 | 47.39058 | 19.23879 | 125° | 53km/h | 4279m | 7.4m/s | -5.1°C | 80.0% | 610.0hPa | 0V | 00:00:00 | 00:00:00 | 00:00:00 | |
| OM5KV | 2026-09-03 23:29:58 | 47.39066 | 19.23864 | 127° | 44km/h | 4271m | 8.2m/s | -5.0°C | 79.6% | 610.7hPa | 0V | 00:00:00 | 00:00:00 | 00:00:00 | |
| OM5KV | 2026-09-03 23:29:52 | 47.39114 | 19.23779 | 129° | 64km/h | 4224m | 8.2m/s | -4.7°C | 78.5% | 614.3hPa | 0V | 00:00:00 | 00:00:00 | 00:00:00 | |
| OM5KV | 2026-09-03 23:29:51 | 47.39123 | 19.23759 | 122° | 64km/h | 4217m | 6.8m/s | -4.7°C | 79.0% | 614.9hPa | 0V | 00:00:00 | 00:00:00 | 00:00:00 | |
| OM5KV | 2026-09-03 23:29:46 | 47.39165 | 19.23678 | 119° | 58km/h | 4181m | 6.4m/s | -4.6°C | 83.8% | 617.8hPa | 0V | 00:00:00 | 00:00:00 | 00:00:00 | |
| OM5KV | 2026-09-03 23:29:40 | 47.39205 | 19.23594 | 113° | 53km/h | 4139m | 6.9m/s | -4.3°C | 81.0% | 620.9hPa | 0V | 00:00:00 | 00:00:00 | 00:00:00 | |
| OM5KV | 2026-09-03 23:29:39 | 47.39210 | 19.23578 | 118° | 40km/h | 4132m | 7.0m/s | -4.2°C | 80.6% | 621.6hPa | 0V | 00:00:00 | 00:00:00 | 00:00:00 | |
| OM5KV | 2026-09-03 23:29:35 | 47.39246 | 19.23509 | 121° | 49km/h | 4096m | 7.5m/s | -4.0°C | 80.2% | 624.3hPa | 0V | 00:00:00 | 00:00:00 | 00:00:00 | |
| OM5KV | 2026-09-03 23:29:34 | 47.39246 | 19.23509 | 121° | 49km/h | 4096m | 7.5m/s | -4.0°C | 80.2% | 624.3hPa | 0V | 00:00:00 | 00:00:00 | 00:00:00 | |
| OM5KV | 2026-09-03 23:29:33 | 47.39253 | 19.23493 | 130° | 55km/h | 4088m | 8.0m/s | -4.0°C | 80.7% | 624.8hPa | 0V | 00:00:00 | 00:00:00 | 00:00:00 | |
| OM5KV | 2026-09-03 23:29:29 | 47.39282 | 19.23440 | 140° | 33km/h | 4058m | 6.7m/s | -4.0°C | 84.0% | 627.2hPa | 0V | 00:00:00 | 00:00:00 | 00:00:00 | |
| OM5KV | 2026-09-03 23:29:27 | 47.39297 | 19.23417 | 128° | 51km/h | 4045m | 7.5m/s | -3.9°C | 83.5% | 628.4hPa | 0V | 00:00:00 | 00:00:00 | 00:00:00 | |
| OM5KV | 2026-09-03 23:29:26 | 47.39304 | 19.23401 | 120° | 49km/h | 4037m | 8.3m/s | -3.8°C | 82.9% | 628.9hPa | 0V | 00:00:00 | 00:00:00 | 00:00:00 | |
| OM5KV | 2026-09-03 23:29:21 | 47.39339 | 19.23333 | 128° | 38km/h | 3998m | 7.8m/s | -3.5°C | 73.4% | 632.0hPa | 0V | 00:00:00 | 00:00:00 | 00:00:00 | |
| OM5KV | 2026-09-03 23:29:18 | 47.39363 | 19.23302 | 133° | 55km/h | 3975m | 6.9m/s | -3.3°C | 73.8% | 633.7hPa | 0V | 00:00:00 | 00:00:00 | 00:00:00 | |
| OM5KV | 2026-09-03 23:29:12 | 47.39407 | 19.23232 | 123° | 46km/h | 3932m | 7.0m/s | -3.0°C | 74.2% | 637.1hPa | 0V | 00:00:00 | 00:00:00 | 00:00:00 | |
| OM5KV | 2026-09-03 23:29:10 | 47.39423 | 19.23206 | 142° | 53km/h | 3917m | 7.2m/s | -3.0°C | 75.5% | 638.3hPa | 0V | 00:00:00 | 00:00:00 | 00:00:00 | |
| OM5KV | 2026-09-03 23:29:07 | 47.39451 | 19.23167 | 133° | 38km/h | 3896m | 6.3m/s | -2.8°C | 77.6% | 640.1hPa | 0V | 00:00:00 | 00:00:00 | 00:00:00 | |
| OM5KV | 2026-09-03 23:29:01 | 47.39497 | 19.23098 | 148° | 53km/h | 3852m | 6.4m/s | -2.6°C | 81.5% | 644.2hPa | 0V | 00:00:00 | 00:00:00 | 00:00:00 | |
| OM5KV | 2026-09-03 23:28:55 | 47.39547 | 19.23050 | 132° | 46km/h | 3811m | 7.2m/s | -2.3°C | 82.6% | 647.1hPa | 0V | 00:00:00 | 00:00:00 | 00:00:00 | |
| OM5KV | 2026-09-03 23:28:51 | 47.39577 | 19.22992 | 138° | 53km/h | 3783m | 8.1m/s | -2.2°C | 85.3% | 649.5hPa | 0V | 00:00:00 | 00:00:00 | 00:00:00 | |
| OM5KV | 2026-09-03 23:28:49 | 47.39593 | 19.22964 | 131° | 42km/h | 3767m | 7.9m/s | -2.1°C | 86.5% | 650.6hPa | 0V | 00:00:00 | 00:00:00 | 00:00:00 | |
| OM5KV | 2026-09-03 23:28:46 | 47.39622 | 19.22930 | 137° | 58km/h | 3745m | 7.1m/s | -1.9°C | 86.6% | 652.5hPa | 0V | 00:00:00 | 00:00:00 | 00:00:00 | |
| OM5KV | 2026-09-03 23:28:41 | 47.39679 | 19.22869 | 130° | 44km/h | 3705m | 6.7m/s | -1.7°C | 92.3% | 655.8hPa | 0V | 00:00:00 | 00:00:00 | 00:00:00 | |
| OM5KV | 2026-09-03 23:28:35 | 47.39717 | 19.22812 | 132° | 38km/h | 3673m | 8.5m/s | -1.4°C | 91.6% | 658.3hPa | 0V | 00:00:00 | 00:00:00 | 00:00:00 | |
| OM5KV | 2026-09-03 23:28:34 | 47.39723 | 19.22803 | 137° | 27km/h | 3667m | 4.8m/s | -1.4°C | 91.5% | 659.1hPa | 0V | 00:00:00 | 00:00:00 | 00:00:00 | |
| OM5KV | 2026-09-03 23:28:27 | 47.39783 | 19.22726 | 130° | 47km/h | 3619m | 6.6m/s | -0.9°C | 86.4% | 663.5hPa | 0V | 00:00:00 | 00:00:00 | 00:00:00 | |
| OM5KV | 2026-09-03 23:28:23 | 47.39818 | 19.22682 | 132° | 49km/h | 3585m | 8.1m/s | -0.6°C | 84.4% | 665.8hPa | 0V | 00:00:00 | 00:00:00 | 00:00:00 | |
| OM5KV | 2026-09-03 23:28:22 | 47.39824 | 19.22668 | 114° | 40km/h | 3577m | 7.3m/s | -0.5°C | 83.9% | 666.5hPa | 0V | 00:00:00 | 00:00:00 | 00:00:00 | |
| OM5KV | 2026-09-03 23:28:13 | 47.39887 | 19.22583 | 146° | 47km/h | 3522m | 7.0m/s | 0.0°C | 81.1% | 671.0hPa | 0V | 00:00:00 | 00:00:00 | 00:00:00 | |
| OM5KV | 2026-09-03 23:28:12 | 47.39895 | 19.22572 | 132° | 37km/h | 3515m | 7.5m/s | 0.1°C | 80.6% | 671.7hPa | 0V | 00:00:00 | 00:00:00 | 00:00:00 | |
| OM5KV | 2026-09-03 23:28:07 | 47.39930 | 19.22524 | 128° | 38km/h | 3482m | 6.8m/s | 0.4°C | 78.9% | 674.5hPa | 0V | 00:00:00 | 00:00:00 | 00:00:00 | |
| OM5KV | 2026-09-03 23:28:06 | 47.39936 | 19.22515 | 144° | 29km/h | 3475m | 7.5m/s | 0.5°C | 78.6% | 675.1hPa | 0V | 00:00:00 | 00:00:00 | 00:00:00 | |
| OM5KV | 2026-09-03 23:28:02 | 47.39971 | 19.22477 | 143° | 22km/h | 3440m | 6.3m/s | 0.8°C | 76.0% | 678.0hPa | 0V | 00:00:00 | 00:00:00 | 00:00:00 | |
| OM5KV | 2026-09-03 23:28:00 | 47.39984 | 19.22461 | 133° | 42km/h | 3428m | 6.9m/s | 0.9°C | 75.2% | 679.0hPa | 0V | 00:00:00 | 00:00:00 | 00:00:00 | |
| OM5KV | 2026-09-03 23:27:56 | 47.39999 | 19.22428 | 145° | 38km/h | 3406m | 7.7m/s | 1.1°C | 69.7% | 680.8hPa | 0V | 00:00:00 | 00:00:00 | 00:00:00 | |
| OM5KV | 2026-09-03 23:27:50 | 47.40047 | 19.22378 | 137° | 40km/h | 3366m | 7.0m/s | 1.5°C | 63.0% | 684.4hPa | 0V | 00:00:00 | 00:00:00 | 00:00:00 | |
| OM5KV | 2026-09-03 23:27:49 | 47.40053 | 19.22365 | 121° | 46km/h | 3359m | 7.0m/s | 1.6°C | 61.5% | 685.1hPa | 0V | 00:00:00 | 00:00:00 | 00:00:00 | |
| OM5KV | 2026-09-03 23:27:48 | 47.40058 | 19.22351 | 114° | 35km/h | 3352m | 6.4m/s | 1.7°C | 61.7% | 685.7hPa | 0V | 00:00:00 | 00:00:00 | 00:00:00 | |
| OM5KV | 2026-09-03 23:27:44 | 47.40090 | 19.22301 | 126° | 37km/h | 3318m | 5.7m/s | 2.0°C | 61.2% | 688.6hPa | 0V | 00:00:00 | 00:00:00 | 00:00:00 | |
| OM5KV | 2026-09-03 23:27:39 | 47.40125 | 19.22256 | 147° | 27km/h | 3286m | 6.8m/s | 2.3°C | 61.2% | 691.4hPa | 0V | 00:00:00 | 00:00:00 | 00:00:00 | |
| OM5KV | 2026-09-03 23:27:38 | 47.40133 | 19.22249 | 146° | 44km/h | 3279m | 6.7m/s | 2.4°C | 60.5% | 692.1hPa | 0V | 00:00:00 | 00:00:00 | 00:00:00 | |
| OM5KV | 2026-09-03 23:27:32 | 47.40179 | 19.22191 | 143° | 60km/h | 3238m | 5.6m/s | 2.8°C | 50.6% | 695.6hPa | 0V | 00:00:00 | 00:00:00 | 00:00:00 | |
| OM5KV | 2026-09-03 23:27:26 | 47.40208 | 19.22140 | 164° | 53km/h | 3206m | 8.2m/s | 3.1°C | 49.2% | 698.4hPa | 0V | 00:00:00 | 00:00:00 | 00:00:00 | |
| OM5KV | 2026-09-03 23:27:25 | 47.40222 | 19.22131 | 149° | 66km/h | 3199m | 5.6m/s | 3.1°C | 48.8% | 698.9hPa | 0V | 00:00:00 | 00:00:00 | 00:00:00 | |
| OM5KV | 2026-09-03 23:27:22 | 47.40247 | 19.22065 | 120° | 35km/h | 3178m | 6.9m/s | 3.3°C | 50.2% | 700.7hPa | 0V | 00:00:00 | 00:00:00 | 00:00:00 | |
| OM5KV | 2026-09-03 23:27:20 | 47.40254 | 19.22057 | 162° | 38km/h | 3172m | 7.3m/s | 3.3°C | 50.1% | 701.2hPa | 0V | 00:00:00 | 00:00:00 | 00:00:00 | |
| OM5KV | 2026-09-03 23:27:15 | 47.40303 | 19.22001 | 178° | 27km/h | 3139m | 4.5m/s | 3.6°C | 49.7% | 704.1hPa | 0V | 00:00:00 | 00:00:00 | 00:00:00 | |
| OM5KV | 2026-09-03 23:27:09 | 47.40357 | 19.21931 | 136° | 18km/h | 3107m | 6.4m/s | 3.9°C | 41.7% | 706.9hPa | 0V | 00:00:00 | 00:00:00 | 00:00:00 | |
| OM5KV | 2026-09-03 23:27:08 | 47.40357 | 19.21931 | 136° | 18km/h | 3107m | 6.4m/s | 3.9°C | 41.7% | 706.9hPa | 0V | 00:00:00 | 00:00:00 | 00:00:00 | |
| OM5KV | 2026-09-03 23:26:58 | 47.40446 | 19.21843 | 176° | 57km/h | 3054m | 2.8m/s | 4.3°C | 36.8% | 711.8hPa | 0V | 00:00:00 | 00:00:00 | 00:00:00 | |
| OM5KV | 2026-09-03 23:26:52 | 47.40493 | 19.21790 | 164° | 57km/h | 3016m | 8.2m/s | 4.5°C | 35.5% | 714.7hPa | 0V | 00:00:00 | 00:00:00 | 00:00:00 | |
| OM5KV | 2026-09-03 23:26:51 | 47.40508 | 19.21779 | 147° | 71km/h | 3009m | 6.3m/s | 4.6°C | 33.8% | 715.4hPa | 0V | 00:00:00 | 00:00:00 | 00:00:00 | |
| OM5KV | 2026-09-03 23:26:41 | 47.40591 | 19.21650 | 101° | 31km/h | 2953m | 6.4m/s | 4.9°C | 18.4% | 720.0hPa | 0V | 00:00:00 | 00:00:00 | 00:00:00 | |
| OM5KV | 2026-09-03 23:26:38 | 47.40614 | 19.21634 | 162° | 64km/h | 2935m | 6.3m/s | 5.0°C | 16.5% | 721.5hPa | 0V | 00:00:00 | 00:00:00 | 00:00:00 | |
| OM5KV | 2026-09-03 23:26:35 | 47.40647 | 19.21596 | 126° | 37km/h | 2919m | 8.4m/s | 4.8°C | 16.5% | 722.9hPa | 0V | 00:00:00 | 00:00:00 | 00:00:00 | |
| OM5KV | 2026-09-03 23:26:33 | 47.40654 | 19.21586 | 149° | 18km/h | 2906m | 3.9m/s | 4.6°C | 18.3% | 724.1hPa | 0V | 00:00:00 | 00:00:00 | 00:00:00 | |
| OM5KV | 2026-09-03 23:26:32 | 47.40659 | 19.21579 | 138° | 35km/h | 2901m | 7.2m/s | 4.6°C | 18.2% | 724.6hPa | 0V | 00:00:00 | 00:00:00 | 00:00:00 | |
| OM5KV | 2026-09-03 23:26:25 | 47.40707 | 19.21502 | 151° | 27km/h | 2852m | 7.8m/s | 3.7°C | 47.2% | 728.8hPa | 0V | 00:00:00 | 00:00:00 | 00:00:00 | |
| OM5KV | 2026-09-03 23:26:22 | 47.40730 | 19.21474 | 117° | 40km/h | 2833m | 7.8m/s | 3.7°C | 53.3% | 730.5hPa | 0V | 00:00:00 | 00:00:00 | 00:00:00 | |
| OM5KV | 2026-09-03 23:26:19 | 47.40753 | 19.21431 | 117° | 49km/h | 2806m | 6.6m/s | 3.7°C | 59.3% | 733.0hPa | 0V | 00:00:00 | 00:00:00 | 00:00:00 | |
| OM5KV | 2026-09-03 23:26:12 | 47.40786 | 19.21351 | 133° | 38km/h | 2765m | 5.7m/s | 3.8°C | 64.2% | 736.7hPa | 0V | 00:00:00 | 00:00:00 | 00:00:00 | |
| OM5KV | 2026-09-03 23:26:06 | 47.40827 | 19.21285 | 136° | 49km/h | 2723m | 6.3m/s | 4.1°C | 60.8% | 740.5hPa | 0V | 00:00:00 | 00:00:00 | 00:00:00 | |
| OM5KV | 2026-09-03 23:26:05 | 47.40834 | 19.21271 | 122° | 46km/h | 2716m | 7.3m/s | 4.1°C | 61.0% | 741.0hPa | 0V | 00:00:00 | 00:00:00 | 00:00:00 | |
| OM5KV | 2026-09-03 23:26:01 | 47.40858 | 19.21220 | 123° | 47km/h | 2685m | 7.2m/s | 4.2°C | 66.4% | 743.8hPa | 0V | 00:00:00 | 00:00:00 | 00:00:00 | |
| OM5KV | 2026-09-03 23:26:00 | 47.40864 | 19.21206 | 124° | 40km/h | 2678m | 6.7m/s | 4.3°C | 67.1% | 744.6hPa | 0V | 00:00:00 | 00:00:00 | 00:00:00 | |
| OM5KV | 2026-09-03 23:25:55 | 47.40906 | 19.21132 | 139° | 53km/h | 2635m | 6.0m/s | 4.5°C | 75.5% | 748.5hPa | 0V | 00:00:00 | 00:00:00 | 00:00:00 | |
| OM5KV | 2026-09-03 23:25:42 | 47.40976 | 19.20990 | 136° | 40km/h | 2552m | 8.0m/s | 4.9°C | 87.2% | 756.1hPa | 0V | 00:00:00 | 00:00:00 | 00:00:00 | |
| OM5KV | 2026-09-03 23:25:39 | 47.40991 | 19.20947 | 103° | 35km/h | 2531m | 5.1m/s | 4.9°C | 88.7% | 758.2hPa | 0V | 00:00:00 | 00:00:00 | 00:00:00 | |
| OM5KV | 2026-09-03 23:25:36 | 47.41008 | 19.20908 | 122° | 49km/h | 2510m | 7.5m/s | 4.9°C | 90.7% | 760.1hPa | 0V | 00:00:00 | 00:00:00 | 00:00:00 | |
| OM5KV | 2026-09-03 23:25:33 | 47.41034 | 19.20862 | 130° | 42km/h | 2482m | 6.2m/s | 5.0°C | 93.1% | 762.8hPa | 0V | 00:00:00 | 00:00:00 | 00:00:00 | |
| OM5KV | 2026-09-03 23:25:28 | 47.41065 | 19.20807 | 118° | 35km/h | 2445m | 6.0m/s | 5.2°C | 93.5% | 766.1hPa | 0V | 00:00:00 | 00:00:00 | 00:00:00 | |
| OM5KV | 2026-09-03 23:25:24 | 47.41088 | 19.20776 | 131° | 44km/h | 2424m | 6.8m/s | 5.4°C | 93.9% | 768.1hPa | 0V | 00:00:00 | 00:00:00 | 00:00:00 | |
| OM5KV | 2026-09-03 23:25:21 | 47.41105 | 19.20744 | 127° | 44km/h | 2402m | 8.2m/s | 5.5°C | 94.6% | 770.1hPa | 0V | 00:00:00 | 00:00:00 | 00:00:00 | |
| OM5KV | 2026-09-03 23:25:19 | 47.41121 | 19.20710 | 148° | 37km/h | 2380m | 7.3m/s | 5.7°C | 94.8% | 772.4hPa | 0V | 00:00:00 | 00:00:00 | 00:00:00 | |
| OM5KV | 2026-09-03 23:25:13 | 47.41154 | 19.20660 | 135° | 40km/h | 2344m | 7.4m/s | 6.0°C | 93.4% | 775.8hPa | 0V | 00:00:00 | 00:00:00 | 00:00:00 | |
| OM5KV | 2026-09-03 23:25:07 | 47.41191 | 19.20586 | 132° | 29km/h | 2294m | 6.4m/s | 6.4°C | 91.8% | 780.5hPa | 0V | 00:00:00 | 00:00:00 | 00:00:00 | |
| OM5KV | 2026-09-03 23:25:06 | 47.41197 | 19.20576 | 131° | 46km/h | 2287m | 8.2m/s | 6.5°C | 91.3% | 781.1hPa | 0V | 00:00:00 | 00:00:00 | 00:00:00 | |
| OM5KV | 2026-09-03 23:25:02 | 47.41217 | 19.20536 | 139° | 37km/h | 2266m | 7.8m/s | 6.7°C | 90.2% | 783.2hPa | 0V | 00:00:00 | 00:00:00 | 00:00:00 | |
| OM5KV | 2026-09-03 23:24:55 | 47.41255 | 19.20460 | 120° | 27km/h | 2216m | 7.6m/s | 7.0°C | 87.3% | 788.0hPa | 0V | 00:00:00 | 00:00:00 | 00:00:00 | |
| OM5KV | 2026-09-03 23:24:54 | 47.41260 | 19.20452 | 141° | 35km/h | 2208m | 8.3m/s | 7.1°C | 86.9% | 788.8hPa | 0V | 00:00:00 | 00:00:00 | 00:00:00 | |
| OM5KV | 2026-09-03 23:24:51 | 47.41275 | 19.20417 | 92° | 24km/h | 2185m | 6.8m/s | 0°C | 0% | 790.8hPa | 0V | 00:00:00 | 00:00:00 | 00:00:00 | |
| OM5KV | 2026-09-03 23:24:45 | 47.41305 | 19.20357 | 133° | 38km/h | 2141m | 7.4m/s | 0°C | 0% | 0hPa | 0V | 00:00:00 | 00:00:00 | 00:00:00 | |
| OM5KV | 2026-09-03 23:24:41 | 47.41327 | 19.20308 | 123° | 37km/h | 2105m | 7.5m/s | 0°C | 0% | 0hPa | 0V | 00:00:00 | 00:00:00 | 00:00:00 | |
| OM5KV | 2026-09-03 23:24:34 | 47.41351 | 19.20243 | 91° | 13km/h | 2060m | 6.2m/s | 0°C | 0% | 0hPa | 0V | 00:00:00 | 00:00:00 | 00:00:00 | |
| OM5KV | 2026-09-03 23:24:30 | 47.41372 | 19.20189 | 132° | 31km/h | 2025m | 7.3m/s | 8.7°C | 0% | 0hPa | 0V | 00:00:00 | 00:00:00 | 00:00:00 | |
| OM5KV | 2026-09-03 23:24:28 | 47.41379 | 19.20181 | 145° | 35km/h | 2017m | 8.2m/s | 0°C | 0% | 0hPa | 0V | 00:00:00 | 00:00:00 | 00:00:00 | |
| OM5KV | 2026-09-03 23:24:24 | 47.41398 | 19.20144 | 144° | 35km/h | 1987m | 7.8m/s | 9.0°C | 0% | 0hPa | 0V | 00:00:00 | 00:00:00 | 00:00:00 | |
| OM5KV | 2026-09-03 23:24:18 | 47.41429 | 19.20094 | 113° | 37km/h | 1943m | 7.3m/s | 9.4°C | 0% | 0hPa | 0V | 00:00:00 | 00:00:00 | 00:00:00 | |
| OM5KV | 2026-09-03 23:24:17 | 47.41431 | 19.20083 | 114° | 26km/h | 1936m | 7.0m/s | 0°C | 0% | 0hPa | 0V | 00:00:00 | 00:00:00 | 00:00:00 | |
| OM5KV | 2026-09-03 23:24:13 | 47.41445 | 19.20053 | 121° | 24km/h | 1908m | 6.6m/s | 9.7°C | 0% | 0hPa | 0V | 00:00:00 | 00:00:00 | 00:00:00 | |
| OM5KV | 2026-09-03 23:24:08 | 47.41469 | 19.20008 | 142° | 29km/h | 1873m | 7.3m/s | 0°C | 0% | 0hPa | 0V | 00:00:00 | 00:00:00 | 00:00:00 | |
| OM5KV | 2026-09-03 23:24:07 | 47.41475 | 19.19999 | 124° | 29km/h | 1865m | 7.8m/s | 0°C | 0% | 0hPa | 0V | 00:00:00 | 00:00:00 | 00:00:00 | |
| OM5KV | 2026-09-03 23:24:03 | 47.41492 | 19.19966 | 115° | 31km/h | 1836m | 7.7m/s | 0°C | 0% | 0hPa | 0V | 00:00:00 | 00:00:00 | 00:00:00 | |
| OM5KV | 2026-09-03 23:23:58 | 47.41522 | 19.19918 | 144° | 27km/h | 1793m | 6.8m/s | 0°C | 0% | 0hPa | 0V | 00:00:00 | 00:00:00 | 00:00:00 | |
| OM5KV | 2026-09-03 23:23:57 | 47.41527 | 19.19909 | 126° | 33km/h | 1785m | 7.5m/s | 0°C | 0% | 0hPa | 0V | 00:00:00 | 00:00:00 | 00:00:00 | |
| OM5KV | 2026-09-03 23:23:51 | 47.41553 | 19.19864 | 131° | 38km/h | 1750m | 7.1m/s | 0°C | 0% | 0hPa | 0V | 00:00:00 | 00:00:00 | 00:00:00 |